<?xml version="1.0" encoding="UTF-8" standalone="no" ?>
<gpx xmlns="http://www.topografix.com/GPX/1/1" xmlns:xsi="http://www.w3.org/2001/XMLSchema-instance" xsi:schemaLocation="http://www.topografix.com/GPX/1/1 http://www.topografix.com/GPX/1/1/gpx.xsd" version="1.1" creator="VisuGPX - https://www.visugpx.com">
  <metadata>
    <name>Randonnée cyclo route Gosnay62 58km</name>
    <desc><![CDATA[Randonnée cyclo route Gosnay62 58km
Facile pas de dénivelé ]]></desc>
  </metadata>
  <wpt lat="50.50753" lon="2.58644">
    <ele>34</ele>
  </wpt>
  <wpt lat="50.50764" lon="2.58612">
    <ele>25</ele>
  </wpt>
  <trk>
    <name><![CDATA[Randonnée cyclo route Gosnay62 58km_1]]></name>
    <trkseg>
      <trkpt lat="50.50753" lon="2.58644">
        <ele>34</ele>
        <time>2012-01-29T07:32:08Z</time>
      </trkpt>
      <trkpt lat="50.50759" lon="2.58633">
        <ele>34</ele>
        <time>2012-01-29T07:32:38Z</time>
      </trkpt>
      <trkpt lat="50.50759" lon="2.58619">
        <ele>34</ele>
        <time>2012-01-29T07:32:53Z</time>
      </trkpt>
      <trkpt lat="50.50757" lon="2.58604">
        <ele>29</ele>
        <time>2012-01-29T07:32:57Z</time>
      </trkpt>
      <trkpt lat="50.5076" lon="2.58586">
        <ele>29</ele>
        <time>2012-01-29T07:33:01Z</time>
      </trkpt>
      <trkpt lat="50.50766" lon="2.58572">
        <ele>29</ele>
        <time>2012-01-29T07:33:04Z</time>
      </trkpt>
      <trkpt lat="50.50775" lon="2.58556">
        <ele>29</ele>
        <time>2012-01-29T07:33:07Z</time>
      </trkpt>
      <trkpt lat="50.50782" lon="2.58546">
        <ele>29</ele>
        <time>2012-01-29T07:33:09Z</time>
      </trkpt>
      <trkpt lat="50.5079" lon="2.58537">
        <ele>29</ele>
        <time>2012-01-29T07:33:11Z</time>
      </trkpt>
      <trkpt lat="50.50798" lon="2.58527">
        <ele>29</ele>
        <time>2012-01-29T07:33:13Z</time>
      </trkpt>
      <trkpt lat="50.50808" lon="2.58514">
        <ele>29</ele>
        <time>2012-01-29T07:33:16Z</time>
      </trkpt>
      <trkpt lat="50.50815" lon="2.58502">
        <ele>29</ele>
        <time>2012-01-29T07:33:19Z</time>
      </trkpt>
      <trkpt lat="50.50823" lon="2.58489">
        <ele>29</ele>
        <time>2012-01-29T07:33:22Z</time>
      </trkpt>
      <trkpt lat="50.50831" lon="2.58475">
        <ele>29</ele>
        <time>2012-01-29T07:33:25Z</time>
      </trkpt>
      <trkpt lat="50.50838" lon="2.58464">
        <ele>29</ele>
        <time>2012-01-29T07:33:27Z</time>
      </trkpt>
      <trkpt lat="50.50847" lon="2.58448">
        <ele>23</ele>
        <time>2012-01-29T07:33:30Z</time>
      </trkpt>
      <trkpt lat="50.50852" lon="2.58436">
        <ele>23</ele>
        <time>2012-01-29T07:33:32Z</time>
      </trkpt>
      <trkpt lat="50.50858" lon="2.58424">
        <ele>23</ele>
        <time>2012-01-29T07:33:34Z</time>
      </trkpt>
      <trkpt lat="50.50863" lon="2.5841">
        <ele>23</ele>
        <time>2012-01-29T07:33:36Z</time>
      </trkpt>
      <trkpt lat="50.50869" lon="2.58396">
        <ele>23</ele>
        <time>2012-01-29T07:33:38Z</time>
      </trkpt>
      <trkpt lat="50.50874" lon="2.58383">
        <ele>23</ele>
        <time>2012-01-29T07:33:40Z</time>
      </trkpt>
      <trkpt lat="50.5088" lon="2.58372">
        <ele>23</ele>
        <time>2012-01-29T07:33:42Z</time>
      </trkpt>
      <trkpt lat="50.50886" lon="2.58362">
        <ele>23</ele>
        <time>2012-01-29T07:33:44Z</time>
      </trkpt>
      <trkpt lat="50.50895" lon="2.5835">
        <ele>23</ele>
        <time>2012-01-29T07:33:47Z</time>
      </trkpt>
      <trkpt lat="50.50905" lon="2.5834">
        <ele>23</ele>
        <time>2012-01-29T07:33:50Z</time>
      </trkpt>
      <trkpt lat="50.50917" lon="2.58336">
        <ele>23</ele>
        <time>2012-01-29T07:33:53Z</time>
      </trkpt>
      <trkpt lat="50.50926" lon="2.58337">
        <ele>23</ele>
        <time>2012-01-29T07:33:55Z</time>
      </trkpt>
      <trkpt lat="50.50939" lon="2.58345">
        <ele>23</ele>
        <time>2012-01-29T07:33:58Z</time>
      </trkpt>
      <trkpt lat="50.50947" lon="2.58355">
        <ele>23</ele>
        <time>2012-01-29T07:34:00Z</time>
      </trkpt>
      <trkpt lat="50.50955" lon="2.58365">
        <ele>23</ele>
        <time>2012-01-29T07:34:02Z</time>
      </trkpt>
      <trkpt lat="50.50963" lon="2.58375">
        <ele>23</ele>
        <time>2012-01-29T07:34:04Z</time>
      </trkpt>
      <trkpt lat="50.50971" lon="2.58386">
        <ele>23</ele>
        <time>2012-01-29T07:34:06Z</time>
      </trkpt>
      <trkpt lat="50.5098" lon="2.58397">
        <ele>23</ele>
        <time>2012-01-29T07:34:08Z</time>
      </trkpt>
      <trkpt lat="50.50988" lon="2.58408">
        <ele>23</ele>
        <time>2012-01-29T07:34:10Z</time>
      </trkpt>
      <trkpt lat="50.50996" lon="2.58419">
        <ele>23</ele>
        <time>2012-01-29T07:34:12Z</time>
      </trkpt>
      <trkpt lat="50.51004" lon="2.58431">
        <ele>23</ele>
        <time>2012-01-29T07:34:14Z</time>
      </trkpt>
      <trkpt lat="50.51012" lon="2.58444">
        <ele>23</ele>
        <time>2012-01-29T07:34:16Z</time>
      </trkpt>
      <trkpt lat="50.51021" lon="2.58457">
        <ele>23</ele>
        <time>2012-01-29T07:34:18Z</time>
      </trkpt>
      <trkpt lat="50.51029" lon="2.58471">
        <ele>23</ele>
        <time>2012-01-29T07:34:20Z</time>
      </trkpt>
      <trkpt lat="50.51039" lon="2.58484">
        <ele>23</ele>
        <time>2012-01-29T07:34:22Z</time>
      </trkpt>
      <trkpt lat="50.51048" lon="2.58497">
        <ele>23</ele>
        <time>2012-01-29T07:34:24Z</time>
      </trkpt>
      <trkpt lat="50.51057" lon="2.58511">
        <ele>23</ele>
        <time>2012-01-29T07:34:26Z</time>
      </trkpt>
      <trkpt lat="50.51065" lon="2.58526">
        <ele>23</ele>
        <time>2012-01-29T07:34:28Z</time>
      </trkpt>
      <trkpt lat="50.51072" lon="2.58541">
        <ele>23</ele>
        <time>2012-01-29T07:34:30Z</time>
      </trkpt>
      <trkpt lat="50.5108" lon="2.58558">
        <ele>23</ele>
        <time>2012-01-29T07:34:32Z</time>
      </trkpt>
      <trkpt lat="50.51087" lon="2.58574">
        <ele>23</ele>
        <time>2012-01-29T07:34:34Z</time>
      </trkpt>
      <trkpt lat="50.51095" lon="2.58589">
        <ele>23</ele>
        <time>2012-01-29T07:34:36Z</time>
      </trkpt>
      <trkpt lat="50.51102" lon="2.58605">
        <ele>23</ele>
        <time>2012-01-29T07:34:38Z</time>
      </trkpt>
      <trkpt lat="50.5111" lon="2.58619">
        <ele>23</ele>
        <time>2012-01-29T07:34:40Z</time>
      </trkpt>
      <trkpt lat="50.51121" lon="2.58623">
        <ele>23</ele>
        <time>2012-01-29T07:34:42Z</time>
      </trkpt>
      <trkpt lat="50.51131" lon="2.58615">
        <ele>23</ele>
        <time>2012-01-29T07:34:44Z</time>
      </trkpt>
      <trkpt lat="50.51141" lon="2.58605">
        <ele>23</ele>
        <time>2012-01-29T07:34:46Z</time>
      </trkpt>
      <trkpt lat="50.51153" lon="2.58601">
        <ele>23</ele>
        <time>2012-01-29T07:34:48Z</time>
      </trkpt>
      <trkpt lat="50.51165" lon="2.58606">
        <ele>23</ele>
        <time>2012-01-29T07:34:50Z</time>
      </trkpt>
      <trkpt lat="50.51174" lon="2.58619">
        <ele>23</ele>
        <time>2012-01-29T07:34:52Z</time>
      </trkpt>
      <trkpt lat="50.51182" lon="2.58635">
        <ele>23</ele>
        <time>2012-01-29T07:34:54Z</time>
      </trkpt>
      <trkpt lat="50.51189" lon="2.5865">
        <ele>23</ele>
        <time>2012-01-29T07:34:56Z</time>
      </trkpt>
      <trkpt lat="50.51197" lon="2.58665">
        <ele>23</ele>
        <time>2012-01-29T07:34:58Z</time>
      </trkpt>
      <trkpt lat="50.51203" lon="2.58682">
        <ele>23</ele>
        <time>2012-01-29T07:35:00Z</time>
      </trkpt>
      <trkpt lat="50.51208" lon="2.587">
        <ele>23</ele>
        <time>2012-01-29T07:35:02Z</time>
      </trkpt>
      <trkpt lat="50.51213" lon="2.58719">
        <ele>23</ele>
        <time>2012-01-29T07:35:04Z</time>
      </trkpt>
      <trkpt lat="50.51217" lon="2.58739">
        <ele>23</ele>
        <time>2012-01-29T07:35:06Z</time>
      </trkpt>
      <trkpt lat="50.51219" lon="2.5876">
        <ele>23</ele>
        <time>2012-01-29T07:35:08Z</time>
      </trkpt>
      <trkpt lat="50.5122" lon="2.5878">
        <ele>23</ele>
        <time>2012-01-29T07:35:10Z</time>
      </trkpt>
      <trkpt lat="50.51221" lon="2.58799">
        <ele>23</ele>
        <time>2012-01-29T07:35:12Z</time>
      </trkpt>
      <trkpt lat="50.51221" lon="2.58816">
        <ele>23</ele>
        <time>2012-01-29T07:35:14Z</time>
      </trkpt>
      <trkpt lat="50.51222" lon="2.58833">
        <ele>23</ele>
        <time>2012-01-29T07:35:16Z</time>
      </trkpt>
      <trkpt lat="50.51224" lon="2.58846">
        <ele>23</ele>
        <time>2012-01-29T07:35:18Z</time>
      </trkpt>
      <trkpt lat="50.51227" lon="2.58862">
        <ele>23</ele>
        <time>2012-01-29T07:35:21Z</time>
      </trkpt>
      <trkpt lat="50.51232" lon="2.58877">
        <ele>23</ele>
        <time>2012-01-29T07:35:47Z</time>
      </trkpt>
      <trkpt lat="50.51238" lon="2.58892">
        <ele>23</ele>
        <time>2012-01-29T07:35:50Z</time>
      </trkpt>
      <trkpt lat="50.51244" lon="2.58903">
        <ele>23</ele>
        <time>2012-01-29T07:35:52Z</time>
      </trkpt>
      <trkpt lat="50.51252" lon="2.58914">
        <ele>23</ele>
        <time>2012-01-29T07:35:54Z</time>
      </trkpt>
      <trkpt lat="50.5126" lon="2.58926">
        <ele>23</ele>
        <time>2012-01-29T07:35:56Z</time>
      </trkpt>
      <trkpt lat="50.51269" lon="2.58938">
        <ele>23</ele>
        <time>2012-01-29T07:35:58Z</time>
      </trkpt>
      <trkpt lat="50.51279" lon="2.58949">
        <ele>23</ele>
        <time>2012-01-29T07:36:00Z</time>
      </trkpt>
      <trkpt lat="50.5129" lon="2.58961">
        <ele>23</ele>
        <time>2012-01-29T07:36:02Z</time>
      </trkpt>
      <trkpt lat="50.513" lon="2.58971">
        <ele>23</ele>
        <time>2012-01-29T07:36:04Z</time>
      </trkpt>
      <trkpt lat="50.51311" lon="2.58979">
        <ele>23</ele>
        <time>2012-01-29T07:36:06Z</time>
      </trkpt>
      <trkpt lat="50.51323" lon="2.58985">
        <ele>23</ele>
        <time>2012-01-29T07:36:08Z</time>
      </trkpt>
      <trkpt lat="50.51335" lon="2.58992">
        <ele>23</ele>
        <time>2012-01-29T07:36:10Z</time>
      </trkpt>
      <trkpt lat="50.51346" lon="2.58997">
        <ele>23</ele>
        <time>2012-01-29T07:36:12Z</time>
      </trkpt>
      <trkpt lat="50.51355" lon="2.59003">
        <ele>23</ele>
        <time>2012-01-29T07:36:14Z</time>
      </trkpt>
      <trkpt lat="50.51365" lon="2.5901">
        <ele>23</ele>
        <time>2012-01-29T07:36:16Z</time>
      </trkpt>
      <trkpt lat="50.51374" lon="2.59019">
        <ele>23</ele>
        <time>2012-01-29T07:36:18Z</time>
      </trkpt>
      <trkpt lat="50.51382" lon="2.59029">
        <ele>23</ele>
        <time>2012-01-29T07:36:20Z</time>
      </trkpt>
      <trkpt lat="50.51389" lon="2.59043">
        <ele>23</ele>
        <time>2012-01-29T07:36:22Z</time>
      </trkpt>
      <trkpt lat="50.51395" lon="2.59058">
        <ele>23</ele>
        <time>2012-01-29T07:36:24Z</time>
      </trkpt>
      <trkpt lat="50.51401" lon="2.59076">
        <ele>23</ele>
        <time>2012-01-29T07:36:26Z</time>
      </trkpt>
      <trkpt lat="50.51408" lon="2.59095">
        <ele>23</ele>
        <time>2012-01-29T07:36:28Z</time>
      </trkpt>
      <trkpt lat="50.51414" lon="2.59115">
        <ele>23</ele>
        <time>2012-01-29T07:36:30Z</time>
      </trkpt>
      <trkpt lat="50.51422" lon="2.59134">
        <ele>23</ele>
        <time>2012-01-29T07:36:32Z</time>
      </trkpt>
      <trkpt lat="50.5143" lon="2.59151">
        <ele>23</ele>
        <time>2012-01-29T07:36:34Z</time>
      </trkpt>
      <trkpt lat="50.5144" lon="2.59168">
        <ele>23</ele>
        <time>2012-01-29T07:36:36Z</time>
      </trkpt>
      <trkpt lat="50.5145" lon="2.59184">
        <ele>23</ele>
        <time>2012-01-29T07:36:38Z</time>
      </trkpt>
      <trkpt lat="50.5146" lon="2.59199">
        <ele>23</ele>
        <time>2012-01-29T07:36:40Z</time>
      </trkpt>
      <trkpt lat="50.51471" lon="2.59214">
        <ele>23</ele>
        <time>2012-01-29T07:36:42Z</time>
      </trkpt>
      <trkpt lat="50.51481" lon="2.5923">
        <ele>23</ele>
        <time>2012-01-29T07:36:44Z</time>
      </trkpt>
      <trkpt lat="50.5149" lon="2.59243">
        <ele>23</ele>
        <time>2012-01-29T07:36:46Z</time>
      </trkpt>
      <trkpt lat="50.51499" lon="2.59254">
        <ele>23</ele>
        <time>2012-01-29T07:36:48Z</time>
      </trkpt>
      <trkpt lat="50.5151" lon="2.59262">
        <ele>23</ele>
        <time>2012-01-29T07:36:51Z</time>
      </trkpt>
      <trkpt lat="50.5152" lon="2.59263">
        <ele>23</ele>
        <time>2012-01-29T07:36:53Z</time>
      </trkpt>
      <trkpt lat="50.5153" lon="2.59274">
        <ele>23</ele>
        <time>2012-01-29T07:36:55Z</time>
      </trkpt>
      <trkpt lat="50.5154" lon="2.59283">
        <ele>23</ele>
        <time>2012-01-29T07:36:56Z</time>
      </trkpt>
      <trkpt lat="50.51549" lon="2.59305">
        <ele>23</ele>
        <time>2012-01-29T07:36:58Z</time>
      </trkpt>
      <trkpt lat="50.51557" lon="2.59323">
        <ele>23</ele>
        <time>2012-01-29T07:37:00Z</time>
      </trkpt>
      <trkpt lat="50.51563" lon="2.59338">
        <ele>23</ele>
        <time>2012-01-29T07:37:02Z</time>
      </trkpt>
      <trkpt lat="50.51571" lon="2.5935">
        <ele>23</ele>
        <time>2012-01-29T07:37:04Z</time>
      </trkpt>
      <trkpt lat="50.5158" lon="2.59363">
        <ele>23</ele>
        <time>2012-01-29T07:37:06Z</time>
      </trkpt>
      <trkpt lat="50.51589" lon="2.59378">
        <ele>23</ele>
        <time>2012-01-29T07:37:08Z</time>
      </trkpt>
      <trkpt lat="50.51598" lon="2.59393">
        <ele>23</ele>
        <time>2012-01-29T07:37:10Z</time>
      </trkpt>
      <trkpt lat="50.51608" lon="2.59407">
        <ele>23</ele>
        <time>2012-01-29T07:37:12Z</time>
      </trkpt>
      <trkpt lat="50.51617" lon="2.59422">
        <ele>23</ele>
        <time>2012-01-29T07:37:14Z</time>
      </trkpt>
      <trkpt lat="50.51627" lon="2.59435">
        <ele>23</ele>
        <time>2012-01-29T07:37:16Z</time>
      </trkpt>
      <trkpt lat="50.51636" lon="2.5945">
        <ele>23</ele>
        <time>2012-01-29T07:37:18Z</time>
      </trkpt>
      <trkpt lat="50.51645" lon="2.59465">
        <ele>23</ele>
        <time>2012-01-29T07:37:20Z</time>
      </trkpt>
      <trkpt lat="50.51654" lon="2.5948">
        <ele>23</ele>
        <time>2012-01-29T07:37:22Z</time>
      </trkpt>
      <trkpt lat="50.51662" lon="2.59495">
        <ele>23</ele>
        <time>2012-01-29T07:37:24Z</time>
      </trkpt>
      <trkpt lat="50.51672" lon="2.59509">
        <ele>23</ele>
        <time>2012-01-29T07:37:26Z</time>
      </trkpt>
      <trkpt lat="50.51681" lon="2.59523">
        <ele>28</ele>
        <time>2012-01-29T07:37:28Z</time>
      </trkpt>
      <trkpt lat="50.5169" lon="2.59536">
        <ele>28</ele>
        <time>2012-01-29T07:37:30Z</time>
      </trkpt>
      <trkpt lat="50.517" lon="2.59547">
        <ele>28</ele>
        <time>2012-01-29T07:37:32Z</time>
      </trkpt>
      <trkpt lat="50.5171" lon="2.59556">
        <ele>28</ele>
        <time>2012-01-29T07:37:34Z</time>
      </trkpt>
      <trkpt lat="50.51721" lon="2.59565">
        <ele>28</ele>
        <time>2012-01-29T07:37:36Z</time>
      </trkpt>
      <trkpt lat="50.51731" lon="2.59574">
        <ele>28</ele>
        <time>2012-01-29T07:37:38Z</time>
      </trkpt>
      <trkpt lat="50.51741" lon="2.59585">
        <ele>28</ele>
        <time>2012-01-29T07:37:40Z</time>
      </trkpt>
      <trkpt lat="50.5175" lon="2.59599">
        <ele>28</ele>
        <time>2012-01-29T07:37:42Z</time>
      </trkpt>
      <trkpt lat="50.51757" lon="2.59617">
        <ele>28</ele>
        <time>2012-01-29T07:37:44Z</time>
      </trkpt>
      <trkpt lat="50.5176" lon="2.59637">
        <ele>28</ele>
        <time>2012-01-29T07:37:46Z</time>
      </trkpt>
      <trkpt lat="50.51763" lon="2.59657">
        <ele>28</ele>
        <time>2012-01-29T07:37:48Z</time>
      </trkpt>
      <trkpt lat="50.51767" lon="2.59678">
        <ele>28</ele>
        <time>2012-01-29T07:37:50Z</time>
      </trkpt>
      <trkpt lat="50.51772" lon="2.59699">
        <ele>28</ele>
        <time>2012-01-29T07:37:52Z</time>
      </trkpt>
      <trkpt lat="50.51778" lon="2.59718">
        <ele>28</ele>
        <time>2012-01-29T07:37:54Z</time>
      </trkpt>
      <trkpt lat="50.51785" lon="2.59736">
        <ele>28</ele>
        <time>2012-01-29T07:37:56Z</time>
      </trkpt>
      <trkpt lat="50.51793" lon="2.59752">
        <ele>28</ele>
        <time>2012-01-29T07:37:58Z</time>
      </trkpt>
      <trkpt lat="50.51804" lon="2.59757">
        <ele>28</ele>
        <time>2012-01-29T07:38:01Z</time>
      </trkpt>
      <trkpt lat="50.51809" lon="2.59739">
        <ele>28</ele>
        <time>2012-01-29T07:38:04Z</time>
      </trkpt>
      <trkpt lat="50.51812" lon="2.59725">
        <ele>28</ele>
        <time>2012-01-29T07:38:06Z</time>
      </trkpt>
      <trkpt lat="50.51815" lon="2.5971">
        <ele>28</ele>
        <time>2012-01-29T07:38:08Z</time>
      </trkpt>
      <trkpt lat="50.51819" lon="2.59695">
        <ele>28</ele>
        <time>2012-01-29T07:38:10Z</time>
      </trkpt>
      <trkpt lat="50.51822" lon="2.59679">
        <ele>28</ele>
        <time>2012-01-29T07:38:12Z</time>
      </trkpt>
      <trkpt lat="50.51827" lon="2.59662">
        <ele>28</ele>
        <time>2012-01-29T07:38:14Z</time>
      </trkpt>
      <trkpt lat="50.51833" lon="2.59645">
        <ele>28</ele>
        <time>2012-01-29T07:38:16Z</time>
      </trkpt>
      <trkpt lat="50.51839" lon="2.59627">
        <ele>28</ele>
        <time>2012-01-29T07:38:18Z</time>
      </trkpt>
      <trkpt lat="50.51845" lon="2.59609">
        <ele>28</ele>
        <time>2012-01-29T07:38:20Z</time>
      </trkpt>
      <trkpt lat="50.5185" lon="2.59591">
        <ele>28</ele>
        <time>2012-01-29T07:38:22Z</time>
      </trkpt>
      <trkpt lat="50.51857" lon="2.59575">
        <ele>28</ele>
        <time>2012-01-29T07:38:24Z</time>
      </trkpt>
      <trkpt lat="50.51866" lon="2.59559">
        <ele>28</ele>
        <time>2012-01-29T07:38:26Z</time>
      </trkpt>
      <trkpt lat="50.51875" lon="2.59546">
        <ele>28</ele>
        <time>2012-01-29T07:38:28Z</time>
      </trkpt>
      <trkpt lat="50.51884" lon="2.59532">
        <ele>28</ele>
        <time>2012-01-29T07:38:30Z</time>
      </trkpt>
      <trkpt lat="50.51894" lon="2.59521">
        <ele>28</ele>
        <time>2012-01-29T07:38:32Z</time>
      </trkpt>
      <trkpt lat="50.51904" lon="2.59509">
        <ele>28</ele>
        <time>2012-01-29T07:38:34Z</time>
      </trkpt>
      <trkpt lat="50.51915" lon="2.59499">
        <ele>28</ele>
        <time>2012-01-29T07:38:36Z</time>
      </trkpt>
      <trkpt lat="50.51925" lon="2.59489">
        <ele>28</ele>
        <time>2012-01-29T07:38:38Z</time>
      </trkpt>
      <trkpt lat="50.51936" lon="2.59478">
        <ele>28</ele>
        <time>2012-01-29T07:38:40Z</time>
      </trkpt>
      <trkpt lat="50.51947" lon="2.59469">
        <ele>28</ele>
        <time>2012-01-29T07:38:42Z</time>
      </trkpt>
      <trkpt lat="50.51959" lon="2.5946">
        <ele>28</ele>
        <time>2012-01-29T07:38:44Z</time>
      </trkpt>
      <trkpt lat="50.51971" lon="2.59452">
        <ele>28</ele>
        <time>2012-01-29T07:38:46Z</time>
      </trkpt>
      <trkpt lat="50.51983" lon="2.59444">
        <ele>28</ele>
        <time>2012-01-29T07:38:48Z</time>
      </trkpt>
      <trkpt lat="50.51995" lon="2.59438">
        <ele>28</ele>
        <time>2012-01-29T07:38:50Z</time>
      </trkpt>
      <trkpt lat="50.52007" lon="2.59431">
        <ele>28</ele>
        <time>2012-01-29T07:38:52Z</time>
      </trkpt>
      <trkpt lat="50.52019" lon="2.59425">
        <ele>28</ele>
        <time>2012-01-29T07:38:54Z</time>
      </trkpt>
      <trkpt lat="50.52031" lon="2.59417">
        <ele>28</ele>
        <time>2012-01-29T07:38:56Z</time>
      </trkpt>
      <trkpt lat="50.52043" lon="2.5941">
        <ele>28</ele>
        <time>2012-01-29T07:38:58Z</time>
      </trkpt>
      <trkpt lat="50.52055" lon="2.59405">
        <ele>28</ele>
        <time>2012-01-29T07:39:00Z</time>
      </trkpt>
      <trkpt lat="50.52067" lon="2.59399">
        <ele>28</ele>
        <time>2012-01-29T07:39:02Z</time>
      </trkpt>
      <trkpt lat="50.52079" lon="2.59395">
        <ele>28</ele>
        <time>2012-01-29T07:39:04Z</time>
      </trkpt>
      <trkpt lat="50.52092" lon="2.5939">
        <ele>33</ele>
        <time>2012-01-29T07:39:06Z</time>
      </trkpt>
      <trkpt lat="50.52105" lon="2.59389">
        <ele>33</ele>
        <time>2012-01-29T07:39:08Z</time>
      </trkpt>
      <trkpt lat="50.52117" lon="2.59385">
        <ele>33</ele>
        <time>2012-01-29T07:39:10Z</time>
      </trkpt>
      <trkpt lat="50.5213" lon="2.59381">
        <ele>33</ele>
        <time>2012-01-29T07:39:12Z</time>
      </trkpt>
      <trkpt lat="50.52142" lon="2.59377">
        <ele>33</ele>
        <time>2012-01-29T07:39:14Z</time>
      </trkpt>
      <trkpt lat="50.52154" lon="2.59372">
        <ele>33</ele>
        <time>2012-01-29T07:39:16Z</time>
      </trkpt>
      <trkpt lat="50.52166" lon="2.59366">
        <ele>33</ele>
        <time>2012-01-29T07:39:18Z</time>
      </trkpt>
      <trkpt lat="50.52178" lon="2.59361">
        <ele>33</ele>
        <time>2012-01-29T07:39:20Z</time>
      </trkpt>
      <trkpt lat="50.5219" lon="2.59354">
        <ele>33</ele>
        <time>2012-01-29T07:39:22Z</time>
      </trkpt>
      <trkpt lat="50.52203" lon="2.59348">
        <ele>33</ele>
        <time>2012-01-29T07:39:24Z</time>
      </trkpt>
      <trkpt lat="50.52215" lon="2.59342">
        <ele>33</ele>
        <time>2012-01-29T07:39:26Z</time>
      </trkpt>
      <trkpt lat="50.52228" lon="2.59336">
        <ele>33</ele>
        <time>2012-01-29T07:39:28Z</time>
      </trkpt>
      <trkpt lat="50.52241" lon="2.59329">
        <ele>33</ele>
        <time>2012-01-29T07:39:30Z</time>
      </trkpt>
      <trkpt lat="50.52253" lon="2.59323">
        <ele>33</ele>
        <time>2012-01-29T07:39:32Z</time>
      </trkpt>
      <trkpt lat="50.52267" lon="2.59316">
        <ele>33</ele>
        <time>2012-01-29T07:39:34Z</time>
      </trkpt>
      <trkpt lat="50.52281" lon="2.5931">
        <ele>33</ele>
        <time>2012-01-29T07:39:36Z</time>
      </trkpt>
      <trkpt lat="50.52294" lon="2.59303">
        <ele>33</ele>
        <time>2012-01-29T07:39:38Z</time>
      </trkpt>
      <trkpt lat="50.52308" lon="2.59296">
        <ele>33</ele>
        <time>2012-01-29T07:39:40Z</time>
      </trkpt>
      <trkpt lat="50.52322" lon="2.59288">
        <ele>33</ele>
        <time>2012-01-29T07:39:42Z</time>
      </trkpt>
      <trkpt lat="50.52335" lon="2.59281">
        <ele>33</ele>
        <time>2012-01-29T07:39:44Z</time>
      </trkpt>
      <trkpt lat="50.52349" lon="2.59273">
        <ele>33</ele>
        <time>2012-01-29T07:39:46Z</time>
      </trkpt>
      <trkpt lat="50.52362" lon="2.59266">
        <ele>33</ele>
        <time>2012-01-29T07:39:48Z</time>
      </trkpt>
      <trkpt lat="50.52375" lon="2.59257">
        <ele>33</ele>
        <time>2012-01-29T07:39:50Z</time>
      </trkpt>
      <trkpt lat="50.52387" lon="2.5925">
        <ele>33</ele>
        <time>2012-01-29T07:39:52Z</time>
      </trkpt>
      <trkpt lat="50.52398" lon="2.59242">
        <ele>33</ele>
        <time>2012-01-29T07:39:54Z</time>
      </trkpt>
      <trkpt lat="50.52409" lon="2.59234">
        <ele>33</ele>
        <time>2012-01-29T07:39:56Z</time>
      </trkpt>
      <trkpt lat="50.5242" lon="2.59225">
        <ele>33</ele>
        <time>2012-01-29T07:39:58Z</time>
      </trkpt>
      <trkpt lat="50.52431" lon="2.59215">
        <ele>33</ele>
        <time>2012-01-29T07:40:00Z</time>
      </trkpt>
      <trkpt lat="50.52442" lon="2.59205">
        <ele>33</ele>
        <time>2012-01-29T07:40:02Z</time>
      </trkpt>
      <trkpt lat="50.52454" lon="2.59195">
        <ele>33</ele>
        <time>2012-01-29T07:40:04Z</time>
      </trkpt>
      <trkpt lat="50.52466" lon="2.59184">
        <ele>33</ele>
        <time>2012-01-29T07:40:06Z</time>
      </trkpt>
      <trkpt lat="50.52476" lon="2.59173">
        <ele>33</ele>
        <time>2012-01-29T07:40:08Z</time>
      </trkpt>
      <trkpt lat="50.52487" lon="2.59162">
        <ele>33</ele>
        <time>2012-01-29T07:40:10Z</time>
      </trkpt>
      <trkpt lat="50.52498" lon="2.59151">
        <ele>33</ele>
        <time>2012-01-29T07:40:12Z</time>
      </trkpt>
      <trkpt lat="50.52508" lon="2.59139">
        <ele>33</ele>
        <time>2012-01-29T07:40:14Z</time>
      </trkpt>
      <trkpt lat="50.52519" lon="2.59126">
        <ele>33</ele>
        <time>2012-01-29T07:40:16Z</time>
      </trkpt>
      <trkpt lat="50.52528" lon="2.59113">
        <ele>33</ele>
        <time>2012-01-29T07:40:18Z</time>
      </trkpt>
      <trkpt lat="50.52539" lon="2.591">
        <ele>33</ele>
        <time>2012-01-29T07:40:20Z</time>
      </trkpt>
      <trkpt lat="50.5255" lon="2.59087">
        <ele>33</ele>
        <time>2012-01-29T07:40:22Z</time>
      </trkpt>
      <trkpt lat="50.52561" lon="2.59073">
        <ele>33</ele>
        <time>2012-01-29T07:40:24Z</time>
      </trkpt>
      <trkpt lat="50.52572" lon="2.5906">
        <ele>33</ele>
        <time>2012-01-29T07:40:26Z</time>
      </trkpt>
      <trkpt lat="50.52583" lon="2.59046">
        <ele>33</ele>
        <time>2012-01-29T07:40:28Z</time>
      </trkpt>
      <trkpt lat="50.52594" lon="2.59032">
        <ele>33</ele>
        <time>2012-01-29T07:40:30Z</time>
      </trkpt>
      <trkpt lat="50.52606" lon="2.59017">
        <ele>33</ele>
        <time>2012-01-29T07:40:32Z</time>
      </trkpt>
      <trkpt lat="50.52616" lon="2.59002">
        <ele>33</ele>
        <time>2012-01-29T07:40:34Z</time>
      </trkpt>
      <trkpt lat="50.52627" lon="2.58988">
        <ele>33</ele>
        <time>2012-01-29T07:40:36Z</time>
      </trkpt>
      <trkpt lat="50.52637" lon="2.58974">
        <ele>33</ele>
        <time>2012-01-29T07:40:38Z</time>
      </trkpt>
      <trkpt lat="50.52647" lon="2.5896">
        <ele>33</ele>
        <time>2012-01-29T07:40:40Z</time>
      </trkpt>
      <trkpt lat="50.52657" lon="2.58948">
        <ele>33</ele>
        <time>2012-01-29T07:40:42Z</time>
      </trkpt>
      <trkpt lat="50.52666" lon="2.58938">
        <ele>33</ele>
        <time>2012-01-29T07:40:44Z</time>
      </trkpt>
      <trkpt lat="50.52675" lon="2.58924">
        <ele>33</ele>
        <time>2012-01-29T07:40:46Z</time>
      </trkpt>
      <trkpt lat="50.52685" lon="2.5891">
        <ele>33</ele>
        <time>2012-01-29T07:40:48Z</time>
      </trkpt>
      <trkpt lat="50.52695" lon="2.58895">
        <ele>33</ele>
        <time>2012-01-29T07:40:50Z</time>
      </trkpt>
      <trkpt lat="50.52706" lon="2.58881">
        <ele>33</ele>
        <time>2012-01-29T07:40:52Z</time>
      </trkpt>
      <trkpt lat="50.52718" lon="2.58866">
        <ele>33</ele>
        <time>2012-01-29T07:40:54Z</time>
      </trkpt>
      <trkpt lat="50.5273" lon="2.58851">
        <ele>33</ele>
        <time>2012-01-29T07:40:56Z</time>
      </trkpt>
      <trkpt lat="50.52743" lon="2.58837">
        <ele>33</ele>
        <time>2012-01-29T07:40:58Z</time>
      </trkpt>
      <trkpt lat="50.52755" lon="2.58824">
        <ele>33</ele>
        <time>2012-01-29T07:41:00Z</time>
      </trkpt>
      <trkpt lat="50.52767" lon="2.58809">
        <ele>33</ele>
        <time>2012-01-29T07:41:02Z</time>
      </trkpt>
      <trkpt lat="50.52779" lon="2.58796">
        <ele>33</ele>
        <time>2012-01-29T07:41:04Z</time>
      </trkpt>
      <trkpt lat="50.52791" lon="2.5878">
        <ele>33</ele>
        <time>2012-01-29T07:41:06Z</time>
      </trkpt>
      <trkpt lat="50.52802" lon="2.58763">
        <ele>33</ele>
        <time>2012-01-29T07:41:08Z</time>
      </trkpt>
      <trkpt lat="50.52812" lon="2.58746">
        <ele>33</ele>
        <time>2012-01-29T07:41:10Z</time>
      </trkpt>
      <trkpt lat="50.52822" lon="2.58728">
        <ele>33</ele>
        <time>2012-01-29T07:41:12Z</time>
      </trkpt>
      <trkpt lat="50.52831" lon="2.58708">
        <ele>33</ele>
        <time>2012-01-29T07:41:14Z</time>
      </trkpt>
      <trkpt lat="50.52838" lon="2.58686">
        <ele>33</ele>
        <time>2012-01-29T07:41:16Z</time>
      </trkpt>
      <trkpt lat="50.52846" lon="2.58665">
        <ele>33</ele>
        <time>2012-01-29T07:41:18Z</time>
      </trkpt>
      <trkpt lat="50.52854" lon="2.58643">
        <ele>33</ele>
        <time>2012-01-29T07:41:20Z</time>
      </trkpt>
      <trkpt lat="50.52865" lon="2.58625">
        <ele>33</ele>
        <time>2012-01-29T07:41:22Z</time>
      </trkpt>
      <trkpt lat="50.52879" lon="2.58615">
        <ele>28</ele>
        <time>2012-01-29T07:41:24Z</time>
      </trkpt>
      <trkpt lat="50.52894" lon="2.58613">
        <ele>28</ele>
        <time>2012-01-29T07:41:26Z</time>
      </trkpt>
      <trkpt lat="50.52909" lon="2.58616">
        <ele>28</ele>
        <time>2012-01-29T07:41:28Z</time>
      </trkpt>
      <trkpt lat="50.52923" lon="2.58621">
        <ele>28</ele>
        <time>2012-01-29T07:41:30Z</time>
      </trkpt>
      <trkpt lat="50.52937" lon="2.58626">
        <ele>28</ele>
        <time>2012-01-29T07:41:32Z</time>
      </trkpt>
      <trkpt lat="50.5295" lon="2.58635">
        <ele>28</ele>
        <time>2012-01-29T07:41:34Z</time>
      </trkpt>
      <trkpt lat="50.52961" lon="2.58645">
        <ele>28</ele>
        <time>2012-01-29T07:41:36Z</time>
      </trkpt>
      <trkpt lat="50.52972" lon="2.58656">
        <ele>28</ele>
        <time>2012-01-29T07:41:38Z</time>
      </trkpt>
      <trkpt lat="50.52983" lon="2.58665">
        <ele>28</ele>
        <time>2012-01-29T07:41:40Z</time>
      </trkpt>
      <trkpt lat="50.52994" lon="2.58671">
        <ele>28</ele>
        <time>2012-01-29T07:41:42Z</time>
      </trkpt>
      <trkpt lat="50.53005" lon="2.58671">
        <ele>28</ele>
        <time>2012-01-29T07:41:44Z</time>
      </trkpt>
      <trkpt lat="50.53017" lon="2.58665">
        <ele>28</ele>
        <time>2012-01-29T07:41:46Z</time>
      </trkpt>
      <trkpt lat="50.53027" lon="2.58655">
        <ele>28</ele>
        <time>2012-01-29T07:41:48Z</time>
      </trkpt>
      <trkpt lat="50.53037" lon="2.58642">
        <ele>28</ele>
        <time>2012-01-29T07:41:50Z</time>
      </trkpt>
      <trkpt lat="50.53047" lon="2.58628">
        <ele>28</ele>
        <time>2012-01-29T07:41:52Z</time>
      </trkpt>
      <trkpt lat="50.53056" lon="2.58612">
        <ele>28</ele>
        <time>2012-01-29T07:41:54Z</time>
      </trkpt>
      <trkpt lat="50.53062" lon="2.58594">
        <ele>28</ele>
        <time>2012-01-29T07:41:56Z</time>
      </trkpt>
      <trkpt lat="50.53068" lon="2.58576">
        <ele>28</ele>
        <time>2012-01-29T07:41:58Z</time>
      </trkpt>
      <trkpt lat="50.53078" lon="2.58562">
        <ele>28</ele>
        <time>2012-01-29T07:42:00Z</time>
      </trkpt>
      <trkpt lat="50.53091" lon="2.58555">
        <ele>28</ele>
        <time>2012-01-29T07:42:02Z</time>
      </trkpt>
      <trkpt lat="50.53103" lon="2.58546">
        <ele>28</ele>
        <time>2012-01-29T07:42:04Z</time>
      </trkpt>
      <trkpt lat="50.53114" lon="2.58532">
        <ele>28</ele>
        <time>2012-01-29T07:42:06Z</time>
      </trkpt>
      <trkpt lat="50.53124" lon="2.58515">
        <ele>28</ele>
        <time>2012-01-29T07:42:08Z</time>
      </trkpt>
      <trkpt lat="50.53133" lon="2.58497">
        <ele>28</ele>
        <time>2012-01-29T07:42:10Z</time>
      </trkpt>
      <trkpt lat="50.53143" lon="2.58479">
        <ele>28</ele>
        <time>2012-01-29T07:42:12Z</time>
      </trkpt>
      <trkpt lat="50.53152" lon="2.5846">
        <ele>28</ele>
        <time>2012-01-29T07:42:14Z</time>
      </trkpt>
      <trkpt lat="50.53162" lon="2.58441">
        <ele>28</ele>
        <time>2012-01-29T07:42:16Z</time>
      </trkpt>
      <trkpt lat="50.53171" lon="2.58422">
        <ele>28</ele>
        <time>2012-01-29T07:42:18Z</time>
      </trkpt>
      <trkpt lat="50.53181" lon="2.58402">
        <ele>28</ele>
        <time>2012-01-29T07:42:20Z</time>
      </trkpt>
      <trkpt lat="50.53191" lon="2.58383">
        <ele>28</ele>
        <time>2012-01-29T07:42:22Z</time>
      </trkpt>
      <trkpt lat="50.53201" lon="2.58364">
        <ele>28</ele>
        <time>2012-01-29T07:42:24Z</time>
      </trkpt>
      <trkpt lat="50.53211" lon="2.58344">
        <ele>28</ele>
        <time>2012-01-29T07:42:26Z</time>
      </trkpt>
      <trkpt lat="50.53221" lon="2.58325">
        <ele>28</ele>
        <time>2012-01-29T07:42:28Z</time>
      </trkpt>
      <trkpt lat="50.53231" lon="2.58305">
        <ele>28</ele>
        <time>2012-01-29T07:42:30Z</time>
      </trkpt>
      <trkpt lat="50.53241" lon="2.58285">
        <ele>28</ele>
        <time>2012-01-29T07:42:32Z</time>
      </trkpt>
      <trkpt lat="50.5325" lon="2.58266">
        <ele>28</ele>
        <time>2012-01-29T07:42:34Z</time>
      </trkpt>
      <trkpt lat="50.5326" lon="2.58247">
        <ele>28</ele>
        <time>2012-01-29T07:42:36Z</time>
      </trkpt>
      <trkpt lat="50.53269" lon="2.58228">
        <ele>28</ele>
        <time>2012-01-29T07:42:38Z</time>
      </trkpt>
      <trkpt lat="50.53278" lon="2.5821">
        <ele>28</ele>
        <time>2012-01-29T07:42:40Z</time>
      </trkpt>
      <trkpt lat="50.53297" lon="2.58172">
        <ele>28</ele>
        <time>2012-01-29T07:42:44Z</time>
      </trkpt>
      <trkpt lat="50.53307" lon="2.58153">
        <ele>28</ele>
        <time>2012-01-29T07:42:46Z</time>
      </trkpt>
      <trkpt lat="50.53317" lon="2.58135">
        <ele>28</ele>
        <time>2012-01-29T07:42:48Z</time>
      </trkpt>
      <trkpt lat="50.53327" lon="2.58116">
        <ele>28</ele>
        <time>2012-01-29T07:42:50Z</time>
      </trkpt>
      <trkpt lat="50.53336" lon="2.58098">
        <ele>28</ele>
        <time>2012-01-29T07:42:52Z</time>
      </trkpt>
      <trkpt lat="50.53346" lon="2.58079">
        <ele>28</ele>
        <time>2012-01-29T07:42:54Z</time>
      </trkpt>
      <trkpt lat="50.53356" lon="2.58061">
        <ele>28</ele>
        <time>2012-01-29T07:42:56Z</time>
      </trkpt>
      <trkpt lat="50.53364" lon="2.58044">
        <ele>28</ele>
        <time>2012-01-29T07:42:58Z</time>
      </trkpt>
      <trkpt lat="50.53372" lon="2.58028">
        <ele>28</ele>
        <time>2012-01-29T07:43:00Z</time>
      </trkpt>
      <trkpt lat="50.53381" lon="2.58012">
        <ele>28</ele>
        <time>2012-01-29T07:43:02Z</time>
      </trkpt>
      <trkpt lat="50.53389" lon="2.57996">
        <ele>28</ele>
        <time>2012-01-29T07:43:04Z</time>
      </trkpt>
      <trkpt lat="50.53396" lon="2.57982">
        <ele>28</ele>
        <time>2012-01-29T07:43:06Z</time>
      </trkpt>
      <trkpt lat="50.53404" lon="2.57966">
        <ele>28</ele>
        <time>2012-01-29T07:43:08Z</time>
      </trkpt>
      <trkpt lat="50.53413" lon="2.57949">
        <ele>28</ele>
        <time>2012-01-29T07:43:10Z</time>
      </trkpt>
      <trkpt lat="50.53422" lon="2.57932">
        <ele>28</ele>
        <time>2012-01-29T07:43:12Z</time>
      </trkpt>
      <trkpt lat="50.5343" lon="2.57915">
        <ele>28</ele>
        <time>2012-01-29T07:43:14Z</time>
      </trkpt>
      <trkpt lat="50.53439" lon="2.57898">
        <ele>28</ele>
        <time>2012-01-29T07:43:16Z</time>
      </trkpt>
      <trkpt lat="50.53447" lon="2.57882">
        <ele>28</ele>
        <time>2012-01-29T07:43:18Z</time>
      </trkpt>
      <trkpt lat="50.53456" lon="2.57865">
        <ele>28</ele>
        <time>2012-01-29T07:43:20Z</time>
      </trkpt>
      <trkpt lat="50.53465" lon="2.57849">
        <ele>28</ele>
        <time>2012-01-29T07:43:22Z</time>
      </trkpt>
      <trkpt lat="50.53473" lon="2.57834">
        <ele>28</ele>
        <time>2012-01-29T07:43:24Z</time>
      </trkpt>
      <trkpt lat="50.5348" lon="2.57817">
        <ele>28</ele>
        <time>2012-01-29T07:43:26Z</time>
      </trkpt>
      <trkpt lat="50.53487" lon="2.57801">
        <ele>28</ele>
        <time>2012-01-29T07:43:28Z</time>
      </trkpt>
      <trkpt lat="50.53493" lon="2.57785">
        <ele>28</ele>
        <time>2012-01-29T07:43:30Z</time>
      </trkpt>
      <trkpt lat="50.53502" lon="2.57773">
        <ele>28</ele>
        <time>2012-01-29T07:43:32Z</time>
      </trkpt>
      <trkpt lat="50.53512" lon="2.5777">
        <ele>28</ele>
        <time>2012-01-29T07:43:34Z</time>
      </trkpt>
      <trkpt lat="50.53521" lon="2.57773">
        <ele>28</ele>
        <time>2012-01-29T07:43:36Z</time>
      </trkpt>
      <trkpt lat="50.5353" lon="2.57777">
        <ele>28</ele>
        <time>2012-01-29T07:43:38Z</time>
      </trkpt>
      <trkpt lat="50.53542" lon="2.57782">
        <ele>28</ele>
        <time>2012-01-29T07:43:40Z</time>
      </trkpt>
      <trkpt lat="50.53553" lon="2.57787">
        <ele>28</ele>
        <time>2012-01-29T07:43:42Z</time>
      </trkpt>
      <trkpt lat="50.53564" lon="2.57793">
        <ele>28</ele>
        <time>2012-01-29T07:43:44Z</time>
      </trkpt>
      <trkpt lat="50.53573" lon="2.578">
        <ele>28</ele>
        <time>2012-01-29T07:43:46Z</time>
      </trkpt>
      <trkpt lat="50.53581" lon="2.57807">
        <ele>28</ele>
        <time>2012-01-29T07:43:48Z</time>
      </trkpt>
      <trkpt lat="50.5359" lon="2.57811">
        <ele>28</ele>
        <time>2012-01-29T07:43:50Z</time>
      </trkpt>
      <trkpt lat="50.53601" lon="2.57811">
        <ele>28</ele>
        <time>2012-01-29T07:43:52Z</time>
      </trkpt>
      <trkpt lat="50.53612" lon="2.57808">
        <ele>28</ele>
        <time>2012-01-29T07:43:54Z</time>
      </trkpt>
      <trkpt lat="50.53623" lon="2.57805">
        <ele>28</ele>
        <time>2012-01-29T07:43:56Z</time>
      </trkpt>
      <trkpt lat="50.53636" lon="2.57802">
        <ele>28</ele>
        <time>2012-01-29T07:43:58Z</time>
      </trkpt>
      <trkpt lat="50.53648" lon="2.57799">
        <ele>28</ele>
        <time>2012-01-29T07:44:00Z</time>
      </trkpt>
      <trkpt lat="50.5366" lon="2.57797">
        <ele>28</ele>
        <time>2012-01-29T07:44:02Z</time>
      </trkpt>
      <trkpt lat="50.53671" lon="2.57795">
        <ele>28</ele>
        <time>2012-01-29T07:44:04Z</time>
      </trkpt>
      <trkpt lat="50.53682" lon="2.57792">
        <ele>28</ele>
        <time>2012-01-29T07:44:07Z</time>
      </trkpt>
      <trkpt lat="50.53673" lon="2.57788">
        <ele>44</ele>
        <time>2012-01-29T07:44:34Z</time>
      </trkpt>
      <trkpt lat="50.53684" lon="2.57786">
        <ele>34</ele>
        <time>2012-01-29T07:44:42Z</time>
      </trkpt>
      <trkpt lat="50.53693" lon="2.57782">
        <ele>34</ele>
        <time>2012-01-29T07:44:45Z</time>
      </trkpt>
      <trkpt lat="50.53706" lon="2.57779">
        <ele>34</ele>
        <time>2012-01-29T07:44:48Z</time>
      </trkpt>
      <trkpt lat="50.53718" lon="2.57777">
        <ele>27</ele>
        <time>2012-01-29T07:44:50Z</time>
      </trkpt>
      <trkpt lat="50.53731" lon="2.57774">
        <ele>27</ele>
        <time>2012-01-29T07:44:52Z</time>
      </trkpt>
      <trkpt lat="50.53744" lon="2.5777">
        <ele>27</ele>
        <time>2012-01-29T07:44:54Z</time>
      </trkpt>
      <trkpt lat="50.53755" lon="2.57767">
        <ele>27</ele>
        <time>2012-01-29T07:44:56Z</time>
      </trkpt>
      <trkpt lat="50.53769" lon="2.57761">
        <ele>27</ele>
        <time>2012-01-29T07:44:58Z</time>
      </trkpt>
      <trkpt lat="50.53782" lon="2.57755">
        <ele>27</ele>
        <time>2012-01-29T07:45:00Z</time>
      </trkpt>
      <trkpt lat="50.53796" lon="2.57753">
        <ele>22</ele>
        <time>2012-01-29T07:45:02Z</time>
      </trkpt>
      <trkpt lat="50.5381" lon="2.5775">
        <ele>22</ele>
        <time>2012-01-29T07:45:04Z</time>
      </trkpt>
      <trkpt lat="50.53823" lon="2.5775">
        <ele>22</ele>
        <time>2012-01-29T07:45:06Z</time>
      </trkpt>
      <trkpt lat="50.53836" lon="2.57749">
        <ele>22</ele>
        <time>2012-01-29T07:45:08Z</time>
      </trkpt>
      <trkpt lat="50.53848" lon="2.57751">
        <ele>22</ele>
        <time>2012-01-29T07:45:10Z</time>
      </trkpt>
      <trkpt lat="50.53862" lon="2.57751">
        <ele>22</ele>
        <time>2012-01-29T07:45:12Z</time>
      </trkpt>
      <trkpt lat="50.53875" lon="2.57751">
        <ele>22</ele>
        <time>2012-01-29T07:45:14Z</time>
      </trkpt>
      <trkpt lat="50.53886" lon="2.57749">
        <ele>22</ele>
        <time>2012-01-29T07:45:16Z</time>
      </trkpt>
      <trkpt lat="50.53897" lon="2.5775">
        <ele>22</ele>
        <time>2012-01-29T07:45:18Z</time>
      </trkpt>
      <trkpt lat="50.53908" lon="2.57751">
        <ele>22</ele>
        <time>2012-01-29T07:45:20Z</time>
      </trkpt>
      <trkpt lat="50.5392" lon="2.57751">
        <ele>22</ele>
        <time>2012-01-29T07:45:22Z</time>
      </trkpt>
      <trkpt lat="50.53933" lon="2.57751">
        <ele>22</ele>
        <time>2012-01-29T07:45:24Z</time>
      </trkpt>
      <trkpt lat="50.53946" lon="2.57751">
        <ele>22</ele>
        <time>2012-01-29T07:45:26Z</time>
      </trkpt>
      <trkpt lat="50.53959" lon="2.57751">
        <ele>22</ele>
        <time>2012-01-29T07:45:28Z</time>
      </trkpt>
      <trkpt lat="50.53973" lon="2.57751">
        <ele>22</ele>
        <time>2012-01-29T07:45:30Z</time>
      </trkpt>
      <trkpt lat="50.53985" lon="2.57755">
        <ele>22</ele>
        <time>2012-01-29T07:45:32Z</time>
      </trkpt>
      <trkpt lat="50.53999" lon="2.57759">
        <ele>22</ele>
        <time>2012-01-29T07:45:34Z</time>
      </trkpt>
      <trkpt lat="50.5401" lon="2.57766">
        <ele>22</ele>
        <time>2012-01-29T07:45:36Z</time>
      </trkpt>
      <trkpt lat="50.54019" lon="2.57774">
        <ele>22</ele>
        <time>2012-01-29T07:45:38Z</time>
      </trkpt>
      <trkpt lat="50.54027" lon="2.57783">
        <ele>22</ele>
        <time>2012-01-29T07:45:40Z</time>
      </trkpt>
      <trkpt lat="50.54036" lon="2.57793">
        <ele>22</ele>
        <time>2012-01-29T07:45:42Z</time>
      </trkpt>
      <trkpt lat="50.54046" lon="2.57807">
        <ele>22</ele>
        <time>2012-01-29T07:45:44Z</time>
      </trkpt>
      <trkpt lat="50.54056" lon="2.57822">
        <ele>22</ele>
        <time>2012-01-29T07:45:46Z</time>
      </trkpt>
      <trkpt lat="50.54066" lon="2.57836">
        <ele>22</ele>
        <time>2012-01-29T07:45:48Z</time>
      </trkpt>
      <trkpt lat="50.54077" lon="2.57852">
        <ele>22</ele>
        <time>2012-01-29T07:45:50Z</time>
      </trkpt>
      <trkpt lat="50.54086" lon="2.57867">
        <ele>22</ele>
        <time>2012-01-29T07:45:52Z</time>
      </trkpt>
      <trkpt lat="50.54097" lon="2.57883">
        <ele>22</ele>
        <time>2012-01-29T07:45:54Z</time>
      </trkpt>
      <trkpt lat="50.54106" lon="2.57898">
        <ele>22</ele>
        <time>2012-01-29T07:45:56Z</time>
      </trkpt>
      <trkpt lat="50.54117" lon="2.57914">
        <ele>22</ele>
        <time>2012-01-29T07:45:58Z</time>
      </trkpt>
      <trkpt lat="50.54126" lon="2.57929">
        <ele>22</ele>
        <time>2012-01-29T07:46:00Z</time>
      </trkpt>
      <trkpt lat="50.54137" lon="2.57942">
        <ele>22</ele>
        <time>2012-01-29T07:46:02Z</time>
      </trkpt>
      <trkpt lat="50.54148" lon="2.57957">
        <ele>22</ele>
        <time>2012-01-29T07:46:04Z</time>
      </trkpt>
      <trkpt lat="50.54158" lon="2.5797">
        <ele>22</ele>
        <time>2012-01-29T07:46:06Z</time>
      </trkpt>
      <trkpt lat="50.54168" lon="2.57985">
        <ele>22</ele>
        <time>2012-01-29T07:46:08Z</time>
      </trkpt>
      <trkpt lat="50.54178" lon="2.57998">
        <ele>22</ele>
        <time>2012-01-29T07:46:10Z</time>
      </trkpt>
      <trkpt lat="50.54189" lon="2.58011">
        <ele>22</ele>
        <time>2012-01-29T07:46:12Z</time>
      </trkpt>
      <trkpt lat="50.542" lon="2.58023">
        <ele>22</ele>
        <time>2012-01-29T07:46:14Z</time>
      </trkpt>
      <trkpt lat="50.5421" lon="2.58036">
        <ele>22</ele>
        <time>2012-01-29T07:46:16Z</time>
      </trkpt>
      <trkpt lat="50.54222" lon="2.58047">
        <ele>22</ele>
        <time>2012-01-29T07:46:18Z</time>
      </trkpt>
      <trkpt lat="50.54235" lon="2.58059">
        <ele>22</ele>
        <time>2012-01-29T07:46:20Z</time>
      </trkpt>
      <trkpt lat="50.54247" lon="2.5807">
        <ele>22</ele>
        <time>2012-01-29T07:46:22Z</time>
      </trkpt>
      <trkpt lat="50.54259" lon="2.58082">
        <ele>22</ele>
        <time>2012-01-29T07:46:24Z</time>
      </trkpt>
      <trkpt lat="50.54272" lon="2.58092">
        <ele>22</ele>
        <time>2012-01-29T07:46:26Z</time>
      </trkpt>
      <trkpt lat="50.54283" lon="2.58104">
        <ele>22</ele>
        <time>2012-01-29T07:46:28Z</time>
      </trkpt>
      <trkpt lat="50.54295" lon="2.58114">
        <ele>22</ele>
        <time>2012-01-29T07:46:30Z</time>
      </trkpt>
      <trkpt lat="50.54306" lon="2.58125">
        <ele>22</ele>
        <time>2012-01-29T07:46:32Z</time>
      </trkpt>
      <trkpt lat="50.54317" lon="2.58136">
        <ele>22</ele>
        <time>2012-01-29T07:46:34Z</time>
      </trkpt>
      <trkpt lat="50.54328" lon="2.58149">
        <ele>22</ele>
        <time>2012-01-29T07:46:36Z</time>
      </trkpt>
      <trkpt lat="50.54339" lon="2.58161">
        <ele>22</ele>
        <time>2012-01-29T07:46:38Z</time>
      </trkpt>
      <trkpt lat="50.5435" lon="2.58175">
        <ele>22</ele>
        <time>2012-01-29T07:46:40Z</time>
      </trkpt>
      <trkpt lat="50.5436" lon="2.58188">
        <ele>22</ele>
        <time>2012-01-29T07:46:42Z</time>
      </trkpt>
      <trkpt lat="50.54371" lon="2.582">
        <ele>22</ele>
        <time>2012-01-29T07:46:44Z</time>
      </trkpt>
      <trkpt lat="50.54382" lon="2.58213">
        <ele>22</ele>
        <time>2012-01-29T07:46:46Z</time>
      </trkpt>
      <trkpt lat="50.54391" lon="2.58224">
        <ele>22</ele>
        <time>2012-01-29T07:46:48Z</time>
      </trkpt>
      <trkpt lat="50.54401" lon="2.58235">
        <ele>22</ele>
        <time>2012-01-29T07:46:50Z</time>
      </trkpt>
      <trkpt lat="50.5441" lon="2.58244">
        <ele>22</ele>
        <time>2012-01-29T07:46:52Z</time>
      </trkpt>
      <trkpt lat="50.54419" lon="2.58253">
        <ele>22</ele>
        <time>2012-01-29T07:46:54Z</time>
      </trkpt>
      <trkpt lat="50.54429" lon="2.58262">
        <ele>22</ele>
        <time>2012-01-29T07:46:56Z</time>
      </trkpt>
      <trkpt lat="50.54438" lon="2.58272">
        <ele>22</ele>
        <time>2012-01-29T07:46:58Z</time>
      </trkpt>
      <trkpt lat="50.54449" lon="2.58282">
        <ele>22</ele>
        <time>2012-01-29T07:47:00Z</time>
      </trkpt>
      <trkpt lat="50.54459" lon="2.58292">
        <ele>22</ele>
        <time>2012-01-29T07:47:02Z</time>
      </trkpt>
      <trkpt lat="50.54469" lon="2.58302">
        <ele>22</ele>
        <time>2012-01-29T07:47:04Z</time>
      </trkpt>
      <trkpt lat="50.5448" lon="2.58312">
        <ele>22</ele>
        <time>2012-01-29T07:47:06Z</time>
      </trkpt>
      <trkpt lat="50.5449" lon="2.58322">
        <ele>22</ele>
        <time>2012-01-29T07:47:08Z</time>
      </trkpt>
      <trkpt lat="50.54501" lon="2.58332">
        <ele>22</ele>
        <time>2012-01-29T07:47:10Z</time>
      </trkpt>
      <trkpt lat="50.54512" lon="2.58343">
        <ele>22</ele>
        <time>2012-01-29T07:47:12Z</time>
      </trkpt>
      <trkpt lat="50.54523" lon="2.58353">
        <ele>22</ele>
        <time>2012-01-29T07:47:14Z</time>
      </trkpt>
      <trkpt lat="50.54534" lon="2.58364">
        <ele>22</ele>
        <time>2012-01-29T07:47:16Z</time>
      </trkpt>
      <trkpt lat="50.54545" lon="2.58373">
        <ele>22</ele>
        <time>2012-01-29T07:47:18Z</time>
      </trkpt>
      <trkpt lat="50.54556" lon="2.58384">
        <ele>22</ele>
        <time>2012-01-29T07:47:20Z</time>
      </trkpt>
      <trkpt lat="50.54566" lon="2.58394">
        <ele>22</ele>
        <time>2012-01-29T07:47:22Z</time>
      </trkpt>
      <trkpt lat="50.54576" lon="2.58404">
        <ele>22</ele>
        <time>2012-01-29T07:47:24Z</time>
      </trkpt>
      <trkpt lat="50.54587" lon="2.58414">
        <ele>22</ele>
        <time>2012-01-29T07:47:26Z</time>
      </trkpt>
      <trkpt lat="50.54597" lon="2.58424">
        <ele>22</ele>
        <time>2012-01-29T07:47:28Z</time>
      </trkpt>
      <trkpt lat="50.54608" lon="2.58434">
        <ele>22</ele>
        <time>2012-01-29T07:47:30Z</time>
      </trkpt>
      <trkpt lat="50.54618" lon="2.58444">
        <ele>22</ele>
        <time>2012-01-29T07:47:32Z</time>
      </trkpt>
      <trkpt lat="50.54628" lon="2.58453">
        <ele>22</ele>
        <time>2012-01-29T07:47:34Z</time>
      </trkpt>
      <trkpt lat="50.54637" lon="2.58465">
        <ele>22</ele>
        <time>2012-01-29T07:47:36Z</time>
      </trkpt>
      <trkpt lat="50.54647" lon="2.58477">
        <ele>22</ele>
        <time>2012-01-29T07:47:38Z</time>
      </trkpt>
      <trkpt lat="50.54656" lon="2.5849">
        <ele>22</ele>
        <time>2012-01-29T07:47:40Z</time>
      </trkpt>
      <trkpt lat="50.54664" lon="2.58503">
        <ele>22</ele>
        <time>2012-01-29T07:47:42Z</time>
      </trkpt>
      <trkpt lat="50.54673" lon="2.58516">
        <ele>22</ele>
        <time>2012-01-29T07:47:44Z</time>
      </trkpt>
      <trkpt lat="50.54681" lon="2.58529">
        <ele>22</ele>
        <time>2012-01-29T07:47:46Z</time>
      </trkpt>
      <trkpt lat="50.5469" lon="2.58541">
        <ele>22</ele>
        <time>2012-01-29T07:47:48Z</time>
      </trkpt>
      <trkpt lat="50.54698" lon="2.58554">
        <ele>22</ele>
        <time>2012-01-29T07:47:50Z</time>
      </trkpt>
      <trkpt lat="50.54706" lon="2.58568">
        <ele>22</ele>
        <time>2012-01-29T07:47:52Z</time>
      </trkpt>
      <trkpt lat="50.54714" lon="2.58581">
        <ele>22</ele>
        <time>2012-01-29T07:47:54Z</time>
      </trkpt>
      <trkpt lat="50.54722" lon="2.58594">
        <ele>22</ele>
        <time>2012-01-29T07:47:56Z</time>
      </trkpt>
      <trkpt lat="50.5473" lon="2.58608">
        <ele>22</ele>
        <time>2012-01-29T07:47:58Z</time>
      </trkpt>
      <trkpt lat="50.54737" lon="2.58622">
        <ele>22</ele>
        <time>2012-01-29T07:48:00Z</time>
      </trkpt>
      <trkpt lat="50.54744" lon="2.58637">
        <ele>22</ele>
        <time>2012-01-29T07:48:02Z</time>
      </trkpt>
      <trkpt lat="50.5475" lon="2.58652">
        <ele>22</ele>
        <time>2012-01-29T07:48:04Z</time>
      </trkpt>
      <trkpt lat="50.54756" lon="2.58668">
        <ele>22</ele>
        <time>2012-01-29T07:48:06Z</time>
      </trkpt>
      <trkpt lat="50.54763" lon="2.58684">
        <ele>22</ele>
        <time>2012-01-29T07:48:08Z</time>
      </trkpt>
      <trkpt lat="50.5477" lon="2.58702">
        <ele>22</ele>
        <time>2012-01-29T07:48:10Z</time>
      </trkpt>
      <trkpt lat="50.54776" lon="2.5872">
        <ele>22</ele>
        <time>2012-01-29T07:48:12Z</time>
      </trkpt>
      <trkpt lat="50.54783" lon="2.58738">
        <ele>22</ele>
        <time>2012-01-29T07:48:14Z</time>
      </trkpt>
      <trkpt lat="50.54791" lon="2.58757">
        <ele>22</ele>
        <time>2012-01-29T07:48:16Z</time>
      </trkpt>
      <trkpt lat="50.54799" lon="2.58776">
        <ele>22</ele>
        <time>2012-01-29T07:48:18Z</time>
      </trkpt>
      <trkpt lat="50.54807" lon="2.58795">
        <ele>22</ele>
        <time>2012-01-29T07:48:20Z</time>
      </trkpt>
      <trkpt lat="50.54815" lon="2.58814">
        <ele>22</ele>
        <time>2012-01-29T07:48:22Z</time>
      </trkpt>
      <trkpt lat="50.54823" lon="2.58833">
        <ele>22</ele>
        <time>2012-01-29T07:48:24Z</time>
      </trkpt>
      <trkpt lat="50.54831" lon="2.58851">
        <ele>22</ele>
        <time>2012-01-29T07:48:26Z</time>
      </trkpt>
      <trkpt lat="50.54839" lon="2.58869">
        <ele>22</ele>
        <time>2012-01-29T07:48:28Z</time>
      </trkpt>
      <trkpt lat="50.54847" lon="2.58888">
        <ele>22</ele>
        <time>2012-01-29T07:48:30Z</time>
      </trkpt>
      <trkpt lat="50.54855" lon="2.58907">
        <ele>22</ele>
        <time>2012-01-29T07:48:32Z</time>
      </trkpt>
      <trkpt lat="50.54862" lon="2.58926">
        <ele>22</ele>
        <time>2012-01-29T07:48:34Z</time>
      </trkpt>
      <trkpt lat="50.5487" lon="2.58944">
        <ele>22</ele>
        <time>2012-01-29T07:48:36Z</time>
      </trkpt>
      <trkpt lat="50.54877" lon="2.58963">
        <ele>22</ele>
        <time>2012-01-29T07:48:38Z</time>
      </trkpt>
      <trkpt lat="50.54885" lon="2.58981">
        <ele>22</ele>
        <time>2012-01-29T07:48:40Z</time>
      </trkpt>
      <trkpt lat="50.54893" lon="2.58998">
        <ele>22</ele>
        <time>2012-01-29T07:48:42Z</time>
      </trkpt>
      <trkpt lat="50.54901" lon="2.59014">
        <ele>22</ele>
        <time>2012-01-29T07:48:44Z</time>
      </trkpt>
      <trkpt lat="50.5491" lon="2.5903">
        <ele>22</ele>
        <time>2012-01-29T07:48:46Z</time>
      </trkpt>
      <trkpt lat="50.5492" lon="2.59045">
        <ele>22</ele>
        <time>2012-01-29T07:48:48Z</time>
      </trkpt>
      <trkpt lat="50.5493" lon="2.59059">
        <ele>22</ele>
        <time>2012-01-29T07:48:50Z</time>
      </trkpt>
      <trkpt lat="50.5494" lon="2.59072">
        <ele>22</ele>
        <time>2012-01-29T07:48:52Z</time>
      </trkpt>
      <trkpt lat="50.54951" lon="2.59083">
        <ele>22</ele>
        <time>2012-01-29T07:48:54Z</time>
      </trkpt>
      <trkpt lat="50.54963" lon="2.59093">
        <ele>22</ele>
        <time>2012-01-29T07:48:56Z</time>
      </trkpt>
      <trkpt lat="50.54975" lon="2.59101">
        <ele>22</ele>
        <time>2012-01-29T07:48:58Z</time>
      </trkpt>
      <trkpt lat="50.54987" lon="2.59107">
        <ele>22</ele>
        <time>2012-01-29T07:49:00Z</time>
      </trkpt>
      <trkpt lat="50.55" lon="2.59112">
        <ele>22</ele>
        <time>2012-01-29T07:49:02Z</time>
      </trkpt>
      <trkpt lat="50.55013" lon="2.59115">
        <ele>22</ele>
        <time>2012-01-29T07:49:04Z</time>
      </trkpt>
      <trkpt lat="50.55026" lon="2.59117">
        <ele>22</ele>
        <time>2012-01-29T07:49:06Z</time>
      </trkpt>
      <trkpt lat="50.55039" lon="2.59119">
        <ele>22</ele>
        <time>2012-01-29T07:49:08Z</time>
      </trkpt>
      <trkpt lat="50.55051" lon="2.59121">
        <ele>22</ele>
        <time>2012-01-29T07:49:10Z</time>
      </trkpt>
      <trkpt lat="50.55064" lon="2.59121">
        <ele>22</ele>
        <time>2012-01-29T07:49:12Z</time>
      </trkpt>
      <trkpt lat="50.55077" lon="2.5912">
        <ele>22</ele>
        <time>2012-01-29T07:49:14Z</time>
      </trkpt>
      <trkpt lat="50.5509" lon="2.59118">
        <ele>22</ele>
        <time>2012-01-29T07:49:16Z</time>
      </trkpt>
      <trkpt lat="50.55103" lon="2.59116">
        <ele>22</ele>
        <time>2012-01-29T07:49:18Z</time>
      </trkpt>
      <trkpt lat="50.55116" lon="2.59115">
        <ele>22</ele>
        <time>2012-01-29T07:49:20Z</time>
      </trkpt>
      <trkpt lat="50.55129" lon="2.59115">
        <ele>22</ele>
        <time>2012-01-29T07:49:22Z</time>
      </trkpt>
      <trkpt lat="50.55141" lon="2.59117">
        <ele>22</ele>
        <time>2012-01-29T07:49:24Z</time>
      </trkpt>
      <trkpt lat="50.55153" lon="2.59121">
        <ele>22</ele>
        <time>2012-01-29T07:49:26Z</time>
      </trkpt>
      <trkpt lat="50.55165" lon="2.59127">
        <ele>22</ele>
        <time>2012-01-29T07:49:28Z</time>
      </trkpt>
      <trkpt lat="50.55177" lon="2.59133">
        <ele>22</ele>
        <time>2012-01-29T07:49:30Z</time>
      </trkpt>
      <trkpt lat="50.55188" lon="2.5914">
        <ele>22</ele>
        <time>2012-01-29T07:49:32Z</time>
      </trkpt>
      <trkpt lat="50.552" lon="2.59147">
        <ele>22</ele>
        <time>2012-01-29T07:49:34Z</time>
      </trkpt>
      <trkpt lat="50.55212" lon="2.59153">
        <ele>22</ele>
        <time>2012-01-29T07:49:36Z</time>
      </trkpt>
      <trkpt lat="50.55224" lon="2.5916">
        <ele>22</ele>
        <time>2012-01-29T07:49:38Z</time>
      </trkpt>
      <trkpt lat="50.55236" lon="2.59165">
        <ele>22</ele>
        <time>2012-01-29T07:49:40Z</time>
      </trkpt>
      <trkpt lat="50.55248" lon="2.5917">
        <ele>22</ele>
        <time>2012-01-29T07:49:42Z</time>
      </trkpt>
      <trkpt lat="50.5526" lon="2.59175">
        <ele>22</ele>
        <time>2012-01-29T07:49:44Z</time>
      </trkpt>
      <trkpt lat="50.55272" lon="2.59178">
        <ele>22</ele>
        <time>2012-01-29T07:49:46Z</time>
      </trkpt>
      <trkpt lat="50.55284" lon="2.59183">
        <ele>22</ele>
        <time>2012-01-29T07:49:48Z</time>
      </trkpt>
      <trkpt lat="50.55295" lon="2.59187">
        <ele>22</ele>
        <time>2012-01-29T07:49:50Z</time>
      </trkpt>
      <trkpt lat="50.55307" lon="2.59193">
        <ele>22</ele>
        <time>2012-01-29T07:49:52Z</time>
      </trkpt>
      <trkpt lat="50.55318" lon="2.59198">
        <ele>22</ele>
        <time>2012-01-29T07:49:54Z</time>
      </trkpt>
      <trkpt lat="50.55329" lon="2.59204">
        <ele>22</ele>
        <time>2012-01-29T07:49:56Z</time>
      </trkpt>
      <trkpt lat="50.5534" lon="2.5921">
        <ele>22</ele>
        <time>2012-01-29T07:49:58Z</time>
      </trkpt>
      <trkpt lat="50.55351" lon="2.59215">
        <ele>22</ele>
        <time>2012-01-29T07:50:00Z</time>
      </trkpt>
      <trkpt lat="50.55362" lon="2.59221">
        <ele>22</ele>
        <time>2012-01-29T07:50:02Z</time>
      </trkpt>
      <trkpt lat="50.55374" lon="2.59227">
        <ele>22</ele>
        <time>2012-01-29T07:50:04Z</time>
      </trkpt>
      <trkpt lat="50.55386" lon="2.59232">
        <ele>22</ele>
        <time>2012-01-29T07:50:06Z</time>
      </trkpt>
      <trkpt lat="50.55398" lon="2.59239">
        <ele>22</ele>
        <time>2012-01-29T07:50:08Z</time>
      </trkpt>
      <trkpt lat="50.5541" lon="2.59244">
        <ele>22</ele>
        <time>2012-01-29T07:50:10Z</time>
      </trkpt>
      <trkpt lat="50.55422" lon="2.59248">
        <ele>22</ele>
        <time>2012-01-29T07:50:12Z</time>
      </trkpt>
      <trkpt lat="50.55433" lon="2.59253">
        <ele>22</ele>
        <time>2012-01-29T07:50:14Z</time>
      </trkpt>
      <trkpt lat="50.55444" lon="2.59257">
        <ele>22</ele>
        <time>2012-01-29T07:50:16Z</time>
      </trkpt>
      <trkpt lat="50.55455" lon="2.59259">
        <ele>22</ele>
        <time>2012-01-29T07:50:18Z</time>
      </trkpt>
      <trkpt lat="50.55464" lon="2.59262">
        <ele>22</ele>
        <time>2012-01-29T07:50:20Z</time>
      </trkpt>
      <trkpt lat="50.55473" lon="2.59264">
        <ele>22</ele>
        <time>2012-01-29T07:50:22Z</time>
      </trkpt>
      <trkpt lat="50.55486" lon="2.59266">
        <ele>22</ele>
        <time>2012-01-29T07:50:25Z</time>
      </trkpt>
      <trkpt lat="50.55495" lon="2.59267">
        <ele>22</ele>
        <time>2012-01-29T07:50:27Z</time>
      </trkpt>
      <trkpt lat="50.55505" lon="2.59268">
        <ele>22</ele>
        <time>2012-01-29T07:50:29Z</time>
      </trkpt>
      <trkpt lat="50.55515" lon="2.59269">
        <ele>22</ele>
        <time>2012-01-29T07:50:31Z</time>
      </trkpt>
      <trkpt lat="50.55526" lon="2.59269">
        <ele>22</ele>
        <time>2012-01-29T07:50:33Z</time>
      </trkpt>
      <trkpt lat="50.55538" lon="2.59269">
        <ele>22</ele>
        <time>2012-01-29T07:50:35Z</time>
      </trkpt>
      <trkpt lat="50.55549" lon="2.59268">
        <ele>22</ele>
        <time>2012-01-29T07:50:37Z</time>
      </trkpt>
      <trkpt lat="50.55562" lon="2.59269">
        <ele>22</ele>
        <time>2012-01-29T07:50:39Z</time>
      </trkpt>
      <trkpt lat="50.55574" lon="2.59272">
        <ele>22</ele>
        <time>2012-01-29T07:50:41Z</time>
      </trkpt>
      <trkpt lat="50.55585" lon="2.59275">
        <ele>22</ele>
        <time>2012-01-29T07:50:43Z</time>
      </trkpt>
      <trkpt lat="50.55597" lon="2.59279">
        <ele>22</ele>
        <time>2012-01-29T07:50:45Z</time>
      </trkpt>
      <trkpt lat="50.55609" lon="2.59283">
        <ele>22</ele>
        <time>2012-01-29T07:50:47Z</time>
      </trkpt>
      <trkpt lat="50.55621" lon="2.59287">
        <ele>22</ele>
        <time>2012-01-29T07:50:49Z</time>
      </trkpt>
      <trkpt lat="50.55632" lon="2.59291">
        <ele>22</ele>
        <time>2012-01-29T07:50:51Z</time>
      </trkpt>
      <trkpt lat="50.55644" lon="2.59294">
        <ele>22</ele>
        <time>2012-01-29T07:50:53Z</time>
      </trkpt>
      <trkpt lat="50.55656" lon="2.59298">
        <ele>22</ele>
        <time>2012-01-29T07:50:55Z</time>
      </trkpt>
      <trkpt lat="50.55667" lon="2.59301">
        <ele>22</ele>
        <time>2012-01-29T07:50:57Z</time>
      </trkpt>
      <trkpt lat="50.55678" lon="2.59305">
        <ele>22</ele>
        <time>2012-01-29T07:50:59Z</time>
      </trkpt>
      <trkpt lat="50.55689" lon="2.59309">
        <ele>22</ele>
        <time>2012-01-29T07:51:01Z</time>
      </trkpt>
      <trkpt lat="50.557" lon="2.59311">
        <ele>22</ele>
        <time>2012-01-29T07:51:03Z</time>
      </trkpt>
      <trkpt lat="50.55712" lon="2.59316">
        <ele>22</ele>
        <time>2012-01-29T07:51:05Z</time>
      </trkpt>
      <trkpt lat="50.55723" lon="2.59319">
        <ele>22</ele>
        <time>2012-01-29T07:51:07Z</time>
      </trkpt>
      <trkpt lat="50.55734" lon="2.59323">
        <ele>22</ele>
        <time>2012-01-29T07:51:09Z</time>
      </trkpt>
      <trkpt lat="50.55745" lon="2.59327">
        <ele>22</ele>
        <time>2012-01-29T07:51:11Z</time>
      </trkpt>
      <trkpt lat="50.55757" lon="2.59332">
        <ele>22</ele>
        <time>2012-01-29T07:51:13Z</time>
      </trkpt>
      <trkpt lat="50.55768" lon="2.59336">
        <ele>22</ele>
        <time>2012-01-29T07:51:15Z</time>
      </trkpt>
      <trkpt lat="50.5578" lon="2.59341">
        <ele>22</ele>
        <time>2012-01-29T07:51:17Z</time>
      </trkpt>
      <trkpt lat="50.55791" lon="2.59346">
        <ele>22</ele>
        <time>2012-01-29T07:51:19Z</time>
      </trkpt>
      <trkpt lat="50.55803" lon="2.59351">
        <ele>22</ele>
        <time>2012-01-29T07:51:21Z</time>
      </trkpt>
      <trkpt lat="50.55813" lon="2.59356">
        <ele>22</ele>
        <time>2012-01-29T07:51:23Z</time>
      </trkpt>
      <trkpt lat="50.55823" lon="2.5936">
        <ele>22</ele>
        <time>2012-01-29T07:51:25Z</time>
      </trkpt>
      <trkpt lat="50.55834" lon="2.59364">
        <ele>22</ele>
        <time>2012-01-29T07:51:27Z</time>
      </trkpt>
      <trkpt lat="50.55845" lon="2.5937">
        <ele>22</ele>
        <time>2012-01-29T07:51:29Z</time>
      </trkpt>
      <trkpt lat="50.55855" lon="2.59375">
        <ele>22</ele>
        <time>2012-01-29T07:51:31Z</time>
      </trkpt>
      <trkpt lat="50.55866" lon="2.59379">
        <ele>22</ele>
        <time>2012-01-29T07:51:33Z</time>
      </trkpt>
      <trkpt lat="50.55876" lon="2.59373">
        <ele>22</ele>
        <time>2012-01-29T07:51:35Z</time>
      </trkpt>
      <trkpt lat="50.55886" lon="2.59363">
        <ele>22</ele>
        <time>2012-01-29T07:51:37Z</time>
      </trkpt>
      <trkpt lat="50.55895" lon="2.59352">
        <ele>22</ele>
        <time>2012-01-29T07:51:39Z</time>
      </trkpt>
      <trkpt lat="50.55906" lon="2.59341">
        <ele>22</ele>
        <time>2012-01-29T07:51:41Z</time>
      </trkpt>
      <trkpt lat="50.55916" lon="2.59331">
        <ele>22</ele>
        <time>2012-01-29T07:51:43Z</time>
      </trkpt>
      <trkpt lat="50.55926" lon="2.5932">
        <ele>22</ele>
        <time>2012-01-29T07:51:45Z</time>
      </trkpt>
      <trkpt lat="50.55936" lon="2.5931">
        <ele>22</ele>
        <time>2012-01-29T07:51:47Z</time>
      </trkpt>
      <trkpt lat="50.55946" lon="2.59299">
        <ele>22</ele>
        <time>2012-01-29T07:51:49Z</time>
      </trkpt>
      <trkpt lat="50.55957" lon="2.59287">
        <ele>22</ele>
        <time>2012-01-29T07:51:51Z</time>
      </trkpt>
      <trkpt lat="50.55968" lon="2.59275">
        <ele>22</ele>
        <time>2012-01-29T07:51:53Z</time>
      </trkpt>
      <trkpt lat="50.55979" lon="2.59263">
        <ele>22</ele>
        <time>2012-01-29T07:51:55Z</time>
      </trkpt>
      <trkpt lat="50.5599" lon="2.5925">
        <ele>22</ele>
        <time>2012-01-29T07:51:57Z</time>
      </trkpt>
      <trkpt lat="50.56001" lon="2.59239">
        <ele>22</ele>
        <time>2012-01-29T07:51:59Z</time>
      </trkpt>
      <trkpt lat="50.56013" lon="2.59227">
        <ele>22</ele>
        <time>2012-01-29T07:52:01Z</time>
      </trkpt>
      <trkpt lat="50.56024" lon="2.59214">
        <ele>22</ele>
        <time>2012-01-29T07:52:03Z</time>
      </trkpt>
      <trkpt lat="50.56034" lon="2.59203">
        <ele>22</ele>
        <time>2012-01-29T07:52:05Z</time>
      </trkpt>
      <trkpt lat="50.56044" lon="2.59189">
        <ele>22</ele>
        <time>2012-01-29T07:52:07Z</time>
      </trkpt>
      <trkpt lat="50.56054" lon="2.59175">
        <ele>22</ele>
        <time>2012-01-29T07:52:09Z</time>
      </trkpt>
      <trkpt lat="50.56064" lon="2.5916">
        <ele>22</ele>
        <time>2012-01-29T07:52:11Z</time>
      </trkpt>
      <trkpt lat="50.56073" lon="2.59145">
        <ele>22</ele>
        <time>2012-01-29T07:52:13Z</time>
      </trkpt>
      <trkpt lat="50.56082" lon="2.5913">
        <ele>22</ele>
        <time>2012-01-29T07:52:15Z</time>
      </trkpt>
      <trkpt lat="50.56089" lon="2.59112">
        <ele>22</ele>
        <time>2012-01-29T07:52:17Z</time>
      </trkpt>
      <trkpt lat="50.56095" lon="2.59093">
        <ele>22</ele>
        <time>2012-01-29T07:52:19Z</time>
      </trkpt>
      <trkpt lat="50.561" lon="2.59074">
        <ele>22</ele>
        <time>2012-01-29T07:52:21Z</time>
      </trkpt>
      <trkpt lat="50.56105" lon="2.59055">
        <ele>22</ele>
        <time>2012-01-29T07:52:23Z</time>
      </trkpt>
      <trkpt lat="50.56111" lon="2.59037">
        <ele>22</ele>
        <time>2012-01-29T07:52:25Z</time>
      </trkpt>
      <trkpt lat="50.56119" lon="2.59021">
        <ele>22</ele>
        <time>2012-01-29T07:52:27Z</time>
      </trkpt>
      <trkpt lat="50.56128" lon="2.59006">
        <ele>22</ele>
        <time>2012-01-29T07:52:29Z</time>
      </trkpt>
      <trkpt lat="50.56137" lon="2.58992">
        <ele>16</ele>
        <time>2012-01-29T07:52:31Z</time>
      </trkpt>
      <trkpt lat="50.56147" lon="2.58977">
        <ele>16</ele>
        <time>2012-01-29T07:52:33Z</time>
      </trkpt>
      <trkpt lat="50.56157" lon="2.58965">
        <ele>16</ele>
        <time>2012-01-29T07:52:35Z</time>
      </trkpt>
      <trkpt lat="50.56166" lon="2.58953">
        <ele>16</ele>
        <time>2012-01-29T07:52:37Z</time>
      </trkpt>
      <trkpt lat="50.56176" lon="2.58941">
        <ele>16</ele>
        <time>2012-01-29T07:52:39Z</time>
      </trkpt>
      <trkpt lat="50.56186" lon="2.5893">
        <ele>16</ele>
        <time>2012-01-29T07:52:41Z</time>
      </trkpt>
      <trkpt lat="50.56195" lon="2.58918">
        <ele>16</ele>
        <time>2012-01-29T07:52:43Z</time>
      </trkpt>
      <trkpt lat="50.56204" lon="2.58907">
        <ele>16</ele>
        <time>2012-01-29T07:52:45Z</time>
      </trkpt>
      <trkpt lat="50.56214" lon="2.58896">
        <ele>16</ele>
        <time>2012-01-29T07:52:47Z</time>
      </trkpt>
      <trkpt lat="50.56224" lon="2.58885">
        <ele>16</ele>
        <time>2012-01-29T07:52:49Z</time>
      </trkpt>
      <trkpt lat="50.56233" lon="2.58874">
        <ele>16</ele>
        <time>2012-01-29T07:52:51Z</time>
      </trkpt>
      <trkpt lat="50.56242" lon="2.58861">
        <ele>16</ele>
        <time>2012-01-29T07:52:53Z</time>
      </trkpt>
      <trkpt lat="50.56249" lon="2.58847">
        <ele>16</ele>
        <time>2012-01-29T07:52:55Z</time>
      </trkpt>
      <trkpt lat="50.56254" lon="2.58829">
        <ele>16</ele>
        <time>2012-01-29T07:52:57Z</time>
      </trkpt>
      <trkpt lat="50.56258" lon="2.58811">
        <ele>16</ele>
        <time>2012-01-29T07:52:59Z</time>
      </trkpt>
      <trkpt lat="50.56262" lon="2.5879">
        <ele>16</ele>
        <time>2012-01-29T07:53:01Z</time>
      </trkpt>
      <trkpt lat="50.56265" lon="2.58771">
        <ele>16</ele>
        <time>2012-01-29T07:53:03Z</time>
      </trkpt>
      <trkpt lat="50.56269" lon="2.58751">
        <ele>16</ele>
        <time>2012-01-29T07:53:05Z</time>
      </trkpt>
      <trkpt lat="50.56272" lon="2.5873">
        <ele>16</ele>
        <time>2012-01-29T07:53:07Z</time>
      </trkpt>
      <trkpt lat="50.56275" lon="2.58709">
        <ele>16</ele>
        <time>2012-01-29T07:53:09Z</time>
      </trkpt>
      <trkpt lat="50.56278" lon="2.5869">
        <ele>16</ele>
        <time>2012-01-29T07:53:11Z</time>
      </trkpt>
      <trkpt lat="50.56281" lon="2.58668">
        <ele>16</ele>
        <time>2012-01-29T07:53:13Z</time>
      </trkpt>
      <trkpt lat="50.56283" lon="2.58647">
        <ele>16</ele>
        <time>2012-01-29T07:53:15Z</time>
      </trkpt>
      <trkpt lat="50.56286" lon="2.58627">
        <ele>16</ele>
        <time>2012-01-29T07:53:17Z</time>
      </trkpt>
      <trkpt lat="50.56289" lon="2.58606">
        <ele>16</ele>
        <time>2012-01-29T07:53:19Z</time>
      </trkpt>
      <trkpt lat="50.56292" lon="2.58586">
        <ele>16</ele>
        <time>2012-01-29T07:53:21Z</time>
      </trkpt>
      <trkpt lat="50.56294" lon="2.58567">
        <ele>16</ele>
        <time>2012-01-29T07:53:23Z</time>
      </trkpt>
      <trkpt lat="50.56296" lon="2.58547">
        <ele>16</ele>
        <time>2012-01-29T07:53:25Z</time>
      </trkpt>
      <trkpt lat="50.56298" lon="2.58527">
        <ele>16</ele>
        <time>2012-01-29T07:53:27Z</time>
      </trkpt>
      <trkpt lat="50.56306" lon="2.5851">
        <ele>16</ele>
        <time>2012-01-29T07:53:29Z</time>
      </trkpt>
      <trkpt lat="50.56317" lon="2.58499">
        <ele>16</ele>
        <time>2012-01-29T07:53:31Z</time>
      </trkpt>
      <trkpt lat="50.5633" lon="2.58493">
        <ele>16</ele>
        <time>2012-01-29T07:53:33Z</time>
      </trkpt>
      <trkpt lat="50.56342" lon="2.58488">
        <ele>16</ele>
        <time>2012-01-29T07:53:35Z</time>
      </trkpt>
      <trkpt lat="50.56356" lon="2.58484">
        <ele>16</ele>
        <time>2012-01-29T07:53:37Z</time>
      </trkpt>
      <trkpt lat="50.56368" lon="2.5848">
        <ele>16</ele>
        <time>2012-01-29T07:53:39Z</time>
      </trkpt>
      <trkpt lat="50.56378" lon="2.58475">
        <ele>16</ele>
        <time>2012-01-29T07:53:41Z</time>
      </trkpt>
      <trkpt lat="50.56389" lon="2.58469">
        <ele>16</ele>
        <time>2012-01-29T07:53:43Z</time>
      </trkpt>
      <trkpt lat="50.56398" lon="2.5846">
        <ele>16</ele>
        <time>2012-01-29T07:53:45Z</time>
      </trkpt>
      <trkpt lat="50.56407" lon="2.58449">
        <ele>16</ele>
        <time>2012-01-29T07:53:47Z</time>
      </trkpt>
      <trkpt lat="50.56416" lon="2.58435">
        <ele>16</ele>
        <time>2012-01-29T07:53:49Z</time>
      </trkpt>
      <trkpt lat="50.56425" lon="2.58422">
        <ele>16</ele>
        <time>2012-01-29T07:53:51Z</time>
      </trkpt>
      <trkpt lat="50.56436" lon="2.58408">
        <ele>16</ele>
        <time>2012-01-29T07:53:53Z</time>
      </trkpt>
      <trkpt lat="50.56445" lon="2.58392">
        <ele>16</ele>
        <time>2012-01-29T07:53:55Z</time>
      </trkpt>
      <trkpt lat="50.56452" lon="2.58373">
        <ele>16</ele>
        <time>2012-01-29T07:53:57Z</time>
      </trkpt>
      <trkpt lat="50.56456" lon="2.58352">
        <ele>16</ele>
        <time>2012-01-29T07:53:59Z</time>
      </trkpt>
      <trkpt lat="50.56456" lon="2.5833">
        <ele>16</ele>
        <time>2012-01-29T07:54:01Z</time>
      </trkpt>
      <trkpt lat="50.56454" lon="2.58309">
        <ele>16</ele>
        <time>2012-01-29T07:54:03Z</time>
      </trkpt>
      <trkpt lat="50.56452" lon="2.58286">
        <ele>16</ele>
        <time>2012-01-29T07:54:05Z</time>
      </trkpt>
      <trkpt lat="50.5645" lon="2.58263">
        <ele>16</ele>
        <time>2012-01-29T07:54:07Z</time>
      </trkpt>
      <trkpt lat="50.5645" lon="2.58241">
        <ele>16</ele>
        <time>2012-01-29T07:54:09Z</time>
      </trkpt>
      <trkpt lat="50.56449" lon="2.58218">
        <ele>16</ele>
        <time>2012-01-29T07:54:11Z</time>
      </trkpt>
      <trkpt lat="50.56449" lon="2.58196">
        <ele>16</ele>
        <time>2012-01-29T07:54:13Z</time>
      </trkpt>
      <trkpt lat="50.56449" lon="2.58173">
        <ele>16</ele>
        <time>2012-01-29T07:54:15Z</time>
      </trkpt>
      <trkpt lat="50.56449" lon="2.58151">
        <ele>16</ele>
        <time>2012-01-29T07:54:17Z</time>
      </trkpt>
      <trkpt lat="50.5645" lon="2.58129">
        <ele>16</ele>
        <time>2012-01-29T07:54:19Z</time>
      </trkpt>
      <trkpt lat="50.5645" lon="2.58108">
        <ele>16</ele>
        <time>2012-01-29T07:54:21Z</time>
      </trkpt>
      <trkpt lat="50.56449" lon="2.58086">
        <ele>16</ele>
        <time>2012-01-29T07:54:23Z</time>
      </trkpt>
      <trkpt lat="50.56448" lon="2.58064">
        <ele>16</ele>
        <time>2012-01-29T07:54:25Z</time>
      </trkpt>
      <trkpt lat="50.56445" lon="2.58042">
        <ele>16</ele>
        <time>2012-01-29T07:54:27Z</time>
      </trkpt>
      <trkpt lat="50.56442" lon="2.5802">
        <ele>16</ele>
        <time>2012-01-29T07:54:29Z</time>
      </trkpt>
      <trkpt lat="50.5644" lon="2.57999">
        <ele>16</ele>
        <time>2012-01-29T07:54:31Z</time>
      </trkpt>
      <trkpt lat="50.56436" lon="2.57977">
        <ele>16</ele>
        <time>2012-01-29T07:54:33Z</time>
      </trkpt>
      <trkpt lat="50.5643" lon="2.57957">
        <ele>16</ele>
        <time>2012-01-29T07:54:35Z</time>
      </trkpt>
      <trkpt lat="50.56425" lon="2.57936">
        <ele>16</ele>
        <time>2012-01-29T07:54:37Z</time>
      </trkpt>
      <trkpt lat="50.56418" lon="2.57917">
        <ele>16</ele>
        <time>2012-01-29T07:54:39Z</time>
      </trkpt>
      <trkpt lat="50.56412" lon="2.57896">
        <ele>16</ele>
        <time>2012-01-29T07:54:41Z</time>
      </trkpt>
      <trkpt lat="50.56405" lon="2.57878">
        <ele>16</ele>
        <time>2012-01-29T07:54:43Z</time>
      </trkpt>
      <trkpt lat="50.56398" lon="2.57858">
        <ele>16</ele>
        <time>2012-01-29T07:54:45Z</time>
      </trkpt>
      <trkpt lat="50.5639" lon="2.57839">
        <ele>16</ele>
        <time>2012-01-29T07:54:47Z</time>
      </trkpt>
      <trkpt lat="50.56383" lon="2.5782">
        <ele>16</ele>
        <time>2012-01-29T07:54:49Z</time>
      </trkpt>
      <trkpt lat="50.56375" lon="2.57801">
        <ele>16</ele>
        <time>2012-01-29T07:54:51Z</time>
      </trkpt>
      <trkpt lat="50.56368" lon="2.57783">
        <ele>16</ele>
        <time>2012-01-29T07:54:53Z</time>
      </trkpt>
      <trkpt lat="50.5636" lon="2.57765">
        <ele>16</ele>
        <time>2012-01-29T07:54:55Z</time>
      </trkpt>
      <trkpt lat="50.56353" lon="2.57749">
        <ele>16</ele>
        <time>2012-01-29T07:54:57Z</time>
      </trkpt>
      <trkpt lat="50.56347" lon="2.57733">
        <ele>16</ele>
        <time>2012-01-29T07:54:59Z</time>
      </trkpt>
      <trkpt lat="50.56341" lon="2.57717">
        <ele>16</ele>
        <time>2012-01-29T07:55:01Z</time>
      </trkpt>
      <trkpt lat="50.56334" lon="2.577">
        <ele>16</ele>
        <time>2012-01-29T07:55:03Z</time>
      </trkpt>
      <trkpt lat="50.56328" lon="2.57683">
        <ele>16</ele>
        <time>2012-01-29T07:55:05Z</time>
      </trkpt>
      <trkpt lat="50.56321" lon="2.57666">
        <ele>16</ele>
        <time>2012-01-29T07:55:07Z</time>
      </trkpt>
      <trkpt lat="50.56315" lon="2.57649">
        <ele>16</ele>
        <time>2012-01-29T07:55:09Z</time>
      </trkpt>
      <trkpt lat="50.56311" lon="2.5763">
        <ele>16</ele>
        <time>2012-01-29T07:55:11Z</time>
      </trkpt>
      <trkpt lat="50.56309" lon="2.57611">
        <ele>16</ele>
        <time>2012-01-29T07:55:13Z</time>
      </trkpt>
      <trkpt lat="50.56304" lon="2.57591">
        <ele>16</ele>
        <time>2012-01-29T07:55:15Z</time>
      </trkpt>
      <trkpt lat="50.56299" lon="2.57572">
        <ele>16</ele>
        <time>2012-01-29T07:55:17Z</time>
      </trkpt>
      <trkpt lat="50.56295" lon="2.57554">
        <ele>16</ele>
        <time>2012-01-29T07:55:19Z</time>
      </trkpt>
      <trkpt lat="50.5629" lon="2.57536">
        <ele>16</ele>
        <time>2012-01-29T07:55:21Z</time>
      </trkpt>
      <trkpt lat="50.56285" lon="2.57518">
        <ele>16</ele>
        <time>2012-01-29T07:55:23Z</time>
      </trkpt>
      <trkpt lat="50.5628" lon="2.57501">
        <ele>16</ele>
        <time>2012-01-29T07:55:25Z</time>
      </trkpt>
      <trkpt lat="50.56273" lon="2.57483">
        <ele>16</ele>
        <time>2012-01-29T07:55:27Z</time>
      </trkpt>
      <trkpt lat="50.56265" lon="2.57466">
        <ele>16</ele>
        <time>2012-01-29T07:55:29Z</time>
      </trkpt>
      <trkpt lat="50.56255" lon="2.57453">
        <ele>16</ele>
        <time>2012-01-29T07:55:31Z</time>
      </trkpt>
      <trkpt lat="50.56244" lon="2.57442">
        <ele>16</ele>
        <time>2012-01-29T07:55:33Z</time>
      </trkpt>
      <trkpt lat="50.56234" lon="2.57435">
        <ele>16</ele>
        <time>2012-01-29T07:55:35Z</time>
      </trkpt>
      <trkpt lat="50.56222" lon="2.57428">
        <ele>16</ele>
        <time>2012-01-29T07:55:37Z</time>
      </trkpt>
      <trkpt lat="50.56213" lon="2.57418">
        <ele>16</ele>
        <time>2012-01-29T07:55:39Z</time>
      </trkpt>
      <trkpt lat="50.5621" lon="2.57402">
        <ele>16</ele>
        <time>2012-01-29T07:55:41Z</time>
      </trkpt>
      <trkpt lat="50.56214" lon="2.5739">
        <ele>16</ele>
        <time>2012-01-29T07:55:43Z</time>
      </trkpt>
      <trkpt lat="50.56224" lon="2.57384">
        <ele>16</ele>
        <time>2012-01-29T07:55:45Z</time>
      </trkpt>
      <trkpt lat="50.56234" lon="2.57379">
        <ele>16</ele>
        <time>2012-01-29T07:55:47Z</time>
      </trkpt>
      <trkpt lat="50.56246" lon="2.57375">
        <ele>16</ele>
        <time>2012-01-29T07:55:49Z</time>
      </trkpt>
      <trkpt lat="50.56258" lon="2.57369">
        <ele>16</ele>
        <time>2012-01-29T07:55:51Z</time>
      </trkpt>
      <trkpt lat="50.56271" lon="2.57364">
        <ele>16</ele>
        <time>2012-01-29T07:55:53Z</time>
      </trkpt>
      <trkpt lat="50.56283" lon="2.57359">
        <ele>16</ele>
        <time>2012-01-29T07:55:55Z</time>
      </trkpt>
      <trkpt lat="50.56295" lon="2.57355">
        <ele>16</ele>
        <time>2012-01-29T07:55:57Z</time>
      </trkpt>
      <trkpt lat="50.56306" lon="2.57347">
        <ele>16</ele>
        <time>2012-01-29T07:55:59Z</time>
      </trkpt>
      <trkpt lat="50.56315" lon="2.57331">
        <ele>16</ele>
        <time>2012-01-29T07:56:01Z</time>
      </trkpt>
      <trkpt lat="50.56316" lon="2.5731">
        <ele>16</ele>
        <time>2012-01-29T07:56:03Z</time>
      </trkpt>
      <trkpt lat="50.56313" lon="2.57289">
        <ele>16</ele>
        <time>2012-01-29T07:56:05Z</time>
      </trkpt>
      <trkpt lat="50.5631" lon="2.57269">
        <ele>16</ele>
        <time>2012-01-29T07:56:07Z</time>
      </trkpt>
      <trkpt lat="50.56306" lon="2.57248">
        <ele>16</ele>
        <time>2012-01-29T07:56:09Z</time>
      </trkpt>
      <trkpt lat="50.56302" lon="2.57227">
        <ele>16</ele>
        <time>2012-01-29T07:56:11Z</time>
      </trkpt>
      <trkpt lat="50.56297" lon="2.57207">
        <ele>16</ele>
        <time>2012-01-29T07:56:13Z</time>
      </trkpt>
      <trkpt lat="50.5629" lon="2.57188">
        <ele>16</ele>
        <time>2012-01-29T07:56:15Z</time>
      </trkpt>
      <trkpt lat="50.56283" lon="2.5717">
        <ele>16</ele>
        <time>2012-01-29T07:56:17Z</time>
      </trkpt>
      <trkpt lat="50.56275" lon="2.57152">
        <ele>16</ele>
        <time>2012-01-29T07:56:19Z</time>
      </trkpt>
      <trkpt lat="50.56265" lon="2.57135">
        <ele>16</ele>
        <time>2012-01-29T07:56:21Z</time>
      </trkpt>
      <trkpt lat="50.56256" lon="2.57119">
        <ele>16</ele>
        <time>2012-01-29T07:56:23Z</time>
      </trkpt>
      <trkpt lat="50.56247" lon="2.57103">
        <ele>16</ele>
        <time>2012-01-29T07:56:25Z</time>
      </trkpt>
      <trkpt lat="50.56238" lon="2.57088">
        <ele>16</ele>
        <time>2012-01-29T07:56:27Z</time>
      </trkpt>
      <trkpt lat="50.56228" lon="2.57073">
        <ele>16</ele>
        <time>2012-01-29T07:56:29Z</time>
      </trkpt>
      <trkpt lat="50.56219" lon="2.57057">
        <ele>16</ele>
        <time>2012-01-29T07:56:31Z</time>
      </trkpt>
      <trkpt lat="50.56211" lon="2.57039">
        <ele>16</ele>
        <time>2012-01-29T07:56:33Z</time>
      </trkpt>
      <trkpt lat="50.5621" lon="2.57019">
        <ele>16</ele>
        <time>2012-01-29T07:56:35Z</time>
      </trkpt>
      <trkpt lat="50.56218" lon="2.57003">
        <ele>10</ele>
        <time>2012-01-29T07:56:37Z</time>
      </trkpt>
      <trkpt lat="50.5623" lon="2.56991">
        <ele>10</ele>
        <time>2012-01-29T07:56:39Z</time>
      </trkpt>
      <trkpt lat="50.56241" lon="2.56978">
        <ele>10</ele>
        <time>2012-01-29T07:56:41Z</time>
      </trkpt>
      <trkpt lat="50.56251" lon="2.56966">
        <ele>10</ele>
        <time>2012-01-29T07:56:43Z</time>
      </trkpt>
      <trkpt lat="50.56265" lon="2.56953">
        <ele>10</ele>
        <time>2012-01-29T07:56:45Z</time>
      </trkpt>
      <trkpt lat="50.56277" lon="2.56938">
        <ele>10</ele>
        <time>2012-01-29T07:56:47Z</time>
      </trkpt>
      <trkpt lat="50.56285" lon="2.56918">
        <ele>10</ele>
        <time>2012-01-29T07:56:49Z</time>
      </trkpt>
      <trkpt lat="50.56287" lon="2.56896">
        <ele>10</ele>
        <time>2012-01-29T07:56:51Z</time>
      </trkpt>
      <trkpt lat="50.56286" lon="2.56873">
        <ele>10</ele>
        <time>2012-01-29T07:56:53Z</time>
      </trkpt>
      <trkpt lat="50.56283" lon="2.56851">
        <ele>10</ele>
        <time>2012-01-29T07:56:55Z</time>
      </trkpt>
      <trkpt lat="50.56281" lon="2.56829">
        <ele>10</ele>
        <time>2012-01-29T07:56:57Z</time>
      </trkpt>
      <trkpt lat="50.56279" lon="2.56806">
        <ele>16</ele>
        <time>2012-01-29T07:56:59Z</time>
      </trkpt>
      <trkpt lat="50.56279" lon="2.56783">
        <ele>16</ele>
        <time>2012-01-29T07:57:01Z</time>
      </trkpt>
      <trkpt lat="50.56279" lon="2.5676">
        <ele>16</ele>
        <time>2012-01-29T07:57:03Z</time>
      </trkpt>
      <trkpt lat="50.56278" lon="2.56737">
        <ele>16</ele>
        <time>2012-01-29T07:57:05Z</time>
      </trkpt>
      <trkpt lat="50.56276" lon="2.56713">
        <ele>16</ele>
        <time>2012-01-29T07:57:07Z</time>
      </trkpt>
      <trkpt lat="50.56273" lon="2.56691">
        <ele>16</ele>
        <time>2012-01-29T07:57:09Z</time>
      </trkpt>
      <trkpt lat="50.56269" lon="2.56668">
        <ele>16</ele>
        <time>2012-01-29T07:57:11Z</time>
      </trkpt>
      <trkpt lat="50.56266" lon="2.56644">
        <ele>16</ele>
        <time>2012-01-29T07:57:13Z</time>
      </trkpt>
      <trkpt lat="50.56263" lon="2.56621">
        <ele>16</ele>
        <time>2012-01-29T07:57:15Z</time>
      </trkpt>
      <trkpt lat="50.56262" lon="2.56597">
        <ele>16</ele>
        <time>2012-01-29T07:57:17Z</time>
      </trkpt>
      <trkpt lat="50.56261" lon="2.56572">
        <ele>16</ele>
        <time>2012-01-29T07:57:19Z</time>
      </trkpt>
      <trkpt lat="50.56262" lon="2.56548">
        <ele>16</ele>
        <time>2012-01-29T07:57:21Z</time>
      </trkpt>
      <trkpt lat="50.56264" lon="2.56524">
        <ele>16</ele>
        <time>2012-01-29T07:57:23Z</time>
      </trkpt>
      <trkpt lat="50.56267" lon="2.565">
        <ele>16</ele>
        <time>2012-01-29T07:57:25Z</time>
      </trkpt>
      <trkpt lat="50.56272" lon="2.56477">
        <ele>16</ele>
        <time>2012-01-29T07:57:27Z</time>
      </trkpt>
      <trkpt lat="50.56277" lon="2.56455">
        <ele>16</ele>
        <time>2012-01-29T07:57:29Z</time>
      </trkpt>
      <trkpt lat="50.56283" lon="2.56432">
        <ele>16</ele>
        <time>2012-01-29T07:57:31Z</time>
      </trkpt>
      <trkpt lat="50.56286" lon="2.5641">
        <ele>16</ele>
        <time>2012-01-29T07:57:33Z</time>
      </trkpt>
      <trkpt lat="50.56285" lon="2.56386">
        <ele>16</ele>
        <time>2012-01-29T07:57:35Z</time>
      </trkpt>
      <trkpt lat="50.56279" lon="2.56364">
        <ele>16</ele>
        <time>2012-01-29T07:57:37Z</time>
      </trkpt>
      <trkpt lat="50.56272" lon="2.56343">
        <ele>16</ele>
        <time>2012-01-29T07:57:39Z</time>
      </trkpt>
      <trkpt lat="50.56266" lon="2.56321">
        <ele>16</ele>
        <time>2012-01-29T07:57:41Z</time>
      </trkpt>
      <trkpt lat="50.56261" lon="2.56297">
        <ele>16</ele>
        <time>2012-01-29T07:57:43Z</time>
      </trkpt>
      <trkpt lat="50.56258" lon="2.56273">
        <ele>16</ele>
        <time>2012-01-29T07:57:45Z</time>
      </trkpt>
      <trkpt lat="50.56254" lon="2.5625">
        <ele>16</ele>
        <time>2012-01-29T07:57:47Z</time>
      </trkpt>
      <trkpt lat="50.56252" lon="2.56226">
        <ele>16</ele>
        <time>2012-01-29T07:57:49Z</time>
      </trkpt>
      <trkpt lat="50.56257" lon="2.56203">
        <ele>16</ele>
        <time>2012-01-29T07:57:51Z</time>
      </trkpt>
      <trkpt lat="50.56269" lon="2.56188">
        <ele>16</ele>
        <time>2012-01-29T07:57:53Z</time>
      </trkpt>
      <trkpt lat="50.56283" lon="2.56178">
        <ele>16</ele>
        <time>2012-01-29T07:57:55Z</time>
      </trkpt>
      <trkpt lat="50.56293" lon="2.56164">
        <ele>16</ele>
        <time>2012-01-29T07:57:57Z</time>
      </trkpt>
      <trkpt lat="50.56295" lon="2.56143">
        <ele>16</ele>
        <time>2012-01-29T07:57:59Z</time>
      </trkpt>
      <trkpt lat="50.56289" lon="2.56123">
        <ele>16</ele>
        <time>2012-01-29T07:58:01Z</time>
      </trkpt>
      <trkpt lat="50.56278" lon="2.56108">
        <ele>16</ele>
        <time>2012-01-29T07:58:03Z</time>
      </trkpt>
      <trkpt lat="50.56266" lon="2.56093">
        <ele>16</ele>
        <time>2012-01-29T07:58:05Z</time>
      </trkpt>
      <trkpt lat="50.56254" lon="2.56076">
        <ele>16</ele>
        <time>2012-01-29T07:58:07Z</time>
      </trkpt>
      <trkpt lat="50.56242" lon="2.56061">
        <ele>16</ele>
        <time>2012-01-29T07:58:09Z</time>
      </trkpt>
      <trkpt lat="50.5623" lon="2.56046">
        <ele>16</ele>
        <time>2012-01-29T07:58:11Z</time>
      </trkpt>
      <trkpt lat="50.56219" lon="2.56027">
        <ele>16</ele>
        <time>2012-01-29T07:58:13Z</time>
      </trkpt>
      <trkpt lat="50.56209" lon="2.56007">
        <ele>16</ele>
        <time>2012-01-29T07:58:15Z</time>
      </trkpt>
      <trkpt lat="50.562" lon="2.55987">
        <ele>16</ele>
        <time>2012-01-29T07:58:17Z</time>
      </trkpt>
      <trkpt lat="50.56193" lon="2.55964">
        <ele>16</ele>
        <time>2012-01-29T07:58:19Z</time>
      </trkpt>
      <trkpt lat="50.56187" lon="2.55941">
        <ele>16</ele>
        <time>2012-01-29T07:58:21Z</time>
      </trkpt>
      <trkpt lat="50.5618" lon="2.55917">
        <ele>16</ele>
        <time>2012-01-29T07:58:23Z</time>
      </trkpt>
      <trkpt lat="50.56173" lon="2.55894">
        <ele>16</ele>
        <time>2012-01-29T07:58:25Z</time>
      </trkpt>
      <trkpt lat="50.56166" lon="2.55871">
        <ele>16</ele>
        <time>2012-01-29T07:58:27Z</time>
      </trkpt>
      <trkpt lat="50.56159" lon="2.55847">
        <ele>16</ele>
        <time>2012-01-29T07:58:29Z</time>
      </trkpt>
      <trkpt lat="50.56151" lon="2.55824">
        <ele>16</ele>
        <time>2012-01-29T07:58:31Z</time>
      </trkpt>
      <trkpt lat="50.56143" lon="2.558">
        <ele>16</ele>
        <time>2012-01-29T07:58:33Z</time>
      </trkpt>
      <trkpt lat="50.56135" lon="2.55776">
        <ele>16</ele>
        <time>2012-01-29T07:58:35Z</time>
      </trkpt>
      <trkpt lat="50.56127" lon="2.55753">
        <ele>16</ele>
        <time>2012-01-29T07:58:37Z</time>
      </trkpt>
      <trkpt lat="50.56118" lon="2.5573">
        <ele>16</ele>
        <time>2012-01-29T07:58:39Z</time>
      </trkpt>
      <trkpt lat="50.56114" lon="2.55717">
        <ele>16</ele>
        <time>2012-01-29T07:58:40Z</time>
      </trkpt>
      <trkpt lat="50.56105" lon="2.55694">
        <ele>16</ele>
        <time>2012-01-29T07:58:42Z</time>
      </trkpt>
      <trkpt lat="50.56101" lon="2.55681">
        <ele>16</ele>
        <time>2012-01-29T07:58:43Z</time>
      </trkpt>
      <trkpt lat="50.56094" lon="2.55657">
        <ele>16</ele>
        <time>2012-01-29T07:58:45Z</time>
      </trkpt>
      <trkpt lat="50.56087" lon="2.55633">
        <ele>16</ele>
        <time>2012-01-29T07:58:47Z</time>
      </trkpt>
      <trkpt lat="50.56079" lon="2.55608">
        <ele>16</ele>
        <time>2012-01-29T07:58:49Z</time>
      </trkpt>
      <trkpt lat="50.56073" lon="2.55583">
        <ele>16</ele>
        <time>2012-01-29T07:58:51Z</time>
      </trkpt>
      <trkpt lat="50.56066" lon="2.55558">
        <ele>16</ele>
        <time>2012-01-29T07:58:53Z</time>
      </trkpt>
      <trkpt lat="50.56063" lon="2.55545">
        <ele>16</ele>
        <time>2012-01-29T07:58:54Z</time>
      </trkpt>
      <trkpt lat="50.56061" lon="2.55531">
        <ele>16</ele>
        <time>2012-01-29T07:58:55Z</time>
      </trkpt>
      <trkpt lat="50.56059" lon="2.55518">
        <ele>16</ele>
        <time>2012-01-29T07:58:56Z</time>
      </trkpt>
      <trkpt lat="50.56055" lon="2.55492">
        <ele>16</ele>
        <time>2012-01-29T07:58:58Z</time>
      </trkpt>
      <trkpt lat="50.56052" lon="2.55466">
        <ele>16</ele>
        <time>2012-01-29T07:59:00Z</time>
      </trkpt>
      <trkpt lat="50.56048" lon="2.5544">
        <ele>16</ele>
        <time>2012-01-29T07:59:02Z</time>
      </trkpt>
      <trkpt lat="50.56045" lon="2.55414">
        <ele>16</ele>
        <time>2012-01-29T07:59:04Z</time>
      </trkpt>
      <trkpt lat="50.5604" lon="2.55389">
        <ele>16</ele>
        <time>2012-01-29T07:59:06Z</time>
      </trkpt>
      <trkpt lat="50.56033" lon="2.55366">
        <ele>16</ele>
        <time>2012-01-29T07:59:08Z</time>
      </trkpt>
      <trkpt lat="50.56024" lon="2.55344">
        <ele>16</ele>
        <time>2012-01-29T07:59:10Z</time>
      </trkpt>
      <trkpt lat="50.56012" lon="2.55326">
        <ele>16</ele>
        <time>2012-01-29T07:59:12Z</time>
      </trkpt>
      <trkpt lat="50.55997" lon="2.55314">
        <ele>16</ele>
        <time>2012-01-29T07:59:14Z</time>
      </trkpt>
      <trkpt lat="50.55981" lon="2.55304">
        <ele>16</ele>
        <time>2012-01-29T07:59:16Z</time>
      </trkpt>
      <trkpt lat="50.55966" lon="2.55292">
        <ele>16</ele>
        <time>2012-01-29T07:59:18Z</time>
      </trkpt>
      <trkpt lat="50.55953" lon="2.55277">
        <ele>16</ele>
        <time>2012-01-29T07:59:20Z</time>
      </trkpt>
      <trkpt lat="50.55942" lon="2.55255">
        <ele>16</ele>
        <time>2012-01-29T07:59:22Z</time>
      </trkpt>
      <trkpt lat="50.55935" lon="2.55232">
        <ele>16</ele>
        <time>2012-01-29T07:59:24Z</time>
      </trkpt>
      <trkpt lat="50.55928" lon="2.55207">
        <ele>16</ele>
        <time>2012-01-29T07:59:26Z</time>
      </trkpt>
      <trkpt lat="50.55921" lon="2.55182">
        <ele>16</ele>
        <time>2012-01-29T07:59:28Z</time>
      </trkpt>
      <trkpt lat="50.55914" lon="2.55157">
        <ele>16</ele>
        <time>2012-01-29T07:59:30Z</time>
      </trkpt>
      <trkpt lat="50.55907" lon="2.55132">
        <ele>16</ele>
        <time>2012-01-29T07:59:32Z</time>
      </trkpt>
      <trkpt lat="50.55901" lon="2.55108">
        <ele>16</ele>
        <time>2012-01-29T07:59:34Z</time>
      </trkpt>
      <trkpt lat="50.55894" lon="2.55083">
        <ele>16</ele>
        <time>2012-01-29T07:59:36Z</time>
      </trkpt>
      <trkpt lat="50.55886" lon="2.55059">
        <ele>16</ele>
        <time>2012-01-29T07:59:38Z</time>
      </trkpt>
      <trkpt lat="50.5588" lon="2.55034">
        <ele>16</ele>
        <time>2012-01-29T07:59:40Z</time>
      </trkpt>
      <trkpt lat="50.55873" lon="2.55009">
        <ele>16</ele>
        <time>2012-01-29T07:59:42Z</time>
      </trkpt>
      <trkpt lat="50.55867" lon="2.54984">
        <ele>16</ele>
        <time>2012-01-29T07:59:44Z</time>
      </trkpt>
      <trkpt lat="50.55861" lon="2.54959">
        <ele>16</ele>
        <time>2012-01-29T07:59:46Z</time>
      </trkpt>
      <trkpt lat="50.55854" lon="2.54935">
        <ele>16</ele>
        <time>2012-01-29T07:59:48Z</time>
      </trkpt>
      <trkpt lat="50.55849" lon="2.5491">
        <ele>16</ele>
        <time>2012-01-29T07:59:50Z</time>
      </trkpt>
      <trkpt lat="50.55843" lon="2.54888">
        <ele>16</ele>
        <time>2012-01-29T07:59:52Z</time>
      </trkpt>
      <trkpt lat="50.55839" lon="2.54866">
        <ele>16</ele>
        <time>2012-01-29T07:59:54Z</time>
      </trkpt>
      <trkpt lat="50.55834" lon="2.54844">
        <ele>16</ele>
        <time>2012-01-29T07:59:56Z</time>
      </trkpt>
      <trkpt lat="50.55829" lon="2.54822">
        <ele>16</ele>
        <time>2012-01-29T07:59:58Z</time>
      </trkpt>
      <trkpt lat="50.55824" lon="2.54797">
        <ele>16</ele>
        <time>2012-01-29T08:00:00Z</time>
      </trkpt>
      <trkpt lat="50.55818" lon="2.54773">
        <ele>16</ele>
        <time>2012-01-29T08:00:02Z</time>
      </trkpt>
      <trkpt lat="50.55811" lon="2.5475">
        <ele>16</ele>
        <time>2012-01-29T08:00:04Z</time>
      </trkpt>
      <trkpt lat="50.55805" lon="2.54725">
        <ele>16</ele>
        <time>2012-01-29T08:00:06Z</time>
      </trkpt>
      <trkpt lat="50.55798" lon="2.54702">
        <ele>16</ele>
        <time>2012-01-29T08:00:08Z</time>
      </trkpt>
      <trkpt lat="50.55791" lon="2.54678">
        <ele>16</ele>
        <time>2012-01-29T08:00:10Z</time>
      </trkpt>
      <trkpt lat="50.55785" lon="2.54654">
        <ele>16</ele>
        <time>2012-01-29T08:00:12Z</time>
      </trkpt>
      <trkpt lat="50.55778" lon="2.54629">
        <ele>16</ele>
        <time>2012-01-29T08:00:14Z</time>
      </trkpt>
      <trkpt lat="50.55772" lon="2.54604">
        <ele>16</ele>
        <time>2012-01-29T08:00:16Z</time>
      </trkpt>
      <trkpt lat="50.55769" lon="2.54579">
        <ele>16</ele>
        <time>2012-01-29T08:00:18Z</time>
      </trkpt>
      <trkpt lat="50.55767" lon="2.54553">
        <ele>16</ele>
        <time>2012-01-29T08:00:20Z</time>
      </trkpt>
      <trkpt lat="50.55767" lon="2.54528">
        <ele>16</ele>
        <time>2012-01-29T08:00:22Z</time>
      </trkpt>
      <trkpt lat="50.55767" lon="2.54503">
        <ele>16</ele>
        <time>2012-01-29T08:00:24Z</time>
      </trkpt>
      <trkpt lat="50.55765" lon="2.54478">
        <ele>16</ele>
        <time>2012-01-29T08:00:26Z</time>
      </trkpt>
      <trkpt lat="50.55761" lon="2.54455">
        <ele>16</ele>
        <time>2012-01-29T08:00:28Z</time>
      </trkpt>
      <trkpt lat="50.55756" lon="2.54433">
        <ele>16</ele>
        <time>2012-01-29T08:00:30Z</time>
      </trkpt>
      <trkpt lat="50.5575" lon="2.5441">
        <ele>16</ele>
        <time>2012-01-29T08:00:32Z</time>
      </trkpt>
      <trkpt lat="50.55743" lon="2.54389">
        <ele>16</ele>
        <time>2012-01-29T08:00:34Z</time>
      </trkpt>
      <trkpt lat="50.55735" lon="2.54367">
        <ele>16</ele>
        <time>2012-01-29T08:00:36Z</time>
      </trkpt>
      <trkpt lat="50.55728" lon="2.54345">
        <ele>16</ele>
        <time>2012-01-29T08:00:38Z</time>
      </trkpt>
      <trkpt lat="50.55721" lon="2.54324">
        <ele>16</ele>
        <time>2012-01-29T08:00:40Z</time>
      </trkpt>
      <trkpt lat="50.55714" lon="2.54301">
        <ele>16</ele>
        <time>2012-01-29T08:00:42Z</time>
      </trkpt>
      <trkpt lat="50.55708" lon="2.5428">
        <ele>16</ele>
        <time>2012-01-29T08:00:44Z</time>
      </trkpt>
      <trkpt lat="50.557" lon="2.54258">
        <ele>16</ele>
        <time>2012-01-29T08:00:46Z</time>
      </trkpt>
      <trkpt lat="50.55693" lon="2.54236">
        <ele>16</ele>
        <time>2012-01-29T08:00:48Z</time>
      </trkpt>
      <trkpt lat="50.55686" lon="2.54214">
        <ele>16</ele>
        <time>2012-01-29T08:00:50Z</time>
      </trkpt>
      <trkpt lat="50.55679" lon="2.54192">
        <ele>16</ele>
        <time>2012-01-29T08:00:52Z</time>
      </trkpt>
      <trkpt lat="50.55671" lon="2.5417">
        <ele>16</ele>
        <time>2012-01-29T08:00:54Z</time>
      </trkpt>
      <trkpt lat="50.55664" lon="2.54148">
        <ele>16</ele>
        <time>2012-01-29T08:00:56Z</time>
      </trkpt>
      <trkpt lat="50.55656" lon="2.54127">
        <ele>16</ele>
        <time>2012-01-29T08:00:58Z</time>
      </trkpt>
      <trkpt lat="50.55649" lon="2.54106">
        <ele>16</ele>
        <time>2012-01-29T08:01:00Z</time>
      </trkpt>
      <trkpt lat="50.55644" lon="2.54086">
        <ele>16</ele>
        <time>2012-01-29T08:01:02Z</time>
      </trkpt>
      <trkpt lat="50.55639" lon="2.54066">
        <ele>16</ele>
        <time>2012-01-29T08:01:04Z</time>
      </trkpt>
      <trkpt lat="50.55634" lon="2.54045">
        <ele>16</ele>
        <time>2012-01-29T08:01:06Z</time>
      </trkpt>
      <trkpt lat="50.55631" lon="2.54023">
        <ele>16</ele>
        <time>2012-01-29T08:01:08Z</time>
      </trkpt>
      <trkpt lat="50.55628" lon="2.54">
        <ele>16</ele>
        <time>2012-01-29T08:01:10Z</time>
      </trkpt>
      <trkpt lat="50.55625" lon="2.53978">
        <ele>16</ele>
        <time>2012-01-29T08:01:12Z</time>
      </trkpt>
      <trkpt lat="50.55621" lon="2.53955">
        <ele>16</ele>
        <time>2012-01-29T08:01:14Z</time>
      </trkpt>
      <trkpt lat="50.55618" lon="2.53931">
        <ele>16</ele>
        <time>2012-01-29T08:01:16Z</time>
      </trkpt>
      <trkpt lat="50.55616" lon="2.53908">
        <ele>16</ele>
        <time>2012-01-29T08:01:18Z</time>
      </trkpt>
      <trkpt lat="50.55613" lon="2.53884">
        <ele>16</ele>
        <time>2012-01-29T08:01:20Z</time>
      </trkpt>
      <trkpt lat="50.55613" lon="2.53859">
        <ele>16</ele>
        <time>2012-01-29T08:01:22Z</time>
      </trkpt>
      <trkpt lat="50.55613" lon="2.53836">
        <ele>16</ele>
        <time>2012-01-29T08:01:24Z</time>
      </trkpt>
      <trkpt lat="50.55617" lon="2.53814">
        <ele>16</ele>
        <time>2012-01-29T08:01:26Z</time>
      </trkpt>
      <trkpt lat="50.55621" lon="2.5379">
        <ele>16</ele>
        <time>2012-01-29T08:01:28Z</time>
      </trkpt>
      <trkpt lat="50.55621" lon="2.53767">
        <ele>16</ele>
        <time>2012-01-29T08:01:30Z</time>
      </trkpt>
      <trkpt lat="50.55614" lon="2.53746">
        <ele>16</ele>
        <time>2012-01-29T08:01:32Z</time>
      </trkpt>
      <trkpt lat="50.55602" lon="2.5373">
        <ele>16</ele>
        <time>2012-01-29T08:01:34Z</time>
      </trkpt>
      <trkpt lat="50.5559" lon="2.53716">
        <ele>16</ele>
        <time>2012-01-29T08:01:36Z</time>
      </trkpt>
      <trkpt lat="50.55577" lon="2.53701">
        <ele>16</ele>
        <time>2012-01-29T08:01:38Z</time>
      </trkpt>
      <trkpt lat="50.55565" lon="2.53688">
        <ele>16</ele>
        <time>2012-01-29T08:01:40Z</time>
      </trkpt>
      <trkpt lat="50.55553" lon="2.53674">
        <ele>16</ele>
        <time>2012-01-29T08:01:42Z</time>
      </trkpt>
      <trkpt lat="50.55541" lon="2.53659">
        <ele>16</ele>
        <time>2012-01-29T08:01:44Z</time>
      </trkpt>
      <trkpt lat="50.55529" lon="2.53646">
        <ele>16</ele>
        <time>2012-01-29T08:01:46Z</time>
      </trkpt>
      <trkpt lat="50.55517" lon="2.53632">
        <ele>16</ele>
        <time>2012-01-29T08:01:48Z</time>
      </trkpt>
      <trkpt lat="50.55506" lon="2.53619">
        <ele>16</ele>
        <time>2012-01-29T08:01:50Z</time>
      </trkpt>
      <trkpt lat="50.55498" lon="2.53603">
        <ele>16</ele>
        <time>2012-01-29T08:01:52Z</time>
      </trkpt>
      <trkpt lat="50.55495" lon="2.53585">
        <ele>16</ele>
        <time>2012-01-29T08:01:54Z</time>
      </trkpt>
      <trkpt lat="50.55501" lon="2.53569">
        <ele>16</ele>
        <time>2012-01-29T08:01:56Z</time>
      </trkpt>
      <trkpt lat="50.55511" lon="2.53559">
        <ele>16</ele>
        <time>2012-01-29T08:01:58Z</time>
      </trkpt>
      <trkpt lat="50.55525" lon="2.53547">
        <ele>16</ele>
        <time>2012-01-29T08:02:00Z</time>
      </trkpt>
      <trkpt lat="50.55535" lon="2.53534">
        <ele>16</ele>
        <time>2012-01-29T08:02:02Z</time>
      </trkpt>
      <trkpt lat="50.55548" lon="2.53522">
        <ele>16</ele>
        <time>2012-01-29T08:02:04Z</time>
      </trkpt>
      <trkpt lat="50.55559" lon="2.53508">
        <ele>16</ele>
        <time>2012-01-29T08:02:06Z</time>
      </trkpt>
      <trkpt lat="50.5557" lon="2.53496">
        <ele>16</ele>
        <time>2012-01-29T08:02:08Z</time>
      </trkpt>
      <trkpt lat="50.55582" lon="2.53482">
        <ele>16</ele>
        <time>2012-01-29T08:02:10Z</time>
      </trkpt>
      <trkpt lat="50.55594" lon="2.5347">
        <ele>16</ele>
        <time>2012-01-29T08:02:12Z</time>
      </trkpt>
      <trkpt lat="50.55606" lon="2.53456">
        <ele>16</ele>
        <time>2012-01-29T08:02:14Z</time>
      </trkpt>
      <trkpt lat="50.55618" lon="2.53443">
        <ele>16</ele>
        <time>2012-01-29T08:02:16Z</time>
      </trkpt>
      <trkpt lat="50.55629" lon="2.53427">
        <ele>16</ele>
        <time>2012-01-29T08:02:18Z</time>
      </trkpt>
      <trkpt lat="50.5564" lon="2.53412">
        <ele>16</ele>
        <time>2012-01-29T08:02:20Z</time>
      </trkpt>
      <trkpt lat="50.5565" lon="2.53396">
        <ele>16</ele>
        <time>2012-01-29T08:02:22Z</time>
      </trkpt>
      <trkpt lat="50.5566" lon="2.53378">
        <ele>16</ele>
        <time>2012-01-29T08:02:24Z</time>
      </trkpt>
      <trkpt lat="50.55668" lon="2.53361">
        <ele>16</ele>
        <time>2012-01-29T08:02:26Z</time>
      </trkpt>
      <trkpt lat="50.55677" lon="2.53343">
        <ele>16</ele>
        <time>2012-01-29T08:02:28Z</time>
      </trkpt>
      <trkpt lat="50.55686" lon="2.53325">
        <ele>16</ele>
        <time>2012-01-29T08:02:30Z</time>
      </trkpt>
      <trkpt lat="50.55694" lon="2.53307">
        <ele>16</ele>
        <time>2012-01-29T08:02:32Z</time>
      </trkpt>
      <trkpt lat="50.55701" lon="2.53289">
        <ele>16</ele>
        <time>2012-01-29T08:02:34Z</time>
      </trkpt>
      <trkpt lat="50.55707" lon="2.53271">
        <ele>16</ele>
        <time>2012-01-29T08:02:36Z</time>
      </trkpt>
      <trkpt lat="50.55713" lon="2.53252">
        <ele>16</ele>
        <time>2012-01-29T08:02:38Z</time>
      </trkpt>
      <trkpt lat="50.55719" lon="2.53234">
        <ele>16</ele>
        <time>2012-01-29T08:02:40Z</time>
      </trkpt>
      <trkpt lat="50.55725" lon="2.53214">
        <ele>16</ele>
        <time>2012-01-29T08:02:42Z</time>
      </trkpt>
      <trkpt lat="50.55731" lon="2.53196">
        <ele>16</ele>
        <time>2012-01-29T08:02:44Z</time>
      </trkpt>
      <trkpt lat="50.55738" lon="2.53178">
        <ele>16</ele>
        <time>2012-01-29T08:02:46Z</time>
      </trkpt>
      <trkpt lat="50.55744" lon="2.53159">
        <ele>16</ele>
        <time>2012-01-29T08:02:48Z</time>
      </trkpt>
      <trkpt lat="50.55751" lon="2.53142">
        <ele>16</ele>
        <time>2012-01-29T08:02:50Z</time>
      </trkpt>
      <trkpt lat="50.55759" lon="2.53126">
        <ele>16</ele>
        <time>2012-01-29T08:02:52Z</time>
      </trkpt>
      <trkpt lat="50.55768" lon="2.53114">
        <ele>16</ele>
        <time>2012-01-29T08:02:54Z</time>
      </trkpt>
      <trkpt lat="50.55781" lon="2.53111">
        <ele>16</ele>
        <time>2012-01-29T08:02:56Z</time>
      </trkpt>
      <trkpt lat="50.55795" lon="2.53117">
        <ele>16</ele>
        <time>2012-01-29T08:02:58Z</time>
      </trkpt>
      <trkpt lat="50.55808" lon="2.53126">
        <ele>16</ele>
        <time>2012-01-29T08:03:00Z</time>
      </trkpt>
      <trkpt lat="50.55822" lon="2.53128">
        <ele>16</ele>
        <time>2012-01-29T08:03:02Z</time>
      </trkpt>
      <trkpt lat="50.55836" lon="2.53127">
        <ele>16</ele>
        <time>2012-01-29T08:03:04Z</time>
      </trkpt>
      <trkpt lat="50.55851" lon="2.53125">
        <ele>16</ele>
        <time>2012-01-29T08:03:06Z</time>
      </trkpt>
      <trkpt lat="50.55864" lon="2.53121">
        <ele>16</ele>
        <time>2012-01-29T08:03:08Z</time>
      </trkpt>
      <trkpt lat="50.55878" lon="2.53117">
        <ele>16</ele>
        <time>2012-01-29T08:03:10Z</time>
      </trkpt>
      <trkpt lat="50.55891" lon="2.53115">
        <ele>16</ele>
        <time>2012-01-29T08:03:12Z</time>
      </trkpt>
      <trkpt lat="50.55905" lon="2.53111">
        <ele>16</ele>
        <time>2012-01-29T08:03:14Z</time>
      </trkpt>
      <trkpt lat="50.55918" lon="2.53108">
        <ele>16</ele>
        <time>2012-01-29T08:03:16Z</time>
      </trkpt>
      <trkpt lat="50.55931" lon="2.53104">
        <ele>16</ele>
        <time>2012-01-29T08:03:18Z</time>
      </trkpt>
      <trkpt lat="50.55945" lon="2.53094">
        <ele>16</ele>
        <time>2012-01-29T08:03:20Z</time>
      </trkpt>
      <trkpt lat="50.55956" lon="2.53081">
        <ele>16</ele>
        <time>2012-01-29T08:03:22Z</time>
      </trkpt>
      <trkpt lat="50.55965" lon="2.53063">
        <ele>16</ele>
        <time>2012-01-29T08:03:24Z</time>
      </trkpt>
      <trkpt lat="50.55974" lon="2.53046">
        <ele>16</ele>
        <time>2012-01-29T08:03:26Z</time>
      </trkpt>
      <trkpt lat="50.55982" lon="2.53028">
        <ele>16</ele>
        <time>2012-01-29T08:03:28Z</time>
      </trkpt>
      <trkpt lat="50.55988" lon="2.53009">
        <ele>16</ele>
        <time>2012-01-29T08:03:30Z</time>
      </trkpt>
      <trkpt lat="50.55993" lon="2.52988">
        <ele>16</ele>
        <time>2012-01-29T08:03:32Z</time>
      </trkpt>
      <trkpt lat="50.55999" lon="2.52968">
        <ele>16</ele>
        <time>2012-01-29T08:03:34Z</time>
      </trkpt>
      <trkpt lat="50.56009" lon="2.52955">
        <ele>16</ele>
        <time>2012-01-29T08:03:36Z</time>
      </trkpt>
      <trkpt lat="50.56022" lon="2.52949">
        <ele>16</ele>
        <time>2012-01-29T08:03:38Z</time>
      </trkpt>
      <trkpt lat="50.56036" lon="2.52949">
        <ele>16</ele>
        <time>2012-01-29T08:03:40Z</time>
      </trkpt>
      <trkpt lat="50.56049" lon="2.52949">
        <ele>16</ele>
        <time>2012-01-29T08:03:42Z</time>
      </trkpt>
      <trkpt lat="50.56062" lon="2.52949">
        <ele>16</ele>
        <time>2012-01-29T08:03:44Z</time>
      </trkpt>
      <trkpt lat="50.56075" lon="2.52948">
        <ele>16</ele>
        <time>2012-01-29T08:03:46Z</time>
      </trkpt>
      <trkpt lat="50.56088" lon="2.52947">
        <ele>16</ele>
        <time>2012-01-29T08:03:48Z</time>
      </trkpt>
      <trkpt lat="50.56101" lon="2.52948">
        <ele>16</ele>
        <time>2012-01-29T08:03:50Z</time>
      </trkpt>
      <trkpt lat="50.56115" lon="2.52949">
        <ele>16</ele>
        <time>2012-01-29T08:03:52Z</time>
      </trkpt>
      <trkpt lat="50.56128" lon="2.52952">
        <ele>16</ele>
        <time>2012-01-29T08:03:54Z</time>
      </trkpt>
      <trkpt lat="50.5614" lon="2.52956">
        <ele>16</ele>
        <time>2012-01-29T08:03:56Z</time>
      </trkpt>
      <trkpt lat="50.56153" lon="2.52958">
        <ele>16</ele>
        <time>2012-01-29T08:03:58Z</time>
      </trkpt>
      <trkpt lat="50.56166" lon="2.52961">
        <ele>16</ele>
        <time>2012-01-29T08:04:00Z</time>
      </trkpt>
      <trkpt lat="50.56178" lon="2.52964">
        <ele>16</ele>
        <time>2012-01-29T08:04:02Z</time>
      </trkpt>
      <trkpt lat="50.56189" lon="2.52966">
        <ele>16</ele>
        <time>2012-01-29T08:04:04Z</time>
      </trkpt>
      <trkpt lat="50.562" lon="2.52968">
        <ele>16</ele>
        <time>2012-01-29T08:04:06Z</time>
      </trkpt>
      <trkpt lat="50.56212" lon="2.52971">
        <ele>16</ele>
        <time>2012-01-29T08:04:08Z</time>
      </trkpt>
      <trkpt lat="50.56224" lon="2.52974">
        <ele>16</ele>
        <time>2012-01-29T08:04:10Z</time>
      </trkpt>
      <trkpt lat="50.56235" lon="2.52976">
        <ele>16</ele>
        <time>2012-01-29T08:04:12Z</time>
      </trkpt>
      <trkpt lat="50.56246" lon="2.52979">
        <ele>16</ele>
        <time>2012-01-29T08:04:14Z</time>
      </trkpt>
      <trkpt lat="50.56258" lon="2.52981">
        <ele>16</ele>
        <time>2012-01-29T08:04:16Z</time>
      </trkpt>
      <trkpt lat="50.56269" lon="2.52984">
        <ele>16</ele>
        <time>2012-01-29T08:04:18Z</time>
      </trkpt>
      <trkpt lat="50.56279" lon="2.52986">
        <ele>16</ele>
        <time>2012-01-29T08:04:20Z</time>
      </trkpt>
      <trkpt lat="50.56291" lon="2.52987">
        <ele>16</ele>
        <time>2012-01-29T08:04:22Z</time>
      </trkpt>
      <trkpt lat="50.56302" lon="2.52986">
        <ele>16</ele>
        <time>2012-01-29T08:04:24Z</time>
      </trkpt>
      <trkpt lat="50.56313" lon="2.52982">
        <ele>16</ele>
        <time>2012-01-29T08:04:26Z</time>
      </trkpt>
      <trkpt lat="50.56323" lon="2.52975">
        <ele>16</ele>
        <time>2012-01-29T08:04:28Z</time>
      </trkpt>
      <trkpt lat="50.56333" lon="2.52966">
        <ele>16</ele>
        <time>2012-01-29T08:04:30Z</time>
      </trkpt>
      <trkpt lat="50.56343" lon="2.52956">
        <ele>16</ele>
        <time>2012-01-29T08:04:32Z</time>
      </trkpt>
      <trkpt lat="50.56354" lon="2.52945">
        <ele>16</ele>
        <time>2012-01-29T08:04:34Z</time>
      </trkpt>
      <trkpt lat="50.56364" lon="2.52933">
        <ele>16</ele>
        <time>2012-01-29T08:04:36Z</time>
      </trkpt>
      <trkpt lat="50.56374" lon="2.52923">
        <ele>16</ele>
        <time>2012-01-29T08:04:38Z</time>
      </trkpt>
      <trkpt lat="50.56385" lon="2.52911">
        <ele>16</ele>
        <time>2012-01-29T08:04:40Z</time>
      </trkpt>
      <trkpt lat="50.56396" lon="2.529">
        <ele>16</ele>
        <time>2012-01-29T08:04:42Z</time>
      </trkpt>
      <trkpt lat="50.56407" lon="2.52888">
        <ele>16</ele>
        <time>2012-01-29T08:04:44Z</time>
      </trkpt>
      <trkpt lat="50.56418" lon="2.52878">
        <ele>16</ele>
        <time>2012-01-29T08:04:46Z</time>
      </trkpt>
      <trkpt lat="50.5643" lon="2.5287">
        <ele>16</ele>
        <time>2012-01-29T08:04:48Z</time>
      </trkpt>
      <trkpt lat="50.56444" lon="2.5287">
        <ele>16</ele>
        <time>2012-01-29T08:04:50Z</time>
      </trkpt>
      <trkpt lat="50.56456" lon="2.52877">
        <ele>16</ele>
        <time>2012-01-29T08:04:52Z</time>
      </trkpt>
      <trkpt lat="50.56468" lon="2.52887">
        <ele>16</ele>
        <time>2012-01-29T08:04:54Z</time>
      </trkpt>
      <trkpt lat="50.56478" lon="2.52899">
        <ele>16</ele>
        <time>2012-01-29T08:04:56Z</time>
      </trkpt>
      <trkpt lat="50.56488" lon="2.5291">
        <ele>16</ele>
        <time>2012-01-29T08:04:58Z</time>
      </trkpt>
      <trkpt lat="50.56499" lon="2.52921">
        <ele>16</ele>
        <time>2012-01-29T08:05:00Z</time>
      </trkpt>
      <trkpt lat="50.56509" lon="2.52931">
        <ele>16</ele>
        <time>2012-01-29T08:05:02Z</time>
      </trkpt>
      <trkpt lat="50.56519" lon="2.52941">
        <ele>16</ele>
        <time>2012-01-29T08:05:04Z</time>
      </trkpt>
      <trkpt lat="50.56529" lon="2.52952">
        <ele>16</ele>
        <time>2012-01-29T08:05:06Z</time>
      </trkpt>
      <trkpt lat="50.56539" lon="2.52962">
        <ele>16</ele>
        <time>2012-01-29T08:05:08Z</time>
      </trkpt>
      <trkpt lat="50.56549" lon="2.52973">
        <ele>16</ele>
        <time>2012-01-29T08:05:10Z</time>
      </trkpt>
      <trkpt lat="50.56559" lon="2.52984">
        <ele>16</ele>
        <time>2012-01-29T08:05:12Z</time>
      </trkpt>
      <trkpt lat="50.56569" lon="2.52995">
        <ele>16</ele>
        <time>2012-01-29T08:05:14Z</time>
      </trkpt>
      <trkpt lat="50.56579" lon="2.53006">
        <ele>16</ele>
        <time>2012-01-29T08:05:16Z</time>
      </trkpt>
      <trkpt lat="50.56591" lon="2.53016">
        <ele>16</ele>
        <time>2012-01-29T08:05:18Z</time>
      </trkpt>
      <trkpt lat="50.56602" lon="2.53023">
        <ele>16</ele>
        <time>2012-01-29T08:05:20Z</time>
      </trkpt>
      <trkpt lat="50.56614" lon="2.53029">
        <ele>16</ele>
        <time>2012-01-29T08:05:22Z</time>
      </trkpt>
      <trkpt lat="50.56626" lon="2.53037">
        <ele>16</ele>
        <time>2012-01-29T08:05:24Z</time>
      </trkpt>
      <trkpt lat="50.56638" lon="2.53045">
        <ele>16</ele>
        <time>2012-01-29T08:05:26Z</time>
      </trkpt>
      <trkpt lat="50.5665" lon="2.5305">
        <ele>16</ele>
        <time>2012-01-29T08:05:28Z</time>
      </trkpt>
      <trkpt lat="50.56663" lon="2.53053">
        <ele>16</ele>
        <time>2012-01-29T08:05:30Z</time>
      </trkpt>
      <trkpt lat="50.56676" lon="2.53054">
        <ele>16</ele>
        <time>2012-01-29T08:05:32Z</time>
      </trkpt>
      <trkpt lat="50.56689" lon="2.53055">
        <ele>16</ele>
        <time>2012-01-29T08:05:34Z</time>
      </trkpt>
      <trkpt lat="50.56702" lon="2.53055">
        <ele>16</ele>
        <time>2012-01-29T08:05:36Z</time>
      </trkpt>
      <trkpt lat="50.56714" lon="2.53056">
        <ele>16</ele>
        <time>2012-01-29T08:05:38Z</time>
      </trkpt>
      <trkpt lat="50.56727" lon="2.53057">
        <ele>16</ele>
        <time>2012-01-29T08:05:40Z</time>
      </trkpt>
      <trkpt lat="50.56739" lon="2.53058">
        <ele>16</ele>
        <time>2012-01-29T08:05:42Z</time>
      </trkpt>
      <trkpt lat="50.56751" lon="2.5306">
        <ele>16</ele>
        <time>2012-01-29T08:05:44Z</time>
      </trkpt>
      <trkpt lat="50.56763" lon="2.53061">
        <ele>16</ele>
        <time>2012-01-29T08:05:46Z</time>
      </trkpt>
      <trkpt lat="50.56775" lon="2.53061">
        <ele>16</ele>
        <time>2012-01-29T08:05:48Z</time>
      </trkpt>
      <trkpt lat="50.56787" lon="2.53059">
        <ele>16</ele>
        <time>2012-01-29T08:05:50Z</time>
      </trkpt>
      <trkpt lat="50.56799" lon="2.53055">
        <ele>16</ele>
        <time>2012-01-29T08:05:52Z</time>
      </trkpt>
      <trkpt lat="50.5681" lon="2.53048">
        <ele>16</ele>
        <time>2012-01-29T08:05:54Z</time>
      </trkpt>
      <trkpt lat="50.56822" lon="2.53042">
        <ele>16</ele>
        <time>2012-01-29T08:05:56Z</time>
      </trkpt>
      <trkpt lat="50.56835" lon="2.53035">
        <ele>16</ele>
        <time>2012-01-29T08:05:58Z</time>
      </trkpt>
      <trkpt lat="50.56848" lon="2.53029">
        <ele>16</ele>
        <time>2012-01-29T08:06:00Z</time>
      </trkpt>
      <trkpt lat="50.5686" lon="2.53021">
        <ele>16</ele>
        <time>2012-01-29T08:06:02Z</time>
      </trkpt>
      <trkpt lat="50.56873" lon="2.53013">
        <ele>16</ele>
        <time>2012-01-29T08:06:04Z</time>
      </trkpt>
      <trkpt lat="50.56886" lon="2.53005">
        <ele>16</ele>
        <time>2012-01-29T08:06:06Z</time>
      </trkpt>
      <trkpt lat="50.569" lon="2.52997">
        <ele>16</ele>
        <time>2012-01-29T08:06:08Z</time>
      </trkpt>
      <trkpt lat="50.56913" lon="2.52991">
        <ele>16</ele>
        <time>2012-01-29T08:06:10Z</time>
      </trkpt>
      <trkpt lat="50.56925" lon="2.52983">
        <ele>16</ele>
        <time>2012-01-29T08:06:12Z</time>
      </trkpt>
      <trkpt lat="50.56937" lon="2.52976">
        <ele>16</ele>
        <time>2012-01-29T08:06:14Z</time>
      </trkpt>
      <trkpt lat="50.56948" lon="2.5297">
        <ele>16</ele>
        <time>2012-01-29T08:06:16Z</time>
      </trkpt>
      <trkpt lat="50.56959" lon="2.52964">
        <ele>16</ele>
        <time>2012-01-29T08:06:18Z</time>
      </trkpt>
      <trkpt lat="50.56968" lon="2.52957">
        <ele>16</ele>
        <time>2012-01-29T08:06:20Z</time>
      </trkpt>
      <trkpt lat="50.56977" lon="2.52952">
        <ele>16</ele>
        <time>2012-01-29T08:06:22Z</time>
      </trkpt>
      <trkpt lat="50.56986" lon="2.52946">
        <ele>16</ele>
        <time>2012-01-29T08:06:24Z</time>
      </trkpt>
      <trkpt lat="50.56997" lon="2.5294">
        <ele>16</ele>
        <time>2012-01-29T08:06:26Z</time>
      </trkpt>
      <trkpt lat="50.57009" lon="2.52933">
        <ele>16</ele>
        <time>2012-01-29T08:06:28Z</time>
      </trkpt>
      <trkpt lat="50.57021" lon="2.52929">
        <ele>16</ele>
        <time>2012-01-29T08:06:30Z</time>
      </trkpt>
      <trkpt lat="50.57033" lon="2.52926">
        <ele>16</ele>
        <time>2012-01-29T08:06:32Z</time>
      </trkpt>
      <trkpt lat="50.57047" lon="2.52923">
        <ele>16</ele>
        <time>2012-01-29T08:06:34Z</time>
      </trkpt>
      <trkpt lat="50.5706" lon="2.52922">
        <ele>16</ele>
        <time>2012-01-29T08:06:36Z</time>
      </trkpt>
      <trkpt lat="50.57074" lon="2.52921">
        <ele>16</ele>
        <time>2012-01-29T08:06:38Z</time>
      </trkpt>
      <trkpt lat="50.57088" lon="2.52919">
        <ele>16</ele>
        <time>2012-01-29T08:06:40Z</time>
      </trkpt>
      <trkpt lat="50.57103" lon="2.52918">
        <ele>16</ele>
        <time>2012-01-29T08:06:42Z</time>
      </trkpt>
      <trkpt lat="50.57118" lon="2.52917">
        <ele>16</ele>
        <time>2012-01-29T08:06:44Z</time>
      </trkpt>
      <trkpt lat="50.57132" lon="2.52916">
        <ele>16</ele>
        <time>2012-01-29T08:06:46Z</time>
      </trkpt>
      <trkpt lat="50.57147" lon="2.52915">
        <ele>16</ele>
        <time>2012-01-29T08:06:48Z</time>
      </trkpt>
      <trkpt lat="50.5716" lon="2.52915">
        <ele>16</ele>
        <time>2012-01-29T08:06:50Z</time>
      </trkpt>
      <trkpt lat="50.57175" lon="2.52914">
        <ele>16</ele>
        <time>2012-01-29T08:06:52Z</time>
      </trkpt>
      <trkpt lat="50.57189" lon="2.52914">
        <ele>16</ele>
        <time>2012-01-29T08:06:54Z</time>
      </trkpt>
      <trkpt lat="50.57203" lon="2.52913">
        <ele>16</ele>
        <time>2012-01-29T08:06:56Z</time>
      </trkpt>
      <trkpt lat="50.57218" lon="2.52911">
        <ele>16</ele>
        <time>2012-01-29T08:06:58Z</time>
      </trkpt>
      <trkpt lat="50.57232" lon="2.5291">
        <ele>16</ele>
        <time>2012-01-29T08:07:00Z</time>
      </trkpt>
      <trkpt lat="50.57246" lon="2.52909">
        <ele>16</ele>
        <time>2012-01-29T08:07:02Z</time>
      </trkpt>
      <trkpt lat="50.57259" lon="2.52908">
        <ele>16</ele>
        <time>2012-01-29T08:07:04Z</time>
      </trkpt>
      <trkpt lat="50.57274" lon="2.52906">
        <ele>16</ele>
        <time>2012-01-29T08:07:06Z</time>
      </trkpt>
      <trkpt lat="50.57287" lon="2.52905">
        <ele>16</ele>
        <time>2012-01-29T08:07:08Z</time>
      </trkpt>
      <trkpt lat="50.573" lon="2.52905">
        <ele>16</ele>
        <time>2012-01-29T08:07:10Z</time>
      </trkpt>
      <trkpt lat="50.57312" lon="2.52904">
        <ele>16</ele>
        <time>2012-01-29T08:07:12Z</time>
      </trkpt>
      <trkpt lat="50.57324" lon="2.52906">
        <ele>16</ele>
        <time>2012-01-29T08:07:14Z</time>
      </trkpt>
      <trkpt lat="50.57332" lon="2.5292">
        <ele>16</ele>
        <time>2012-01-29T08:07:16Z</time>
      </trkpt>
      <trkpt lat="50.57333" lon="2.52939">
        <ele>16</ele>
        <time>2012-01-29T08:07:18Z</time>
      </trkpt>
      <trkpt lat="50.57334" lon="2.52959">
        <ele>16</ele>
        <time>2012-01-29T08:07:20Z</time>
      </trkpt>
      <trkpt lat="50.57336" lon="2.52981">
        <ele>16</ele>
        <time>2012-01-29T08:07:22Z</time>
      </trkpt>
      <trkpt lat="50.57338" lon="2.53002">
        <ele>16</ele>
        <time>2012-01-29T08:07:24Z</time>
      </trkpt>
      <trkpt lat="50.57341" lon="2.53022">
        <ele>16</ele>
        <time>2012-01-29T08:07:26Z</time>
      </trkpt>
      <trkpt lat="50.57344" lon="2.53044">
        <ele>16</ele>
        <time>2012-01-29T08:07:28Z</time>
      </trkpt>
      <trkpt lat="50.57346" lon="2.53064">
        <ele>16</ele>
        <time>2012-01-29T08:07:30Z</time>
      </trkpt>
      <trkpt lat="50.57349" lon="2.53085">
        <ele>16</ele>
        <time>2012-01-29T08:07:32Z</time>
      </trkpt>
      <trkpt lat="50.57352" lon="2.53104">
        <ele>16</ele>
        <time>2012-01-29T08:07:34Z</time>
      </trkpt>
      <trkpt lat="50.57354" lon="2.53122">
        <ele>16</ele>
        <time>2012-01-29T08:07:36Z</time>
      </trkpt>
      <trkpt lat="50.57359" lon="2.53137">
        <ele>16</ele>
        <time>2012-01-29T08:07:38Z</time>
      </trkpt>
      <trkpt lat="50.57368" lon="2.53143">
        <ele>16</ele>
        <time>2012-01-29T08:07:40Z</time>
      </trkpt>
      <trkpt lat="50.57377" lon="2.53141">
        <ele>16</ele>
        <time>2012-01-29T08:07:42Z</time>
      </trkpt>
      <trkpt lat="50.57389" lon="2.53135">
        <ele>16</ele>
        <time>2012-01-29T08:07:44Z</time>
      </trkpt>
      <trkpt lat="50.57401" lon="2.53131">
        <ele>16</ele>
        <time>2012-01-29T08:07:46Z</time>
      </trkpt>
      <trkpt lat="50.57413" lon="2.53126">
        <ele>16</ele>
        <time>2012-01-29T08:07:48Z</time>
      </trkpt>
      <trkpt lat="50.57425" lon="2.5312">
        <ele>16</ele>
        <time>2012-01-29T08:07:50Z</time>
      </trkpt>
      <trkpt lat="50.57438" lon="2.53114">
        <ele>16</ele>
        <time>2012-01-29T08:07:52Z</time>
      </trkpt>
      <trkpt lat="50.57451" lon="2.53108">
        <ele>16</ele>
        <time>2012-01-29T08:07:54Z</time>
      </trkpt>
      <trkpt lat="50.57462" lon="2.531">
        <ele>16</ele>
        <time>2012-01-29T08:07:56Z</time>
      </trkpt>
      <trkpt lat="50.57473" lon="2.53093">
        <ele>16</ele>
        <time>2012-01-29T08:07:58Z</time>
      </trkpt>
      <trkpt lat="50.57482" lon="2.53086">
        <ele>16</ele>
        <time>2012-01-29T08:08:00Z</time>
      </trkpt>
      <trkpt lat="50.57492" lon="2.53077">
        <ele>16</ele>
        <time>2012-01-29T08:08:02Z</time>
      </trkpt>
      <trkpt lat="50.57501" lon="2.53067">
        <ele>16</ele>
        <time>2012-01-29T08:08:04Z</time>
      </trkpt>
      <trkpt lat="50.57511" lon="2.53056">
        <ele>16</ele>
        <time>2012-01-29T08:08:06Z</time>
      </trkpt>
      <trkpt lat="50.5752" lon="2.53045">
        <ele>16</ele>
        <time>2012-01-29T08:08:08Z</time>
      </trkpt>
      <trkpt lat="50.57529" lon="2.53034">
        <ele>16</ele>
        <time>2012-01-29T08:08:10Z</time>
      </trkpt>
      <trkpt lat="50.57539" lon="2.53021">
        <ele>16</ele>
        <time>2012-01-29T08:08:12Z</time>
      </trkpt>
      <trkpt lat="50.57549" lon="2.53009">
        <ele>16</ele>
        <time>2012-01-29T08:08:14Z</time>
      </trkpt>
      <trkpt lat="50.5756" lon="2.52995">
        <ele>16</ele>
        <time>2012-01-29T08:08:16Z</time>
      </trkpt>
      <trkpt lat="50.57571" lon="2.52983">
        <ele>16</ele>
        <time>2012-01-29T08:08:18Z</time>
      </trkpt>
      <trkpt lat="50.57583" lon="2.52969">
        <ele>16</ele>
        <time>2012-01-29T08:08:20Z</time>
      </trkpt>
      <trkpt lat="50.57595" lon="2.52958">
        <ele>16</ele>
        <time>2012-01-29T08:08:22Z</time>
      </trkpt>
      <trkpt lat="50.57607" lon="2.52945">
        <ele>16</ele>
        <time>2012-01-29T08:08:24Z</time>
      </trkpt>
      <trkpt lat="50.57619" lon="2.52933">
        <ele>16</ele>
        <time>2012-01-29T08:08:26Z</time>
      </trkpt>
      <trkpt lat="50.57631" lon="2.52923">
        <ele>16</ele>
        <time>2012-01-29T08:08:28Z</time>
      </trkpt>
      <trkpt lat="50.57644" lon="2.52913">
        <ele>16</ele>
        <time>2012-01-29T08:08:30Z</time>
      </trkpt>
      <trkpt lat="50.57658" lon="2.52904">
        <ele>16</ele>
        <time>2012-01-29T08:08:32Z</time>
      </trkpt>
      <trkpt lat="50.57671" lon="2.52895">
        <ele>16</ele>
        <time>2012-01-29T08:08:34Z</time>
      </trkpt>
      <trkpt lat="50.57684" lon="2.52883">
        <ele>16</ele>
        <time>2012-01-29T08:08:36Z</time>
      </trkpt>
      <trkpt lat="50.57696" lon="2.5287">
        <ele>16</ele>
        <time>2012-01-29T08:08:38Z</time>
      </trkpt>
      <trkpt lat="50.57708" lon="2.52858">
        <ele>16</ele>
        <time>2012-01-29T08:08:40Z</time>
      </trkpt>
      <trkpt lat="50.57719" lon="2.52845">
        <ele>16</ele>
        <time>2012-01-29T08:08:42Z</time>
      </trkpt>
      <trkpt lat="50.5773" lon="2.52832">
        <ele>16</ele>
        <time>2012-01-29T08:08:44Z</time>
      </trkpt>
      <trkpt lat="50.57739" lon="2.52816">
        <ele>16</ele>
        <time>2012-01-29T08:08:46Z</time>
      </trkpt>
      <trkpt lat="50.57746" lon="2.52796">
        <ele>16</ele>
        <time>2012-01-29T08:08:48Z</time>
      </trkpt>
      <trkpt lat="50.57753" lon="2.52776">
        <ele>16</ele>
        <time>2012-01-29T08:08:50Z</time>
      </trkpt>
      <trkpt lat="50.5776" lon="2.52756">
        <ele>16</ele>
        <time>2012-01-29T08:08:52Z</time>
      </trkpt>
      <trkpt lat="50.57768" lon="2.52738">
        <ele>16</ele>
        <time>2012-01-29T08:08:54Z</time>
      </trkpt>
      <trkpt lat="50.57781" lon="2.52726">
        <ele>16</ele>
        <time>2012-01-29T08:08:56Z</time>
      </trkpt>
      <trkpt lat="50.57795" lon="2.52723">
        <ele>16</ele>
        <time>2012-01-29T08:08:58Z</time>
      </trkpt>
      <trkpt lat="50.5781" lon="2.52725">
        <ele>16</ele>
        <time>2012-01-29T08:09:00Z</time>
      </trkpt>
      <trkpt lat="50.57825" lon="2.52727">
        <ele>16</ele>
        <time>2012-01-29T08:09:02Z</time>
      </trkpt>
      <trkpt lat="50.5784" lon="2.52728">
        <ele>16</ele>
        <time>2012-01-29T08:09:04Z</time>
      </trkpt>
      <trkpt lat="50.57854" lon="2.52729">
        <ele>16</ele>
        <time>2012-01-29T08:09:06Z</time>
      </trkpt>
      <trkpt lat="50.57868" lon="2.52728">
        <ele>16</ele>
        <time>2012-01-29T08:09:08Z</time>
      </trkpt>
      <trkpt lat="50.57881" lon="2.52721">
        <ele>16</ele>
        <time>2012-01-29T08:09:10Z</time>
      </trkpt>
      <trkpt lat="50.57893" lon="2.52711">
        <ele>16</ele>
        <time>2012-01-29T08:09:12Z</time>
      </trkpt>
      <trkpt lat="50.57905" lon="2.52701">
        <ele>16</ele>
        <time>2012-01-29T08:09:14Z</time>
      </trkpt>
      <trkpt lat="50.57917" lon="2.52691">
        <ele>16</ele>
        <time>2012-01-29T08:09:16Z</time>
      </trkpt>
      <trkpt lat="50.5793" lon="2.52681">
        <ele>16</ele>
        <time>2012-01-29T08:09:18Z</time>
      </trkpt>
      <trkpt lat="50.57944" lon="2.52674">
        <ele>16</ele>
        <time>2012-01-29T08:09:20Z</time>
      </trkpt>
      <trkpt lat="50.57958" lon="2.52671">
        <ele>16</ele>
        <time>2012-01-29T08:09:22Z</time>
      </trkpt>
      <trkpt lat="50.57974" lon="2.52673">
        <ele>16</ele>
        <time>2012-01-29T08:09:24Z</time>
      </trkpt>
      <trkpt lat="50.57987" lon="2.52684">
        <ele>16</ele>
        <time>2012-01-29T08:09:26Z</time>
      </trkpt>
      <trkpt lat="50.57999" lon="2.52693">
        <ele>16</ele>
        <time>2012-01-29T08:09:28Z</time>
      </trkpt>
      <trkpt lat="50.58012" lon="2.52691">
        <ele>16</ele>
        <time>2012-01-29T08:09:30Z</time>
      </trkpt>
      <trkpt lat="50.58023" lon="2.52678">
        <ele>16</ele>
        <time>2012-01-29T08:09:32Z</time>
      </trkpt>
      <trkpt lat="50.58034" lon="2.52663">
        <ele>16</ele>
        <time>2012-01-29T08:09:34Z</time>
      </trkpt>
      <trkpt lat="50.58045" lon="2.52647">
        <ele>16</ele>
        <time>2012-01-29T08:09:36Z</time>
      </trkpt>
      <trkpt lat="50.58056" lon="2.52631">
        <ele>16</ele>
        <time>2012-01-29T08:09:38Z</time>
      </trkpt>
      <trkpt lat="50.58066" lon="2.52614">
        <ele>16</ele>
        <time>2012-01-29T08:09:40Z</time>
      </trkpt>
      <trkpt lat="50.58077" lon="2.52598">
        <ele>16</ele>
        <time>2012-01-29T08:09:42Z</time>
      </trkpt>
      <trkpt lat="50.58088" lon="2.52583">
        <ele>16</ele>
        <time>2012-01-29T08:09:44Z</time>
      </trkpt>
      <trkpt lat="50.581" lon="2.52567">
        <ele>16</ele>
        <time>2012-01-29T08:09:46Z</time>
      </trkpt>
      <trkpt lat="50.58111" lon="2.52551">
        <ele>16</ele>
        <time>2012-01-29T08:09:48Z</time>
      </trkpt>
      <trkpt lat="50.58121" lon="2.52534">
        <ele>16</ele>
        <time>2012-01-29T08:09:50Z</time>
      </trkpt>
      <trkpt lat="50.58132" lon="2.52519">
        <ele>16</ele>
        <time>2012-01-29T08:09:52Z</time>
      </trkpt>
      <trkpt lat="50.58143" lon="2.52503">
        <ele>16</ele>
        <time>2012-01-29T08:09:54Z</time>
      </trkpt>
      <trkpt lat="50.58155" lon="2.52488">
        <ele>16</ele>
        <time>2012-01-29T08:09:56Z</time>
      </trkpt>
      <trkpt lat="50.58166" lon="2.52472">
        <ele>16</ele>
        <time>2012-01-29T08:09:58Z</time>
      </trkpt>
      <trkpt lat="50.58176" lon="2.52456">
        <ele>16</ele>
        <time>2012-01-29T08:10:00Z</time>
      </trkpt>
      <trkpt lat="50.58187" lon="2.5244">
        <ele>16</ele>
        <time>2012-01-29T08:10:02Z</time>
      </trkpt>
      <trkpt lat="50.58198" lon="2.52425">
        <ele>16</ele>
        <time>2012-01-29T08:10:04Z</time>
      </trkpt>
      <trkpt lat="50.5821" lon="2.5241">
        <ele>16</ele>
        <time>2012-01-29T08:10:06Z</time>
      </trkpt>
      <trkpt lat="50.58222" lon="2.52397">
        <ele>16</ele>
        <time>2012-01-29T08:10:08Z</time>
      </trkpt>
      <trkpt lat="50.58235" lon="2.52384">
        <ele>16</ele>
        <time>2012-01-29T08:10:10Z</time>
      </trkpt>
      <trkpt lat="50.58248" lon="2.52373">
        <ele>16</ele>
        <time>2012-01-29T08:10:12Z</time>
      </trkpt>
      <trkpt lat="50.58261" lon="2.52362">
        <ele>16</ele>
        <time>2012-01-29T08:10:14Z</time>
      </trkpt>
      <trkpt lat="50.58274" lon="2.52351">
        <ele>16</ele>
        <time>2012-01-29T08:10:16Z</time>
      </trkpt>
      <trkpt lat="50.58287" lon="2.52339">
        <ele>16</ele>
        <time>2012-01-29T08:10:18Z</time>
      </trkpt>
      <trkpt lat="50.583" lon="2.52328">
        <ele>16</ele>
        <time>2012-01-29T08:10:20Z</time>
      </trkpt>
      <trkpt lat="50.58312" lon="2.52315">
        <ele>16</ele>
        <time>2012-01-29T08:10:22Z</time>
      </trkpt>
      <trkpt lat="50.58325" lon="2.52303">
        <ele>16</ele>
        <time>2012-01-29T08:10:24Z</time>
      </trkpt>
      <trkpt lat="50.58337" lon="2.52291">
        <ele>16</ele>
        <time>2012-01-29T08:10:26Z</time>
      </trkpt>
      <trkpt lat="50.5835" lon="2.52278">
        <ele>16</ele>
        <time>2012-01-29T08:10:28Z</time>
      </trkpt>
      <trkpt lat="50.58362" lon="2.52266">
        <ele>16</ele>
        <time>2012-01-29T08:10:30Z</time>
      </trkpt>
      <trkpt lat="50.58374" lon="2.52253">
        <ele>16</ele>
        <time>2012-01-29T08:10:32Z</time>
      </trkpt>
      <trkpt lat="50.58386" lon="2.52242">
        <ele>16</ele>
        <time>2012-01-29T08:10:34Z</time>
      </trkpt>
      <trkpt lat="50.58398" lon="2.52229">
        <ele>16</ele>
        <time>2012-01-29T08:10:36Z</time>
      </trkpt>
      <trkpt lat="50.58411" lon="2.52216">
        <ele>16</ele>
        <time>2012-01-29T08:10:38Z</time>
      </trkpt>
      <trkpt lat="50.58423" lon="2.52205">
        <ele>16</ele>
        <time>2012-01-29T08:10:40Z</time>
      </trkpt>
      <trkpt lat="50.58435" lon="2.52192">
        <ele>16</ele>
        <time>2012-01-29T08:10:42Z</time>
      </trkpt>
      <trkpt lat="50.58449" lon="2.5218">
        <ele>16</ele>
        <time>2012-01-29T08:10:44Z</time>
      </trkpt>
      <trkpt lat="50.58461" lon="2.52167">
        <ele>16</ele>
        <time>2012-01-29T08:10:46Z</time>
      </trkpt>
      <trkpt lat="50.58472" lon="2.52155">
        <ele>16</ele>
        <time>2012-01-29T08:10:48Z</time>
      </trkpt>
      <trkpt lat="50.58484" lon="2.52143">
        <ele>16</ele>
        <time>2012-01-29T08:10:50Z</time>
      </trkpt>
      <trkpt lat="50.58495" lon="2.5213">
        <ele>16</ele>
        <time>2012-01-29T08:10:52Z</time>
      </trkpt>
      <trkpt lat="50.58507" lon="2.52118">
        <ele>16</ele>
        <time>2012-01-29T08:10:54Z</time>
      </trkpt>
      <trkpt lat="50.58519" lon="2.52105">
        <ele>16</ele>
        <time>2012-01-29T08:10:56Z</time>
      </trkpt>
      <trkpt lat="50.58531" lon="2.52093">
        <ele>16</ele>
        <time>2012-01-29T08:10:58Z</time>
      </trkpt>
      <trkpt lat="50.58543" lon="2.52081">
        <ele>16</ele>
        <time>2012-01-29T08:11:00Z</time>
      </trkpt>
      <trkpt lat="50.58556" lon="2.5207">
        <ele>16</ele>
        <time>2012-01-29T08:11:02Z</time>
      </trkpt>
      <trkpt lat="50.58568" lon="2.52058">
        <ele>16</ele>
        <time>2012-01-29T08:11:04Z</time>
      </trkpt>
      <trkpt lat="50.58581" lon="2.52047">
        <ele>16</ele>
        <time>2012-01-29T08:11:06Z</time>
      </trkpt>
      <trkpt lat="50.58593" lon="2.52036">
        <ele>16</ele>
        <time>2012-01-29T08:11:08Z</time>
      </trkpt>
      <trkpt lat="50.58606" lon="2.52024">
        <ele>16</ele>
        <time>2012-01-29T08:11:10Z</time>
      </trkpt>
      <trkpt lat="50.58619" lon="2.52013">
        <ele>16</ele>
        <time>2012-01-29T08:11:12Z</time>
      </trkpt>
      <trkpt lat="50.58632" lon="2.52004">
        <ele>16</ele>
        <time>2012-01-29T08:11:14Z</time>
      </trkpt>
      <trkpt lat="50.58644" lon="2.51993">
        <ele>16</ele>
        <time>2012-01-29T08:11:16Z</time>
      </trkpt>
      <trkpt lat="50.58657" lon="2.51983">
        <ele>16</ele>
        <time>2012-01-29T08:11:18Z</time>
      </trkpt>
      <trkpt lat="50.58669" lon="2.51973">
        <ele>16</ele>
        <time>2012-01-29T08:11:20Z</time>
      </trkpt>
      <trkpt lat="50.58681" lon="2.51964">
        <ele>16</ele>
        <time>2012-01-29T08:11:22Z</time>
      </trkpt>
      <trkpt lat="50.58694" lon="2.51954">
        <ele>16</ele>
        <time>2012-01-29T08:11:24Z</time>
      </trkpt>
      <trkpt lat="50.58705" lon="2.51945">
        <ele>16</ele>
        <time>2012-01-29T08:11:26Z</time>
      </trkpt>
      <trkpt lat="50.58716" lon="2.51934">
        <ele>16</ele>
        <time>2012-01-29T08:11:28Z</time>
      </trkpt>
      <trkpt lat="50.58726" lon="2.51924">
        <ele>16</ele>
        <time>2012-01-29T08:11:30Z</time>
      </trkpt>
      <trkpt lat="50.58735" lon="2.51915">
        <ele>16</ele>
        <time>2012-01-29T08:11:32Z</time>
      </trkpt>
      <trkpt lat="50.58744" lon="2.51905">
        <ele>16</ele>
        <time>2012-01-29T08:11:34Z</time>
      </trkpt>
      <trkpt lat="50.58754" lon="2.519">
        <ele>16</ele>
        <time>2012-01-29T08:11:36Z</time>
      </trkpt>
      <trkpt lat="50.58763" lon="2.5191">
        <ele>16</ele>
        <time>2012-01-29T08:11:38Z</time>
      </trkpt>
      <trkpt lat="50.58768" lon="2.51927">
        <ele>16</ele>
        <time>2012-01-29T08:11:40Z</time>
      </trkpt>
      <trkpt lat="50.58773" lon="2.51946">
        <ele>16</ele>
        <time>2012-01-29T08:11:42Z</time>
      </trkpt>
      <trkpt lat="50.58777" lon="2.51965">
        <ele>16</ele>
        <time>2012-01-29T08:11:44Z</time>
      </trkpt>
      <trkpt lat="50.58781" lon="2.51985">
        <ele>16</ele>
        <time>2012-01-29T08:11:46Z</time>
      </trkpt>
      <trkpt lat="50.58786" lon="2.52005">
        <ele>16</ele>
        <time>2012-01-29T08:11:48Z</time>
      </trkpt>
      <trkpt lat="50.5879" lon="2.52025">
        <ele>16</ele>
        <time>2012-01-29T08:11:50Z</time>
      </trkpt>
      <trkpt lat="50.58794" lon="2.52046">
        <ele>16</ele>
        <time>2012-01-29T08:11:52Z</time>
      </trkpt>
      <trkpt lat="50.58798" lon="2.52066">
        <ele>16</ele>
        <time>2012-01-29T08:11:54Z</time>
      </trkpt>
      <trkpt lat="50.58802" lon="2.52085">
        <ele>16</ele>
        <time>2012-01-29T08:11:56Z</time>
      </trkpt>
      <trkpt lat="50.58806" lon="2.52105">
        <ele>16</ele>
        <time>2012-01-29T08:11:58Z</time>
      </trkpt>
      <trkpt lat="50.58812" lon="2.52123">
        <ele>16</ele>
        <time>2012-01-29T08:12:00Z</time>
      </trkpt>
      <trkpt lat="50.58819" lon="2.5214">
        <ele>16</ele>
        <time>2012-01-29T08:12:02Z</time>
      </trkpt>
      <trkpt lat="50.58826" lon="2.52157">
        <ele>16</ele>
        <time>2012-01-29T08:12:04Z</time>
      </trkpt>
      <trkpt lat="50.58833" lon="2.52173">
        <ele>16</ele>
        <time>2012-01-29T08:12:06Z</time>
      </trkpt>
      <trkpt lat="50.58841" lon="2.52189">
        <ele>16</ele>
        <time>2012-01-29T08:12:08Z</time>
      </trkpt>
      <trkpt lat="50.58849" lon="2.52205">
        <ele>16</ele>
        <time>2012-01-29T08:12:10Z</time>
      </trkpt>
      <trkpt lat="50.58858" lon="2.5222">
        <ele>16</ele>
        <time>2012-01-29T08:12:12Z</time>
      </trkpt>
      <trkpt lat="50.58866" lon="2.52236">
        <ele>16</ele>
        <time>2012-01-29T08:12:14Z</time>
      </trkpt>
      <trkpt lat="50.58873" lon="2.52254">
        <ele>16</ele>
        <time>2012-01-29T08:12:16Z</time>
      </trkpt>
      <trkpt lat="50.5888" lon="2.52272">
        <ele>16</ele>
        <time>2012-01-29T08:12:18Z</time>
      </trkpt>
      <trkpt lat="50.58887" lon="2.52291">
        <ele>16</ele>
        <time>2012-01-29T08:12:20Z</time>
      </trkpt>
      <trkpt lat="50.58894" lon="2.5231">
        <ele>16</ele>
        <time>2012-01-29T08:12:22Z</time>
      </trkpt>
      <trkpt lat="50.589" lon="2.52329">
        <ele>16</ele>
        <time>2012-01-29T08:12:24Z</time>
      </trkpt>
      <trkpt lat="50.58906" lon="2.52348">
        <ele>16</ele>
        <time>2012-01-29T08:12:26Z</time>
      </trkpt>
      <trkpt lat="50.58911" lon="2.52366">
        <ele>16</ele>
        <time>2012-01-29T08:12:28Z</time>
      </trkpt>
      <trkpt lat="50.58916" lon="2.52385">
        <ele>16</ele>
        <time>2012-01-29T08:12:30Z</time>
      </trkpt>
      <trkpt lat="50.5892" lon="2.52405">
        <ele>16</ele>
        <time>2012-01-29T08:12:32Z</time>
      </trkpt>
      <trkpt lat="50.58924" lon="2.52424">
        <ele>16</ele>
        <time>2012-01-29T08:12:34Z</time>
      </trkpt>
      <trkpt lat="50.5893" lon="2.52442">
        <ele>16</ele>
        <time>2012-01-29T08:12:36Z</time>
      </trkpt>
      <trkpt lat="50.58935" lon="2.5246">
        <ele>16</ele>
        <time>2012-01-29T08:12:38Z</time>
      </trkpt>
      <trkpt lat="50.58941" lon="2.52477">
        <ele>16</ele>
        <time>2012-01-29T08:12:40Z</time>
      </trkpt>
      <trkpt lat="50.58947" lon="2.52495">
        <ele>16</ele>
        <time>2012-01-29T08:12:42Z</time>
      </trkpt>
      <trkpt lat="50.58953" lon="2.52512">
        <ele>16</ele>
        <time>2012-01-29T08:12:44Z</time>
      </trkpt>
      <trkpt lat="50.58959" lon="2.52529">
        <ele>16</ele>
        <time>2012-01-29T08:12:46Z</time>
      </trkpt>
      <trkpt lat="50.58965" lon="2.52546">
        <ele>16</ele>
        <time>2012-01-29T08:12:48Z</time>
      </trkpt>
      <trkpt lat="50.58971" lon="2.52564">
        <ele>16</ele>
        <time>2012-01-29T08:12:50Z</time>
      </trkpt>
      <trkpt lat="50.58978" lon="2.5258">
        <ele>16</ele>
        <time>2012-01-29T08:12:52Z</time>
      </trkpt>
      <trkpt lat="50.58984" lon="2.52596">
        <ele>16</ele>
        <time>2012-01-29T08:12:54Z</time>
      </trkpt>
      <trkpt lat="50.58991" lon="2.52612">
        <ele>16</ele>
        <time>2012-01-29T08:12:56Z</time>
      </trkpt>
      <trkpt lat="50.58998" lon="2.52627">
        <ele>16</ele>
        <time>2012-01-29T08:12:58Z</time>
      </trkpt>
      <trkpt lat="50.59005" lon="2.52643">
        <ele>16</ele>
        <time>2012-01-29T08:13:00Z</time>
      </trkpt>
      <trkpt lat="50.59011" lon="2.52658">
        <ele>16</ele>
        <time>2012-01-29T08:13:02Z</time>
      </trkpt>
      <trkpt lat="50.59018" lon="2.52674">
        <ele>16</ele>
        <time>2012-01-29T08:13:04Z</time>
      </trkpt>
      <trkpt lat="50.59026" lon="2.52689">
        <ele>16</ele>
        <time>2012-01-29T08:13:06Z</time>
      </trkpt>
      <trkpt lat="50.59032" lon="2.52704">
        <ele>16</ele>
        <time>2012-01-29T08:13:08Z</time>
      </trkpt>
      <trkpt lat="50.59039" lon="2.52719">
        <ele>16</ele>
        <time>2012-01-29T08:13:10Z</time>
      </trkpt>
      <trkpt lat="50.59046" lon="2.52734">
        <ele>16</ele>
        <time>2012-01-29T08:13:12Z</time>
      </trkpt>
      <trkpt lat="50.59053" lon="2.52749">
        <ele>16</ele>
        <time>2012-01-29T08:13:14Z</time>
      </trkpt>
      <trkpt lat="50.59059" lon="2.52764">
        <ele>16</ele>
        <time>2012-01-29T08:13:16Z</time>
      </trkpt>
      <trkpt lat="50.59066" lon="2.52779">
        <ele>16</ele>
        <time>2012-01-29T08:13:18Z</time>
      </trkpt>
      <trkpt lat="50.59073" lon="2.52794">
        <ele>16</ele>
        <time>2012-01-29T08:13:20Z</time>
      </trkpt>
      <trkpt lat="50.59079" lon="2.52808">
        <ele>16</ele>
        <time>2012-01-29T08:13:22Z</time>
      </trkpt>
      <trkpt lat="50.59086" lon="2.52824">
        <ele>16</ele>
        <time>2012-01-29T08:13:24Z</time>
      </trkpt>
      <trkpt lat="50.59093" lon="2.52839">
        <ele>16</ele>
        <time>2012-01-29T08:13:26Z</time>
      </trkpt>
      <trkpt lat="50.59099" lon="2.52853">
        <ele>16</ele>
        <time>2012-01-29T08:13:28Z</time>
      </trkpt>
      <trkpt lat="50.59106" lon="2.52869">
        <ele>16</ele>
        <time>2012-01-29T08:13:30Z</time>
      </trkpt>
      <trkpt lat="50.59112" lon="2.52885">
        <ele>16</ele>
        <time>2012-01-29T08:13:32Z</time>
      </trkpt>
      <trkpt lat="50.59118" lon="2.52901">
        <ele>16</ele>
        <time>2012-01-29T08:13:34Z</time>
      </trkpt>
      <trkpt lat="50.59123" lon="2.52918">
        <ele>16</ele>
        <time>2012-01-29T08:13:36Z</time>
      </trkpt>
      <trkpt lat="50.59128" lon="2.52935">
        <ele>16</ele>
        <time>2012-01-29T08:13:38Z</time>
      </trkpt>
      <trkpt lat="50.59133" lon="2.52952">
        <ele>16</ele>
        <time>2012-01-29T08:13:40Z</time>
      </trkpt>
      <trkpt lat="50.59137" lon="2.52969">
        <ele>16</ele>
        <time>2012-01-29T08:13:42Z</time>
      </trkpt>
      <trkpt lat="50.59142" lon="2.52986">
        <ele>16</ele>
        <time>2012-01-29T08:13:44Z</time>
      </trkpt>
      <trkpt lat="50.59147" lon="2.53004">
        <ele>16</ele>
        <time>2012-01-29T08:13:46Z</time>
      </trkpt>
      <trkpt lat="50.59151" lon="2.53022">
        <ele>16</ele>
        <time>2012-01-29T08:13:48Z</time>
      </trkpt>
      <trkpt lat="50.59157" lon="2.5304">
        <ele>16</ele>
        <time>2012-01-29T08:13:50Z</time>
      </trkpt>
      <trkpt lat="50.59161" lon="2.53058">
        <ele>16</ele>
        <time>2012-01-29T08:13:52Z</time>
      </trkpt>
      <trkpt lat="50.59166" lon="2.53077">
        <ele>16</ele>
        <time>2012-01-29T08:13:54Z</time>
      </trkpt>
      <trkpt lat="50.59169" lon="2.53096">
        <ele>16</ele>
        <time>2012-01-29T08:13:56Z</time>
      </trkpt>
      <trkpt lat="50.59171" lon="2.53116">
        <ele>16</ele>
        <time>2012-01-29T08:13:58Z</time>
      </trkpt>
      <trkpt lat="50.59172" lon="2.53135">
        <ele>16</ele>
        <time>2012-01-29T08:14:00Z</time>
      </trkpt>
      <trkpt lat="50.59172" lon="2.53156">
        <ele>16</ele>
        <time>2012-01-29T08:14:02Z</time>
      </trkpt>
      <trkpt lat="50.59172" lon="2.53176">
        <ele>16</ele>
        <time>2012-01-29T08:14:04Z</time>
      </trkpt>
      <trkpt lat="50.59173" lon="2.53197">
        <ele>16</ele>
        <time>2012-01-29T08:14:06Z</time>
      </trkpt>
      <trkpt lat="50.59174" lon="2.53217">
        <ele>16</ele>
        <time>2012-01-29T08:14:08Z</time>
      </trkpt>
      <trkpt lat="50.59177" lon="2.53237">
        <ele>16</ele>
        <time>2012-01-29T08:14:10Z</time>
      </trkpt>
      <trkpt lat="50.59179" lon="2.53257">
        <ele>16</ele>
        <time>2012-01-29T08:14:12Z</time>
      </trkpt>
      <trkpt lat="50.59181" lon="2.53277">
        <ele>16</ele>
        <time>2012-01-29T08:14:14Z</time>
      </trkpt>
      <trkpt lat="50.59183" lon="2.53298">
        <ele>16</ele>
        <time>2012-01-29T08:14:16Z</time>
      </trkpt>
      <trkpt lat="50.59184" lon="2.53319">
        <ele>16</ele>
        <time>2012-01-29T08:14:18Z</time>
      </trkpt>
      <trkpt lat="50.59184" lon="2.53339">
        <ele>16</ele>
        <time>2012-01-29T08:14:20Z</time>
      </trkpt>
      <trkpt lat="50.59184" lon="2.53359">
        <ele>16</ele>
        <time>2012-01-29T08:14:22Z</time>
      </trkpt>
      <trkpt lat="50.59184" lon="2.5338">
        <ele>16</ele>
        <time>2012-01-29T08:14:24Z</time>
      </trkpt>
      <trkpt lat="50.59184" lon="2.53401">
        <ele>16</ele>
        <time>2012-01-29T08:14:26Z</time>
      </trkpt>
      <trkpt lat="50.59184" lon="2.53422">
        <ele>16</ele>
        <time>2012-01-29T08:14:28Z</time>
      </trkpt>
      <trkpt lat="50.59184" lon="2.53444">
        <ele>16</ele>
        <time>2012-01-29T08:14:30Z</time>
      </trkpt>
      <trkpt lat="50.59183" lon="2.53464">
        <ele>16</ele>
        <time>2012-01-29T08:14:32Z</time>
      </trkpt>
      <trkpt lat="50.59183" lon="2.53485">
        <ele>16</ele>
        <time>2012-01-29T08:14:34Z</time>
      </trkpt>
      <trkpt lat="50.59183" lon="2.53505">
        <ele>16</ele>
        <time>2012-01-29T08:14:36Z</time>
      </trkpt>
      <trkpt lat="50.59183" lon="2.53524">
        <ele>16</ele>
        <time>2012-01-29T08:14:38Z</time>
      </trkpt>
      <trkpt lat="50.59183" lon="2.53544">
        <ele>16</ele>
        <time>2012-01-29T08:14:40Z</time>
      </trkpt>
      <trkpt lat="50.59183" lon="2.53563">
        <ele>16</ele>
        <time>2012-01-29T08:14:42Z</time>
      </trkpt>
      <trkpt lat="50.59185" lon="2.53582">
        <ele>16</ele>
        <time>2012-01-29T08:14:44Z</time>
      </trkpt>
      <trkpt lat="50.59186" lon="2.536">
        <ele>16</ele>
        <time>2012-01-29T08:14:46Z</time>
      </trkpt>
      <trkpt lat="50.59189" lon="2.53619">
        <ele>16</ele>
        <time>2012-01-29T08:14:48Z</time>
      </trkpt>
      <trkpt lat="50.59192" lon="2.53637">
        <ele>16</ele>
        <time>2012-01-29T08:14:50Z</time>
      </trkpt>
      <trkpt lat="50.59197" lon="2.53654">
        <ele>16</ele>
        <time>2012-01-29T08:14:52Z</time>
      </trkpt>
      <trkpt lat="50.59202" lon="2.53671">
        <ele>16</ele>
        <time>2012-01-29T08:14:54Z</time>
      </trkpt>
      <trkpt lat="50.59207" lon="2.53688">
        <ele>16</ele>
        <time>2012-01-29T08:14:56Z</time>
      </trkpt>
      <trkpt lat="50.59212" lon="2.53705">
        <ele>16</ele>
        <time>2012-01-29T08:14:58Z</time>
      </trkpt>
      <trkpt lat="50.59217" lon="2.53721">
        <ele>16</ele>
        <time>2012-01-29T08:15:00Z</time>
      </trkpt>
      <trkpt lat="50.59222" lon="2.53737">
        <ele>16</ele>
        <time>2012-01-29T08:15:02Z</time>
      </trkpt>
      <trkpt lat="50.59229" lon="2.53753">
        <ele>16</ele>
        <time>2012-01-29T08:15:04Z</time>
      </trkpt>
      <trkpt lat="50.59236" lon="2.53767">
        <ele>16</ele>
        <time>2012-01-29T08:15:06Z</time>
      </trkpt>
      <trkpt lat="50.59244" lon="2.53779">
        <ele>16</ele>
        <time>2012-01-29T08:15:08Z</time>
      </trkpt>
      <trkpt lat="50.59252" lon="2.53789">
        <ele>16</ele>
        <time>2012-01-29T08:15:10Z</time>
      </trkpt>
      <trkpt lat="50.5926" lon="2.53801">
        <ele>16</ele>
        <time>2012-01-29T08:15:12Z</time>
      </trkpt>
      <trkpt lat="50.59269" lon="2.53812">
        <ele>16</ele>
        <time>2012-01-29T08:15:14Z</time>
      </trkpt>
      <trkpt lat="50.59278" lon="2.53824">
        <ele>16</ele>
        <time>2012-01-29T08:15:16Z</time>
      </trkpt>
      <trkpt lat="50.59288" lon="2.53835">
        <ele>16</ele>
        <time>2012-01-29T08:15:18Z</time>
      </trkpt>
      <trkpt lat="50.59297" lon="2.53848">
        <ele>16</ele>
        <time>2012-01-29T08:15:20Z</time>
      </trkpt>
      <trkpt lat="50.59306" lon="2.5386">
        <ele>16</ele>
        <time>2012-01-29T08:15:22Z</time>
      </trkpt>
      <trkpt lat="50.59317" lon="2.53873">
        <ele>21</ele>
        <time>2012-01-29T08:15:24Z</time>
      </trkpt>
      <trkpt lat="50.59326" lon="2.53885">
        <ele>21</ele>
        <time>2012-01-29T08:15:26Z</time>
      </trkpt>
      <trkpt lat="50.59335" lon="2.53897">
        <ele>21</ele>
        <time>2012-01-29T08:15:28Z</time>
      </trkpt>
      <trkpt lat="50.59344" lon="2.5391">
        <ele>21</ele>
        <time>2012-01-29T08:15:30Z</time>
      </trkpt>
      <trkpt lat="50.59353" lon="2.53921">
        <ele>21</ele>
        <time>2012-01-29T08:15:32Z</time>
      </trkpt>
      <trkpt lat="50.59362" lon="2.53932">
        <ele>21</ele>
        <time>2012-01-29T08:15:34Z</time>
      </trkpt>
      <trkpt lat="50.59372" lon="2.53944">
        <ele>21</ele>
        <time>2012-01-29T08:15:36Z</time>
      </trkpt>
      <trkpt lat="50.5938" lon="2.53955">
        <ele>21</ele>
        <time>2012-01-29T08:15:38Z</time>
      </trkpt>
      <trkpt lat="50.59389" lon="2.53965">
        <ele>21</ele>
        <time>2012-01-29T08:15:40Z</time>
      </trkpt>
      <trkpt lat="50.59397" lon="2.53976">
        <ele>21</ele>
        <time>2012-01-29T08:15:42Z</time>
      </trkpt>
      <trkpt lat="50.59405" lon="2.53988">
        <ele>21</ele>
        <time>2012-01-29T08:15:44Z</time>
      </trkpt>
      <trkpt lat="50.59414" lon="2.53999">
        <ele>21</ele>
        <time>2012-01-29T08:15:46Z</time>
      </trkpt>
      <trkpt lat="50.59423" lon="2.54009">
        <ele>21</ele>
        <time>2012-01-29T08:15:48Z</time>
      </trkpt>
      <trkpt lat="50.59432" lon="2.54021">
        <ele>21</ele>
        <time>2012-01-29T08:15:50Z</time>
      </trkpt>
      <trkpt lat="50.59441" lon="2.54034">
        <ele>21</ele>
        <time>2012-01-29T08:15:52Z</time>
      </trkpt>
      <trkpt lat="50.59451" lon="2.54047">
        <ele>21</ele>
        <time>2012-01-29T08:15:54Z</time>
      </trkpt>
      <trkpt lat="50.59461" lon="2.5406">
        <ele>21</ele>
        <time>2012-01-29T08:15:56Z</time>
      </trkpt>
      <trkpt lat="50.59471" lon="2.54073">
        <ele>21</ele>
        <time>2012-01-29T08:15:58Z</time>
      </trkpt>
      <trkpt lat="50.5948" lon="2.54086">
        <ele>21</ele>
        <time>2012-01-29T08:16:00Z</time>
      </trkpt>
      <trkpt lat="50.5949" lon="2.54099">
        <ele>21</ele>
        <time>2012-01-29T08:16:02Z</time>
      </trkpt>
      <trkpt lat="50.595" lon="2.54112">
        <ele>21</ele>
        <time>2012-01-29T08:16:04Z</time>
      </trkpt>
      <trkpt lat="50.5951" lon="2.54125">
        <ele>21</ele>
        <time>2012-01-29T08:16:06Z</time>
      </trkpt>
      <trkpt lat="50.5952" lon="2.54138">
        <ele>21</ele>
        <time>2012-01-29T08:16:08Z</time>
      </trkpt>
      <trkpt lat="50.59531" lon="2.54153">
        <ele>21</ele>
        <time>2012-01-29T08:16:10Z</time>
      </trkpt>
      <trkpt lat="50.59541" lon="2.54168">
        <ele>21</ele>
        <time>2012-01-29T08:16:12Z</time>
      </trkpt>
      <trkpt lat="50.59552" lon="2.54182">
        <ele>21</ele>
        <time>2012-01-29T08:16:14Z</time>
      </trkpt>
      <trkpt lat="50.59563" lon="2.54196">
        <ele>21</ele>
        <time>2012-01-29T08:16:16Z</time>
      </trkpt>
      <trkpt lat="50.59574" lon="2.54211">
        <ele>21</ele>
        <time>2012-01-29T08:16:18Z</time>
      </trkpt>
      <trkpt lat="50.59585" lon="2.54225">
        <ele>21</ele>
        <time>2012-01-29T08:16:20Z</time>
      </trkpt>
      <trkpt lat="50.59595" lon="2.54239">
        <ele>16</ele>
        <time>2012-01-29T08:16:22Z</time>
      </trkpt>
      <trkpt lat="50.59606" lon="2.54255">
        <ele>16</ele>
        <time>2012-01-29T08:16:24Z</time>
      </trkpt>
      <trkpt lat="50.59618" lon="2.54271">
        <ele>16</ele>
        <time>2012-01-29T08:16:26Z</time>
      </trkpt>
      <trkpt lat="50.5963" lon="2.54285">
        <ele>16</ele>
        <time>2012-01-29T08:16:28Z</time>
      </trkpt>
      <trkpt lat="50.59641" lon="2.54301">
        <ele>16</ele>
        <time>2012-01-29T08:16:30Z</time>
      </trkpt>
      <trkpt lat="50.59654" lon="2.54316">
        <ele>16</ele>
        <time>2012-01-29T08:16:32Z</time>
      </trkpt>
      <trkpt lat="50.59665" lon="2.5433">
        <ele>16</ele>
        <time>2012-01-29T08:16:34Z</time>
      </trkpt>
      <trkpt lat="50.59677" lon="2.54345">
        <ele>16</ele>
        <time>2012-01-29T08:16:36Z</time>
      </trkpt>
      <trkpt lat="50.59688" lon="2.54359">
        <ele>16</ele>
        <time>2012-01-29T08:16:38Z</time>
      </trkpt>
      <trkpt lat="50.59699" lon="2.54373">
        <ele>16</ele>
        <time>2012-01-29T08:16:40Z</time>
      </trkpt>
      <trkpt lat="50.5971" lon="2.54387">
        <ele>16</ele>
        <time>2012-01-29T08:16:42Z</time>
      </trkpt>
      <trkpt lat="50.5972" lon="2.544">
        <ele>16</ele>
        <time>2012-01-29T08:16:44Z</time>
      </trkpt>
      <trkpt lat="50.5973" lon="2.54415">
        <ele>16</ele>
        <time>2012-01-29T08:16:46Z</time>
      </trkpt>
      <trkpt lat="50.5974" lon="2.54429">
        <ele>16</ele>
        <time>2012-01-29T08:16:48Z</time>
      </trkpt>
      <trkpt lat="50.59748" lon="2.54446">
        <ele>16</ele>
        <time>2012-01-29T08:16:50Z</time>
      </trkpt>
      <trkpt lat="50.59754" lon="2.54465">
        <ele>16</ele>
        <time>2012-01-29T08:16:52Z</time>
      </trkpt>
      <trkpt lat="50.59757" lon="2.54485">
        <ele>16</ele>
        <time>2012-01-29T08:16:54Z</time>
      </trkpt>
      <trkpt lat="50.59758" lon="2.54505">
        <ele>16</ele>
        <time>2012-01-29T08:16:56Z</time>
      </trkpt>
      <trkpt lat="50.59758" lon="2.54527">
        <ele>16</ele>
        <time>2012-01-29T08:16:58Z</time>
      </trkpt>
      <trkpt lat="50.59758" lon="2.54548">
        <ele>16</ele>
        <time>2012-01-29T08:17:00Z</time>
      </trkpt>
      <trkpt lat="50.59758" lon="2.54568">
        <ele>16</ele>
        <time>2012-01-29T08:17:02Z</time>
      </trkpt>
      <trkpt lat="50.59757" lon="2.5459">
        <ele>16</ele>
        <time>2012-01-29T08:17:04Z</time>
      </trkpt>
      <trkpt lat="50.59756" lon="2.5461">
        <ele>16</ele>
        <time>2012-01-29T08:17:06Z</time>
      </trkpt>
      <trkpt lat="50.59755" lon="2.54631">
        <ele>16</ele>
        <time>2012-01-29T08:17:08Z</time>
      </trkpt>
      <trkpt lat="50.59755" lon="2.54653">
        <ele>16</ele>
        <time>2012-01-29T08:17:10Z</time>
      </trkpt>
      <trkpt lat="50.59755" lon="2.54673">
        <ele>16</ele>
        <time>2012-01-29T08:17:12Z</time>
      </trkpt>
      <trkpt lat="50.59756" lon="2.54695">
        <ele>16</ele>
        <time>2012-01-29T08:17:14Z</time>
      </trkpt>
      <trkpt lat="50.59758" lon="2.54716">
        <ele>16</ele>
        <time>2012-01-29T08:17:16Z</time>
      </trkpt>
      <trkpt lat="50.5976" lon="2.54736">
        <ele>16</ele>
        <time>2012-01-29T08:17:18Z</time>
      </trkpt>
      <trkpt lat="50.59763" lon="2.54757">
        <ele>16</ele>
        <time>2012-01-29T08:17:20Z</time>
      </trkpt>
      <trkpt lat="50.59766" lon="2.54777">
        <ele>16</ele>
        <time>2012-01-29T08:17:22Z</time>
      </trkpt>
      <trkpt lat="50.59769" lon="2.54797">
        <ele>16</ele>
        <time>2012-01-29T08:17:24Z</time>
      </trkpt>
      <trkpt lat="50.59772" lon="2.54818">
        <ele>16</ele>
        <time>2012-01-29T08:17:26Z</time>
      </trkpt>
      <trkpt lat="50.59775" lon="2.54838">
        <ele>16</ele>
        <time>2012-01-29T08:17:28Z</time>
      </trkpt>
      <trkpt lat="50.59778" lon="2.54857">
        <ele>16</ele>
        <time>2012-01-29T08:17:30Z</time>
      </trkpt>
      <trkpt lat="50.5978" lon="2.54875">
        <ele>16</ele>
        <time>2012-01-29T08:17:32Z</time>
      </trkpt>
      <trkpt lat="50.59783" lon="2.54895">
        <ele>16</ele>
        <time>2012-01-29T08:17:34Z</time>
      </trkpt>
      <trkpt lat="50.59786" lon="2.54914">
        <ele>16</ele>
        <time>2012-01-29T08:17:36Z</time>
      </trkpt>
      <trkpt lat="50.59788" lon="2.54933">
        <ele>16</ele>
        <time>2012-01-29T08:17:38Z</time>
      </trkpt>
      <trkpt lat="50.5979" lon="2.54952">
        <ele>16</ele>
        <time>2012-01-29T08:17:40Z</time>
      </trkpt>
      <trkpt lat="50.59791" lon="2.54972">
        <ele>16</ele>
        <time>2012-01-29T08:17:42Z</time>
      </trkpt>
      <trkpt lat="50.59792" lon="2.54991">
        <ele>16</ele>
        <time>2012-01-29T08:17:44Z</time>
      </trkpt>
      <trkpt lat="50.59792" lon="2.55011">
        <ele>16</ele>
        <time>2012-01-29T08:17:46Z</time>
      </trkpt>
      <trkpt lat="50.59792" lon="2.55031">
        <ele>16</ele>
        <time>2012-01-29T08:17:48Z</time>
      </trkpt>
      <trkpt lat="50.59791" lon="2.55051">
        <ele>16</ele>
        <time>2012-01-29T08:17:50Z</time>
      </trkpt>
      <trkpt lat="50.59791" lon="2.55071">
        <ele>16</ele>
        <time>2012-01-29T08:17:52Z</time>
      </trkpt>
      <trkpt lat="50.59791" lon="2.55091">
        <ele>16</ele>
        <time>2012-01-29T08:17:54Z</time>
      </trkpt>
      <trkpt lat="50.5979" lon="2.55111">
        <ele>16</ele>
        <time>2012-01-29T08:17:56Z</time>
      </trkpt>
      <trkpt lat="50.5979" lon="2.5513">
        <ele>16</ele>
        <time>2012-01-29T08:17:58Z</time>
      </trkpt>
      <trkpt lat="50.5979" lon="2.55149">
        <ele>16</ele>
        <time>2012-01-29T08:18:00Z</time>
      </trkpt>
      <trkpt lat="50.5979" lon="2.55169">
        <ele>16</ele>
        <time>2012-01-29T08:18:02Z</time>
      </trkpt>
      <trkpt lat="50.59791" lon="2.55188">
        <ele>16</ele>
        <time>2012-01-29T08:18:04Z</time>
      </trkpt>
      <trkpt lat="50.59793" lon="2.55208">
        <ele>16</ele>
        <time>2012-01-29T08:18:06Z</time>
      </trkpt>
      <trkpt lat="50.59796" lon="2.55227">
        <ele>16</ele>
        <time>2012-01-29T08:18:08Z</time>
      </trkpt>
      <trkpt lat="50.598" lon="2.55246">
        <ele>16</ele>
        <time>2012-01-29T08:18:10Z</time>
      </trkpt>
      <trkpt lat="50.59806" lon="2.55264">
        <ele>16</ele>
        <time>2012-01-29T08:18:12Z</time>
      </trkpt>
      <trkpt lat="50.59811" lon="2.55281">
        <ele>16</ele>
        <time>2012-01-29T08:18:14Z</time>
      </trkpt>
      <trkpt lat="50.59816" lon="2.55299">
        <ele>16</ele>
        <time>2012-01-29T08:18:16Z</time>
      </trkpt>
      <trkpt lat="50.59821" lon="2.55317">
        <ele>16</ele>
        <time>2012-01-29T08:18:18Z</time>
      </trkpt>
      <trkpt lat="50.59826" lon="2.55336">
        <ele>16</ele>
        <time>2012-01-29T08:18:20Z</time>
      </trkpt>
      <trkpt lat="50.59832" lon="2.55354">
        <ele>16</ele>
        <time>2012-01-29T08:18:22Z</time>
      </trkpt>
      <trkpt lat="50.59837" lon="2.55372">
        <ele>16</ele>
        <time>2012-01-29T08:18:24Z</time>
      </trkpt>
      <trkpt lat="50.59842" lon="2.55391">
        <ele>16</ele>
        <time>2012-01-29T08:18:26Z</time>
      </trkpt>
      <trkpt lat="50.59846" lon="2.5541">
        <ele>16</ele>
        <time>2012-01-29T08:18:28Z</time>
      </trkpt>
      <trkpt lat="50.5985" lon="2.5543">
        <ele>16</ele>
        <time>2012-01-29T08:18:30Z</time>
      </trkpt>
      <trkpt lat="50.59854" lon="2.55449">
        <ele>16</ele>
        <time>2012-01-29T08:18:32Z</time>
      </trkpt>
      <trkpt lat="50.59858" lon="2.55467">
        <ele>16</ele>
        <time>2012-01-29T08:18:34Z</time>
      </trkpt>
      <trkpt lat="50.59862" lon="2.55486">
        <ele>16</ele>
        <time>2012-01-29T08:18:36Z</time>
      </trkpt>
      <trkpt lat="50.59865" lon="2.55504">
        <ele>16</ele>
        <time>2012-01-29T08:18:38Z</time>
      </trkpt>
      <trkpt lat="50.59868" lon="2.55521">
        <ele>16</ele>
        <time>2012-01-29T08:18:40Z</time>
      </trkpt>
      <trkpt lat="50.59871" lon="2.55539">
        <ele>16</ele>
        <time>2012-01-29T08:18:42Z</time>
      </trkpt>
      <trkpt lat="50.59868" lon="2.55556">
        <ele>16</ele>
        <time>2012-01-29T08:18:44Z</time>
      </trkpt>
      <trkpt lat="50.59859" lon="2.55568">
        <ele>16</ele>
        <time>2012-01-29T08:18:46Z</time>
      </trkpt>
      <trkpt lat="50.59849" lon="2.55576">
        <ele>16</ele>
        <time>2012-01-29T08:18:48Z</time>
      </trkpt>
      <trkpt lat="50.59838" lon="2.55583">
        <ele>16</ele>
        <time>2012-01-29T08:18:50Z</time>
      </trkpt>
      <trkpt lat="50.59827" lon="2.55591">
        <ele>16</ele>
        <time>2012-01-29T08:18:52Z</time>
      </trkpt>
      <trkpt lat="50.59816" lon="2.55601">
        <ele>16</ele>
        <time>2012-01-29T08:18:54Z</time>
      </trkpt>
      <trkpt lat="50.59808" lon="2.55616">
        <ele>16</ele>
        <time>2012-01-29T08:18:56Z</time>
      </trkpt>
      <trkpt lat="50.59803" lon="2.55633">
        <ele>16</ele>
        <time>2012-01-29T08:18:58Z</time>
      </trkpt>
      <trkpt lat="50.59802" lon="2.55652">
        <ele>16</ele>
        <time>2012-01-29T08:19:00Z</time>
      </trkpt>
      <trkpt lat="50.59803" lon="2.55671">
        <ele>16</ele>
        <time>2012-01-29T08:19:02Z</time>
      </trkpt>
      <trkpt lat="50.59803" lon="2.55691">
        <ele>16</ele>
        <time>2012-01-29T08:19:04Z</time>
      </trkpt>
      <trkpt lat="50.598" lon="2.5571">
        <ele>16</ele>
        <time>2012-01-29T08:19:06Z</time>
      </trkpt>
      <trkpt lat="50.59796" lon="2.55728">
        <ele>16</ele>
        <time>2012-01-29T08:19:08Z</time>
      </trkpt>
      <trkpt lat="50.5979" lon="2.55746">
        <ele>16</ele>
        <time>2012-01-29T08:19:10Z</time>
      </trkpt>
      <trkpt lat="50.59783" lon="2.55763">
        <ele>16</ele>
        <time>2012-01-29T08:19:12Z</time>
      </trkpt>
      <trkpt lat="50.59778" lon="2.55781">
        <ele>16</ele>
        <time>2012-01-29T08:19:14Z</time>
      </trkpt>
      <trkpt lat="50.59775" lon="2.558">
        <ele>16</ele>
        <time>2012-01-29T08:19:16Z</time>
      </trkpt>
      <trkpt lat="50.59775" lon="2.55819">
        <ele>16</ele>
        <time>2012-01-29T08:19:18Z</time>
      </trkpt>
      <trkpt lat="50.59778" lon="2.55837">
        <ele>16</ele>
        <time>2012-01-29T08:19:20Z</time>
      </trkpt>
      <trkpt lat="50.5978" lon="2.55856">
        <ele>16</ele>
        <time>2012-01-29T08:19:22Z</time>
      </trkpt>
      <trkpt lat="50.59783" lon="2.55874">
        <ele>16</ele>
        <time>2012-01-29T08:19:24Z</time>
      </trkpt>
      <trkpt lat="50.59787" lon="2.55894">
        <ele>16</ele>
        <time>2012-01-29T08:19:26Z</time>
      </trkpt>
      <trkpt lat="50.5979" lon="2.55913">
        <ele>16</ele>
        <time>2012-01-29T08:19:28Z</time>
      </trkpt>
      <trkpt lat="50.59792" lon="2.55932">
        <ele>16</ele>
        <time>2012-01-29T08:19:30Z</time>
      </trkpt>
      <trkpt lat="50.59795" lon="2.5595">
        <ele>16</ele>
        <time>2012-01-29T08:19:32Z</time>
      </trkpt>
      <trkpt lat="50.59798" lon="2.55968">
        <ele>16</ele>
        <time>2012-01-29T08:19:34Z</time>
      </trkpt>
      <trkpt lat="50.598" lon="2.55987">
        <ele>16</ele>
        <time>2012-01-29T08:19:36Z</time>
      </trkpt>
      <trkpt lat="50.59803" lon="2.56006">
        <ele>16</ele>
        <time>2012-01-29T08:19:38Z</time>
      </trkpt>
      <trkpt lat="50.59806" lon="2.56024">
        <ele>16</ele>
        <time>2012-01-29T08:19:40Z</time>
      </trkpt>
      <trkpt lat="50.59808" lon="2.56042">
        <ele>16</ele>
        <time>2012-01-29T08:19:42Z</time>
      </trkpt>
      <trkpt lat="50.59811" lon="2.5606">
        <ele>16</ele>
        <time>2012-01-29T08:19:44Z</time>
      </trkpt>
      <trkpt lat="50.59813" lon="2.56077">
        <ele>16</ele>
        <time>2012-01-29T08:19:46Z</time>
      </trkpt>
      <trkpt lat="50.59815" lon="2.56094">
        <ele>16</ele>
        <time>2012-01-29T08:19:48Z</time>
      </trkpt>
      <trkpt lat="50.59816" lon="2.56111">
        <ele>16</ele>
        <time>2012-01-29T08:19:50Z</time>
      </trkpt>
      <trkpt lat="50.59817" lon="2.56125">
        <ele>16</ele>
        <time>2012-01-29T08:19:52Z</time>
      </trkpt>
      <trkpt lat="50.59819" lon="2.56143">
        <ele>16</ele>
        <time>2012-01-29T08:19:55Z</time>
      </trkpt>
      <trkpt lat="50.59812" lon="2.56156">
        <ele>16</ele>
        <time>2012-01-29T08:20:00Z</time>
      </trkpt>
      <trkpt lat="50.59803" lon="2.56159">
        <ele>16</ele>
        <time>2012-01-29T08:20:02Z</time>
      </trkpt>
      <trkpt lat="50.59794" lon="2.56164">
        <ele>16</ele>
        <time>2012-01-29T08:20:04Z</time>
      </trkpt>
      <trkpt lat="50.59783" lon="2.5617">
        <ele>16</ele>
        <time>2012-01-29T08:20:06Z</time>
      </trkpt>
      <trkpt lat="50.59772" lon="2.56177">
        <ele>16</ele>
        <time>2012-01-29T08:20:08Z</time>
      </trkpt>
      <trkpt lat="50.5976" lon="2.56184">
        <ele>16</ele>
        <time>2012-01-29T08:20:10Z</time>
      </trkpt>
      <trkpt lat="50.59749" lon="2.56191">
        <ele>16</ele>
        <time>2012-01-29T08:20:12Z</time>
      </trkpt>
      <trkpt lat="50.59737" lon="2.562">
        <ele>16</ele>
        <time>2012-01-29T08:20:14Z</time>
      </trkpt>
      <trkpt lat="50.59725" lon="2.56208">
        <ele>16</ele>
        <time>2012-01-29T08:20:16Z</time>
      </trkpt>
      <trkpt lat="50.59712" lon="2.56215">
        <ele>16</ele>
        <time>2012-01-29T08:20:18Z</time>
      </trkpt>
      <trkpt lat="50.59699" lon="2.56223">
        <ele>16</ele>
        <time>2012-01-29T08:20:20Z</time>
      </trkpt>
      <trkpt lat="50.59687" lon="2.5623">
        <ele>16</ele>
        <time>2012-01-29T08:20:22Z</time>
      </trkpt>
      <trkpt lat="50.59675" lon="2.56237">
        <ele>16</ele>
        <time>2012-01-29T08:20:24Z</time>
      </trkpt>
      <trkpt lat="50.59665" lon="2.56249">
        <ele>16</ele>
        <time>2012-01-29T08:20:26Z</time>
      </trkpt>
      <trkpt lat="50.59662" lon="2.56265">
        <ele>16</ele>
        <time>2012-01-29T08:20:28Z</time>
      </trkpt>
      <trkpt lat="50.59668" lon="2.56282">
        <ele>16</ele>
        <time>2012-01-29T08:20:30Z</time>
      </trkpt>
      <trkpt lat="50.59675" lon="2.56298">
        <ele>16</ele>
        <time>2012-01-29T08:20:32Z</time>
      </trkpt>
      <trkpt lat="50.59684" lon="2.56315">
        <ele>16</ele>
        <time>2012-01-29T08:20:34Z</time>
      </trkpt>
      <trkpt lat="50.59691" lon="2.56332">
        <ele>16</ele>
        <time>2012-01-29T08:20:36Z</time>
      </trkpt>
      <trkpt lat="50.59698" lon="2.5635">
        <ele>16</ele>
        <time>2012-01-29T08:20:38Z</time>
      </trkpt>
      <trkpt lat="50.59704" lon="2.56368">
        <ele>16</ele>
        <time>2012-01-29T08:20:40Z</time>
      </trkpt>
      <trkpt lat="50.5971" lon="2.56386">
        <ele>16</ele>
        <time>2012-01-29T08:20:42Z</time>
      </trkpt>
      <trkpt lat="50.59715" lon="2.56406">
        <ele>16</ele>
        <time>2012-01-29T08:20:44Z</time>
      </trkpt>
      <trkpt lat="50.59719" lon="2.56425">
        <ele>16</ele>
        <time>2012-01-29T08:20:46Z</time>
      </trkpt>
      <trkpt lat="50.59723" lon="2.56445">
        <ele>16</ele>
        <time>2012-01-29T08:20:48Z</time>
      </trkpt>
      <trkpt lat="50.59727" lon="2.56464">
        <ele>16</ele>
        <time>2012-01-29T08:20:50Z</time>
      </trkpt>
      <trkpt lat="50.59732" lon="2.56482">
        <ele>16</ele>
        <time>2012-01-29T08:20:52Z</time>
      </trkpt>
      <trkpt lat="50.59738" lon="2.565">
        <ele>16</ele>
        <time>2012-01-29T08:20:54Z</time>
      </trkpt>
      <trkpt lat="50.59745" lon="2.56517">
        <ele>16</ele>
        <time>2012-01-29T08:20:56Z</time>
      </trkpt>
      <trkpt lat="50.59751" lon="2.56535">
        <ele>16</ele>
        <time>2012-01-29T08:20:58Z</time>
      </trkpt>
      <trkpt lat="50.59758" lon="2.56552">
        <ele>16</ele>
        <time>2012-01-29T08:21:00Z</time>
      </trkpt>
      <trkpt lat="50.59764" lon="2.5657">
        <ele>16</ele>
        <time>2012-01-29T08:21:02Z</time>
      </trkpt>
      <trkpt lat="50.59771" lon="2.56588">
        <ele>16</ele>
        <time>2012-01-29T08:21:04Z</time>
      </trkpt>
      <trkpt lat="50.59778" lon="2.56606">
        <ele>16</ele>
        <time>2012-01-29T08:21:06Z</time>
      </trkpt>
      <trkpt lat="50.59785" lon="2.56624">
        <ele>16</ele>
        <time>2012-01-29T08:21:08Z</time>
      </trkpt>
      <trkpt lat="50.59793" lon="2.56641">
        <ele>16</ele>
        <time>2012-01-29T08:21:10Z</time>
      </trkpt>
      <trkpt lat="50.59802" lon="2.56657">
        <ele>16</ele>
        <time>2012-01-29T08:21:12Z</time>
      </trkpt>
      <trkpt lat="50.59811" lon="2.56672">
        <ele>16</ele>
        <time>2012-01-29T08:21:14Z</time>
      </trkpt>
      <trkpt lat="50.5982" lon="2.56688">
        <ele>16</ele>
        <time>2012-01-29T08:21:16Z</time>
      </trkpt>
      <trkpt lat="50.5983" lon="2.56704">
        <ele>16</ele>
        <time>2012-01-29T08:21:18Z</time>
      </trkpt>
      <trkpt lat="50.59839" lon="2.56721">
        <ele>16</ele>
        <time>2012-01-29T08:21:20Z</time>
      </trkpt>
      <trkpt lat="50.59847" lon="2.56739">
        <ele>16</ele>
        <time>2012-01-29T08:21:22Z</time>
      </trkpt>
      <trkpt lat="50.59853" lon="2.56758">
        <ele>16</ele>
        <time>2012-01-29T08:21:24Z</time>
      </trkpt>
      <trkpt lat="50.59859" lon="2.56779">
        <ele>16</ele>
        <time>2012-01-29T08:21:26Z</time>
      </trkpt>
      <trkpt lat="50.59865" lon="2.568">
        <ele>16</ele>
        <time>2012-01-29T08:21:28Z</time>
      </trkpt>
      <trkpt lat="50.5987" lon="2.56821">
        <ele>16</ele>
        <time>2012-01-29T08:21:30Z</time>
      </trkpt>
      <trkpt lat="50.59876" lon="2.56841">
        <ele>16</ele>
        <time>2012-01-29T08:21:32Z</time>
      </trkpt>
      <trkpt lat="50.59882" lon="2.56861">
        <ele>16</ele>
        <time>2012-01-29T08:21:34Z</time>
      </trkpt>
      <trkpt lat="50.5989" lon="2.56879">
        <ele>16</ele>
        <time>2012-01-29T08:21:36Z</time>
      </trkpt>
      <trkpt lat="50.59897" lon="2.56897">
        <ele>16</ele>
        <time>2012-01-29T08:21:38Z</time>
      </trkpt>
      <trkpt lat="50.59905" lon="2.56914">
        <ele>16</ele>
        <time>2012-01-29T08:21:40Z</time>
      </trkpt>
      <trkpt lat="50.59912" lon="2.56931">
        <ele>16</ele>
        <time>2012-01-29T08:21:42Z</time>
      </trkpt>
      <trkpt lat="50.59919" lon="2.56948">
        <ele>16</ele>
        <time>2012-01-29T08:21:44Z</time>
      </trkpt>
      <trkpt lat="50.59927" lon="2.56964">
        <ele>16</ele>
        <time>2012-01-29T08:21:46Z</time>
      </trkpt>
      <trkpt lat="50.59936" lon="2.56979">
        <ele>16</ele>
        <time>2012-01-29T08:21:48Z</time>
      </trkpt>
      <trkpt lat="50.59945" lon="2.56993">
        <ele>16</ele>
        <time>2012-01-29T08:21:50Z</time>
      </trkpt>
      <trkpt lat="50.59955" lon="2.57005">
        <ele>16</ele>
        <time>2012-01-29T08:21:52Z</time>
      </trkpt>
      <trkpt lat="50.59966" lon="2.57017">
        <ele>16</ele>
        <time>2012-01-29T08:21:54Z</time>
      </trkpt>
      <trkpt lat="50.59978" lon="2.57028">
        <ele>16</ele>
        <time>2012-01-29T08:21:56Z</time>
      </trkpt>
      <trkpt lat="50.59989" lon="2.57039">
        <ele>16</ele>
        <time>2012-01-29T08:21:58Z</time>
      </trkpt>
      <trkpt lat="50.6" lon="2.57051">
        <ele>16</ele>
        <time>2012-01-29T08:22:00Z</time>
      </trkpt>
      <trkpt lat="50.6001" lon="2.57064">
        <ele>16</ele>
        <time>2012-01-29T08:22:02Z</time>
      </trkpt>
      <trkpt lat="50.6002" lon="2.57077">
        <ele>16</ele>
        <time>2012-01-29T08:22:04Z</time>
      </trkpt>
      <trkpt lat="50.60029" lon="2.57092">
        <ele>16</ele>
        <time>2012-01-29T08:22:06Z</time>
      </trkpt>
      <trkpt lat="50.60038" lon="2.57107">
        <ele>16</ele>
        <time>2012-01-29T08:22:08Z</time>
      </trkpt>
      <trkpt lat="50.60047" lon="2.57121">
        <ele>16</ele>
        <time>2012-01-29T08:22:10Z</time>
      </trkpt>
      <trkpt lat="50.60055" lon="2.57136">
        <ele>16</ele>
        <time>2012-01-29T08:22:12Z</time>
      </trkpt>
      <trkpt lat="50.60065" lon="2.5715">
        <ele>16</ele>
        <time>2012-01-29T08:22:14Z</time>
      </trkpt>
      <trkpt lat="50.60073" lon="2.57164">
        <ele>16</ele>
        <time>2012-01-29T08:22:16Z</time>
      </trkpt>
      <trkpt lat="50.60081" lon="2.57179">
        <ele>16</ele>
        <time>2012-01-29T08:22:18Z</time>
      </trkpt>
      <trkpt lat="50.60089" lon="2.57195">
        <ele>16</ele>
        <time>2012-01-29T08:22:20Z</time>
      </trkpt>
      <trkpt lat="50.60096" lon="2.57211">
        <ele>16</ele>
        <time>2012-01-29T08:22:22Z</time>
      </trkpt>
      <trkpt lat="50.60102" lon="2.57228">
        <ele>16</ele>
        <time>2012-01-29T08:22:24Z</time>
      </trkpt>
      <trkpt lat="50.60107" lon="2.57245">
        <ele>16</ele>
        <time>2012-01-29T08:22:26Z</time>
      </trkpt>
      <trkpt lat="50.60112" lon="2.57263">
        <ele>16</ele>
        <time>2012-01-29T08:22:28Z</time>
      </trkpt>
      <trkpt lat="50.60117" lon="2.57282">
        <ele>16</ele>
        <time>2012-01-29T08:22:30Z</time>
      </trkpt>
      <trkpt lat="50.60121" lon="2.57302">
        <ele>16</ele>
        <time>2012-01-29T08:22:32Z</time>
      </trkpt>
      <trkpt lat="50.60126" lon="2.5732">
        <ele>16</ele>
        <time>2012-01-29T08:22:34Z</time>
      </trkpt>
      <trkpt lat="50.60131" lon="2.57339">
        <ele>16</ele>
        <time>2012-01-29T08:22:36Z</time>
      </trkpt>
      <trkpt lat="50.60136" lon="2.57357">
        <ele>16</ele>
        <time>2012-01-29T08:22:38Z</time>
      </trkpt>
      <trkpt lat="50.60141" lon="2.57376">
        <ele>16</ele>
        <time>2012-01-29T08:22:40Z</time>
      </trkpt>
      <trkpt lat="50.60145" lon="2.57396">
        <ele>16</ele>
        <time>2012-01-29T08:22:42Z</time>
      </trkpt>
      <trkpt lat="50.60149" lon="2.57415">
        <ele>16</ele>
        <time>2012-01-29T08:22:44Z</time>
      </trkpt>
      <trkpt lat="50.60153" lon="2.57434">
        <ele>16</ele>
        <time>2012-01-29T08:22:46Z</time>
      </trkpt>
      <trkpt lat="50.60157" lon="2.57454">
        <ele>16</ele>
        <time>2012-01-29T08:22:48Z</time>
      </trkpt>
      <trkpt lat="50.6016" lon="2.57472">
        <ele>16</ele>
        <time>2012-01-29T08:22:50Z</time>
      </trkpt>
      <trkpt lat="50.60165" lon="2.5749">
        <ele>16</ele>
        <time>2012-01-29T08:22:52Z</time>
      </trkpt>
      <trkpt lat="50.6017" lon="2.5751">
        <ele>16</ele>
        <time>2012-01-29T08:22:54Z</time>
      </trkpt>
      <trkpt lat="50.60177" lon="2.57528">
        <ele>16</ele>
        <time>2012-01-29T08:22:56Z</time>
      </trkpt>
      <trkpt lat="50.60185" lon="2.57543">
        <ele>16</ele>
        <time>2012-01-29T08:22:58Z</time>
      </trkpt>
      <trkpt lat="50.60194" lon="2.57558">
        <ele>16</ele>
        <time>2012-01-29T08:23:00Z</time>
      </trkpt>
      <trkpt lat="50.60204" lon="2.57572">
        <ele>16</ele>
        <time>2012-01-29T08:23:02Z</time>
      </trkpt>
      <trkpt lat="50.60213" lon="2.57587">
        <ele>16</ele>
        <time>2012-01-29T08:23:04Z</time>
      </trkpt>
      <trkpt lat="50.60223" lon="2.576">
        <ele>16</ele>
        <time>2012-01-29T08:23:06Z</time>
      </trkpt>
      <trkpt lat="50.60233" lon="2.57614">
        <ele>16</ele>
        <time>2012-01-29T08:23:08Z</time>
      </trkpt>
      <trkpt lat="50.60242" lon="2.57629">
        <ele>16</ele>
        <time>2012-01-29T08:23:10Z</time>
      </trkpt>
      <trkpt lat="50.60251" lon="2.57645">
        <ele>16</ele>
        <time>2012-01-29T08:23:12Z</time>
      </trkpt>
      <trkpt lat="50.6026" lon="2.5766">
        <ele>16</ele>
        <time>2012-01-29T08:23:14Z</time>
      </trkpt>
      <trkpt lat="50.60266" lon="2.57677">
        <ele>16</ele>
        <time>2012-01-29T08:23:16Z</time>
      </trkpt>
      <trkpt lat="50.60271" lon="2.57694">
        <ele>16</ele>
        <time>2012-01-29T08:23:18Z</time>
      </trkpt>
      <trkpt lat="50.60274" lon="2.57712">
        <ele>16</ele>
        <time>2012-01-29T08:23:20Z</time>
      </trkpt>
      <trkpt lat="50.60278" lon="2.57732">
        <ele>16</ele>
        <time>2012-01-29T08:23:22Z</time>
      </trkpt>
      <trkpt lat="50.6028" lon="2.57752">
        <ele>16</ele>
        <time>2012-01-29T08:23:24Z</time>
      </trkpt>
      <trkpt lat="50.60281" lon="2.57772">
        <ele>16</ele>
        <time>2012-01-29T08:23:26Z</time>
      </trkpt>
      <trkpt lat="50.60282" lon="2.57792">
        <ele>16</ele>
        <time>2012-01-29T08:23:28Z</time>
      </trkpt>
      <trkpt lat="50.60282" lon="2.57814">
        <ele>16</ele>
        <time>2012-01-29T08:23:30Z</time>
      </trkpt>
      <trkpt lat="50.60281" lon="2.57835">
        <ele>16</ele>
        <time>2012-01-29T08:23:32Z</time>
      </trkpt>
      <trkpt lat="50.60281" lon="2.57856">
        <ele>16</ele>
        <time>2012-01-29T08:23:34Z</time>
      </trkpt>
      <trkpt lat="50.60279" lon="2.57877">
        <ele>16</ele>
        <time>2012-01-29T08:23:36Z</time>
      </trkpt>
      <trkpt lat="50.60277" lon="2.57896">
        <ele>16</ele>
        <time>2012-01-29T08:23:38Z</time>
      </trkpt>
      <trkpt lat="50.60275" lon="2.57917">
        <ele>16</ele>
        <time>2012-01-29T08:23:40Z</time>
      </trkpt>
      <trkpt lat="50.60273" lon="2.57937">
        <ele>16</ele>
        <time>2012-01-29T08:23:42Z</time>
      </trkpt>
      <trkpt lat="50.60271" lon="2.57957">
        <ele>16</ele>
        <time>2012-01-29T08:23:44Z</time>
      </trkpt>
      <trkpt lat="50.60269" lon="2.57976">
        <ele>16</ele>
        <time>2012-01-29T08:23:46Z</time>
      </trkpt>
      <trkpt lat="50.60269" lon="2.57996">
        <ele>16</ele>
        <time>2012-01-29T08:23:48Z</time>
      </trkpt>
      <trkpt lat="50.6027" lon="2.58016">
        <ele>16</ele>
        <time>2012-01-29T08:23:50Z</time>
      </trkpt>
      <trkpt lat="50.60273" lon="2.58036">
        <ele>16</ele>
        <time>2012-01-29T08:23:52Z</time>
      </trkpt>
      <trkpt lat="50.60276" lon="2.58055">
        <ele>16</ele>
        <time>2012-01-29T08:23:54Z</time>
      </trkpt>
      <trkpt lat="50.60281" lon="2.58073">
        <ele>16</ele>
        <time>2012-01-29T08:23:56Z</time>
      </trkpt>
      <trkpt lat="50.60286" lon="2.58091">
        <ele>16</ele>
        <time>2012-01-29T08:23:58Z</time>
      </trkpt>
      <trkpt lat="50.60292" lon="2.5811">
        <ele>16</ele>
        <time>2012-01-29T08:24:00Z</time>
      </trkpt>
      <trkpt lat="50.60297" lon="2.58128">
        <ele>16</ele>
        <time>2012-01-29T08:24:02Z</time>
      </trkpt>
      <trkpt lat="50.60304" lon="2.58145">
        <ele>16</ele>
        <time>2012-01-29T08:24:04Z</time>
      </trkpt>
      <trkpt lat="50.60309" lon="2.58164">
        <ele>16</ele>
        <time>2012-01-29T08:24:06Z</time>
      </trkpt>
      <trkpt lat="50.60312" lon="2.58184">
        <ele>16</ele>
        <time>2012-01-29T08:24:08Z</time>
      </trkpt>
      <trkpt lat="50.60314" lon="2.58203">
        <ele>16</ele>
        <time>2012-01-29T08:24:10Z</time>
      </trkpt>
      <trkpt lat="50.60316" lon="2.58222">
        <ele>16</ele>
        <time>2012-01-29T08:24:12Z</time>
      </trkpt>
      <trkpt lat="50.60318" lon="2.58241">
        <ele>16</ele>
        <time>2012-01-29T08:24:14Z</time>
      </trkpt>
      <trkpt lat="50.60321" lon="2.5826">
        <ele>16</ele>
        <time>2012-01-29T08:24:16Z</time>
      </trkpt>
      <trkpt lat="50.60325" lon="2.5828">
        <ele>16</ele>
        <time>2012-01-29T08:24:18Z</time>
      </trkpt>
      <trkpt lat="50.6033" lon="2.583">
        <ele>16</ele>
        <time>2012-01-29T08:24:20Z</time>
      </trkpt>
      <trkpt lat="50.60335" lon="2.58319">
        <ele>16</ele>
        <time>2012-01-29T08:24:22Z</time>
      </trkpt>
      <trkpt lat="50.6034" lon="2.58338">
        <ele>16</ele>
        <time>2012-01-29T08:24:24Z</time>
      </trkpt>
      <trkpt lat="50.60345" lon="2.58357">
        <ele>16</ele>
        <time>2012-01-29T08:24:26Z</time>
      </trkpt>
      <trkpt lat="50.6035" lon="2.58376">
        <ele>16</ele>
        <time>2012-01-29T08:24:28Z</time>
      </trkpt>
      <trkpt lat="50.60355" lon="2.58396">
        <ele>16</ele>
        <time>2012-01-29T08:24:30Z</time>
      </trkpt>
      <trkpt lat="50.6036" lon="2.58415">
        <ele>16</ele>
        <time>2012-01-29T08:24:32Z</time>
      </trkpt>
      <trkpt lat="50.60366" lon="2.58435">
        <ele>16</ele>
        <time>2012-01-29T08:24:34Z</time>
      </trkpt>
      <trkpt lat="50.60373" lon="2.58453">
        <ele>16</ele>
        <time>2012-01-29T08:24:36Z</time>
      </trkpt>
      <trkpt lat="50.6038" lon="2.58472">
        <ele>16</ele>
        <time>2012-01-29T08:24:38Z</time>
      </trkpt>
      <trkpt lat="50.60387" lon="2.5849">
        <ele>16</ele>
        <time>2012-01-29T08:24:40Z</time>
      </trkpt>
      <trkpt lat="50.60393" lon="2.58508">
        <ele>16</ele>
        <time>2012-01-29T08:24:42Z</time>
      </trkpt>
      <trkpt lat="50.604" lon="2.58527">
        <ele>16</ele>
        <time>2012-01-29T08:24:44Z</time>
      </trkpt>
      <trkpt lat="50.60407" lon="2.58545">
        <ele>16</ele>
        <time>2012-01-29T08:24:46Z</time>
      </trkpt>
      <trkpt lat="50.60412" lon="2.58565">
        <ele>16</ele>
        <time>2012-01-29T08:24:48Z</time>
      </trkpt>
      <trkpt lat="50.60417" lon="2.58585">
        <ele>16</ele>
        <time>2012-01-29T08:24:50Z</time>
      </trkpt>
      <trkpt lat="50.60422" lon="2.58604">
        <ele>16</ele>
        <time>2012-01-29T08:24:52Z</time>
      </trkpt>
      <trkpt lat="50.60427" lon="2.58624">
        <ele>16</ele>
        <time>2012-01-29T08:24:54Z</time>
      </trkpt>
      <trkpt lat="50.60432" lon="2.58644">
        <ele>16</ele>
        <time>2012-01-29T08:24:56Z</time>
      </trkpt>
      <trkpt lat="50.60438" lon="2.58664">
        <ele>16</ele>
        <time>2012-01-29T08:24:58Z</time>
      </trkpt>
      <trkpt lat="50.60445" lon="2.58682">
        <ele>16</ele>
        <time>2012-01-29T08:25:00Z</time>
      </trkpt>
      <trkpt lat="50.60452" lon="2.587">
        <ele>16</ele>
        <time>2012-01-29T08:25:02Z</time>
      </trkpt>
      <trkpt lat="50.60459" lon="2.58718">
        <ele>16</ele>
        <time>2012-01-29T08:25:04Z</time>
      </trkpt>
      <trkpt lat="50.60465" lon="2.58736">
        <ele>16</ele>
        <time>2012-01-29T08:25:06Z</time>
      </trkpt>
      <trkpt lat="50.60472" lon="2.58753">
        <ele>16</ele>
        <time>2012-01-29T08:25:08Z</time>
      </trkpt>
      <trkpt lat="50.60479" lon="2.58769">
        <ele>16</ele>
        <time>2012-01-29T08:25:10Z</time>
      </trkpt>
      <trkpt lat="50.60486" lon="2.58785">
        <ele>16</ele>
        <time>2012-01-29T08:25:12Z</time>
      </trkpt>
      <trkpt lat="50.60494" lon="2.58801">
        <ele>16</ele>
        <time>2012-01-29T08:25:14Z</time>
      </trkpt>
      <trkpt lat="50.60502" lon="2.58818">
        <ele>16</ele>
        <time>2012-01-29T08:25:16Z</time>
      </trkpt>
      <trkpt lat="50.6051" lon="2.58834">
        <ele>16</ele>
        <time>2012-01-29T08:25:18Z</time>
      </trkpt>
      <trkpt lat="50.60518" lon="2.5885">
        <ele>16</ele>
        <time>2012-01-29T08:25:20Z</time>
      </trkpt>
      <trkpt lat="50.60526" lon="2.58866">
        <ele>16</ele>
        <time>2012-01-29T08:25:22Z</time>
      </trkpt>
      <trkpt lat="50.60534" lon="2.58881">
        <ele>16</ele>
        <time>2012-01-29T08:25:24Z</time>
      </trkpt>
      <trkpt lat="50.60542" lon="2.58896">
        <ele>16</ele>
        <time>2012-01-29T08:25:26Z</time>
      </trkpt>
      <trkpt lat="50.60549" lon="2.58912">
        <ele>16</ele>
        <time>2012-01-29T08:25:28Z</time>
      </trkpt>
      <trkpt lat="50.60557" lon="2.58929">
        <ele>16</ele>
        <time>2012-01-29T08:25:30Z</time>
      </trkpt>
      <trkpt lat="50.60566" lon="2.58944">
        <ele>16</ele>
        <time>2012-01-29T08:25:32Z</time>
      </trkpt>
      <trkpt lat="50.60574" lon="2.5896">
        <ele>16</ele>
        <time>2012-01-29T08:25:34Z</time>
      </trkpt>
      <trkpt lat="50.60583" lon="2.58975">
        <ele>16</ele>
        <time>2012-01-29T08:25:36Z</time>
      </trkpt>
      <trkpt lat="50.60592" lon="2.58991">
        <ele>16</ele>
        <time>2012-01-29T08:25:38Z</time>
      </trkpt>
      <trkpt lat="50.60601" lon="2.59004">
        <ele>16</ele>
        <time>2012-01-29T08:25:40Z</time>
      </trkpt>
      <trkpt lat="50.6061" lon="2.59018">
        <ele>16</ele>
        <time>2012-01-29T08:25:42Z</time>
      </trkpt>
      <trkpt lat="50.60619" lon="2.59031">
        <ele>16</ele>
        <time>2012-01-29T08:25:44Z</time>
      </trkpt>
      <trkpt lat="50.60628" lon="2.59045">
        <ele>16</ele>
        <time>2012-01-29T08:25:46Z</time>
      </trkpt>
      <trkpt lat="50.60636" lon="2.59059">
        <ele>16</ele>
        <time>2012-01-29T08:25:48Z</time>
      </trkpt>
      <trkpt lat="50.60644" lon="2.59073">
        <ele>16</ele>
        <time>2012-01-29T08:25:50Z</time>
      </trkpt>
      <trkpt lat="50.60652" lon="2.59089">
        <ele>16</ele>
        <time>2012-01-29T08:25:52Z</time>
      </trkpt>
      <trkpt lat="50.60659" lon="2.59105">
        <ele>16</ele>
        <time>2012-01-29T08:25:54Z</time>
      </trkpt>
      <trkpt lat="50.60665" lon="2.59121">
        <ele>16</ele>
        <time>2012-01-29T08:25:56Z</time>
      </trkpt>
      <trkpt lat="50.6067" lon="2.59138">
        <ele>16</ele>
        <time>2012-01-29T08:25:58Z</time>
      </trkpt>
      <trkpt lat="50.60674" lon="2.59156">
        <ele>16</ele>
        <time>2012-01-29T08:26:00Z</time>
      </trkpt>
      <trkpt lat="50.60678" lon="2.59175">
        <ele>16</ele>
        <time>2012-01-29T08:26:02Z</time>
      </trkpt>
      <trkpt lat="50.60682" lon="2.59194">
        <ele>16</ele>
        <time>2012-01-29T08:26:04Z</time>
      </trkpt>
      <trkpt lat="50.60685" lon="2.59212">
        <ele>16</ele>
        <time>2012-01-29T08:26:06Z</time>
      </trkpt>
      <trkpt lat="50.60689" lon="2.5923">
        <ele>16</ele>
        <time>2012-01-29T08:26:08Z</time>
      </trkpt>
      <trkpt lat="50.60692" lon="2.59248">
        <ele>16</ele>
        <time>2012-01-29T08:26:10Z</time>
      </trkpt>
      <trkpt lat="50.60695" lon="2.59266">
        <ele>16</ele>
        <time>2012-01-29T08:26:12Z</time>
      </trkpt>
      <trkpt lat="50.60699" lon="2.59284">
        <ele>16</ele>
        <time>2012-01-29T08:26:14Z</time>
      </trkpt>
      <trkpt lat="50.60701" lon="2.59302">
        <ele>16</ele>
        <time>2012-01-29T08:26:16Z</time>
      </trkpt>
      <trkpt lat="50.60705" lon="2.5932">
        <ele>16</ele>
        <time>2012-01-29T08:26:18Z</time>
      </trkpt>
      <trkpt lat="50.60708" lon="2.59339">
        <ele>16</ele>
        <time>2012-01-29T08:26:20Z</time>
      </trkpt>
      <trkpt lat="50.60712" lon="2.59357">
        <ele>16</ele>
        <time>2012-01-29T08:26:22Z</time>
      </trkpt>
      <trkpt lat="50.60715" lon="2.59375">
        <ele>16</ele>
        <time>2012-01-29T08:26:24Z</time>
      </trkpt>
      <trkpt lat="50.60718" lon="2.59393">
        <ele>16</ele>
        <time>2012-01-29T08:26:26Z</time>
      </trkpt>
      <trkpt lat="50.60722" lon="2.5941">
        <ele>16</ele>
        <time>2012-01-29T08:26:28Z</time>
      </trkpt>
      <trkpt lat="50.60727" lon="2.59427">
        <ele>16</ele>
        <time>2012-01-29T08:26:30Z</time>
      </trkpt>
      <trkpt lat="50.60732" lon="2.59444">
        <ele>16</ele>
        <time>2012-01-29T08:26:32Z</time>
      </trkpt>
      <trkpt lat="50.60739" lon="2.5946">
        <ele>16</ele>
        <time>2012-01-29T08:26:34Z</time>
      </trkpt>
      <trkpt lat="50.60745" lon="2.59477">
        <ele>16</ele>
        <time>2012-01-29T08:26:36Z</time>
      </trkpt>
      <trkpt lat="50.60751" lon="2.59493">
        <ele>16</ele>
        <time>2012-01-29T08:26:38Z</time>
      </trkpt>
      <trkpt lat="50.60758" lon="2.5951">
        <ele>16</ele>
        <time>2012-01-29T08:26:40Z</time>
      </trkpt>
      <trkpt lat="50.60765" lon="2.59526">
        <ele>16</ele>
        <time>2012-01-29T08:26:42Z</time>
      </trkpt>
      <trkpt lat="50.60772" lon="2.59542">
        <ele>16</ele>
        <time>2012-01-29T08:26:44Z</time>
      </trkpt>
      <trkpt lat="50.60779" lon="2.59558">
        <ele>16</ele>
        <time>2012-01-29T08:26:46Z</time>
      </trkpt>
      <trkpt lat="50.60786" lon="2.59575">
        <ele>16</ele>
        <time>2012-01-29T08:26:48Z</time>
      </trkpt>
      <trkpt lat="50.60792" lon="2.59591">
        <ele>16</ele>
        <time>2012-01-29T08:26:50Z</time>
      </trkpt>
      <trkpt lat="50.60799" lon="2.59607">
        <ele>16</ele>
        <time>2012-01-29T08:26:52Z</time>
      </trkpt>
      <trkpt lat="50.60806" lon="2.59623">
        <ele>16</ele>
        <time>2012-01-29T08:26:54Z</time>
      </trkpt>
      <trkpt lat="50.60812" lon="2.59639">
        <ele>16</ele>
        <time>2012-01-29T08:26:56Z</time>
      </trkpt>
      <trkpt lat="50.60818" lon="2.59655">
        <ele>16</ele>
        <time>2012-01-29T08:26:58Z</time>
      </trkpt>
      <trkpt lat="50.60826" lon="2.59672">
        <ele>16</ele>
        <time>2012-01-29T08:27:00Z</time>
      </trkpt>
      <trkpt lat="50.60833" lon="2.59687">
        <ele>16</ele>
        <time>2012-01-29T08:27:02Z</time>
      </trkpt>
      <trkpt lat="50.60841" lon="2.59703">
        <ele>16</ele>
        <time>2012-01-29T08:27:04Z</time>
      </trkpt>
      <trkpt lat="50.6085" lon="2.59717">
        <ele>16</ele>
        <time>2012-01-29T08:27:06Z</time>
      </trkpt>
      <trkpt lat="50.60859" lon="2.59731">
        <ele>16</ele>
        <time>2012-01-29T08:27:08Z</time>
      </trkpt>
      <trkpt lat="50.6087" lon="2.59743">
        <ele>16</ele>
        <time>2012-01-29T08:27:10Z</time>
      </trkpt>
      <trkpt lat="50.60881" lon="2.59753">
        <ele>16</ele>
        <time>2012-01-29T08:27:12Z</time>
      </trkpt>
      <trkpt lat="50.60892" lon="2.59764">
        <ele>16</ele>
        <time>2012-01-29T08:27:14Z</time>
      </trkpt>
      <trkpt lat="50.60904" lon="2.59773">
        <ele>16</ele>
        <time>2012-01-29T08:27:16Z</time>
      </trkpt>
      <trkpt lat="50.60917" lon="2.59782">
        <ele>16</ele>
        <time>2012-01-29T08:27:18Z</time>
      </trkpt>
      <trkpt lat="50.6093" lon="2.59789">
        <ele>16</ele>
        <time>2012-01-29T08:27:20Z</time>
      </trkpt>
      <trkpt lat="50.60942" lon="2.59795">
        <ele>16</ele>
        <time>2012-01-29T08:27:22Z</time>
      </trkpt>
      <trkpt lat="50.60955" lon="2.598">
        <ele>16</ele>
        <time>2012-01-29T08:27:24Z</time>
      </trkpt>
      <trkpt lat="50.60968" lon="2.59804">
        <ele>16</ele>
        <time>2012-01-29T08:27:26Z</time>
      </trkpt>
      <trkpt lat="50.60982" lon="2.59806">
        <ele>16</ele>
        <time>2012-01-29T08:27:28Z</time>
      </trkpt>
      <trkpt lat="50.60995" lon="2.59809">
        <ele>16</ele>
        <time>2012-01-29T08:27:30Z</time>
      </trkpt>
      <trkpt lat="50.61008" lon="2.59813">
        <ele>16</ele>
        <time>2012-01-29T08:27:32Z</time>
      </trkpt>
      <trkpt lat="50.61021" lon="2.59814">
        <ele>16</ele>
        <time>2012-01-29T08:27:34Z</time>
      </trkpt>
      <trkpt lat="50.61034" lon="2.59817">
        <ele>16</ele>
        <time>2012-01-29T08:27:36Z</time>
      </trkpt>
      <trkpt lat="50.61047" lon="2.5982">
        <ele>16</ele>
        <time>2012-01-29T08:27:38Z</time>
      </trkpt>
      <trkpt lat="50.61059" lon="2.59822">
        <ele>16</ele>
        <time>2012-01-29T08:27:40Z</time>
      </trkpt>
      <trkpt lat="50.6107" lon="2.59824">
        <ele>16</ele>
        <time>2012-01-29T08:27:42Z</time>
      </trkpt>
      <trkpt lat="50.61082" lon="2.59826">
        <ele>16</ele>
        <time>2012-01-29T08:27:44Z</time>
      </trkpt>
      <trkpt lat="50.61094" lon="2.59828">
        <ele>16</ele>
        <time>2012-01-29T08:27:46Z</time>
      </trkpt>
      <trkpt lat="50.61105" lon="2.59831">
        <ele>16</ele>
        <time>2012-01-29T08:27:48Z</time>
      </trkpt>
      <trkpt lat="50.61117" lon="2.59832">
        <ele>16</ele>
        <time>2012-01-29T08:27:50Z</time>
      </trkpt>
      <trkpt lat="50.61129" lon="2.59836">
        <ele>16</ele>
        <time>2012-01-29T08:27:52Z</time>
      </trkpt>
      <trkpt lat="50.61141" lon="2.59839">
        <ele>16</ele>
        <time>2012-01-29T08:27:54Z</time>
      </trkpt>
      <trkpt lat="50.61154" lon="2.59841">
        <ele>16</ele>
        <time>2012-01-29T08:27:56Z</time>
      </trkpt>
      <trkpt lat="50.61165" lon="2.59843">
        <ele>16</ele>
        <time>2012-01-29T08:27:58Z</time>
      </trkpt>
      <trkpt lat="50.61177" lon="2.59845">
        <ele>16</ele>
        <time>2012-01-29T08:28:00Z</time>
      </trkpt>
      <trkpt lat="50.61187" lon="2.59846">
        <ele>16</ele>
        <time>2012-01-29T08:28:02Z</time>
      </trkpt>
      <trkpt lat="50.61198" lon="2.59845">
        <ele>16</ele>
        <time>2012-01-29T08:28:04Z</time>
      </trkpt>
      <trkpt lat="50.61207" lon="2.59844">
        <ele>16</ele>
        <time>2012-01-29T08:28:06Z</time>
      </trkpt>
      <trkpt lat="50.61217" lon="2.59843">
        <ele>16</ele>
        <time>2012-01-29T08:28:08Z</time>
      </trkpt>
      <trkpt lat="50.61228" lon="2.59842">
        <ele>16</ele>
        <time>2012-01-29T08:28:10Z</time>
      </trkpt>
      <trkpt lat="50.61238" lon="2.59842">
        <ele>16</ele>
        <time>2012-01-29T08:28:12Z</time>
      </trkpt>
      <trkpt lat="50.61249" lon="2.59841">
        <ele>16</ele>
        <time>2012-01-29T08:28:14Z</time>
      </trkpt>
      <trkpt lat="50.61261" lon="2.5984">
        <ele>16</ele>
        <time>2012-01-29T08:28:16Z</time>
      </trkpt>
      <trkpt lat="50.61274" lon="2.5984">
        <ele>16</ele>
        <time>2012-01-29T08:28:18Z</time>
      </trkpt>
      <trkpt lat="50.61286" lon="2.5984">
        <ele>16</ele>
        <time>2012-01-29T08:28:20Z</time>
      </trkpt>
      <trkpt lat="50.61298" lon="2.59843">
        <ele>16</ele>
        <time>2012-01-29T08:28:22Z</time>
      </trkpt>
      <trkpt lat="50.6131" lon="2.59847">
        <ele>16</ele>
        <time>2012-01-29T08:28:24Z</time>
      </trkpt>
      <trkpt lat="50.61322" lon="2.59851">
        <ele>16</ele>
        <time>2012-01-29T08:28:26Z</time>
      </trkpt>
      <trkpt lat="50.61334" lon="2.59857">
        <ele>16</ele>
        <time>2012-01-29T08:28:28Z</time>
      </trkpt>
      <trkpt lat="50.61346" lon="2.59862">
        <ele>16</ele>
        <time>2012-01-29T08:28:30Z</time>
      </trkpt>
      <trkpt lat="50.61358" lon="2.59867">
        <ele>16</ele>
        <time>2012-01-29T08:28:32Z</time>
      </trkpt>
      <trkpt lat="50.61371" lon="2.59873">
        <ele>16</ele>
        <time>2012-01-29T08:28:34Z</time>
      </trkpt>
      <trkpt lat="50.61383" lon="2.59877">
        <ele>16</ele>
        <time>2012-01-29T08:28:36Z</time>
      </trkpt>
      <trkpt lat="50.61395" lon="2.59883">
        <ele>16</ele>
        <time>2012-01-29T08:28:38Z</time>
      </trkpt>
      <trkpt lat="50.61407" lon="2.59887">
        <ele>16</ele>
        <time>2012-01-29T08:28:40Z</time>
      </trkpt>
      <trkpt lat="50.61419" lon="2.59892">
        <ele>16</ele>
        <time>2012-01-29T08:28:42Z</time>
      </trkpt>
      <trkpt lat="50.61431" lon="2.59898">
        <ele>16</ele>
        <time>2012-01-29T08:28:44Z</time>
      </trkpt>
      <trkpt lat="50.61443" lon="2.59905">
        <ele>16</ele>
        <time>2012-01-29T08:28:46Z</time>
      </trkpt>
      <trkpt lat="50.61454" lon="2.59914">
        <ele>16</ele>
        <time>2012-01-29T08:28:48Z</time>
      </trkpt>
      <trkpt lat="50.61465" lon="2.59924">
        <ele>16</ele>
        <time>2012-01-29T08:28:50Z</time>
      </trkpt>
      <trkpt lat="50.61475" lon="2.59934">
        <ele>16</ele>
        <time>2012-01-29T08:28:52Z</time>
      </trkpt>
      <trkpt lat="50.61486" lon="2.59945">
        <ele>16</ele>
        <time>2012-01-29T08:28:54Z</time>
      </trkpt>
      <trkpt lat="50.61497" lon="2.59955">
        <ele>16</ele>
        <time>2012-01-29T08:28:56Z</time>
      </trkpt>
      <trkpt lat="50.61507" lon="2.59965">
        <ele>16</ele>
        <time>2012-01-29T08:28:58Z</time>
      </trkpt>
      <trkpt lat="50.61518" lon="2.59977">
        <ele>16</ele>
        <time>2012-01-29T08:29:00Z</time>
      </trkpt>
      <trkpt lat="50.61529" lon="2.59989">
        <ele>16</ele>
        <time>2012-01-29T08:29:02Z</time>
      </trkpt>
      <trkpt lat="50.61539" lon="2.59999">
        <ele>16</ele>
        <time>2012-01-29T08:29:04Z</time>
      </trkpt>
      <trkpt lat="50.6155" lon="2.60011">
        <ele>16</ele>
        <time>2012-01-29T08:29:06Z</time>
      </trkpt>
      <trkpt lat="50.61561" lon="2.60023">
        <ele>16</ele>
        <time>2012-01-29T08:29:08Z</time>
      </trkpt>
      <trkpt lat="50.61571" lon="2.60034">
        <ele>16</ele>
        <time>2012-01-29T08:29:10Z</time>
      </trkpt>
      <trkpt lat="50.61582" lon="2.60045">
        <ele>16</ele>
        <time>2012-01-29T08:29:12Z</time>
      </trkpt>
      <trkpt lat="50.61593" lon="2.60058">
        <ele>16</ele>
        <time>2012-01-29T08:29:14Z</time>
      </trkpt>
      <trkpt lat="50.61602" lon="2.60071">
        <ele>16</ele>
        <time>2012-01-29T08:29:16Z</time>
      </trkpt>
      <trkpt lat="50.61611" lon="2.60085">
        <ele>16</ele>
        <time>2012-01-29T08:29:18Z</time>
      </trkpt>
      <trkpt lat="50.6162" lon="2.60099">
        <ele>16</ele>
        <time>2012-01-29T08:29:20Z</time>
      </trkpt>
      <trkpt lat="50.61629" lon="2.60114">
        <ele>16</ele>
        <time>2012-01-29T08:29:22Z</time>
      </trkpt>
      <trkpt lat="50.61637" lon="2.6013">
        <ele>16</ele>
        <time>2012-01-29T08:29:24Z</time>
      </trkpt>
      <trkpt lat="50.61646" lon="2.60145">
        <ele>16</ele>
        <time>2012-01-29T08:29:26Z</time>
      </trkpt>
      <trkpt lat="50.61654" lon="2.60159">
        <ele>16</ele>
        <time>2012-01-29T08:29:28Z</time>
      </trkpt>
      <trkpt lat="50.61662" lon="2.60174">
        <ele>16</ele>
        <time>2012-01-29T08:29:30Z</time>
      </trkpt>
      <trkpt lat="50.61669" lon="2.6019">
        <ele>16</ele>
        <time>2012-01-29T08:29:32Z</time>
      </trkpt>
      <trkpt lat="50.61675" lon="2.60207">
        <ele>16</ele>
        <time>2012-01-29T08:29:34Z</time>
      </trkpt>
      <trkpt lat="50.61678" lon="2.60225">
        <ele>16</ele>
        <time>2012-01-29T08:29:36Z</time>
      </trkpt>
      <trkpt lat="50.61681" lon="2.60244">
        <ele>16</ele>
        <time>2012-01-29T08:29:38Z</time>
      </trkpt>
      <trkpt lat="50.61684" lon="2.60263">
        <ele>16</ele>
        <time>2012-01-29T08:29:40Z</time>
      </trkpt>
      <trkpt lat="50.61686" lon="2.60282">
        <ele>16</ele>
        <time>2012-01-29T08:29:42Z</time>
      </trkpt>
      <trkpt lat="50.61689" lon="2.60301">
        <ele>16</ele>
        <time>2012-01-29T08:29:44Z</time>
      </trkpt>
      <trkpt lat="50.6169" lon="2.6032">
        <ele>16</ele>
        <time>2012-01-29T08:29:46Z</time>
      </trkpt>
      <trkpt lat="50.61693" lon="2.60339">
        <ele>16</ele>
        <time>2012-01-29T08:29:48Z</time>
      </trkpt>
      <trkpt lat="50.61697" lon="2.60358">
        <ele>16</ele>
        <time>2012-01-29T08:29:50Z</time>
      </trkpt>
      <trkpt lat="50.61702" lon="2.60377">
        <ele>16</ele>
        <time>2012-01-29T08:29:52Z</time>
      </trkpt>
      <trkpt lat="50.61707" lon="2.60394">
        <ele>16</ele>
        <time>2012-01-29T08:29:54Z</time>
      </trkpt>
      <trkpt lat="50.61714" lon="2.60411">
        <ele>16</ele>
        <time>2012-01-29T08:29:56Z</time>
      </trkpt>
      <trkpt lat="50.6172" lon="2.60429">
        <ele>16</ele>
        <time>2012-01-29T08:29:58Z</time>
      </trkpt>
      <trkpt lat="50.61726" lon="2.60446">
        <ele>16</ele>
        <time>2012-01-29T08:30:00Z</time>
      </trkpt>
      <trkpt lat="50.61732" lon="2.60465">
        <ele>16</ele>
        <time>2012-01-29T08:30:02Z</time>
      </trkpt>
      <trkpt lat="50.61737" lon="2.60483">
        <ele>16</ele>
        <time>2012-01-29T08:30:04Z</time>
      </trkpt>
      <trkpt lat="50.61743" lon="2.60501">
        <ele>16</ele>
        <time>2012-01-29T08:30:06Z</time>
      </trkpt>
      <trkpt lat="50.61749" lon="2.60519">
        <ele>16</ele>
        <time>2012-01-29T08:30:08Z</time>
      </trkpt>
      <trkpt lat="50.61756" lon="2.60536">
        <ele>16</ele>
        <time>2012-01-29T08:30:10Z</time>
      </trkpt>
      <trkpt lat="50.61765" lon="2.60552">
        <ele>16</ele>
        <time>2012-01-29T08:30:12Z</time>
      </trkpt>
      <trkpt lat="50.61773" lon="2.60567">
        <ele>16</ele>
        <time>2012-01-29T08:30:14Z</time>
      </trkpt>
      <trkpt lat="50.61783" lon="2.60582">
        <ele>16</ele>
        <time>2012-01-29T08:30:16Z</time>
      </trkpt>
      <trkpt lat="50.61792" lon="2.60597">
        <ele>16</ele>
        <time>2012-01-29T08:30:18Z</time>
      </trkpt>
      <trkpt lat="50.61801" lon="2.60612">
        <ele>16</ele>
        <time>2012-01-29T08:30:20Z</time>
      </trkpt>
      <trkpt lat="50.61811" lon="2.60626">
        <ele>16</ele>
        <time>2012-01-29T08:30:22Z</time>
      </trkpt>
      <trkpt lat="50.6182" lon="2.60643">
        <ele>16</ele>
        <time>2012-01-29T08:30:24Z</time>
      </trkpt>
      <trkpt lat="50.61829" lon="2.60658">
        <ele>16</ele>
        <time>2012-01-29T08:30:26Z</time>
      </trkpt>
      <trkpt lat="50.61836" lon="2.60675">
        <ele>16</ele>
        <time>2012-01-29T08:30:28Z</time>
      </trkpt>
      <trkpt lat="50.61843" lon="2.60693">
        <ele>16</ele>
        <time>2012-01-29T08:30:30Z</time>
      </trkpt>
      <trkpt lat="50.61848" lon="2.60712">
        <ele>16</ele>
        <time>2012-01-29T08:30:32Z</time>
      </trkpt>
      <trkpt lat="50.61853" lon="2.60731">
        <ele>16</ele>
        <time>2012-01-29T08:30:34Z</time>
      </trkpt>
      <trkpt lat="50.61858" lon="2.6075">
        <ele>16</ele>
        <time>2012-01-29T08:30:36Z</time>
      </trkpt>
      <trkpt lat="50.61865" lon="2.60767">
        <ele>16</ele>
        <time>2012-01-29T08:30:38Z</time>
      </trkpt>
      <trkpt lat="50.61873" lon="2.60783">
        <ele>16</ele>
        <time>2012-01-29T08:30:40Z</time>
      </trkpt>
      <trkpt lat="50.61881" lon="2.60798">
        <ele>16</ele>
        <time>2012-01-29T08:30:42Z</time>
      </trkpt>
      <trkpt lat="50.6189" lon="2.60811">
        <ele>16</ele>
        <time>2012-01-29T08:30:44Z</time>
      </trkpt>
      <trkpt lat="50.61899" lon="2.60821">
        <ele>16</ele>
        <time>2012-01-29T08:30:46Z</time>
      </trkpt>
      <trkpt lat="50.61908" lon="2.60832">
        <ele>16</ele>
        <time>2012-01-29T08:30:48Z</time>
      </trkpt>
      <trkpt lat="50.61916" lon="2.60842">
        <ele>16</ele>
        <time>2012-01-29T08:30:50Z</time>
      </trkpt>
      <trkpt lat="50.61926" lon="2.6085">
        <ele>16</ele>
        <time>2012-01-29T08:30:52Z</time>
      </trkpt>
      <trkpt lat="50.61937" lon="2.60858">
        <ele>16</ele>
        <time>2012-01-29T08:30:54Z</time>
      </trkpt>
      <trkpt lat="50.61948" lon="2.60866">
        <ele>16</ele>
        <time>2012-01-29T08:30:56Z</time>
      </trkpt>
      <trkpt lat="50.61958" lon="2.60874">
        <ele>16</ele>
        <time>2012-01-29T08:30:58Z</time>
      </trkpt>
      <trkpt lat="50.6197" lon="2.60881">
        <ele>16</ele>
        <time>2012-01-29T08:31:00Z</time>
      </trkpt>
      <trkpt lat="50.61982" lon="2.60885">
        <ele>16</ele>
        <time>2012-01-29T08:31:02Z</time>
      </trkpt>
      <trkpt lat="50.61994" lon="2.60891">
        <ele>16</ele>
        <time>2012-01-29T08:31:04Z</time>
      </trkpt>
      <trkpt lat="50.62006" lon="2.60896">
        <ele>16</ele>
        <time>2012-01-29T08:31:06Z</time>
      </trkpt>
      <trkpt lat="50.62018" lon="2.60904">
        <ele>16</ele>
        <time>2012-01-29T08:31:08Z</time>
      </trkpt>
      <trkpt lat="50.6203" lon="2.60915">
        <ele>16</ele>
        <time>2012-01-29T08:31:10Z</time>
      </trkpt>
      <trkpt lat="50.6204" lon="2.60927">
        <ele>16</ele>
        <time>2012-01-29T08:31:12Z</time>
      </trkpt>
      <trkpt lat="50.6205" lon="2.60938">
        <ele>16</ele>
        <time>2012-01-29T08:31:14Z</time>
      </trkpt>
      <trkpt lat="50.6206" lon="2.6095">
        <ele>16</ele>
        <time>2012-01-29T08:31:16Z</time>
      </trkpt>
      <trkpt lat="50.62069" lon="2.60962">
        <ele>16</ele>
        <time>2012-01-29T08:31:18Z</time>
      </trkpt>
      <trkpt lat="50.6208" lon="2.60971">
        <ele>16</ele>
        <time>2012-01-29T08:31:20Z</time>
      </trkpt>
      <trkpt lat="50.62092" lon="2.60979">
        <ele>16</ele>
        <time>2012-01-29T08:31:22Z</time>
      </trkpt>
      <trkpt lat="50.62104" lon="2.60985">
        <ele>16</ele>
        <time>2012-01-29T08:31:24Z</time>
      </trkpt>
      <trkpt lat="50.62117" lon="2.60989">
        <ele>16</ele>
        <time>2012-01-29T08:31:26Z</time>
      </trkpt>
      <trkpt lat="50.6213" lon="2.60996">
        <ele>16</ele>
        <time>2012-01-29T08:31:28Z</time>
      </trkpt>
      <trkpt lat="50.62142" lon="2.61003">
        <ele>16</ele>
        <time>2012-01-29T08:31:30Z</time>
      </trkpt>
      <trkpt lat="50.62154" lon="2.61012">
        <ele>16</ele>
        <time>2012-01-29T08:31:32Z</time>
      </trkpt>
      <trkpt lat="50.62166" lon="2.61022">
        <ele>16</ele>
        <time>2012-01-29T08:31:34Z</time>
      </trkpt>
      <trkpt lat="50.62177" lon="2.61031">
        <ele>16</ele>
        <time>2012-01-29T08:31:36Z</time>
      </trkpt>
      <trkpt lat="50.62188" lon="2.61041">
        <ele>16</ele>
        <time>2012-01-29T08:31:38Z</time>
      </trkpt>
      <trkpt lat="50.622" lon="2.6105">
        <ele>16</ele>
        <time>2012-01-29T08:31:40Z</time>
      </trkpt>
      <trkpt lat="50.62211" lon="2.61059">
        <ele>16</ele>
        <time>2012-01-29T08:31:42Z</time>
      </trkpt>
      <trkpt lat="50.62222" lon="2.61068">
        <ele>16</ele>
        <time>2012-01-29T08:31:44Z</time>
      </trkpt>
      <trkpt lat="50.62232" lon="2.61077">
        <ele>16</ele>
        <time>2012-01-29T08:31:46Z</time>
      </trkpt>
      <trkpt lat="50.62241" lon="2.61092">
        <ele>16</ele>
        <time>2012-01-29T08:31:48Z</time>
      </trkpt>
      <trkpt lat="50.62242" lon="2.61111">
        <ele>16</ele>
        <time>2012-01-29T08:31:50Z</time>
      </trkpt>
      <trkpt lat="50.6224" lon="2.6113">
        <ele>16</ele>
        <time>2012-01-29T08:31:52Z</time>
      </trkpt>
      <trkpt lat="50.62236" lon="2.61148">
        <ele>16</ele>
        <time>2012-01-29T08:31:54Z</time>
      </trkpt>
      <trkpt lat="50.62238" lon="2.61168">
        <ele>16</ele>
        <time>2012-01-29T08:31:56Z</time>
      </trkpt>
      <trkpt lat="50.62243" lon="2.61186">
        <ele>16</ele>
        <time>2012-01-29T08:31:58Z</time>
      </trkpt>
      <trkpt lat="50.6225" lon="2.61203">
        <ele>16</ele>
        <time>2012-01-29T08:32:00Z</time>
      </trkpt>
      <trkpt lat="50.62258" lon="2.61219">
        <ele>16</ele>
        <time>2012-01-29T08:32:02Z</time>
      </trkpt>
      <trkpt lat="50.62267" lon="2.61236">
        <ele>16</ele>
        <time>2012-01-29T08:32:04Z</time>
      </trkpt>
      <trkpt lat="50.62276" lon="2.61253">
        <ele>16</ele>
        <time>2012-01-29T08:32:06Z</time>
      </trkpt>
      <trkpt lat="50.62283" lon="2.61271">
        <ele>16</ele>
        <time>2012-01-29T08:32:08Z</time>
      </trkpt>
      <trkpt lat="50.62289" lon="2.61288">
        <ele>16</ele>
        <time>2012-01-29T08:32:10Z</time>
      </trkpt>
      <trkpt lat="50.62294" lon="2.61306">
        <ele>16</ele>
        <time>2012-01-29T08:32:12Z</time>
      </trkpt>
      <trkpt lat="50.623" lon="2.61323">
        <ele>16</ele>
        <time>2012-01-29T08:32:14Z</time>
      </trkpt>
      <trkpt lat="50.62306" lon="2.61339">
        <ele>16</ele>
        <time>2012-01-29T08:32:16Z</time>
      </trkpt>
      <trkpt lat="50.62313" lon="2.61355">
        <ele>16</ele>
        <time>2012-01-29T08:32:18Z</time>
      </trkpt>
      <trkpt lat="50.62321" lon="2.6137">
        <ele>16</ele>
        <time>2012-01-29T08:32:20Z</time>
      </trkpt>
      <trkpt lat="50.62329" lon="2.61386">
        <ele>16</ele>
        <time>2012-01-29T08:32:22Z</time>
      </trkpt>
      <trkpt lat="50.62338" lon="2.61401">
        <ele>16</ele>
        <time>2012-01-29T08:32:24Z</time>
      </trkpt>
      <trkpt lat="50.62346" lon="2.61416">
        <ele>16</ele>
        <time>2012-01-29T08:32:26Z</time>
      </trkpt>
      <trkpt lat="50.62354" lon="2.61431">
        <ele>16</ele>
        <time>2012-01-29T08:32:28Z</time>
      </trkpt>
      <trkpt lat="50.62363" lon="2.61447">
        <ele>16</ele>
        <time>2012-01-29T08:32:30Z</time>
      </trkpt>
      <trkpt lat="50.62371" lon="2.61462">
        <ele>16</ele>
        <time>2012-01-29T08:32:32Z</time>
      </trkpt>
      <trkpt lat="50.6238" lon="2.61477">
        <ele>16</ele>
        <time>2012-01-29T08:32:34Z</time>
      </trkpt>
      <trkpt lat="50.62388" lon="2.61492">
        <ele>16</ele>
        <time>2012-01-29T08:32:36Z</time>
      </trkpt>
      <trkpt lat="50.62396" lon="2.61508">
        <ele>16</ele>
        <time>2012-01-29T08:32:38Z</time>
      </trkpt>
      <trkpt lat="50.62403" lon="2.61523">
        <ele>16</ele>
        <time>2012-01-29T08:32:40Z</time>
      </trkpt>
      <trkpt lat="50.6241" lon="2.61538">
        <ele>16</ele>
        <time>2012-01-29T08:32:42Z</time>
      </trkpt>
      <trkpt lat="50.62416" lon="2.61552">
        <ele>16</ele>
        <time>2012-01-29T08:32:44Z</time>
      </trkpt>
      <trkpt lat="50.62424" lon="2.61566">
        <ele>16</ele>
        <time>2012-01-29T08:32:46Z</time>
      </trkpt>
      <trkpt lat="50.62432" lon="2.6158">
        <ele>16</ele>
        <time>2012-01-29T08:32:48Z</time>
      </trkpt>
      <trkpt lat="50.62441" lon="2.61593">
        <ele>16</ele>
        <time>2012-01-29T08:32:50Z</time>
      </trkpt>
      <trkpt lat="50.62449" lon="2.61606">
        <ele>16</ele>
        <time>2012-01-29T08:32:52Z</time>
      </trkpt>
      <trkpt lat="50.62458" lon="2.6162">
        <ele>16</ele>
        <time>2012-01-29T08:32:54Z</time>
      </trkpt>
      <trkpt lat="50.62466" lon="2.61633">
        <ele>16</ele>
        <time>2012-01-29T08:32:56Z</time>
      </trkpt>
      <trkpt lat="50.62475" lon="2.61648">
        <ele>16</ele>
        <time>2012-01-29T08:32:58Z</time>
      </trkpt>
      <trkpt lat="50.62484" lon="2.61661">
        <ele>16</ele>
        <time>2012-01-29T08:33:00Z</time>
      </trkpt>
      <trkpt lat="50.62493" lon="2.61669">
        <ele>16</ele>
        <time>2012-01-29T08:33:02Z</time>
      </trkpt>
      <trkpt lat="50.62505" lon="2.61667">
        <ele>16</ele>
        <time>2012-01-29T08:33:04Z</time>
      </trkpt>
      <trkpt lat="50.62516" lon="2.61657">
        <ele>16</ele>
        <time>2012-01-29T08:33:06Z</time>
      </trkpt>
      <trkpt lat="50.62527" lon="2.61644">
        <ele>16</ele>
        <time>2012-01-29T08:33:08Z</time>
      </trkpt>
      <trkpt lat="50.62539" lon="2.61633">
        <ele>16</ele>
        <time>2012-01-29T08:33:10Z</time>
      </trkpt>
      <trkpt lat="50.62553" lon="2.61631">
        <ele>16</ele>
        <time>2012-01-29T08:33:12Z</time>
      </trkpt>
      <trkpt lat="50.62566" lon="2.61631">
        <ele>16</ele>
        <time>2012-01-29T08:33:14Z</time>
      </trkpt>
      <trkpt lat="50.6258" lon="2.61633">
        <ele>16</ele>
        <time>2012-01-29T08:33:16Z</time>
      </trkpt>
      <trkpt lat="50.62593" lon="2.61635">
        <ele>16</ele>
        <time>2012-01-29T08:33:18Z</time>
      </trkpt>
      <trkpt lat="50.62605" lon="2.6164">
        <ele>16</ele>
        <time>2012-01-29T08:33:20Z</time>
      </trkpt>
      <trkpt lat="50.62618" lon="2.61645">
        <ele>16</ele>
        <time>2012-01-29T08:33:22Z</time>
      </trkpt>
      <trkpt lat="50.62631" lon="2.6165">
        <ele>16</ele>
        <time>2012-01-29T08:33:24Z</time>
      </trkpt>
      <trkpt lat="50.62644" lon="2.61654">
        <ele>16</ele>
        <time>2012-01-29T08:33:26Z</time>
      </trkpt>
      <trkpt lat="50.62658" lon="2.61658">
        <ele>16</ele>
        <time>2012-01-29T08:33:28Z</time>
      </trkpt>
      <trkpt lat="50.62672" lon="2.61662">
        <ele>16</ele>
        <time>2012-01-29T08:33:30Z</time>
      </trkpt>
      <trkpt lat="50.62687" lon="2.61667">
        <ele>16</ele>
        <time>2012-01-29T08:33:32Z</time>
      </trkpt>
      <trkpt lat="50.62701" lon="2.61669">
        <ele>16</ele>
        <time>2012-01-29T08:33:34Z</time>
      </trkpt>
      <trkpt lat="50.62716" lon="2.61669">
        <ele>16</ele>
        <time>2012-01-29T08:33:36Z</time>
      </trkpt>
      <trkpt lat="50.62731" lon="2.61669">
        <ele>16</ele>
        <time>2012-01-29T08:33:38Z</time>
      </trkpt>
      <trkpt lat="50.62744" lon="2.61667">
        <ele>16</ele>
        <time>2012-01-29T08:33:40Z</time>
      </trkpt>
      <trkpt lat="50.62757" lon="2.61664">
        <ele>16</ele>
        <time>2012-01-29T08:33:42Z</time>
      </trkpt>
      <trkpt lat="50.62768" lon="2.61661">
        <ele>16</ele>
        <time>2012-01-29T08:33:44Z</time>
      </trkpt>
      <trkpt lat="50.62781" lon="2.61658">
        <ele>16</ele>
        <time>2012-01-29T08:33:46Z</time>
      </trkpt>
      <trkpt lat="50.62793" lon="2.61655">
        <ele>16</ele>
        <time>2012-01-29T08:33:48Z</time>
      </trkpt>
      <trkpt lat="50.62806" lon="2.61652">
        <ele>16</ele>
        <time>2012-01-29T08:33:50Z</time>
      </trkpt>
      <trkpt lat="50.62819" lon="2.6165">
        <ele>16</ele>
        <time>2012-01-29T08:33:52Z</time>
      </trkpt>
      <trkpt lat="50.62831" lon="2.61648">
        <ele>16</ele>
        <time>2012-01-29T08:33:54Z</time>
      </trkpt>
      <trkpt lat="50.62844" lon="2.61645">
        <ele>16</ele>
        <time>2012-01-29T08:33:56Z</time>
      </trkpt>
      <trkpt lat="50.62856" lon="2.61642">
        <ele>16</ele>
        <time>2012-01-29T08:33:58Z</time>
      </trkpt>
      <trkpt lat="50.62868" lon="2.61642">
        <ele>16</ele>
        <time>2012-01-29T08:34:00Z</time>
      </trkpt>
      <trkpt lat="50.62881" lon="2.61642">
        <ele>16</ele>
        <time>2012-01-29T08:34:02Z</time>
      </trkpt>
      <trkpt lat="50.62892" lon="2.6165">
        <ele>16</ele>
        <time>2012-01-29T08:34:04Z</time>
      </trkpt>
      <trkpt lat="50.629" lon="2.61664">
        <ele>16</ele>
        <time>2012-01-29T08:34:06Z</time>
      </trkpt>
      <trkpt lat="50.62906" lon="2.61681">
        <ele>16</ele>
        <time>2012-01-29T08:34:08Z</time>
      </trkpt>
      <trkpt lat="50.6291" lon="2.61699">
        <ele>16</ele>
        <time>2012-01-29T08:34:10Z</time>
      </trkpt>
      <trkpt lat="50.62916" lon="2.61718">
        <ele>16</ele>
        <time>2012-01-29T08:34:12Z</time>
      </trkpt>
      <trkpt lat="50.6292" lon="2.61737">
        <ele>16</ele>
        <time>2012-01-29T08:34:14Z</time>
      </trkpt>
      <trkpt lat="50.62924" lon="2.61756">
        <ele>16</ele>
        <time>2012-01-29T08:34:16Z</time>
      </trkpt>
      <trkpt lat="50.62928" lon="2.61775">
        <ele>16</ele>
        <time>2012-01-29T08:34:18Z</time>
      </trkpt>
      <trkpt lat="50.62932" lon="2.61794">
        <ele>16</ele>
        <time>2012-01-29T08:34:20Z</time>
      </trkpt>
      <trkpt lat="50.62936" lon="2.61814">
        <ele>16</ele>
        <time>2012-01-29T08:34:22Z</time>
      </trkpt>
      <trkpt lat="50.6294" lon="2.61834">
        <ele>16</ele>
        <time>2012-01-29T08:34:24Z</time>
      </trkpt>
      <trkpt lat="50.62944" lon="2.61854">
        <ele>16</ele>
        <time>2012-01-29T08:34:26Z</time>
      </trkpt>
      <trkpt lat="50.62948" lon="2.61872">
        <ele>16</ele>
        <time>2012-01-29T08:34:28Z</time>
      </trkpt>
      <trkpt lat="50.62951" lon="2.61891">
        <ele>16</ele>
        <time>2012-01-29T08:34:30Z</time>
      </trkpt>
      <trkpt lat="50.62955" lon="2.6191">
        <ele>16</ele>
        <time>2012-01-29T08:34:32Z</time>
      </trkpt>
      <trkpt lat="50.62959" lon="2.61929">
        <ele>16</ele>
        <time>2012-01-29T08:34:34Z</time>
      </trkpt>
      <trkpt lat="50.62963" lon="2.61947">
        <ele>16</ele>
        <time>2012-01-29T08:34:36Z</time>
      </trkpt>
      <trkpt lat="50.62967" lon="2.61965">
        <ele>16</ele>
        <time>2012-01-29T08:34:38Z</time>
      </trkpt>
      <trkpt lat="50.62971" lon="2.61983">
        <ele>16</ele>
        <time>2012-01-29T08:34:40Z</time>
      </trkpt>
      <trkpt lat="50.62974" lon="2.62001">
        <ele>16</ele>
        <time>2012-01-29T08:34:42Z</time>
      </trkpt>
      <trkpt lat="50.62978" lon="2.62018">
        <ele>16</ele>
        <time>2012-01-29T08:34:44Z</time>
      </trkpt>
      <trkpt lat="50.62985" lon="2.62034">
        <ele>16</ele>
        <time>2012-01-29T08:34:46Z</time>
      </trkpt>
      <trkpt lat="50.62994" lon="2.62045">
        <ele>16</ele>
        <time>2012-01-29T08:34:48Z</time>
      </trkpt>
      <trkpt lat="50.63005" lon="2.62051">
        <ele>16</ele>
        <time>2012-01-29T08:34:50Z</time>
      </trkpt>
      <trkpt lat="50.63017" lon="2.62052">
        <ele>16</ele>
        <time>2012-01-29T08:34:52Z</time>
      </trkpt>
      <trkpt lat="50.63029" lon="2.62051">
        <ele>16</ele>
        <time>2012-01-29T08:34:54Z</time>
      </trkpt>
      <trkpt lat="50.63042" lon="2.62048">
        <ele>16</ele>
        <time>2012-01-29T08:34:56Z</time>
      </trkpt>
      <trkpt lat="50.63054" lon="2.62047">
        <ele>16</ele>
        <time>2012-01-29T08:34:58Z</time>
      </trkpt>
      <trkpt lat="50.63066" lon="2.62047">
        <ele>16</ele>
        <time>2012-01-29T08:35:00Z</time>
      </trkpt>
      <trkpt lat="50.63079" lon="2.62052">
        <ele>16</ele>
        <time>2012-01-29T08:35:02Z</time>
      </trkpt>
      <trkpt lat="50.63088" lon="2.62066">
        <ele>16</ele>
        <time>2012-01-29T08:35:04Z</time>
      </trkpt>
      <trkpt lat="50.63092" lon="2.62084">
        <ele>16</ele>
        <time>2012-01-29T08:35:06Z</time>
      </trkpt>
      <trkpt lat="50.63095" lon="2.62102">
        <ele>16</ele>
        <time>2012-01-29T08:35:08Z</time>
      </trkpt>
      <trkpt lat="50.63098" lon="2.62121">
        <ele>16</ele>
        <time>2012-01-29T08:35:10Z</time>
      </trkpt>
      <trkpt lat="50.63101" lon="2.62139">
        <ele>16</ele>
        <time>2012-01-29T08:35:12Z</time>
      </trkpt>
      <trkpt lat="50.63105" lon="2.62157">
        <ele>16</ele>
        <time>2012-01-29T08:35:14Z</time>
      </trkpt>
      <trkpt lat="50.6311" lon="2.62174">
        <ele>16</ele>
        <time>2012-01-29T08:35:16Z</time>
      </trkpt>
      <trkpt lat="50.63115" lon="2.62191">
        <ele>16</ele>
        <time>2012-01-29T08:35:18Z</time>
      </trkpt>
      <trkpt lat="50.63121" lon="2.62209">
        <ele>16</ele>
        <time>2012-01-29T08:35:20Z</time>
      </trkpt>
      <trkpt lat="50.63127" lon="2.62225">
        <ele>16</ele>
        <time>2012-01-29T08:35:22Z</time>
      </trkpt>
      <trkpt lat="50.63133" lon="2.62243">
        <ele>16</ele>
        <time>2012-01-29T08:35:24Z</time>
      </trkpt>
      <trkpt lat="50.6314" lon="2.6226">
        <ele>16</ele>
        <time>2012-01-29T08:35:26Z</time>
      </trkpt>
      <trkpt lat="50.63146" lon="2.62277">
        <ele>16</ele>
        <time>2012-01-29T08:35:28Z</time>
      </trkpt>
      <trkpt lat="50.63152" lon="2.62294">
        <ele>16</ele>
        <time>2012-01-29T08:35:30Z</time>
      </trkpt>
      <trkpt lat="50.63157" lon="2.62312">
        <ele>16</ele>
        <time>2012-01-29T08:35:32Z</time>
      </trkpt>
      <trkpt lat="50.63162" lon="2.6233">
        <ele>16</ele>
        <time>2012-01-29T08:35:34Z</time>
      </trkpt>
      <trkpt lat="50.63168" lon="2.62348">
        <ele>16</ele>
        <time>2012-01-29T08:35:36Z</time>
      </trkpt>
      <trkpt lat="50.63173" lon="2.62366">
        <ele>16</ele>
        <time>2012-01-29T08:35:38Z</time>
      </trkpt>
      <trkpt lat="50.63178" lon="2.62384">
        <ele>16</ele>
        <time>2012-01-29T08:35:40Z</time>
      </trkpt>
      <trkpt lat="50.63184" lon="2.62402">
        <ele>16</ele>
        <time>2012-01-29T08:35:42Z</time>
      </trkpt>
      <trkpt lat="50.63189" lon="2.62419">
        <ele>16</ele>
        <time>2012-01-29T08:35:44Z</time>
      </trkpt>
      <trkpt lat="50.63194" lon="2.62436">
        <ele>16</ele>
        <time>2012-01-29T08:35:46Z</time>
      </trkpt>
      <trkpt lat="50.632" lon="2.62454">
        <ele>16</ele>
        <time>2012-01-29T08:35:48Z</time>
      </trkpt>
      <trkpt lat="50.63204" lon="2.62471">
        <ele>16</ele>
        <time>2012-01-29T08:35:50Z</time>
      </trkpt>
      <trkpt lat="50.6321" lon="2.62488">
        <ele>16</ele>
        <time>2012-01-29T08:35:52Z</time>
      </trkpt>
      <trkpt lat="50.63219" lon="2.625">
        <ele>16</ele>
        <time>2012-01-29T08:35:54Z</time>
      </trkpt>
      <trkpt lat="50.6323" lon="2.62503">
        <ele>16</ele>
        <time>2012-01-29T08:35:56Z</time>
      </trkpt>
      <trkpt lat="50.63242" lon="2.62498">
        <ele>16</ele>
        <time>2012-01-29T08:35:58Z</time>
      </trkpt>
      <trkpt lat="50.63254" lon="2.62493">
        <ele>16</ele>
        <time>2012-01-29T08:36:00Z</time>
      </trkpt>
      <trkpt lat="50.63263" lon="2.625">
        <ele>16</ele>
        <time>2012-01-29T08:36:02Z</time>
      </trkpt>
      <trkpt lat="50.63269" lon="2.62516">
        <ele>16</ele>
        <time>2012-01-29T08:36:04Z</time>
      </trkpt>
      <trkpt lat="50.63272" lon="2.62534">
        <ele>16</ele>
        <time>2012-01-29T08:36:06Z</time>
      </trkpt>
      <trkpt lat="50.63275" lon="2.62552">
        <ele>16</ele>
        <time>2012-01-29T08:36:08Z</time>
      </trkpt>
      <trkpt lat="50.63278" lon="2.6257">
        <ele>16</ele>
        <time>2012-01-29T08:36:10Z</time>
      </trkpt>
      <trkpt lat="50.63282" lon="2.62589">
        <ele>16</ele>
        <time>2012-01-29T08:36:12Z</time>
      </trkpt>
      <trkpt lat="50.63285" lon="2.62609">
        <ele>16</ele>
        <time>2012-01-29T08:36:14Z</time>
      </trkpt>
      <trkpt lat="50.63289" lon="2.62629">
        <ele>16</ele>
        <time>2012-01-29T08:36:16Z</time>
      </trkpt>
      <trkpt lat="50.63294" lon="2.62649">
        <ele>16</ele>
        <time>2012-01-29T08:36:18Z</time>
      </trkpt>
      <trkpt lat="50.63298" lon="2.62668">
        <ele>16</ele>
        <time>2012-01-29T08:36:20Z</time>
      </trkpt>
      <trkpt lat="50.63302" lon="2.62689">
        <ele>16</ele>
        <time>2012-01-29T08:36:22Z</time>
      </trkpt>
      <trkpt lat="50.63307" lon="2.6271">
        <ele>16</ele>
        <time>2012-01-29T08:36:24Z</time>
      </trkpt>
      <trkpt lat="50.63312" lon="2.62729">
        <ele>16</ele>
        <time>2012-01-29T08:36:26Z</time>
      </trkpt>
      <trkpt lat="50.63317" lon="2.62749">
        <ele>16</ele>
        <time>2012-01-29T08:36:28Z</time>
      </trkpt>
      <trkpt lat="50.63322" lon="2.62768">
        <ele>16</ele>
        <time>2012-01-29T08:36:30Z</time>
      </trkpt>
      <trkpt lat="50.6333" lon="2.62786">
        <ele>16</ele>
        <time>2012-01-29T08:36:32Z</time>
      </trkpt>
      <trkpt lat="50.63337" lon="2.62804">
        <ele>16</ele>
        <time>2012-01-29T08:36:34Z</time>
      </trkpt>
      <trkpt lat="50.63343" lon="2.62823">
        <ele>16</ele>
        <time>2012-01-29T08:36:36Z</time>
      </trkpt>
      <trkpt lat="50.63348" lon="2.62842">
        <ele>16</ele>
        <time>2012-01-29T08:36:38Z</time>
      </trkpt>
      <trkpt lat="50.63353" lon="2.62861">
        <ele>16</ele>
        <time>2012-01-29T08:36:40Z</time>
      </trkpt>
      <trkpt lat="50.63358" lon="2.62879">
        <ele>16</ele>
        <time>2012-01-29T08:36:42Z</time>
      </trkpt>
      <trkpt lat="50.63362" lon="2.62898">
        <ele>16</ele>
        <time>2012-01-29T08:36:44Z</time>
      </trkpt>
      <trkpt lat="50.63366" lon="2.62917">
        <ele>16</ele>
        <time>2012-01-29T08:36:46Z</time>
      </trkpt>
      <trkpt lat="50.6337" lon="2.62936">
        <ele>16</ele>
        <time>2012-01-29T08:36:48Z</time>
      </trkpt>
      <trkpt lat="50.63374" lon="2.62956">
        <ele>16</ele>
        <time>2012-01-29T08:36:50Z</time>
      </trkpt>
      <trkpt lat="50.63377" lon="2.62975">
        <ele>16</ele>
        <time>2012-01-29T08:36:52Z</time>
      </trkpt>
      <trkpt lat="50.6338" lon="2.62994">
        <ele>16</ele>
        <time>2012-01-29T08:36:54Z</time>
      </trkpt>
      <trkpt lat="50.63384" lon="2.63012">
        <ele>16</ele>
        <time>2012-01-29T08:36:56Z</time>
      </trkpt>
      <trkpt lat="50.63389" lon="2.6303">
        <ele>16</ele>
        <time>2012-01-29T08:36:58Z</time>
      </trkpt>
      <trkpt lat="50.63394" lon="2.63047">
        <ele>16</ele>
        <time>2012-01-29T08:37:00Z</time>
      </trkpt>
      <trkpt lat="50.63401" lon="2.6306">
        <ele>16</ele>
        <time>2012-01-29T08:37:02Z</time>
      </trkpt>
      <trkpt lat="50.63409" lon="2.63073">
        <ele>16</ele>
        <time>2012-01-29T08:37:04Z</time>
      </trkpt>
      <trkpt lat="50.63417" lon="2.63085">
        <ele>16</ele>
        <time>2012-01-29T08:37:06Z</time>
      </trkpt>
      <trkpt lat="50.63426" lon="2.63098">
        <ele>16</ele>
        <time>2012-01-29T08:37:08Z</time>
      </trkpt>
      <trkpt lat="50.63434" lon="2.63111">
        <ele>16</ele>
        <time>2012-01-29T08:37:10Z</time>
      </trkpt>
      <trkpt lat="50.63442" lon="2.63126">
        <ele>16</ele>
        <time>2012-01-29T08:37:12Z</time>
      </trkpt>
      <trkpt lat="50.63449" lon="2.63141">
        <ele>16</ele>
        <time>2012-01-29T08:37:14Z</time>
      </trkpt>
      <trkpt lat="50.63455" lon="2.63157">
        <ele>16</ele>
        <time>2012-01-29T08:37:16Z</time>
      </trkpt>
      <trkpt lat="50.63462" lon="2.63174">
        <ele>16</ele>
        <time>2012-01-29T08:37:18Z</time>
      </trkpt>
      <trkpt lat="50.63468" lon="2.63191">
        <ele>16</ele>
        <time>2012-01-29T08:37:20Z</time>
      </trkpt>
      <trkpt lat="50.63474" lon="2.63207">
        <ele>16</ele>
        <time>2012-01-29T08:37:22Z</time>
      </trkpt>
      <trkpt lat="50.63481" lon="2.63223">
        <ele>16</ele>
        <time>2012-01-29T08:37:24Z</time>
      </trkpt>
      <trkpt lat="50.63488" lon="2.63241">
        <ele>16</ele>
        <time>2012-01-29T08:37:26Z</time>
      </trkpt>
      <trkpt lat="50.63494" lon="2.63258">
        <ele>16</ele>
        <time>2012-01-29T08:37:28Z</time>
      </trkpt>
      <trkpt lat="50.63501" lon="2.63275">
        <ele>16</ele>
        <time>2012-01-29T08:37:30Z</time>
      </trkpt>
      <trkpt lat="50.63507" lon="2.63293">
        <ele>16</ele>
        <time>2012-01-29T08:37:32Z</time>
      </trkpt>
      <trkpt lat="50.63513" lon="2.63311">
        <ele>16</ele>
        <time>2012-01-29T08:37:34Z</time>
      </trkpt>
      <trkpt lat="50.63519" lon="2.63328">
        <ele>16</ele>
        <time>2012-01-29T08:37:36Z</time>
      </trkpt>
      <trkpt lat="50.63525" lon="2.63346">
        <ele>16</ele>
        <time>2012-01-29T08:37:38Z</time>
      </trkpt>
      <trkpt lat="50.6353" lon="2.63365">
        <ele>16</ele>
        <time>2012-01-29T08:37:40Z</time>
      </trkpt>
      <trkpt lat="50.63535" lon="2.63382">
        <ele>16</ele>
        <time>2012-01-29T08:37:42Z</time>
      </trkpt>
      <trkpt lat="50.63541" lon="2.63401">
        <ele>16</ele>
        <time>2012-01-29T08:37:44Z</time>
      </trkpt>
      <trkpt lat="50.63546" lon="2.63419">
        <ele>16</ele>
        <time>2012-01-29T08:37:46Z</time>
      </trkpt>
      <trkpt lat="50.63551" lon="2.63437">
        <ele>16</ele>
        <time>2012-01-29T08:37:48Z</time>
      </trkpt>
      <trkpt lat="50.63559" lon="2.63453">
        <ele>16</ele>
        <time>2012-01-29T08:37:50Z</time>
      </trkpt>
      <trkpt lat="50.63569" lon="2.63466">
        <ele>16</ele>
        <time>2012-01-29T08:37:52Z</time>
      </trkpt>
      <trkpt lat="50.63579" lon="2.63476">
        <ele>16</ele>
        <time>2012-01-29T08:37:54Z</time>
      </trkpt>
      <trkpt lat="50.6359" lon="2.63483">
        <ele>16</ele>
        <time>2012-01-29T08:37:56Z</time>
      </trkpt>
      <trkpt lat="50.63601" lon="2.63491">
        <ele>16</ele>
        <time>2012-01-29T08:37:58Z</time>
      </trkpt>
      <trkpt lat="50.63613" lon="2.63499">
        <ele>16</ele>
        <time>2012-01-29T08:38:00Z</time>
      </trkpt>
      <trkpt lat="50.63625" lon="2.63506">
        <ele>16</ele>
        <time>2012-01-29T08:38:02Z</time>
      </trkpt>
      <trkpt lat="50.63637" lon="2.63515">
        <ele>16</ele>
        <time>2012-01-29T08:38:04Z</time>
      </trkpt>
      <trkpt lat="50.63649" lon="2.63522">
        <ele>16</ele>
        <time>2012-01-29T08:38:06Z</time>
      </trkpt>
      <trkpt lat="50.63661" lon="2.6353">
        <ele>16</ele>
        <time>2012-01-29T08:38:08Z</time>
      </trkpt>
      <trkpt lat="50.63673" lon="2.63537">
        <ele>16</ele>
        <time>2012-01-29T08:38:10Z</time>
      </trkpt>
      <trkpt lat="50.63685" lon="2.63541">
        <ele>16</ele>
        <time>2012-01-29T08:38:12Z</time>
      </trkpt>
      <trkpt lat="50.63698" lon="2.63542">
        <ele>16</ele>
        <time>2012-01-29T08:38:14Z</time>
      </trkpt>
      <trkpt lat="50.63711" lon="2.63541">
        <ele>16</ele>
        <time>2012-01-29T08:38:16Z</time>
      </trkpt>
      <trkpt lat="50.63724" lon="2.63537">
        <ele>16</ele>
        <time>2012-01-29T08:38:18Z</time>
      </trkpt>
      <trkpt lat="50.63737" lon="2.63533">
        <ele>16</ele>
        <time>2012-01-29T08:38:20Z</time>
      </trkpt>
      <trkpt lat="50.63751" lon="2.63532">
        <ele>16</ele>
        <time>2012-01-29T08:38:22Z</time>
      </trkpt>
      <trkpt lat="50.63764" lon="2.63532">
        <ele>16</ele>
        <time>2012-01-29T08:38:24Z</time>
      </trkpt>
      <trkpt lat="50.63777" lon="2.63532">
        <ele>16</ele>
        <time>2012-01-29T08:38:26Z</time>
      </trkpt>
      <trkpt lat="50.63789" lon="2.63532">
        <ele>16</ele>
        <time>2012-01-29T08:38:28Z</time>
      </trkpt>
      <trkpt lat="50.63802" lon="2.63532">
        <ele>16</ele>
        <time>2012-01-29T08:38:30Z</time>
      </trkpt>
      <trkpt lat="50.63814" lon="2.63535">
        <ele>10</ele>
        <time>2012-01-29T08:38:32Z</time>
      </trkpt>
      <trkpt lat="50.63826" lon="2.63542">
        <ele>10</ele>
        <time>2012-01-29T08:38:34Z</time>
      </trkpt>
      <trkpt lat="50.63838" lon="2.63551">
        <ele>10</ele>
        <time>2012-01-29T08:38:36Z</time>
      </trkpt>
      <trkpt lat="50.63848" lon="2.6356">
        <ele>10</ele>
        <time>2012-01-29T08:38:38Z</time>
      </trkpt>
      <trkpt lat="50.63858" lon="2.63572">
        <ele>10</ele>
        <time>2012-01-29T08:38:40Z</time>
      </trkpt>
      <trkpt lat="50.63869" lon="2.63586">
        <ele>10</ele>
        <time>2012-01-29T08:38:42Z</time>
      </trkpt>
      <trkpt lat="50.63881" lon="2.63599">
        <ele>10</ele>
        <time>2012-01-29T08:38:44Z</time>
      </trkpt>
      <trkpt lat="50.63891" lon="2.63612">
        <ele>16</ele>
        <time>2012-01-29T08:38:46Z</time>
      </trkpt>
      <trkpt lat="50.63902" lon="2.63626">
        <ele>16</ele>
        <time>2012-01-29T08:38:48Z</time>
      </trkpt>
      <trkpt lat="50.63914" lon="2.6364">
        <ele>16</ele>
        <time>2012-01-29T08:38:50Z</time>
      </trkpt>
      <trkpt lat="50.63923" lon="2.63654">
        <ele>16</ele>
        <time>2012-01-29T08:38:52Z</time>
      </trkpt>
      <trkpt lat="50.63934" lon="2.63667">
        <ele>16</ele>
        <time>2012-01-29T08:38:54Z</time>
      </trkpt>
      <trkpt lat="50.63943" lon="2.63682">
        <ele>16</ele>
        <time>2012-01-29T08:38:56Z</time>
      </trkpt>
      <trkpt lat="50.63951" lon="2.63698">
        <ele>16</ele>
        <time>2012-01-29T08:38:58Z</time>
      </trkpt>
      <trkpt lat="50.63956" lon="2.63717">
        <ele>16</ele>
        <time>2012-01-29T08:39:00Z</time>
      </trkpt>
      <trkpt lat="50.6396" lon="2.63736">
        <ele>16</ele>
        <time>2012-01-29T08:39:02Z</time>
      </trkpt>
      <trkpt lat="50.63961" lon="2.63756">
        <ele>16</ele>
        <time>2012-01-29T08:39:04Z</time>
      </trkpt>
      <trkpt lat="50.63962" lon="2.63776">
        <ele>16</ele>
        <time>2012-01-29T08:39:06Z</time>
      </trkpt>
      <trkpt lat="50.6396" lon="2.63794">
        <ele>16</ele>
        <time>2012-01-29T08:39:08Z</time>
      </trkpt>
      <trkpt lat="50.63958" lon="2.63813">
        <ele>16</ele>
        <time>2012-01-29T08:39:10Z</time>
      </trkpt>
      <trkpt lat="50.63955" lon="2.63832">
        <ele>16</ele>
        <time>2012-01-29T08:39:12Z</time>
      </trkpt>
      <trkpt lat="50.63952" lon="2.63851">
        <ele>16</ele>
        <time>2012-01-29T08:39:14Z</time>
      </trkpt>
      <trkpt lat="50.6395" lon="2.6387">
        <ele>16</ele>
        <time>2012-01-29T08:39:16Z</time>
      </trkpt>
      <trkpt lat="50.63946" lon="2.6389">
        <ele>16</ele>
        <time>2012-01-29T08:39:18Z</time>
      </trkpt>
      <trkpt lat="50.63943" lon="2.63906">
        <ele>16</ele>
        <time>2012-01-29T08:39:20Z</time>
      </trkpt>
      <trkpt lat="50.63938" lon="2.63919">
        <ele>26</ele>
        <time>2012-01-29T08:41:19Z</time>
      </trkpt>
      <trkpt lat="50.63939" lon="2.63936">
        <ele>20</ele>
        <time>2012-01-29T08:43:03Z</time>
      </trkpt>
      <trkpt lat="50.63935" lon="2.63952">
        <ele>20</ele>
        <time>2012-01-29T08:43:06Z</time>
      </trkpt>
      <trkpt lat="50.63932" lon="2.63972">
        <ele>20</ele>
        <time>2012-01-29T08:43:09Z</time>
      </trkpt>
      <trkpt lat="50.63929" lon="2.63992">
        <ele>20</ele>
        <time>2012-01-29T08:43:12Z</time>
      </trkpt>
      <trkpt lat="50.63923" lon="2.64009">
        <ele>20</ele>
        <time>2012-01-29T08:43:15Z</time>
      </trkpt>
      <trkpt lat="50.63915" lon="2.64023">
        <ele>20</ele>
        <time>2012-01-29T08:43:18Z</time>
      </trkpt>
      <trkpt lat="50.63906" lon="2.64037">
        <ele>20</ele>
        <time>2012-01-29T08:43:21Z</time>
      </trkpt>
      <trkpt lat="50.63902" lon="2.6405">
        <ele>20</ele>
        <time>2012-01-29T08:43:23Z</time>
      </trkpt>
      <trkpt lat="50.63901" lon="2.64068">
        <ele>20</ele>
        <time>2012-01-29T08:43:26Z</time>
      </trkpt>
      <trkpt lat="50.63903" lon="2.64084">
        <ele>20</ele>
        <time>2012-01-29T08:43:29Z</time>
      </trkpt>
      <trkpt lat="50.6391" lon="2.64096">
        <ele>20</ele>
        <time>2012-01-29T08:43:32Z</time>
      </trkpt>
      <trkpt lat="50.63922" lon="2.64096">
        <ele>20</ele>
        <time>2012-01-29T08:43:36Z</time>
      </trkpt>
      <trkpt lat="50.63931" lon="2.641">
        <ele>20</ele>
        <time>2012-01-29T08:43:39Z</time>
      </trkpt>
      <trkpt lat="50.6394" lon="2.64105">
        <ele>14</ele>
        <time>2012-01-29T08:44:17Z</time>
      </trkpt>
      <trkpt lat="50.63951" lon="2.64101">
        <ele>14</ele>
        <time>2012-01-29T08:44:20Z</time>
      </trkpt>
      <trkpt lat="50.63958" lon="2.64091">
        <ele>14</ele>
        <time>2012-01-29T08:44:22Z</time>
      </trkpt>
      <trkpt lat="50.63964" lon="2.64079">
        <ele>14</ele>
        <time>2012-01-29T08:44:24Z</time>
      </trkpt>
      <trkpt lat="50.63972" lon="2.64064">
        <ele>14</ele>
        <time>2012-01-29T08:44:26Z</time>
      </trkpt>
      <trkpt lat="50.6398" lon="2.64054">
        <ele>14</ele>
        <time>2012-01-29T08:44:28Z</time>
      </trkpt>
      <trkpt lat="50.63992" lon="2.64048">
        <ele>14</ele>
        <time>2012-01-29T08:44:30Z</time>
      </trkpt>
      <trkpt lat="50.64004" lon="2.64045">
        <ele>14</ele>
        <time>2012-01-29T08:44:32Z</time>
      </trkpt>
      <trkpt lat="50.64015" lon="2.64043">
        <ele>14</ele>
        <time>2012-01-29T08:44:34Z</time>
      </trkpt>
      <trkpt lat="50.64026" lon="2.64041">
        <ele>20</ele>
        <time>2012-01-29T08:44:36Z</time>
      </trkpt>
      <trkpt lat="50.64038" lon="2.64038">
        <ele>20</ele>
        <time>2012-01-29T08:44:38Z</time>
      </trkpt>
      <trkpt lat="50.64049" lon="2.64036">
        <ele>20</ele>
        <time>2012-01-29T08:44:40Z</time>
      </trkpt>
      <trkpt lat="50.64062" lon="2.64034">
        <ele>20</ele>
        <time>2012-01-29T08:44:42Z</time>
      </trkpt>
      <trkpt lat="50.64072" lon="2.64029">
        <ele>20</ele>
        <time>2012-01-29T08:44:44Z</time>
      </trkpt>
      <trkpt lat="50.64084" lon="2.64025">
        <ele>20</ele>
        <time>2012-01-29T08:44:46Z</time>
      </trkpt>
      <trkpt lat="50.64096" lon="2.6402">
        <ele>20</ele>
        <time>2012-01-29T08:44:48Z</time>
      </trkpt>
      <trkpt lat="50.64109" lon="2.64018">
        <ele>20</ele>
        <time>2012-01-29T08:44:50Z</time>
      </trkpt>
      <trkpt lat="50.64122" lon="2.64015">
        <ele>20</ele>
        <time>2012-01-29T08:44:52Z</time>
      </trkpt>
      <trkpt lat="50.64134" lon="2.64011">
        <ele>20</ele>
        <time>2012-01-29T08:44:54Z</time>
      </trkpt>
      <trkpt lat="50.64146" lon="2.64009">
        <ele>20</ele>
        <time>2012-01-29T08:44:56Z</time>
      </trkpt>
      <trkpt lat="50.64159" lon="2.64005">
        <ele>20</ele>
        <time>2012-01-29T08:44:58Z</time>
      </trkpt>
      <trkpt lat="50.64171" lon="2.64002">
        <ele>20</ele>
        <time>2012-01-29T08:45:00Z</time>
      </trkpt>
      <trkpt lat="50.64183" lon="2.64">
        <ele>20</ele>
        <time>2012-01-29T08:45:02Z</time>
      </trkpt>
      <trkpt lat="50.64194" lon="2.63995">
        <ele>20</ele>
        <time>2012-01-29T08:45:04Z</time>
      </trkpt>
      <trkpt lat="50.64204" lon="2.6399">
        <ele>20</ele>
        <time>2012-01-29T08:45:06Z</time>
      </trkpt>
      <trkpt lat="50.64214" lon="2.63985">
        <ele>20</ele>
        <time>2012-01-29T08:45:08Z</time>
      </trkpt>
      <trkpt lat="50.64223" lon="2.63982">
        <ele>20</ele>
        <time>2012-01-29T08:45:10Z</time>
      </trkpt>
      <trkpt lat="50.64234" lon="2.63976">
        <ele>20</ele>
        <time>2012-01-29T08:45:13Z</time>
      </trkpt>
      <trkpt lat="50.64242" lon="2.63972">
        <ele>20</ele>
        <time>2012-01-29T08:45:16Z</time>
      </trkpt>
      <trkpt lat="50.64252" lon="2.6397">
        <ele>20</ele>
        <time>2012-01-29T08:45:19Z</time>
      </trkpt>
      <trkpt lat="50.64262" lon="2.63974">
        <ele>20</ele>
        <time>2012-01-29T08:45:23Z</time>
      </trkpt>
      <trkpt lat="50.64268" lon="2.63994">
        <ele>28</ele>
        <time>2012-01-29T08:45:26Z</time>
      </trkpt>
      <trkpt lat="50.64272" lon="2.6401">
        <ele>28</ele>
        <time>2012-01-29T08:45:28Z</time>
      </trkpt>
      <trkpt lat="50.64275" lon="2.64027">
        <ele>28</ele>
        <time>2012-01-29T08:45:30Z</time>
      </trkpt>
      <trkpt lat="50.6428" lon="2.64045">
        <ele>34</ele>
        <time>2012-01-29T08:45:32Z</time>
      </trkpt>
      <trkpt lat="50.64282" lon="2.64063">
        <ele>34</ele>
        <time>2012-01-29T08:45:34Z</time>
      </trkpt>
      <trkpt lat="50.64284" lon="2.64082">
        <ele>34</ele>
        <time>2012-01-29T08:45:36Z</time>
      </trkpt>
      <trkpt lat="50.64287" lon="2.64101">
        <ele>34</ele>
        <time>2012-01-29T08:45:38Z</time>
      </trkpt>
      <trkpt lat="50.64291" lon="2.6412">
        <ele>34</ele>
        <time>2012-01-29T08:45:40Z</time>
      </trkpt>
      <trkpt lat="50.64295" lon="2.64138">
        <ele>34</ele>
        <time>2012-01-29T08:45:42Z</time>
      </trkpt>
      <trkpt lat="50.64299" lon="2.64156">
        <ele>34</ele>
        <time>2012-01-29T08:45:44Z</time>
      </trkpt>
      <trkpt lat="50.64304" lon="2.64174">
        <ele>34</ele>
        <time>2012-01-29T08:45:46Z</time>
      </trkpt>
      <trkpt lat="50.64308" lon="2.64192">
        <ele>29</ele>
        <time>2012-01-29T08:45:48Z</time>
      </trkpt>
      <trkpt lat="50.64312" lon="2.64212">
        <ele>29</ele>
        <time>2012-01-29T08:45:50Z</time>
      </trkpt>
      <trkpt lat="50.64315" lon="2.64231">
        <ele>29</ele>
        <time>2012-01-29T08:45:52Z</time>
      </trkpt>
      <trkpt lat="50.64316" lon="2.64251">
        <ele>29</ele>
        <time>2012-01-29T08:45:54Z</time>
      </trkpt>
      <trkpt lat="50.64318" lon="2.64271">
        <ele>29</ele>
        <time>2012-01-29T08:45:56Z</time>
      </trkpt>
      <trkpt lat="50.64321" lon="2.64291">
        <ele>29</ele>
        <time>2012-01-29T08:45:58Z</time>
      </trkpt>
      <trkpt lat="50.64325" lon="2.6431">
        <ele>23</ele>
        <time>2012-01-29T08:46:00Z</time>
      </trkpt>
      <trkpt lat="50.64327" lon="2.64329">
        <ele>23</ele>
        <time>2012-01-29T08:46:02Z</time>
      </trkpt>
      <trkpt lat="50.64329" lon="2.64348">
        <ele>23</ele>
        <time>2012-01-29T08:46:04Z</time>
      </trkpt>
      <trkpt lat="50.64332" lon="2.64366">
        <ele>17</ele>
        <time>2012-01-29T08:46:06Z</time>
      </trkpt>
      <trkpt lat="50.64334" lon="2.64384">
        <ele>17</ele>
        <time>2012-01-29T08:46:08Z</time>
      </trkpt>
      <trkpt lat="50.64337" lon="2.64403">
        <ele>17</ele>
        <time>2012-01-29T08:46:10Z</time>
      </trkpt>
      <trkpt lat="50.6434" lon="2.64421">
        <ele>17</ele>
        <time>2012-01-29T08:46:12Z</time>
      </trkpt>
      <trkpt lat="50.64342" lon="2.6444">
        <ele>17</ele>
        <time>2012-01-29T08:46:14Z</time>
      </trkpt>
      <trkpt lat="50.64339" lon="2.64458">
        <ele>17</ele>
        <time>2012-01-29T08:46:16Z</time>
      </trkpt>
      <trkpt lat="50.64331" lon="2.64473">
        <ele>17</ele>
        <time>2012-01-29T08:46:18Z</time>
      </trkpt>
      <trkpt lat="50.64321" lon="2.64488">
        <ele>17</ele>
        <time>2012-01-29T08:46:20Z</time>
      </trkpt>
      <trkpt lat="50.64312" lon="2.64504">
        <ele>17</ele>
        <time>2012-01-29T08:46:22Z</time>
      </trkpt>
      <trkpt lat="50.64302" lon="2.64521">
        <ele>17</ele>
        <time>2012-01-29T08:46:24Z</time>
      </trkpt>
      <trkpt lat="50.64292" lon="2.64536">
        <ele>17</ele>
        <time>2012-01-29T08:46:26Z</time>
      </trkpt>
      <trkpt lat="50.64281" lon="2.64551">
        <ele>17</ele>
        <time>2012-01-29T08:46:28Z</time>
      </trkpt>
      <trkpt lat="50.6427" lon="2.64566">
        <ele>17</ele>
        <time>2012-01-29T08:46:30Z</time>
      </trkpt>
      <trkpt lat="50.64258" lon="2.6458">
        <ele>17</ele>
        <time>2012-01-29T08:46:32Z</time>
      </trkpt>
      <trkpt lat="50.64246" lon="2.64594">
        <ele>17</ele>
        <time>2012-01-29T08:46:34Z</time>
      </trkpt>
      <trkpt lat="50.64235" lon="2.64608">
        <ele>17</ele>
        <time>2012-01-29T08:46:36Z</time>
      </trkpt>
      <trkpt lat="50.64223" lon="2.64621">
        <ele>17</ele>
        <time>2012-01-29T08:46:38Z</time>
      </trkpt>
      <trkpt lat="50.64212" lon="2.64635">
        <ele>17</ele>
        <time>2012-01-29T08:46:40Z</time>
      </trkpt>
      <trkpt lat="50.64201" lon="2.64648">
        <ele>17</ele>
        <time>2012-01-29T08:46:42Z</time>
      </trkpt>
      <trkpt lat="50.6419" lon="2.64662">
        <ele>17</ele>
        <time>2012-01-29T08:46:44Z</time>
      </trkpt>
      <trkpt lat="50.6418" lon="2.64674">
        <ele>17</ele>
        <time>2012-01-29T08:46:46Z</time>
      </trkpt>
      <trkpt lat="50.64169" lon="2.64687">
        <ele>17</ele>
        <time>2012-01-29T08:46:48Z</time>
      </trkpt>
      <trkpt lat="50.64158" lon="2.647">
        <ele>17</ele>
        <time>2012-01-29T08:46:50Z</time>
      </trkpt>
      <trkpt lat="50.64147" lon="2.64714">
        <ele>17</ele>
        <time>2012-01-29T08:46:52Z</time>
      </trkpt>
      <trkpt lat="50.64137" lon="2.64727">
        <ele>17</ele>
        <time>2012-01-29T08:46:54Z</time>
      </trkpt>
      <trkpt lat="50.64127" lon="2.64742">
        <ele>17</ele>
        <time>2012-01-29T08:46:56Z</time>
      </trkpt>
      <trkpt lat="50.64119" lon="2.64758">
        <ele>17</ele>
        <time>2012-01-29T08:46:58Z</time>
      </trkpt>
      <trkpt lat="50.64115" lon="2.64777">
        <ele>17</ele>
        <time>2012-01-29T08:47:00Z</time>
      </trkpt>
      <trkpt lat="50.64114" lon="2.64797">
        <ele>17</ele>
        <time>2012-01-29T08:47:02Z</time>
      </trkpt>
      <trkpt lat="50.64116" lon="2.64817">
        <ele>17</ele>
        <time>2012-01-29T08:47:04Z</time>
      </trkpt>
      <trkpt lat="50.64117" lon="2.64838">
        <ele>17</ele>
        <time>2012-01-29T08:47:06Z</time>
      </trkpt>
      <trkpt lat="50.64119" lon="2.64858">
        <ele>17</ele>
        <time>2012-01-29T08:47:08Z</time>
      </trkpt>
      <trkpt lat="50.6412" lon="2.64878">
        <ele>17</ele>
        <time>2012-01-29T08:47:10Z</time>
      </trkpt>
      <trkpt lat="50.64121" lon="2.64897">
        <ele>17</ele>
        <time>2012-01-29T08:47:12Z</time>
      </trkpt>
      <trkpt lat="50.64123" lon="2.64916">
        <ele>17</ele>
        <time>2012-01-29T08:47:14Z</time>
      </trkpt>
      <trkpt lat="50.64124" lon="2.64935">
        <ele>17</ele>
        <time>2012-01-29T08:47:16Z</time>
      </trkpt>
      <trkpt lat="50.64126" lon="2.64954">
        <ele>17</ele>
        <time>2012-01-29T08:47:18Z</time>
      </trkpt>
      <trkpt lat="50.64127" lon="2.64973">
        <ele>17</ele>
        <time>2012-01-29T08:47:20Z</time>
      </trkpt>
      <trkpt lat="50.64128" lon="2.64993">
        <ele>17</ele>
        <time>2012-01-29T08:47:22Z</time>
      </trkpt>
      <trkpt lat="50.6413" lon="2.65013">
        <ele>17</ele>
        <time>2012-01-29T08:47:24Z</time>
      </trkpt>
      <trkpt lat="50.64131" lon="2.65033">
        <ele>17</ele>
        <time>2012-01-29T08:47:26Z</time>
      </trkpt>
      <trkpt lat="50.64132" lon="2.65053">
        <ele>17</ele>
        <time>2012-01-29T08:47:28Z</time>
      </trkpt>
      <trkpt lat="50.64134" lon="2.65072">
        <ele>17</ele>
        <time>2012-01-29T08:47:30Z</time>
      </trkpt>
      <trkpt lat="50.64135" lon="2.65092">
        <ele>17</ele>
        <time>2012-01-29T08:47:32Z</time>
      </trkpt>
      <trkpt lat="50.64136" lon="2.65112">
        <ele>17</ele>
        <time>2012-01-29T08:47:34Z</time>
      </trkpt>
      <trkpt lat="50.64137" lon="2.65132">
        <ele>17</ele>
        <time>2012-01-29T08:47:36Z</time>
      </trkpt>
      <trkpt lat="50.64139" lon="2.65153">
        <ele>17</ele>
        <time>2012-01-29T08:47:38Z</time>
      </trkpt>
      <trkpt lat="50.6414" lon="2.65173">
        <ele>17</ele>
        <time>2012-01-29T08:47:40Z</time>
      </trkpt>
      <trkpt lat="50.64141" lon="2.65193">
        <ele>17</ele>
        <time>2012-01-29T08:47:42Z</time>
      </trkpt>
      <trkpt lat="50.64142" lon="2.65211">
        <ele>17</ele>
        <time>2012-01-29T08:47:44Z</time>
      </trkpt>
      <trkpt lat="50.64143" lon="2.6523">
        <ele>17</ele>
        <time>2012-01-29T08:47:46Z</time>
      </trkpt>
      <trkpt lat="50.6414" lon="2.65248">
        <ele>17</ele>
        <time>2012-01-29T08:47:48Z</time>
      </trkpt>
      <trkpt lat="50.64129" lon="2.65258">
        <ele>17</ele>
        <time>2012-01-29T08:47:50Z</time>
      </trkpt>
      <trkpt lat="50.64117" lon="2.65263">
        <ele>17</ele>
        <time>2012-01-29T08:47:52Z</time>
      </trkpt>
      <trkpt lat="50.64104" lon="2.65266">
        <ele>17</ele>
        <time>2012-01-29T08:47:54Z</time>
      </trkpt>
      <trkpt lat="50.64092" lon="2.65272">
        <ele>17</ele>
        <time>2012-01-29T08:47:56Z</time>
      </trkpt>
      <trkpt lat="50.64082" lon="2.65282">
        <ele>17</ele>
        <time>2012-01-29T08:47:58Z</time>
      </trkpt>
      <trkpt lat="50.64078" lon="2.653">
        <ele>17</ele>
        <time>2012-01-29T08:48:00Z</time>
      </trkpt>
      <trkpt lat="50.64078" lon="2.65321">
        <ele>17</ele>
        <time>2012-01-29T08:48:02Z</time>
      </trkpt>
      <trkpt lat="50.64079" lon="2.65341">
        <ele>17</ele>
        <time>2012-01-29T08:48:04Z</time>
      </trkpt>
      <trkpt lat="50.64082" lon="2.6536">
        <ele>17</ele>
        <time>2012-01-29T08:48:06Z</time>
      </trkpt>
      <trkpt lat="50.64085" lon="2.65379">
        <ele>17</ele>
        <time>2012-01-29T08:48:08Z</time>
      </trkpt>
      <trkpt lat="50.64088" lon="2.65398">
        <ele>17</ele>
        <time>2012-01-29T08:48:10Z</time>
      </trkpt>
      <trkpt lat="50.64093" lon="2.65417">
        <ele>17</ele>
        <time>2012-01-29T08:48:12Z</time>
      </trkpt>
      <trkpt lat="50.64098" lon="2.65435">
        <ele>17</ele>
        <time>2012-01-29T08:48:14Z</time>
      </trkpt>
      <trkpt lat="50.64103" lon="2.65452">
        <ele>17</ele>
        <time>2012-01-29T08:48:16Z</time>
      </trkpt>
      <trkpt lat="50.64109" lon="2.65469">
        <ele>17</ele>
        <time>2012-01-29T08:48:18Z</time>
      </trkpt>
      <trkpt lat="50.64115" lon="2.65486">
        <ele>17</ele>
        <time>2012-01-29T08:48:20Z</time>
      </trkpt>
      <trkpt lat="50.6412" lon="2.65503">
        <ele>17</ele>
        <time>2012-01-29T08:48:22Z</time>
      </trkpt>
      <trkpt lat="50.64126" lon="2.6552">
        <ele>17</ele>
        <time>2012-01-29T08:48:24Z</time>
      </trkpt>
      <trkpt lat="50.64132" lon="2.65536">
        <ele>17</ele>
        <time>2012-01-29T08:48:26Z</time>
      </trkpt>
      <trkpt lat="50.64138" lon="2.65551">
        <ele>17</ele>
        <time>2012-01-29T08:48:28Z</time>
      </trkpt>
      <trkpt lat="50.64142" lon="2.65565">
        <ele>17</ele>
        <time>2012-01-29T08:48:30Z</time>
      </trkpt>
      <trkpt lat="50.64146" lon="2.65581">
        <ele>17</ele>
        <time>2012-01-29T08:48:32Z</time>
      </trkpt>
      <trkpt lat="50.64151" lon="2.65595">
        <ele>17</ele>
        <time>2012-01-29T08:48:34Z</time>
      </trkpt>
      <trkpt lat="50.64155" lon="2.65611">
        <ele>17</ele>
        <time>2012-01-29T08:48:36Z</time>
      </trkpt>
      <trkpt lat="50.6416" lon="2.65627">
        <ele>17</ele>
        <time>2012-01-29T08:48:38Z</time>
      </trkpt>
      <trkpt lat="50.64164" lon="2.65644">
        <ele>17</ele>
        <time>2012-01-29T08:48:40Z</time>
      </trkpt>
      <trkpt lat="50.64168" lon="2.65662">
        <ele>17</ele>
        <time>2012-01-29T08:48:42Z</time>
      </trkpt>
      <trkpt lat="50.64171" lon="2.6568">
        <ele>17</ele>
        <time>2012-01-29T08:48:44Z</time>
      </trkpt>
      <trkpt lat="50.64175" lon="2.65697">
        <ele>17</ele>
        <time>2012-01-29T08:48:46Z</time>
      </trkpt>
      <trkpt lat="50.64179" lon="2.65715">
        <ele>17</ele>
        <time>2012-01-29T08:48:48Z</time>
      </trkpt>
      <trkpt lat="50.64183" lon="2.65734">
        <ele>17</ele>
        <time>2012-01-29T08:48:50Z</time>
      </trkpt>
      <trkpt lat="50.64188" lon="2.65752">
        <ele>17</ele>
        <time>2012-01-29T08:48:52Z</time>
      </trkpt>
      <trkpt lat="50.64192" lon="2.65771">
        <ele>17</ele>
        <time>2012-01-29T08:48:54Z</time>
      </trkpt>
      <trkpt lat="50.64197" lon="2.6579">
        <ele>17</ele>
        <time>2012-01-29T08:48:56Z</time>
      </trkpt>
      <trkpt lat="50.64203" lon="2.65808">
        <ele>17</ele>
        <time>2012-01-29T08:48:58Z</time>
      </trkpt>
      <trkpt lat="50.64208" lon="2.65827">
        <ele>17</ele>
        <time>2012-01-29T08:49:00Z</time>
      </trkpt>
      <trkpt lat="50.64214" lon="2.65845">
        <ele>17</ele>
        <time>2012-01-29T08:49:02Z</time>
      </trkpt>
      <trkpt lat="50.64219" lon="2.65864">
        <ele>17</ele>
        <time>2012-01-29T08:49:04Z</time>
      </trkpt>
      <trkpt lat="50.64225" lon="2.65883">
        <ele>17</ele>
        <time>2012-01-29T08:49:06Z</time>
      </trkpt>
      <trkpt lat="50.6423" lon="2.65901">
        <ele>17</ele>
        <time>2012-01-29T08:49:08Z</time>
      </trkpt>
      <trkpt lat="50.64235" lon="2.6592">
        <ele>17</ele>
        <time>2012-01-29T08:49:10Z</time>
      </trkpt>
      <trkpt lat="50.64238" lon="2.65939">
        <ele>17</ele>
        <time>2012-01-29T08:49:12Z</time>
      </trkpt>
      <trkpt lat="50.6424" lon="2.65959">
        <ele>17</ele>
        <time>2012-01-29T08:49:14Z</time>
      </trkpt>
      <trkpt lat="50.64242" lon="2.65979">
        <ele>17</ele>
        <time>2012-01-29T08:49:16Z</time>
      </trkpt>
      <trkpt lat="50.64243" lon="2.65997">
        <ele>17</ele>
        <time>2012-01-29T08:49:18Z</time>
      </trkpt>
      <trkpt lat="50.64243" lon="2.66015">
        <ele>17</ele>
        <time>2012-01-29T08:49:20Z</time>
      </trkpt>
      <trkpt lat="50.64242" lon="2.66033">
        <ele>17</ele>
        <time>2012-01-29T08:49:22Z</time>
      </trkpt>
      <trkpt lat="50.64242" lon="2.66051">
        <ele>17</ele>
        <time>2012-01-29T08:49:24Z</time>
      </trkpt>
      <trkpt lat="50.64242" lon="2.66071">
        <ele>17</ele>
        <time>2012-01-29T08:49:26Z</time>
      </trkpt>
      <trkpt lat="50.64242" lon="2.6609">
        <ele>17</ele>
        <time>2012-01-29T08:49:28Z</time>
      </trkpt>
      <trkpt lat="50.64243" lon="2.66108">
        <ele>17</ele>
        <time>2012-01-29T08:49:30Z</time>
      </trkpt>
      <trkpt lat="50.64245" lon="2.66126">
        <ele>17</ele>
        <time>2012-01-29T08:49:32Z</time>
      </trkpt>
      <trkpt lat="50.64247" lon="2.66142">
        <ele>17</ele>
        <time>2012-01-29T08:49:34Z</time>
      </trkpt>
      <trkpt lat="50.64247" lon="2.66157">
        <ele>17</ele>
        <time>2012-01-29T08:49:36Z</time>
      </trkpt>
      <trkpt lat="50.64248" lon="2.66172">
        <ele>17</ele>
        <time>2012-01-29T08:49:38Z</time>
      </trkpt>
      <trkpt lat="50.64248" lon="2.6619">
        <ele>17</ele>
        <time>2012-01-29T08:49:41Z</time>
      </trkpt>
      <trkpt lat="50.64256" lon="2.66185">
        <ele>29</ele>
        <time>2012-01-29T08:50:14Z</time>
      </trkpt>
      <trkpt lat="50.64249" lon="2.66194">
        <ele>21</ele>
        <time>2012-01-29T08:51:00Z</time>
      </trkpt>
      <trkpt lat="50.64257" lon="2.66203">
        <ele>21</ele>
        <time>2012-01-29T08:51:27Z</time>
      </trkpt>
      <trkpt lat="50.64262" lon="2.66222">
        <ele>21</ele>
        <time>2012-01-29T08:51:30Z</time>
      </trkpt>
      <trkpt lat="50.64266" lon="2.66236">
        <ele>21</ele>
        <time>2012-01-29T08:51:32Z</time>
      </trkpt>
      <trkpt lat="50.64269" lon="2.66251">
        <ele>21</ele>
        <time>2012-01-29T08:51:34Z</time>
      </trkpt>
      <trkpt lat="50.64274" lon="2.66266">
        <ele>21</ele>
        <time>2012-01-29T08:51:36Z</time>
      </trkpt>
      <trkpt lat="50.6428" lon="2.66281">
        <ele>21</ele>
        <time>2012-01-29T08:51:38Z</time>
      </trkpt>
      <trkpt lat="50.64287" lon="2.66297">
        <ele>21</ele>
        <time>2012-01-29T08:51:40Z</time>
      </trkpt>
      <trkpt lat="50.64294" lon="2.66312">
        <ele>21</ele>
        <time>2012-01-29T08:51:42Z</time>
      </trkpt>
      <trkpt lat="50.64301" lon="2.66327">
        <ele>21</ele>
        <time>2012-01-29T08:51:44Z</time>
      </trkpt>
      <trkpt lat="50.64309" lon="2.66343">
        <ele>21</ele>
        <time>2012-01-29T08:51:46Z</time>
      </trkpt>
      <trkpt lat="50.64316" lon="2.6636">
        <ele>21</ele>
        <time>2012-01-29T08:51:48Z</time>
      </trkpt>
      <trkpt lat="50.64324" lon="2.66376">
        <ele>21</ele>
        <time>2012-01-29T08:51:50Z</time>
      </trkpt>
      <trkpt lat="50.6433" lon="2.66393">
        <ele>21</ele>
        <time>2012-01-29T08:51:52Z</time>
      </trkpt>
      <trkpt lat="50.64335" lon="2.6641">
        <ele>21</ele>
        <time>2012-01-29T08:51:54Z</time>
      </trkpt>
      <trkpt lat="50.6434" lon="2.66428">
        <ele>21</ele>
        <time>2012-01-29T08:51:56Z</time>
      </trkpt>
      <trkpt lat="50.64344" lon="2.66446">
        <ele>21</ele>
        <time>2012-01-29T08:51:58Z</time>
      </trkpt>
      <trkpt lat="50.64347" lon="2.66464">
        <ele>21</ele>
        <time>2012-01-29T08:52:00Z</time>
      </trkpt>
      <trkpt lat="50.64349" lon="2.66483">
        <ele>21</ele>
        <time>2012-01-29T08:52:02Z</time>
      </trkpt>
      <trkpt lat="50.6435" lon="2.66501">
        <ele>21</ele>
        <time>2012-01-29T08:52:04Z</time>
      </trkpt>
      <trkpt lat="50.64351" lon="2.66519">
        <ele>21</ele>
        <time>2012-01-29T08:52:06Z</time>
      </trkpt>
      <trkpt lat="50.64351" lon="2.66538">
        <ele>21</ele>
        <time>2012-01-29T08:52:08Z</time>
      </trkpt>
      <trkpt lat="50.6435" lon="2.66558">
        <ele>21</ele>
        <time>2012-01-29T08:52:10Z</time>
      </trkpt>
      <trkpt lat="50.64348" lon="2.66579">
        <ele>21</ele>
        <time>2012-01-29T08:52:12Z</time>
      </trkpt>
      <trkpt lat="50.64345" lon="2.666">
        <ele>21</ele>
        <time>2012-01-29T08:52:14Z</time>
      </trkpt>
      <trkpt lat="50.64341" lon="2.66621">
        <ele>21</ele>
        <time>2012-01-29T08:52:16Z</time>
      </trkpt>
      <trkpt lat="50.64339" lon="2.66641">
        <ele>21</ele>
        <time>2012-01-29T08:52:18Z</time>
      </trkpt>
      <trkpt lat="50.64335" lon="2.6666">
        <ele>21</ele>
        <time>2012-01-29T08:52:20Z</time>
      </trkpt>
      <trkpt lat="50.64332" lon="2.66681">
        <ele>21</ele>
        <time>2012-01-29T08:52:22Z</time>
      </trkpt>
      <trkpt lat="50.64329" lon="2.66701">
        <ele>21</ele>
        <time>2012-01-29T08:52:24Z</time>
      </trkpt>
      <trkpt lat="50.64325" lon="2.66722">
        <ele>21</ele>
        <time>2012-01-29T08:52:26Z</time>
      </trkpt>
      <trkpt lat="50.64323" lon="2.66742">
        <ele>21</ele>
        <time>2012-01-29T08:52:28Z</time>
      </trkpt>
      <trkpt lat="50.64319" lon="2.66763">
        <ele>21</ele>
        <time>2012-01-29T08:52:30Z</time>
      </trkpt>
      <trkpt lat="50.64316" lon="2.66783">
        <ele>21</ele>
        <time>2012-01-29T08:52:32Z</time>
      </trkpt>
      <trkpt lat="50.64313" lon="2.66803">
        <ele>21</ele>
        <time>2012-01-29T08:52:34Z</time>
      </trkpt>
      <trkpt lat="50.6431" lon="2.66823">
        <ele>21</ele>
        <time>2012-01-29T08:52:36Z</time>
      </trkpt>
      <trkpt lat="50.64307" lon="2.66844">
        <ele>21</ele>
        <time>2012-01-29T08:52:38Z</time>
      </trkpt>
      <trkpt lat="50.64303" lon="2.66865">
        <ele>21</ele>
        <time>2012-01-29T08:52:40Z</time>
      </trkpt>
      <trkpt lat="50.643" lon="2.66887">
        <ele>21</ele>
        <time>2012-01-29T08:52:42Z</time>
      </trkpt>
      <trkpt lat="50.64296" lon="2.66908">
        <ele>21</ele>
        <time>2012-01-29T08:52:44Z</time>
      </trkpt>
      <trkpt lat="50.64293" lon="2.6693">
        <ele>21</ele>
        <time>2012-01-29T08:52:46Z</time>
      </trkpt>
      <trkpt lat="50.6429" lon="2.66952">
        <ele>21</ele>
        <time>2012-01-29T08:52:48Z</time>
      </trkpt>
      <trkpt lat="50.64287" lon="2.66973">
        <ele>21</ele>
        <time>2012-01-29T08:52:50Z</time>
      </trkpt>
      <trkpt lat="50.64283" lon="2.66995">
        <ele>21</ele>
        <time>2012-01-29T08:52:52Z</time>
      </trkpt>
      <trkpt lat="50.64281" lon="2.67015">
        <ele>21</ele>
        <time>2012-01-29T08:52:54Z</time>
      </trkpt>
      <trkpt lat="50.6428" lon="2.67037">
        <ele>21</ele>
        <time>2012-01-29T08:52:56Z</time>
      </trkpt>
      <trkpt lat="50.64279" lon="2.67058">
        <ele>21</ele>
        <time>2012-01-29T08:52:58Z</time>
      </trkpt>
      <trkpt lat="50.64279" lon="2.67079">
        <ele>21</ele>
        <time>2012-01-29T08:53:00Z</time>
      </trkpt>
      <trkpt lat="50.6428" lon="2.671">
        <ele>21</ele>
        <time>2012-01-29T08:53:02Z</time>
      </trkpt>
      <trkpt lat="50.64282" lon="2.6712">
        <ele>21</ele>
        <time>2012-01-29T08:53:04Z</time>
      </trkpt>
      <trkpt lat="50.64283" lon="2.67141">
        <ele>21</ele>
        <time>2012-01-29T08:53:06Z</time>
      </trkpt>
      <trkpt lat="50.64285" lon="2.67162">
        <ele>21</ele>
        <time>2012-01-29T08:53:08Z</time>
      </trkpt>
      <trkpt lat="50.64286" lon="2.67181">
        <ele>21</ele>
        <time>2012-01-29T08:53:10Z</time>
      </trkpt>
      <trkpt lat="50.64288" lon="2.67202">
        <ele>21</ele>
        <time>2012-01-29T08:53:12Z</time>
      </trkpt>
      <trkpt lat="50.6429" lon="2.67223">
        <ele>21</ele>
        <time>2012-01-29T08:53:14Z</time>
      </trkpt>
      <trkpt lat="50.64291" lon="2.67242">
        <ele>21</ele>
        <time>2012-01-29T08:53:16Z</time>
      </trkpt>
      <trkpt lat="50.64293" lon="2.67261">
        <ele>21</ele>
        <time>2012-01-29T08:53:18Z</time>
      </trkpt>
      <trkpt lat="50.64294" lon="2.67281">
        <ele>21</ele>
        <time>2012-01-29T08:53:20Z</time>
      </trkpt>
      <trkpt lat="50.64296" lon="2.67301">
        <ele>21</ele>
        <time>2012-01-29T08:53:22Z</time>
      </trkpt>
      <trkpt lat="50.64297" lon="2.67321">
        <ele>21</ele>
        <time>2012-01-29T08:53:24Z</time>
      </trkpt>
      <trkpt lat="50.64299" lon="2.67341">
        <ele>21</ele>
        <time>2012-01-29T08:53:26Z</time>
      </trkpt>
      <trkpt lat="50.643" lon="2.67361">
        <ele>21</ele>
        <time>2012-01-29T08:53:28Z</time>
      </trkpt>
      <trkpt lat="50.64303" lon="2.67382">
        <ele>21</ele>
        <time>2012-01-29T08:53:30Z</time>
      </trkpt>
      <trkpt lat="50.64304" lon="2.67402">
        <ele>21</ele>
        <time>2012-01-29T08:53:32Z</time>
      </trkpt>
      <trkpt lat="50.64306" lon="2.67423">
        <ele>21</ele>
        <time>2012-01-29T08:53:34Z</time>
      </trkpt>
      <trkpt lat="50.64307" lon="2.67443">
        <ele>21</ele>
        <time>2012-01-29T08:53:36Z</time>
      </trkpt>
      <trkpt lat="50.64309" lon="2.67464">
        <ele>21</ele>
        <time>2012-01-29T08:53:38Z</time>
      </trkpt>
      <trkpt lat="50.64311" lon="2.67483">
        <ele>21</ele>
        <time>2012-01-29T08:53:40Z</time>
      </trkpt>
      <trkpt lat="50.64312" lon="2.67504">
        <ele>21</ele>
        <time>2012-01-29T08:53:42Z</time>
      </trkpt>
      <trkpt lat="50.64314" lon="2.67525">
        <ele>21</ele>
        <time>2012-01-29T08:53:44Z</time>
      </trkpt>
      <trkpt lat="50.64315" lon="2.67544">
        <ele>21</ele>
        <time>2012-01-29T08:53:46Z</time>
      </trkpt>
      <trkpt lat="50.64316" lon="2.67565">
        <ele>21</ele>
        <time>2012-01-29T08:53:48Z</time>
      </trkpt>
      <trkpt lat="50.64315" lon="2.67586">
        <ele>21</ele>
        <time>2012-01-29T08:53:50Z</time>
      </trkpt>
      <trkpt lat="50.64314" lon="2.67606">
        <ele>21</ele>
        <time>2012-01-29T08:53:52Z</time>
      </trkpt>
      <trkpt lat="50.64313" lon="2.67627">
        <ele>21</ele>
        <time>2012-01-29T08:53:54Z</time>
      </trkpt>
      <trkpt lat="50.64311" lon="2.67648">
        <ele>21</ele>
        <time>2012-01-29T08:53:56Z</time>
      </trkpt>
      <trkpt lat="50.64308" lon="2.67667">
        <ele>21</ele>
        <time>2012-01-29T08:53:58Z</time>
      </trkpt>
      <trkpt lat="50.64305" lon="2.67686">
        <ele>21</ele>
        <time>2012-01-29T08:54:00Z</time>
      </trkpt>
      <trkpt lat="50.64301" lon="2.67706">
        <ele>21</ele>
        <time>2012-01-29T08:54:02Z</time>
      </trkpt>
      <trkpt lat="50.64297" lon="2.67725">
        <ele>21</ele>
        <time>2012-01-29T08:54:04Z</time>
      </trkpt>
      <trkpt lat="50.64293" lon="2.67745">
        <ele>21</ele>
        <time>2012-01-29T08:54:06Z</time>
      </trkpt>
      <trkpt lat="50.64289" lon="2.67764">
        <ele>21</ele>
        <time>2012-01-29T08:54:08Z</time>
      </trkpt>
      <trkpt lat="50.64286" lon="2.67784">
        <ele>21</ele>
        <time>2012-01-29T08:54:10Z</time>
      </trkpt>
      <trkpt lat="50.64282" lon="2.67803">
        <ele>21</ele>
        <time>2012-01-29T08:54:12Z</time>
      </trkpt>
      <trkpt lat="50.6428" lon="2.67824">
        <ele>21</ele>
        <time>2012-01-29T08:54:14Z</time>
      </trkpt>
      <trkpt lat="50.64279" lon="2.67844">
        <ele>21</ele>
        <time>2012-01-29T08:54:16Z</time>
      </trkpt>
      <trkpt lat="50.64279" lon="2.67865">
        <ele>21</ele>
        <time>2012-01-29T08:54:18Z</time>
      </trkpt>
      <trkpt lat="50.6428" lon="2.67885">
        <ele>21</ele>
        <time>2012-01-29T08:54:20Z</time>
      </trkpt>
      <trkpt lat="50.64282" lon="2.67905">
        <ele>21</ele>
        <time>2012-01-29T08:54:22Z</time>
      </trkpt>
      <trkpt lat="50.64284" lon="2.67924">
        <ele>21</ele>
        <time>2012-01-29T08:54:24Z</time>
      </trkpt>
      <trkpt lat="50.64285" lon="2.67944">
        <ele>21</ele>
        <time>2012-01-29T08:54:26Z</time>
      </trkpt>
      <trkpt lat="50.64286" lon="2.67965">
        <ele>21</ele>
        <time>2012-01-29T08:54:28Z</time>
      </trkpt>
      <trkpt lat="50.64286" lon="2.67985">
        <ele>21</ele>
        <time>2012-01-29T08:54:30Z</time>
      </trkpt>
      <trkpt lat="50.64285" lon="2.68006">
        <ele>21</ele>
        <time>2012-01-29T08:54:32Z</time>
      </trkpt>
      <trkpt lat="50.64283" lon="2.68028">
        <ele>21</ele>
        <time>2012-01-29T08:54:34Z</time>
      </trkpt>
      <trkpt lat="50.6428" lon="2.68048">
        <ele>21</ele>
        <time>2012-01-29T08:54:36Z</time>
      </trkpt>
      <trkpt lat="50.64278" lon="2.68069">
        <ele>21</ele>
        <time>2012-01-29T08:54:38Z</time>
      </trkpt>
      <trkpt lat="50.64275" lon="2.6809">
        <ele>21</ele>
        <time>2012-01-29T08:54:40Z</time>
      </trkpt>
      <trkpt lat="50.64272" lon="2.6811">
        <ele>21</ele>
        <time>2012-01-29T08:54:42Z</time>
      </trkpt>
      <trkpt lat="50.64269" lon="2.6813">
        <ele>21</ele>
        <time>2012-01-29T08:54:44Z</time>
      </trkpt>
      <trkpt lat="50.64267" lon="2.68151">
        <ele>21</ele>
        <time>2012-01-29T08:54:46Z</time>
      </trkpt>
      <trkpt lat="50.64265" lon="2.68171">
        <ele>21</ele>
        <time>2012-01-29T08:54:48Z</time>
      </trkpt>
      <trkpt lat="50.64264" lon="2.68191">
        <ele>21</ele>
        <time>2012-01-29T08:54:50Z</time>
      </trkpt>
      <trkpt lat="50.64263" lon="2.68212">
        <ele>21</ele>
        <time>2012-01-29T08:54:52Z</time>
      </trkpt>
      <trkpt lat="50.64263" lon="2.68232">
        <ele>21</ele>
        <time>2012-01-29T08:54:54Z</time>
      </trkpt>
      <trkpt lat="50.64263" lon="2.68252">
        <ele>21</ele>
        <time>2012-01-29T08:54:56Z</time>
      </trkpt>
      <trkpt lat="50.64263" lon="2.68272">
        <ele>21</ele>
        <time>2012-01-29T08:54:58Z</time>
      </trkpt>
      <trkpt lat="50.64263" lon="2.68293">
        <ele>21</ele>
        <time>2012-01-29T08:55:00Z</time>
      </trkpt>
      <trkpt lat="50.64263" lon="2.68313">
        <ele>21</ele>
        <time>2012-01-29T08:55:02Z</time>
      </trkpt>
      <trkpt lat="50.64264" lon="2.68335">
        <ele>21</ele>
        <time>2012-01-29T08:55:04Z</time>
      </trkpt>
      <trkpt lat="50.64264" lon="2.68356">
        <ele>21</ele>
        <time>2012-01-29T08:55:06Z</time>
      </trkpt>
      <trkpt lat="50.64264" lon="2.68376">
        <ele>21</ele>
        <time>2012-01-29T08:55:08Z</time>
      </trkpt>
      <trkpt lat="50.64265" lon="2.68397">
        <ele>21</ele>
        <time>2012-01-29T08:55:10Z</time>
      </trkpt>
      <trkpt lat="50.64266" lon="2.68418">
        <ele>21</ele>
        <time>2012-01-29T08:55:12Z</time>
      </trkpt>
      <trkpt lat="50.64266" lon="2.68439">
        <ele>21</ele>
        <time>2012-01-29T08:55:14Z</time>
      </trkpt>
      <trkpt lat="50.64266" lon="2.6846">
        <ele>21</ele>
        <time>2012-01-29T08:55:16Z</time>
      </trkpt>
      <trkpt lat="50.64267" lon="2.68481">
        <ele>21</ele>
        <time>2012-01-29T08:55:18Z</time>
      </trkpt>
      <trkpt lat="50.64267" lon="2.68503">
        <ele>21</ele>
        <time>2012-01-29T08:55:20Z</time>
      </trkpt>
      <trkpt lat="50.64267" lon="2.68524">
        <ele>21</ele>
        <time>2012-01-29T08:55:22Z</time>
      </trkpt>
      <trkpt lat="50.64267" lon="2.68546">
        <ele>21</ele>
        <time>2012-01-29T08:55:24Z</time>
      </trkpt>
      <trkpt lat="50.64268" lon="2.68567">
        <ele>21</ele>
        <time>2012-01-29T08:55:26Z</time>
      </trkpt>
      <trkpt lat="50.64268" lon="2.68587">
        <ele>21</ele>
        <time>2012-01-29T08:55:28Z</time>
      </trkpt>
      <trkpt lat="50.64268" lon="2.68607">
        <ele>21</ele>
        <time>2012-01-29T08:55:30Z</time>
      </trkpt>
      <trkpt lat="50.64269" lon="2.68627">
        <ele>21</ele>
        <time>2012-01-29T08:55:32Z</time>
      </trkpt>
      <trkpt lat="50.64269" lon="2.68647">
        <ele>21</ele>
        <time>2012-01-29T08:55:34Z</time>
      </trkpt>
      <trkpt lat="50.6427" lon="2.68667">
        <ele>21</ele>
        <time>2012-01-29T08:55:36Z</time>
      </trkpt>
      <trkpt lat="50.6427" lon="2.68688">
        <ele>21</ele>
        <time>2012-01-29T08:55:38Z</time>
      </trkpt>
      <trkpt lat="50.64271" lon="2.6871">
        <ele>15</ele>
        <time>2012-01-29T08:55:40Z</time>
      </trkpt>
      <trkpt lat="50.64271" lon="2.68732">
        <ele>15</ele>
        <time>2012-01-29T08:55:42Z</time>
      </trkpt>
      <trkpt lat="50.64271" lon="2.68754">
        <ele>15</ele>
        <time>2012-01-29T08:55:44Z</time>
      </trkpt>
      <trkpt lat="50.64271" lon="2.68777">
        <ele>15</ele>
        <time>2012-01-29T08:55:46Z</time>
      </trkpt>
      <trkpt lat="50.6427" lon="2.68798">
        <ele>15</ele>
        <time>2012-01-29T08:55:48Z</time>
      </trkpt>
      <trkpt lat="50.64266" lon="2.68819">
        <ele>15</ele>
        <time>2012-01-29T08:55:50Z</time>
      </trkpt>
      <trkpt lat="50.64262" lon="2.6884">
        <ele>15</ele>
        <time>2012-01-29T08:55:52Z</time>
      </trkpt>
      <trkpt lat="50.64258" lon="2.6886">
        <ele>15</ele>
        <time>2012-01-29T08:55:54Z</time>
      </trkpt>
      <trkpt lat="50.64254" lon="2.68879">
        <ele>15</ele>
        <time>2012-01-29T08:55:56Z</time>
      </trkpt>
      <trkpt lat="50.64251" lon="2.68898">
        <ele>15</ele>
        <time>2012-01-29T08:55:58Z</time>
      </trkpt>
      <trkpt lat="50.64247" lon="2.68918">
        <ele>15</ele>
        <time>2012-01-29T08:56:00Z</time>
      </trkpt>
      <trkpt lat="50.64244" lon="2.68938">
        <ele>15</ele>
        <time>2012-01-29T08:56:02Z</time>
      </trkpt>
      <trkpt lat="50.64244" lon="2.68957">
        <ele>15</ele>
        <time>2012-01-29T08:56:04Z</time>
      </trkpt>
      <trkpt lat="50.64244" lon="2.68979">
        <ele>15</ele>
        <time>2012-01-29T08:56:06Z</time>
      </trkpt>
      <trkpt lat="50.64246" lon="2.69">
        <ele>15</ele>
        <time>2012-01-29T08:56:08Z</time>
      </trkpt>
      <trkpt lat="50.64248" lon="2.6902">
        <ele>15</ele>
        <time>2012-01-29T08:56:10Z</time>
      </trkpt>
      <trkpt lat="50.64251" lon="2.69041">
        <ele>15</ele>
        <time>2012-01-29T08:56:12Z</time>
      </trkpt>
      <trkpt lat="50.64254" lon="2.69061">
        <ele>15</ele>
        <time>2012-01-29T08:56:14Z</time>
      </trkpt>
      <trkpt lat="50.64257" lon="2.69081">
        <ele>15</ele>
        <time>2012-01-29T08:56:16Z</time>
      </trkpt>
      <trkpt lat="50.64259" lon="2.69101">
        <ele>15</ele>
        <time>2012-01-29T08:56:18Z</time>
      </trkpt>
      <trkpt lat="50.64262" lon="2.69121">
        <ele>15</ele>
        <time>2012-01-29T08:56:20Z</time>
      </trkpt>
      <trkpt lat="50.64264" lon="2.69141">
        <ele>15</ele>
        <time>2012-01-29T08:56:22Z</time>
      </trkpt>
      <trkpt lat="50.64267" lon="2.6916">
        <ele>15</ele>
        <time>2012-01-29T08:56:24Z</time>
      </trkpt>
      <trkpt lat="50.64271" lon="2.6918">
        <ele>15</ele>
        <time>2012-01-29T08:56:26Z</time>
      </trkpt>
      <trkpt lat="50.64274" lon="2.692">
        <ele>15</ele>
        <time>2012-01-29T08:56:28Z</time>
      </trkpt>
      <trkpt lat="50.64276" lon="2.6922">
        <ele>15</ele>
        <time>2012-01-29T08:56:30Z</time>
      </trkpt>
      <trkpt lat="50.64279" lon="2.69241">
        <ele>15</ele>
        <time>2012-01-29T08:56:32Z</time>
      </trkpt>
      <trkpt lat="50.6428" lon="2.69262">
        <ele>15</ele>
        <time>2012-01-29T08:56:34Z</time>
      </trkpt>
      <trkpt lat="50.64282" lon="2.69283">
        <ele>15</ele>
        <time>2012-01-29T08:56:36Z</time>
      </trkpt>
      <trkpt lat="50.64283" lon="2.69302">
        <ele>15</ele>
        <time>2012-01-29T08:56:38Z</time>
      </trkpt>
      <trkpt lat="50.64284" lon="2.69322">
        <ele>15</ele>
        <time>2012-01-29T08:56:40Z</time>
      </trkpt>
      <trkpt lat="50.64285" lon="2.69343">
        <ele>15</ele>
        <time>2012-01-29T08:56:42Z</time>
      </trkpt>
      <trkpt lat="50.64286" lon="2.69363">
        <ele>15</ele>
        <time>2012-01-29T08:56:44Z</time>
      </trkpt>
      <trkpt lat="50.64287" lon="2.69383">
        <ele>15</ele>
        <time>2012-01-29T08:56:46Z</time>
      </trkpt>
      <trkpt lat="50.64288" lon="2.69403">
        <ele>15</ele>
        <time>2012-01-29T08:56:48Z</time>
      </trkpt>
      <trkpt lat="50.64288" lon="2.69425">
        <ele>15</ele>
        <time>2012-01-29T08:56:50Z</time>
      </trkpt>
      <trkpt lat="50.64288" lon="2.69447">
        <ele>15</ele>
        <time>2012-01-29T08:56:52Z</time>
      </trkpt>
      <trkpt lat="50.64289" lon="2.69468">
        <ele>15</ele>
        <time>2012-01-29T08:56:54Z</time>
      </trkpt>
      <trkpt lat="50.6429" lon="2.69488">
        <ele>15</ele>
        <time>2012-01-29T08:56:56Z</time>
      </trkpt>
      <trkpt lat="50.64291" lon="2.6951">
        <ele>15</ele>
        <time>2012-01-29T08:56:58Z</time>
      </trkpt>
      <trkpt lat="50.64292" lon="2.69531">
        <ele>15</ele>
        <time>2012-01-29T08:57:00Z</time>
      </trkpt>
      <trkpt lat="50.64294" lon="2.69552">
        <ele>15</ele>
        <time>2012-01-29T08:57:02Z</time>
      </trkpt>
      <trkpt lat="50.64296" lon="2.69573">
        <ele>15</ele>
        <time>2012-01-29T08:57:04Z</time>
      </trkpt>
      <trkpt lat="50.64297" lon="2.69595">
        <ele>15</ele>
        <time>2012-01-29T08:57:06Z</time>
      </trkpt>
      <trkpt lat="50.64299" lon="2.69617">
        <ele>15</ele>
        <time>2012-01-29T08:57:08Z</time>
      </trkpt>
      <trkpt lat="50.64299" lon="2.69637">
        <ele>15</ele>
        <time>2012-01-29T08:57:10Z</time>
      </trkpt>
      <trkpt lat="50.643" lon="2.69658">
        <ele>15</ele>
        <time>2012-01-29T08:57:12Z</time>
      </trkpt>
      <trkpt lat="50.643" lon="2.69679">
        <ele>15</ele>
        <time>2012-01-29T08:57:14Z</time>
      </trkpt>
      <trkpt lat="50.643" lon="2.69699">
        <ele>15</ele>
        <time>2012-01-29T08:57:16Z</time>
      </trkpt>
      <trkpt lat="50.643" lon="2.6972">
        <ele>15</ele>
        <time>2012-01-29T08:57:18Z</time>
      </trkpt>
      <trkpt lat="50.643" lon="2.69741">
        <ele>15</ele>
        <time>2012-01-29T08:57:20Z</time>
      </trkpt>
      <trkpt lat="50.64299" lon="2.69761">
        <ele>9</ele>
        <time>2012-01-29T08:57:22Z</time>
      </trkpt>
      <trkpt lat="50.64297" lon="2.69783">
        <ele>9</ele>
        <time>2012-01-29T08:57:24Z</time>
      </trkpt>
      <trkpt lat="50.64295" lon="2.69804">
        <ele>9</ele>
        <time>2012-01-29T08:57:26Z</time>
      </trkpt>
      <trkpt lat="50.64291" lon="2.69825">
        <ele>9</ele>
        <time>2012-01-29T08:57:28Z</time>
      </trkpt>
      <trkpt lat="50.64287" lon="2.69846">
        <ele>9</ele>
        <time>2012-01-29T08:57:30Z</time>
      </trkpt>
      <trkpt lat="50.64283" lon="2.69867">
        <ele>9</ele>
        <time>2012-01-29T08:57:32Z</time>
      </trkpt>
      <trkpt lat="50.64277" lon="2.69888">
        <ele>9</ele>
        <time>2012-01-29T08:57:34Z</time>
      </trkpt>
      <trkpt lat="50.64272" lon="2.69907">
        <ele>9</ele>
        <time>2012-01-29T08:57:36Z</time>
      </trkpt>
      <trkpt lat="50.64266" lon="2.69927">
        <ele>9</ele>
        <time>2012-01-29T08:57:38Z</time>
      </trkpt>
      <trkpt lat="50.6426" lon="2.69946">
        <ele>9</ele>
        <time>2012-01-29T08:57:40Z</time>
      </trkpt>
      <trkpt lat="50.64254" lon="2.69966">
        <ele>9</ele>
        <time>2012-01-29T08:57:42Z</time>
      </trkpt>
      <trkpt lat="50.64248" lon="2.69986">
        <ele>9</ele>
        <time>2012-01-29T08:57:44Z</time>
      </trkpt>
      <trkpt lat="50.64242" lon="2.70006">
        <ele>9</ele>
        <time>2012-01-29T08:57:46Z</time>
      </trkpt>
      <trkpt lat="50.64236" lon="2.70025">
        <ele>9</ele>
        <time>2012-01-29T08:57:48Z</time>
      </trkpt>
      <trkpt lat="50.6423" lon="2.70044">
        <ele>9</ele>
        <time>2012-01-29T08:57:50Z</time>
      </trkpt>
      <trkpt lat="50.64226" lon="2.70063">
        <ele>9</ele>
        <time>2012-01-29T08:57:52Z</time>
      </trkpt>
      <trkpt lat="50.64221" lon="2.70084">
        <ele>9</ele>
        <time>2012-01-29T08:57:54Z</time>
      </trkpt>
      <trkpt lat="50.64218" lon="2.70104">
        <ele>9</ele>
        <time>2012-01-29T08:57:56Z</time>
      </trkpt>
      <trkpt lat="50.64215" lon="2.70124">
        <ele>9</ele>
        <time>2012-01-29T08:57:58Z</time>
      </trkpt>
      <trkpt lat="50.64213" lon="2.70144">
        <ele>9</ele>
        <time>2012-01-29T08:58:00Z</time>
      </trkpt>
      <trkpt lat="50.64211" lon="2.70165">
        <ele>9</ele>
        <time>2012-01-29T08:58:02Z</time>
      </trkpt>
      <trkpt lat="50.64209" lon="2.70185">
        <ele>9</ele>
        <time>2012-01-29T08:58:04Z</time>
      </trkpt>
      <trkpt lat="50.64207" lon="2.70204">
        <ele>9</ele>
        <time>2012-01-29T08:58:06Z</time>
      </trkpt>
      <trkpt lat="50.64206" lon="2.70225">
        <ele>9</ele>
        <time>2012-01-29T08:58:08Z</time>
      </trkpt>
      <trkpt lat="50.64205" lon="2.70246">
        <ele>9</ele>
        <time>2012-01-29T08:58:10Z</time>
      </trkpt>
      <trkpt lat="50.64206" lon="2.70266">
        <ele>9</ele>
        <time>2012-01-29T08:58:12Z</time>
      </trkpt>
      <trkpt lat="50.64208" lon="2.70287">
        <ele>9</ele>
        <time>2012-01-29T08:58:14Z</time>
      </trkpt>
      <trkpt lat="50.64211" lon="2.70308">
        <ele>9</ele>
        <time>2012-01-29T08:58:16Z</time>
      </trkpt>
      <trkpt lat="50.64215" lon="2.70328">
        <ele>9</ele>
        <time>2012-01-29T08:58:18Z</time>
      </trkpt>
      <trkpt lat="50.6422" lon="2.70348">
        <ele>9</ele>
        <time>2012-01-29T08:58:20Z</time>
      </trkpt>
      <trkpt lat="50.64225" lon="2.70368">
        <ele>9</ele>
        <time>2012-01-29T08:58:22Z</time>
      </trkpt>
      <trkpt lat="50.6423" lon="2.70387">
        <ele>9</ele>
        <time>2012-01-29T08:58:24Z</time>
      </trkpt>
      <trkpt lat="50.64234" lon="2.70406">
        <ele>9</ele>
        <time>2012-01-29T08:58:26Z</time>
      </trkpt>
      <trkpt lat="50.64238" lon="2.70425">
        <ele>9</ele>
        <time>2012-01-29T08:58:28Z</time>
      </trkpt>
      <trkpt lat="50.64242" lon="2.70445">
        <ele>9</ele>
        <time>2012-01-29T08:58:30Z</time>
      </trkpt>
      <trkpt lat="50.64245" lon="2.70464">
        <ele>9</ele>
        <time>2012-01-29T08:58:32Z</time>
      </trkpt>
      <trkpt lat="50.64248" lon="2.70483">
        <ele>15</ele>
        <time>2012-01-29T08:58:34Z</time>
      </trkpt>
      <trkpt lat="50.64252" lon="2.70503">
        <ele>15</ele>
        <time>2012-01-29T08:58:36Z</time>
      </trkpt>
      <trkpt lat="50.64255" lon="2.70522">
        <ele>15</ele>
        <time>2012-01-29T08:58:38Z</time>
      </trkpt>
      <trkpt lat="50.64257" lon="2.70541">
        <ele>15</ele>
        <time>2012-01-29T08:58:40Z</time>
      </trkpt>
      <trkpt lat="50.6426" lon="2.70561">
        <ele>15</ele>
        <time>2012-01-29T08:58:42Z</time>
      </trkpt>
      <trkpt lat="50.64262" lon="2.7058">
        <ele>15</ele>
        <time>2012-01-29T08:58:44Z</time>
      </trkpt>
      <trkpt lat="50.64264" lon="2.70598">
        <ele>15</ele>
        <time>2012-01-29T08:58:46Z</time>
      </trkpt>
      <trkpt lat="50.64267" lon="2.70615">
        <ele>15</ele>
        <time>2012-01-29T08:58:48Z</time>
      </trkpt>
      <trkpt lat="50.6427" lon="2.70631">
        <ele>15</ele>
        <time>2012-01-29T08:58:50Z</time>
      </trkpt>
      <trkpt lat="50.64271" lon="2.70646">
        <ele>15</ele>
        <time>2012-01-29T08:58:52Z</time>
      </trkpt>
      <trkpt lat="50.64264" lon="2.70656">
        <ele>15</ele>
        <time>2012-01-29T08:58:54Z</time>
      </trkpt>
      <trkpt lat="50.64254" lon="2.7066">
        <ele>15</ele>
        <time>2012-01-29T08:58:56Z</time>
      </trkpt>
      <trkpt lat="50.64242" lon="2.70661">
        <ele>15</ele>
        <time>2012-01-29T08:58:58Z</time>
      </trkpt>
      <trkpt lat="50.6423" lon="2.70662">
        <ele>15</ele>
        <time>2012-01-29T08:59:00Z</time>
      </trkpt>
      <trkpt lat="50.64218" lon="2.70663">
        <ele>15</ele>
        <time>2012-01-29T08:59:02Z</time>
      </trkpt>
      <trkpt lat="50.64206" lon="2.70666">
        <ele>15</ele>
        <time>2012-01-29T08:59:04Z</time>
      </trkpt>
      <trkpt lat="50.64193" lon="2.70668">
        <ele>15</ele>
        <time>2012-01-29T08:59:06Z</time>
      </trkpt>
      <trkpt lat="50.6418" lon="2.70671">
        <ele>15</ele>
        <time>2012-01-29T08:59:08Z</time>
      </trkpt>
      <trkpt lat="50.64167" lon="2.70674">
        <ele>15</ele>
        <time>2012-01-29T08:59:10Z</time>
      </trkpt>
      <trkpt lat="50.64155" lon="2.70677">
        <ele>15</ele>
        <time>2012-01-29T08:59:12Z</time>
      </trkpt>
      <trkpt lat="50.64142" lon="2.7068">
        <ele>15</ele>
        <time>2012-01-29T08:59:14Z</time>
      </trkpt>
      <trkpt lat="50.6413" lon="2.70684">
        <ele>15</ele>
        <time>2012-01-29T08:59:16Z</time>
      </trkpt>
      <trkpt lat="50.64116" lon="2.70688">
        <ele>15</ele>
        <time>2012-01-29T08:59:18Z</time>
      </trkpt>
      <trkpt lat="50.64103" lon="2.7069">
        <ele>15</ele>
        <time>2012-01-29T08:59:20Z</time>
      </trkpt>
      <trkpt lat="50.64089" lon="2.70694">
        <ele>15</ele>
        <time>2012-01-29T08:59:22Z</time>
      </trkpt>
      <trkpt lat="50.64075" lon="2.70697">
        <ele>15</ele>
        <time>2012-01-29T08:59:24Z</time>
      </trkpt>
      <trkpt lat="50.64062" lon="2.707">
        <ele>15</ele>
        <time>2012-01-29T08:59:26Z</time>
      </trkpt>
      <trkpt lat="50.64048" lon="2.70702">
        <ele>15</ele>
        <time>2012-01-29T08:59:28Z</time>
      </trkpt>
      <trkpt lat="50.64035" lon="2.70699">
        <ele>15</ele>
        <time>2012-01-29T08:59:30Z</time>
      </trkpt>
      <trkpt lat="50.64022" lon="2.70694">
        <ele>15</ele>
        <time>2012-01-29T08:59:32Z</time>
      </trkpt>
      <trkpt lat="50.6401" lon="2.70686">
        <ele>15</ele>
        <time>2012-01-29T08:59:34Z</time>
      </trkpt>
      <trkpt lat="50.63998" lon="2.70674">
        <ele>20</ele>
        <time>2012-01-29T08:59:36Z</time>
      </trkpt>
      <trkpt lat="50.63987" lon="2.70662">
        <ele>20</ele>
        <time>2012-01-29T08:59:38Z</time>
      </trkpt>
      <trkpt lat="50.63976" lon="2.70649">
        <ele>20</ele>
        <time>2012-01-29T08:59:40Z</time>
      </trkpt>
      <trkpt lat="50.63964" lon="2.70636">
        <ele>20</ele>
        <time>2012-01-29T08:59:42Z</time>
      </trkpt>
      <trkpt lat="50.63953" lon="2.70624">
        <ele>20</ele>
        <time>2012-01-29T08:59:44Z</time>
      </trkpt>
      <trkpt lat="50.63941" lon="2.70609">
        <ele>20</ele>
        <time>2012-01-29T08:59:46Z</time>
      </trkpt>
      <trkpt lat="50.63929" lon="2.70593">
        <ele>20</ele>
        <time>2012-01-29T08:59:48Z</time>
      </trkpt>
      <trkpt lat="50.63918" lon="2.70577">
        <ele>20</ele>
        <time>2012-01-29T08:59:50Z</time>
      </trkpt>
      <trkpt lat="50.63906" lon="2.70559">
        <ele>20</ele>
        <time>2012-01-29T08:59:52Z</time>
      </trkpt>
      <trkpt lat="50.63895" lon="2.70541">
        <ele>20</ele>
        <time>2012-01-29T08:59:54Z</time>
      </trkpt>
      <trkpt lat="50.63883" lon="2.70523">
        <ele>20</ele>
        <time>2012-01-29T08:59:56Z</time>
      </trkpt>
      <trkpt lat="50.6387" lon="2.70506">
        <ele>20</ele>
        <time>2012-01-29T08:59:58Z</time>
      </trkpt>
      <trkpt lat="50.63863" lon="2.70498">
        <ele>20</ele>
        <time>2012-01-29T08:59:59Z</time>
      </trkpt>
      <trkpt lat="50.63847" lon="2.70485">
        <ele>15</ele>
        <time>2012-01-29T09:00:01Z</time>
      </trkpt>
      <trkpt lat="50.63839" lon="2.70481">
        <ele>15</ele>
        <time>2012-01-29T09:00:02Z</time>
      </trkpt>
      <trkpt lat="50.6383" lon="2.70476">
        <ele>15</ele>
        <time>2012-01-29T09:00:03Z</time>
      </trkpt>
      <trkpt lat="50.63822" lon="2.70473">
        <ele>15</ele>
        <time>2012-01-29T09:00:04Z</time>
      </trkpt>
      <trkpt lat="50.63805" lon="2.70464">
        <ele>15</ele>
        <time>2012-01-29T09:00:06Z</time>
      </trkpt>
      <trkpt lat="50.6379" lon="2.70458">
        <ele>15</ele>
        <time>2012-01-29T09:00:08Z</time>
      </trkpt>
      <trkpt lat="50.63775" lon="2.70454">
        <ele>15</ele>
        <time>2012-01-29T09:00:10Z</time>
      </trkpt>
      <trkpt lat="50.63761" lon="2.70451">
        <ele>15</ele>
        <time>2012-01-29T09:00:12Z</time>
      </trkpt>
      <trkpt lat="50.63747" lon="2.7045">
        <ele>15</ele>
        <time>2012-01-29T09:00:14Z</time>
      </trkpt>
      <trkpt lat="50.63735" lon="2.70445">
        <ele>15</ele>
        <time>2012-01-29T09:00:16Z</time>
      </trkpt>
      <trkpt lat="50.63724" lon="2.70434">
        <ele>15</ele>
        <time>2012-01-29T09:00:18Z</time>
      </trkpt>
      <trkpt lat="50.63715" lon="2.70418">
        <ele>15</ele>
        <time>2012-01-29T09:00:20Z</time>
      </trkpt>
      <trkpt lat="50.63705" lon="2.70402">
        <ele>15</ele>
        <time>2012-01-29T09:00:22Z</time>
      </trkpt>
      <trkpt lat="50.63694" lon="2.70386">
        <ele>15</ele>
        <time>2012-01-29T09:00:24Z</time>
      </trkpt>
      <trkpt lat="50.63683" lon="2.70371">
        <ele>15</ele>
        <time>2012-01-29T09:00:26Z</time>
      </trkpt>
      <trkpt lat="50.63672" lon="2.70357">
        <ele>15</ele>
        <time>2012-01-29T09:00:28Z</time>
      </trkpt>
      <trkpt lat="50.63661" lon="2.70343">
        <ele>15</ele>
        <time>2012-01-29T09:00:30Z</time>
      </trkpt>
      <trkpt lat="50.6365" lon="2.70327">
        <ele>15</ele>
        <time>2012-01-29T09:00:32Z</time>
      </trkpt>
      <trkpt lat="50.63639" lon="2.70313">
        <ele>15</ele>
        <time>2012-01-29T09:00:34Z</time>
      </trkpt>
      <trkpt lat="50.63628" lon="2.70298">
        <ele>15</ele>
        <time>2012-01-29T09:00:36Z</time>
      </trkpt>
      <trkpt lat="50.63617" lon="2.70285">
        <ele>15</ele>
        <time>2012-01-29T09:00:38Z</time>
      </trkpt>
      <trkpt lat="50.63607" lon="2.70272">
        <ele>15</ele>
        <time>2012-01-29T09:00:40Z</time>
      </trkpt>
      <trkpt lat="50.63597" lon="2.7026">
        <ele>15</ele>
        <time>2012-01-29T09:00:42Z</time>
      </trkpt>
      <trkpt lat="50.63588" lon="2.70247">
        <ele>15</ele>
        <time>2012-01-29T09:00:44Z</time>
      </trkpt>
      <trkpt lat="50.63579" lon="2.70234">
        <ele>15</ele>
        <time>2012-01-29T09:00:46Z</time>
      </trkpt>
      <trkpt lat="50.6357" lon="2.70218">
        <ele>15</ele>
        <time>2012-01-29T09:00:48Z</time>
      </trkpt>
      <trkpt lat="50.63562" lon="2.70201">
        <ele>15</ele>
        <time>2012-01-29T09:00:50Z</time>
      </trkpt>
      <trkpt lat="50.63555" lon="2.70181">
        <ele>15</ele>
        <time>2012-01-29T09:00:52Z</time>
      </trkpt>
      <trkpt lat="50.6355" lon="2.70159">
        <ele>15</ele>
        <time>2012-01-29T09:00:54Z</time>
      </trkpt>
      <trkpt lat="50.63546" lon="2.70138">
        <ele>15</ele>
        <time>2012-01-29T09:00:56Z</time>
      </trkpt>
      <trkpt lat="50.63541" lon="2.70116">
        <ele>15</ele>
        <time>2012-01-29T09:00:58Z</time>
      </trkpt>
      <trkpt lat="50.63536" lon="2.70097">
        <ele>15</ele>
        <time>2012-01-29T09:01:00Z</time>
      </trkpt>
      <trkpt lat="50.63531" lon="2.70076">
        <ele>15</ele>
        <time>2012-01-29T09:01:02Z</time>
      </trkpt>
      <trkpt lat="50.63526" lon="2.70054">
        <ele>15</ele>
        <time>2012-01-29T09:01:04Z</time>
      </trkpt>
      <trkpt lat="50.63522" lon="2.70033">
        <ele>15</ele>
        <time>2012-01-29T09:01:06Z</time>
      </trkpt>
      <trkpt lat="50.63517" lon="2.70009">
        <ele>15</ele>
        <time>2012-01-29T09:01:08Z</time>
      </trkpt>
      <trkpt lat="50.63512" lon="2.69987">
        <ele>15</ele>
        <time>2012-01-29T09:01:10Z</time>
      </trkpt>
      <trkpt lat="50.63507" lon="2.69964">
        <ele>15</ele>
        <time>2012-01-29T09:01:12Z</time>
      </trkpt>
      <trkpt lat="50.63503" lon="2.69939">
        <ele>15</ele>
        <time>2012-01-29T09:01:14Z</time>
      </trkpt>
      <trkpt lat="50.635" lon="2.69915">
        <ele>15</ele>
        <time>2012-01-29T09:01:16Z</time>
      </trkpt>
      <trkpt lat="50.63497" lon="2.6989">
        <ele>15</ele>
        <time>2012-01-29T09:01:18Z</time>
      </trkpt>
      <trkpt lat="50.63494" lon="2.69864">
        <ele>15</ele>
        <time>2012-01-29T09:01:20Z</time>
      </trkpt>
      <trkpt lat="50.6349" lon="2.69838">
        <ele>15</ele>
        <time>2012-01-29T09:01:22Z</time>
      </trkpt>
      <trkpt lat="50.63486" lon="2.69813">
        <ele>15</ele>
        <time>2012-01-29T09:01:24Z</time>
      </trkpt>
      <trkpt lat="50.63482" lon="2.69787">
        <ele>15</ele>
        <time>2012-01-29T09:01:26Z</time>
      </trkpt>
      <trkpt lat="50.6348" lon="2.69764">
        <ele>15</ele>
        <time>2012-01-29T09:01:28Z</time>
      </trkpt>
      <trkpt lat="50.63481" lon="2.6974">
        <ele>15</ele>
        <time>2012-01-29T09:01:30Z</time>
      </trkpt>
      <trkpt lat="50.63483" lon="2.69717">
        <ele>15</ele>
        <time>2012-01-29T09:01:32Z</time>
      </trkpt>
      <trkpt lat="50.63486" lon="2.69695">
        <ele>15</ele>
        <time>2012-01-29T09:01:34Z</time>
      </trkpt>
      <trkpt lat="50.63489" lon="2.69675">
        <ele>15</ele>
        <time>2012-01-29T09:01:36Z</time>
      </trkpt>
      <trkpt lat="50.6349" lon="2.69655">
        <ele>15</ele>
        <time>2012-01-29T09:01:38Z</time>
      </trkpt>
      <trkpt lat="50.63491" lon="2.69635">
        <ele>15</ele>
        <time>2012-01-29T09:01:40Z</time>
      </trkpt>
      <trkpt lat="50.63492" lon="2.69612">
        <ele>15</ele>
        <time>2012-01-29T09:01:42Z</time>
      </trkpt>
      <trkpt lat="50.63491" lon="2.69588">
        <ele>15</ele>
        <time>2012-01-29T09:01:44Z</time>
      </trkpt>
      <trkpt lat="50.6349" lon="2.69564">
        <ele>15</ele>
        <time>2012-01-29T09:01:46Z</time>
      </trkpt>
      <trkpt lat="50.63489" lon="2.6954">
        <ele>15</ele>
        <time>2012-01-29T09:01:48Z</time>
      </trkpt>
      <trkpt lat="50.63487" lon="2.69516">
        <ele>15</ele>
        <time>2012-01-29T09:01:50Z</time>
      </trkpt>
      <trkpt lat="50.63487" lon="2.69495">
        <ele>15</ele>
        <time>2012-01-29T09:01:52Z</time>
      </trkpt>
      <trkpt lat="50.63485" lon="2.69472">
        <ele>15</ele>
        <time>2012-01-29T09:01:54Z</time>
      </trkpt>
      <trkpt lat="50.63483" lon="2.69451">
        <ele>15</ele>
        <time>2012-01-29T09:01:56Z</time>
      </trkpt>
      <trkpt lat="50.63482" lon="2.6943">
        <ele>15</ele>
        <time>2012-01-29T09:01:58Z</time>
      </trkpt>
      <trkpt lat="50.63481" lon="2.69408">
        <ele>15</ele>
        <time>2012-01-29T09:02:00Z</time>
      </trkpt>
      <trkpt lat="50.63479" lon="2.69386">
        <ele>15</ele>
        <time>2012-01-29T09:02:02Z</time>
      </trkpt>
      <trkpt lat="50.63477" lon="2.69363">
        <ele>15</ele>
        <time>2012-01-29T09:02:04Z</time>
      </trkpt>
      <trkpt lat="50.63475" lon="2.6934">
        <ele>15</ele>
        <time>2012-01-29T09:02:06Z</time>
      </trkpt>
      <trkpt lat="50.63473" lon="2.69318">
        <ele>15</ele>
        <time>2012-01-29T09:02:08Z</time>
      </trkpt>
      <trkpt lat="50.63471" lon="2.69294">
        <ele>15</ele>
        <time>2012-01-29T09:02:10Z</time>
      </trkpt>
      <trkpt lat="50.63468" lon="2.69272">
        <ele>15</ele>
        <time>2012-01-29T09:02:12Z</time>
      </trkpt>
      <trkpt lat="50.63465" lon="2.69248">
        <ele>15</ele>
        <time>2012-01-29T09:02:14Z</time>
      </trkpt>
      <trkpt lat="50.63461" lon="2.69226">
        <ele>15</ele>
        <time>2012-01-29T09:02:16Z</time>
      </trkpt>
      <trkpt lat="50.63457" lon="2.69204">
        <ele>15</ele>
        <time>2012-01-29T09:02:18Z</time>
      </trkpt>
      <trkpt lat="50.63453" lon="2.69181">
        <ele>15</ele>
        <time>2012-01-29T09:02:20Z</time>
      </trkpt>
      <trkpt lat="50.63448" lon="2.69159">
        <ele>15</ele>
        <time>2012-01-29T09:02:22Z</time>
      </trkpt>
      <trkpt lat="50.63443" lon="2.69136">
        <ele>15</ele>
        <time>2012-01-29T09:02:24Z</time>
      </trkpt>
      <trkpt lat="50.63437" lon="2.69114">
        <ele>15</ele>
        <time>2012-01-29T09:02:26Z</time>
      </trkpt>
      <trkpt lat="50.6343" lon="2.69091">
        <ele>15</ele>
        <time>2012-01-29T09:02:28Z</time>
      </trkpt>
      <trkpt lat="50.63423" lon="2.6907">
        <ele>15</ele>
        <time>2012-01-29T09:02:30Z</time>
      </trkpt>
      <trkpt lat="50.63417" lon="2.69047">
        <ele>15</ele>
        <time>2012-01-29T09:02:32Z</time>
      </trkpt>
      <trkpt lat="50.63409" lon="2.69026">
        <ele>15</ele>
        <time>2012-01-29T09:02:34Z</time>
      </trkpt>
      <trkpt lat="50.63403" lon="2.69003">
        <ele>15</ele>
        <time>2012-01-29T09:02:36Z</time>
      </trkpt>
      <trkpt lat="50.63396" lon="2.68981">
        <ele>15</ele>
        <time>2012-01-29T09:02:38Z</time>
      </trkpt>
      <trkpt lat="50.63389" lon="2.68958">
        <ele>15</ele>
        <time>2012-01-29T09:02:40Z</time>
      </trkpt>
      <trkpt lat="50.63383" lon="2.68936">
        <ele>15</ele>
        <time>2012-01-29T09:02:42Z</time>
      </trkpt>
      <trkpt lat="50.63376" lon="2.68913">
        <ele>15</ele>
        <time>2012-01-29T09:02:44Z</time>
      </trkpt>
      <trkpt lat="50.6337" lon="2.6889">
        <ele>15</ele>
        <time>2012-01-29T09:02:46Z</time>
      </trkpt>
      <trkpt lat="50.63364" lon="2.68868">
        <ele>15</ele>
        <time>2012-01-29T09:02:48Z</time>
      </trkpt>
      <trkpt lat="50.63358" lon="2.68846">
        <ele>15</ele>
        <time>2012-01-29T09:02:50Z</time>
      </trkpt>
      <trkpt lat="50.63351" lon="2.68823">
        <ele>15</ele>
        <time>2012-01-29T09:02:52Z</time>
      </trkpt>
      <trkpt lat="50.63344" lon="2.68799">
        <ele>15</ele>
        <time>2012-01-29T09:02:54Z</time>
      </trkpt>
      <trkpt lat="50.63337" lon="2.68775">
        <ele>15</ele>
        <time>2012-01-29T09:02:56Z</time>
      </trkpt>
      <trkpt lat="50.6333" lon="2.68751">
        <ele>15</ele>
        <time>2012-01-29T09:02:58Z</time>
      </trkpt>
      <trkpt lat="50.63323" lon="2.68727">
        <ele>15</ele>
        <time>2012-01-29T09:03:00Z</time>
      </trkpt>
      <trkpt lat="50.63318" lon="2.68703">
        <ele>15</ele>
        <time>2012-01-29T09:03:02Z</time>
      </trkpt>
      <trkpt lat="50.63311" lon="2.6868">
        <ele>15</ele>
        <time>2012-01-29T09:03:04Z</time>
      </trkpt>
      <trkpt lat="50.63305" lon="2.68656">
        <ele>15</ele>
        <time>2012-01-29T09:03:06Z</time>
      </trkpt>
      <trkpt lat="50.63299" lon="2.68632">
        <ele>15</ele>
        <time>2012-01-29T09:03:08Z</time>
      </trkpt>
      <trkpt lat="50.63293" lon="2.68608">
        <ele>15</ele>
        <time>2012-01-29T09:03:10Z</time>
      </trkpt>
      <trkpt lat="50.63288" lon="2.68585">
        <ele>15</ele>
        <time>2012-01-29T09:03:12Z</time>
      </trkpt>
      <trkpt lat="50.63283" lon="2.6856">
        <ele>15</ele>
        <time>2012-01-29T09:03:14Z</time>
      </trkpt>
      <trkpt lat="50.6328" lon="2.68537">
        <ele>15</ele>
        <time>2012-01-29T09:03:16Z</time>
      </trkpt>
      <trkpt lat="50.63277" lon="2.68515">
        <ele>15</ele>
        <time>2012-01-29T09:03:18Z</time>
      </trkpt>
      <trkpt lat="50.63274" lon="2.68492">
        <ele>15</ele>
        <time>2012-01-29T09:03:20Z</time>
      </trkpt>
      <trkpt lat="50.63272" lon="2.6847">
        <ele>15</ele>
        <time>2012-01-29T09:03:22Z</time>
      </trkpt>
      <trkpt lat="50.6327" lon="2.68447">
        <ele>15</ele>
        <time>2012-01-29T09:03:24Z</time>
      </trkpt>
      <trkpt lat="50.63269" lon="2.68426">
        <ele>15</ele>
        <time>2012-01-29T09:03:26Z</time>
      </trkpt>
      <trkpt lat="50.63267" lon="2.68404">
        <ele>15</ele>
        <time>2012-01-29T09:03:28Z</time>
      </trkpt>
      <trkpt lat="50.63265" lon="2.68383">
        <ele>15</ele>
        <time>2012-01-29T09:03:30Z</time>
      </trkpt>
      <trkpt lat="50.63265" lon="2.68361">
        <ele>15</ele>
        <time>2012-01-29T09:03:32Z</time>
      </trkpt>
      <trkpt lat="50.63263" lon="2.68339">
        <ele>15</ele>
        <time>2012-01-29T09:03:34Z</time>
      </trkpt>
      <trkpt lat="50.63262" lon="2.68319">
        <ele>15</ele>
        <time>2012-01-29T09:03:36Z</time>
      </trkpt>
      <trkpt lat="50.63261" lon="2.68296">
        <ele>15</ele>
        <time>2012-01-29T09:03:38Z</time>
      </trkpt>
      <trkpt lat="50.63259" lon="2.68275">
        <ele>15</ele>
        <time>2012-01-29T09:03:40Z</time>
      </trkpt>
      <trkpt lat="50.63257" lon="2.68252">
        <ele>15</ele>
        <time>2012-01-29T09:03:42Z</time>
      </trkpt>
      <trkpt lat="50.63256" lon="2.6823">
        <ele>15</ele>
        <time>2012-01-29T09:03:44Z</time>
      </trkpt>
      <trkpt lat="50.63255" lon="2.68208">
        <ele>15</ele>
        <time>2012-01-29T09:03:46Z</time>
      </trkpt>
      <trkpt lat="50.63254" lon="2.68187">
        <ele>15</ele>
        <time>2012-01-29T09:03:48Z</time>
      </trkpt>
      <trkpt lat="50.63253" lon="2.68164">
        <ele>15</ele>
        <time>2012-01-29T09:03:50Z</time>
      </trkpt>
      <trkpt lat="50.63252" lon="2.68142">
        <ele>15</ele>
        <time>2012-01-29T09:03:52Z</time>
      </trkpt>
      <trkpt lat="50.63251" lon="2.68118">
        <ele>15</ele>
        <time>2012-01-29T09:03:54Z</time>
      </trkpt>
      <trkpt lat="50.63252" lon="2.68096">
        <ele>15</ele>
        <time>2012-01-29T09:03:56Z</time>
      </trkpt>
      <trkpt lat="50.63252" lon="2.68072">
        <ele>15</ele>
        <time>2012-01-29T09:03:58Z</time>
      </trkpt>
      <trkpt lat="50.63252" lon="2.68047">
        <ele>15</ele>
        <time>2012-01-29T09:04:00Z</time>
      </trkpt>
      <trkpt lat="50.63253" lon="2.68023">
        <ele>15</ele>
        <time>2012-01-29T09:04:02Z</time>
      </trkpt>
      <trkpt lat="50.63255" lon="2.67998">
        <ele>15</ele>
        <time>2012-01-29T09:04:04Z</time>
      </trkpt>
      <trkpt lat="50.63257" lon="2.67974">
        <ele>15</ele>
        <time>2012-01-29T09:04:06Z</time>
      </trkpt>
      <trkpt lat="50.63258" lon="2.6795">
        <ele>15</ele>
        <time>2012-01-29T09:04:08Z</time>
      </trkpt>
      <trkpt lat="50.63261" lon="2.67925">
        <ele>15</ele>
        <time>2012-01-29T09:04:10Z</time>
      </trkpt>
      <trkpt lat="50.63263" lon="2.67902">
        <ele>15</ele>
        <time>2012-01-29T09:04:12Z</time>
      </trkpt>
      <trkpt lat="50.63264" lon="2.67879">
        <ele>15</ele>
        <time>2012-01-29T09:04:14Z</time>
      </trkpt>
      <trkpt lat="50.63262" lon="2.67856">
        <ele>15</ele>
        <time>2012-01-29T09:04:16Z</time>
      </trkpt>
      <trkpt lat="50.63254" lon="2.67841">
        <ele>15</ele>
        <time>2012-01-29T09:04:18Z</time>
      </trkpt>
      <trkpt lat="50.63242" lon="2.6784">
        <ele>15</ele>
        <time>2012-01-29T09:04:20Z</time>
      </trkpt>
      <trkpt lat="50.63229" lon="2.67844">
        <ele>15</ele>
        <time>2012-01-29T09:04:22Z</time>
      </trkpt>
      <trkpt lat="50.63217" lon="2.67848">
        <ele>15</ele>
        <time>2012-01-29T09:04:24Z</time>
      </trkpt>
      <trkpt lat="50.63203" lon="2.6785">
        <ele>15</ele>
        <time>2012-01-29T09:04:26Z</time>
      </trkpt>
      <trkpt lat="50.63189" lon="2.67851">
        <ele>15</ele>
        <time>2012-01-29T09:04:28Z</time>
      </trkpt>
      <trkpt lat="50.63175" lon="2.67852">
        <ele>15</ele>
        <time>2012-01-29T09:04:30Z</time>
      </trkpt>
      <trkpt lat="50.6316" lon="2.67853">
        <ele>15</ele>
        <time>2012-01-29T09:04:32Z</time>
      </trkpt>
      <trkpt lat="50.63146" lon="2.67855">
        <ele>15</ele>
        <time>2012-01-29T09:04:34Z</time>
      </trkpt>
      <trkpt lat="50.63131" lon="2.67855">
        <ele>15</ele>
        <time>2012-01-29T09:04:36Z</time>
      </trkpt>
      <trkpt lat="50.63117" lon="2.67854">
        <ele>15</ele>
        <time>2012-01-29T09:04:38Z</time>
      </trkpt>
      <trkpt lat="50.63104" lon="2.67851">
        <ele>15</ele>
        <time>2012-01-29T09:04:40Z</time>
      </trkpt>
      <trkpt lat="50.63093" lon="2.67844">
        <ele>15</ele>
        <time>2012-01-29T09:04:42Z</time>
      </trkpt>
      <trkpt lat="50.63084" lon="2.67835">
        <ele>15</ele>
        <time>2012-01-29T09:04:44Z</time>
      </trkpt>
      <trkpt lat="50.63074" lon="2.67824">
        <ele>15</ele>
        <time>2012-01-29T09:04:46Z</time>
      </trkpt>
      <trkpt lat="50.63064" lon="2.67814">
        <ele>15</ele>
        <time>2012-01-29T09:04:48Z</time>
      </trkpt>
      <trkpt lat="50.63051" lon="2.67811">
        <ele>15</ele>
        <time>2012-01-29T09:04:50Z</time>
      </trkpt>
      <trkpt lat="50.63038" lon="2.67817">
        <ele>15</ele>
        <time>2012-01-29T09:04:52Z</time>
      </trkpt>
      <trkpt lat="50.63028" lon="2.6783">
        <ele>15</ele>
        <time>2012-01-29T09:04:54Z</time>
      </trkpt>
      <trkpt lat="50.6302" lon="2.67847">
        <ele>15</ele>
        <time>2012-01-29T09:04:56Z</time>
      </trkpt>
      <trkpt lat="50.6301" lon="2.67862">
        <ele>15</ele>
        <time>2012-01-29T09:04:58Z</time>
      </trkpt>
      <trkpt lat="50.62997" lon="2.67872">
        <ele>15</ele>
        <time>2012-01-29T09:05:00Z</time>
      </trkpt>
      <trkpt lat="50.62983" lon="2.67879">
        <ele>15</ele>
        <time>2012-01-29T09:05:02Z</time>
      </trkpt>
      <trkpt lat="50.62969" lon="2.67886">
        <ele>15</ele>
        <time>2012-01-29T09:05:04Z</time>
      </trkpt>
      <trkpt lat="50.62954" lon="2.67893">
        <ele>15</ele>
        <time>2012-01-29T09:05:06Z</time>
      </trkpt>
      <trkpt lat="50.6294" lon="2.67902">
        <ele>15</ele>
        <time>2012-01-29T09:05:08Z</time>
      </trkpt>
      <trkpt lat="50.62927" lon="2.67914">
        <ele>15</ele>
        <time>2012-01-29T09:05:10Z</time>
      </trkpt>
      <trkpt lat="50.62915" lon="2.67923">
        <ele>15</ele>
        <time>2012-01-29T09:05:12Z</time>
      </trkpt>
      <trkpt lat="50.62903" lon="2.67932">
        <ele>15</ele>
        <time>2012-01-29T09:05:14Z</time>
      </trkpt>
      <trkpt lat="50.6289" lon="2.67943">
        <ele>15</ele>
        <time>2012-01-29T09:05:16Z</time>
      </trkpt>
      <trkpt lat="50.62878" lon="2.67955">
        <ele>15</ele>
        <time>2012-01-29T09:05:18Z</time>
      </trkpt>
      <trkpt lat="50.62866" lon="2.67967">
        <ele>15</ele>
        <time>2012-01-29T09:05:20Z</time>
      </trkpt>
      <trkpt lat="50.62854" lon="2.67977">
        <ele>15</ele>
        <time>2012-01-29T09:05:22Z</time>
      </trkpt>
      <trkpt lat="50.62841" lon="2.67988">
        <ele>15</ele>
        <time>2012-01-29T09:05:24Z</time>
      </trkpt>
      <trkpt lat="50.62829" lon="2.67999">
        <ele>15</ele>
        <time>2012-01-29T09:05:26Z</time>
      </trkpt>
      <trkpt lat="50.62816" lon="2.68007">
        <ele>15</ele>
        <time>2012-01-29T09:05:28Z</time>
      </trkpt>
      <trkpt lat="50.62803" lon="2.68014">
        <ele>15</ele>
        <time>2012-01-29T09:05:30Z</time>
      </trkpt>
      <trkpt lat="50.6279" lon="2.6802">
        <ele>15</ele>
        <time>2012-01-29T09:05:32Z</time>
      </trkpt>
      <trkpt lat="50.62777" lon="2.68028">
        <ele>15</ele>
        <time>2012-01-29T09:05:34Z</time>
      </trkpt>
      <trkpt lat="50.62764" lon="2.68034">
        <ele>15</ele>
        <time>2012-01-29T09:05:36Z</time>
      </trkpt>
      <trkpt lat="50.62752" lon="2.68041">
        <ele>15</ele>
        <time>2012-01-29T09:05:38Z</time>
      </trkpt>
      <trkpt lat="50.62739" lon="2.68047">
        <ele>15</ele>
        <time>2012-01-29T09:05:40Z</time>
      </trkpt>
      <trkpt lat="50.62726" lon="2.68053">
        <ele>15</ele>
        <time>2012-01-29T09:05:42Z</time>
      </trkpt>
      <trkpt lat="50.62713" lon="2.68059">
        <ele>15</ele>
        <time>2012-01-29T09:05:44Z</time>
      </trkpt>
      <trkpt lat="50.62701" lon="2.68066">
        <ele>15</ele>
        <time>2012-01-29T09:05:46Z</time>
      </trkpt>
      <trkpt lat="50.62688" lon="2.68074">
        <ele>15</ele>
        <time>2012-01-29T09:05:48Z</time>
      </trkpt>
      <trkpt lat="50.62675" lon="2.6808">
        <ele>15</ele>
        <time>2012-01-29T09:05:50Z</time>
      </trkpt>
      <trkpt lat="50.62662" lon="2.68087">
        <ele>15</ele>
        <time>2012-01-29T09:05:52Z</time>
      </trkpt>
      <trkpt lat="50.62649" lon="2.68093">
        <ele>15</ele>
        <time>2012-01-29T09:05:54Z</time>
      </trkpt>
      <trkpt lat="50.62636" lon="2.681">
        <ele>15</ele>
        <time>2012-01-29T09:05:56Z</time>
      </trkpt>
      <trkpt lat="50.62623" lon="2.68106">
        <ele>15</ele>
        <time>2012-01-29T09:05:58Z</time>
      </trkpt>
      <trkpt lat="50.6261" lon="2.68113">
        <ele>15</ele>
        <time>2012-01-29T09:06:00Z</time>
      </trkpt>
      <trkpt lat="50.62598" lon="2.6812">
        <ele>15</ele>
        <time>2012-01-29T09:06:02Z</time>
      </trkpt>
      <trkpt lat="50.62585" lon="2.68127">
        <ele>15</ele>
        <time>2012-01-29T09:06:04Z</time>
      </trkpt>
      <trkpt lat="50.62572" lon="2.68134">
        <ele>15</ele>
        <time>2012-01-29T09:06:06Z</time>
      </trkpt>
      <trkpt lat="50.6256" lon="2.6814">
        <ele>15</ele>
        <time>2012-01-29T09:06:08Z</time>
      </trkpt>
      <trkpt lat="50.62547" lon="2.68146">
        <ele>15</ele>
        <time>2012-01-29T09:06:10Z</time>
      </trkpt>
      <trkpt lat="50.62534" lon="2.68153">
        <ele>15</ele>
        <time>2012-01-29T09:06:12Z</time>
      </trkpt>
      <trkpt lat="50.62521" lon="2.6816">
        <ele>15</ele>
        <time>2012-01-29T09:06:14Z</time>
      </trkpt>
      <trkpt lat="50.62508" lon="2.68167">
        <ele>15</ele>
        <time>2012-01-29T09:06:16Z</time>
      </trkpt>
      <trkpt lat="50.62496" lon="2.68173">
        <ele>15</ele>
        <time>2012-01-29T09:06:18Z</time>
      </trkpt>
      <trkpt lat="50.62482" lon="2.68179">
        <ele>15</ele>
        <time>2012-01-29T09:06:20Z</time>
      </trkpt>
      <trkpt lat="50.62469" lon="2.68183">
        <ele>15</ele>
        <time>2012-01-29T09:06:22Z</time>
      </trkpt>
      <trkpt lat="50.62455" lon="2.68186">
        <ele>15</ele>
        <time>2012-01-29T09:06:24Z</time>
      </trkpt>
      <trkpt lat="50.62441" lon="2.68186">
        <ele>15</ele>
        <time>2012-01-29T09:06:26Z</time>
      </trkpt>
      <trkpt lat="50.62428" lon="2.68186">
        <ele>15</ele>
        <time>2012-01-29T09:06:28Z</time>
      </trkpt>
      <trkpt lat="50.62414" lon="2.68186">
        <ele>15</ele>
        <time>2012-01-29T09:06:30Z</time>
      </trkpt>
      <trkpt lat="50.62402" lon="2.68186">
        <ele>15</ele>
        <time>2012-01-29T09:06:32Z</time>
      </trkpt>
      <trkpt lat="50.6239" lon="2.68184">
        <ele>15</ele>
        <time>2012-01-29T09:06:34Z</time>
      </trkpt>
      <trkpt lat="50.62377" lon="2.6818">
        <ele>15</ele>
        <time>2012-01-29T09:06:36Z</time>
      </trkpt>
      <trkpt lat="50.62364" lon="2.68173">
        <ele>15</ele>
        <time>2012-01-29T09:06:38Z</time>
      </trkpt>
      <trkpt lat="50.62351" lon="2.68169">
        <ele>15</ele>
        <time>2012-01-29T09:06:40Z</time>
      </trkpt>
      <trkpt lat="50.62337" lon="2.68164">
        <ele>15</ele>
        <time>2012-01-29T09:06:42Z</time>
      </trkpt>
      <trkpt lat="50.62322" lon="2.68158">
        <ele>15</ele>
        <time>2012-01-29T09:06:44Z</time>
      </trkpt>
      <trkpt lat="50.62308" lon="2.68151">
        <ele>15</ele>
        <time>2012-01-29T09:06:46Z</time>
      </trkpt>
      <trkpt lat="50.62294" lon="2.68143">
        <ele>15</ele>
        <time>2012-01-29T09:06:48Z</time>
      </trkpt>
      <trkpt lat="50.6228" lon="2.68135">
        <ele>15</ele>
        <time>2012-01-29T09:06:50Z</time>
      </trkpt>
      <trkpt lat="50.62266" lon="2.68127">
        <ele>15</ele>
        <time>2012-01-29T09:06:52Z</time>
      </trkpt>
      <trkpt lat="50.62252" lon="2.68119">
        <ele>15</ele>
        <time>2012-01-29T09:06:54Z</time>
      </trkpt>
      <trkpt lat="50.62238" lon="2.6811">
        <ele>15</ele>
        <time>2012-01-29T09:06:56Z</time>
      </trkpt>
      <trkpt lat="50.62225" lon="2.68099">
        <ele>15</ele>
        <time>2012-01-29T09:06:58Z</time>
      </trkpt>
      <trkpt lat="50.62213" lon="2.68084">
        <ele>15</ele>
        <time>2012-01-29T09:07:00Z</time>
      </trkpt>
      <trkpt lat="50.62201" lon="2.68071">
        <ele>15</ele>
        <time>2012-01-29T09:07:02Z</time>
      </trkpt>
      <trkpt lat="50.62188" lon="2.68056">
        <ele>15</ele>
        <time>2012-01-29T09:07:04Z</time>
      </trkpt>
      <trkpt lat="50.62176" lon="2.68043">
        <ele>15</ele>
        <time>2012-01-29T09:07:06Z</time>
      </trkpt>
      <trkpt lat="50.62164" lon="2.68029">
        <ele>15</ele>
        <time>2012-01-29T09:07:08Z</time>
      </trkpt>
      <trkpt lat="50.62151" lon="2.68016">
        <ele>15</ele>
        <time>2012-01-29T09:07:10Z</time>
      </trkpt>
      <trkpt lat="50.6214" lon="2.68001">
        <ele>15</ele>
        <time>2012-01-29T09:07:12Z</time>
      </trkpt>
      <trkpt lat="50.62136" lon="2.67978">
        <ele>15</ele>
        <time>2012-01-29T09:07:14Z</time>
      </trkpt>
      <trkpt lat="50.62138" lon="2.67956">
        <ele>15</ele>
        <time>2012-01-29T09:07:16Z</time>
      </trkpt>
      <trkpt lat="50.62142" lon="2.67932">
        <ele>15</ele>
        <time>2012-01-29T09:07:18Z</time>
      </trkpt>
      <trkpt lat="50.62147" lon="2.6791">
        <ele>15</ele>
        <time>2012-01-29T09:07:20Z</time>
      </trkpt>
      <trkpt lat="50.62152" lon="2.67888">
        <ele>15</ele>
        <time>2012-01-29T09:07:22Z</time>
      </trkpt>
      <trkpt lat="50.62157" lon="2.67865">
        <ele>15</ele>
        <time>2012-01-29T09:07:24Z</time>
      </trkpt>
      <trkpt lat="50.62161" lon="2.67842">
        <ele>15</ele>
        <time>2012-01-29T09:07:26Z</time>
      </trkpt>
      <trkpt lat="50.62165" lon="2.67819">
        <ele>15</ele>
        <time>2012-01-29T09:07:28Z</time>
      </trkpt>
      <trkpt lat="50.62167" lon="2.67796">
        <ele>15</ele>
        <time>2012-01-29T09:07:30Z</time>
      </trkpt>
      <trkpt lat="50.62169" lon="2.67771">
        <ele>15</ele>
        <time>2012-01-29T09:07:32Z</time>
      </trkpt>
      <trkpt lat="50.62168" lon="2.67746">
        <ele>15</ele>
        <time>2012-01-29T09:07:34Z</time>
      </trkpt>
      <trkpt lat="50.62166" lon="2.67721">
        <ele>15</ele>
        <time>2012-01-29T09:07:36Z</time>
      </trkpt>
      <trkpt lat="50.62162" lon="2.67697">
        <ele>15</ele>
        <time>2012-01-29T09:07:38Z</time>
      </trkpt>
      <trkpt lat="50.62157" lon="2.67674">
        <ele>15</ele>
        <time>2012-01-29T09:07:40Z</time>
      </trkpt>
      <trkpt lat="50.62153" lon="2.67649">
        <ele>15</ele>
        <time>2012-01-29T09:07:42Z</time>
      </trkpt>
      <trkpt lat="50.62148" lon="2.67626">
        <ele>15</ele>
        <time>2012-01-29T09:07:44Z</time>
      </trkpt>
      <trkpt lat="50.62142" lon="2.67602">
        <ele>15</ele>
        <time>2012-01-29T09:07:46Z</time>
      </trkpt>
      <trkpt lat="50.62137" lon="2.67578">
        <ele>15</ele>
        <time>2012-01-29T09:07:48Z</time>
      </trkpt>
      <trkpt lat="50.62132" lon="2.67553">
        <ele>15</ele>
        <time>2012-01-29T09:07:50Z</time>
      </trkpt>
      <trkpt lat="50.62128" lon="2.67528">
        <ele>15</ele>
        <time>2012-01-29T09:07:52Z</time>
      </trkpt>
      <trkpt lat="50.62125" lon="2.67515">
        <ele>15</ele>
        <time>2012-01-29T09:07:53Z</time>
      </trkpt>
      <trkpt lat="50.62122" lon="2.67489">
        <ele>15</ele>
        <time>2012-01-29T09:07:55Z</time>
      </trkpt>
      <trkpt lat="50.62118" lon="2.67463">
        <ele>15</ele>
        <time>2012-01-29T09:07:57Z</time>
      </trkpt>
      <trkpt lat="50.62115" lon="2.67436">
        <ele>15</ele>
        <time>2012-01-29T09:07:59Z</time>
      </trkpt>
      <trkpt lat="50.62112" lon="2.6741">
        <ele>15</ele>
        <time>2012-01-29T09:08:01Z</time>
      </trkpt>
      <trkpt lat="50.6211" lon="2.67384">
        <ele>15</ele>
        <time>2012-01-29T09:08:03Z</time>
      </trkpt>
      <trkpt lat="50.62107" lon="2.67358">
        <ele>15</ele>
        <time>2012-01-29T09:08:05Z</time>
      </trkpt>
      <trkpt lat="50.62104" lon="2.67335">
        <ele>15</ele>
        <time>2012-01-29T09:08:07Z</time>
      </trkpt>
      <trkpt lat="50.62101" lon="2.67312">
        <ele>15</ele>
        <time>2012-01-29T09:08:09Z</time>
      </trkpt>
      <trkpt lat="50.62098" lon="2.67289">
        <ele>15</ele>
        <time>2012-01-29T09:08:11Z</time>
      </trkpt>
      <trkpt lat="50.62095" lon="2.67267">
        <ele>15</ele>
        <time>2012-01-29T09:08:13Z</time>
      </trkpt>
      <trkpt lat="50.62093" lon="2.67243">
        <ele>15</ele>
        <time>2012-01-29T09:08:15Z</time>
      </trkpt>
      <trkpt lat="50.6209" lon="2.6722">
        <ele>15</ele>
        <time>2012-01-29T09:08:17Z</time>
      </trkpt>
      <trkpt lat="50.62088" lon="2.67196">
        <ele>15</ele>
        <time>2012-01-29T09:08:19Z</time>
      </trkpt>
      <trkpt lat="50.62085" lon="2.67172">
        <ele>15</ele>
        <time>2012-01-29T09:08:21Z</time>
      </trkpt>
      <trkpt lat="50.62082" lon="2.67148">
        <ele>15</ele>
        <time>2012-01-29T09:08:23Z</time>
      </trkpt>
      <trkpt lat="50.62078" lon="2.67125">
        <ele>15</ele>
        <time>2012-01-29T09:08:25Z</time>
      </trkpt>
      <trkpt lat="50.62073" lon="2.67103">
        <ele>15</ele>
        <time>2012-01-29T09:08:27Z</time>
      </trkpt>
      <trkpt lat="50.62064" lon="2.67083">
        <ele>15</ele>
        <time>2012-01-29T09:08:29Z</time>
      </trkpt>
      <trkpt lat="50.62056" lon="2.67063">
        <ele>15</ele>
        <time>2012-01-29T09:08:31Z</time>
      </trkpt>
      <trkpt lat="50.62047" lon="2.67043">
        <ele>15</ele>
        <time>2012-01-29T09:08:33Z</time>
      </trkpt>
      <trkpt lat="50.62038" lon="2.67022">
        <ele>15</ele>
        <time>2012-01-29T09:08:35Z</time>
      </trkpt>
      <trkpt lat="50.6203" lon="2.67002">
        <ele>15</ele>
        <time>2012-01-29T09:08:37Z</time>
      </trkpt>
      <trkpt lat="50.62022" lon="2.6698">
        <ele>15</ele>
        <time>2012-01-29T09:08:39Z</time>
      </trkpt>
      <trkpt lat="50.62014" lon="2.66959">
        <ele>15</ele>
        <time>2012-01-29T09:08:41Z</time>
      </trkpt>
      <trkpt lat="50.62007" lon="2.66938">
        <ele>15</ele>
        <time>2012-01-29T09:08:43Z</time>
      </trkpt>
      <trkpt lat="50.62" lon="2.66916">
        <ele>15</ele>
        <time>2012-01-29T09:08:45Z</time>
      </trkpt>
      <trkpt lat="50.61993" lon="2.66893">
        <ele>15</ele>
        <time>2012-01-29T09:08:47Z</time>
      </trkpt>
      <trkpt lat="50.61989" lon="2.6687">
        <ele>15</ele>
        <time>2012-01-29T09:08:49Z</time>
      </trkpt>
      <trkpt lat="50.61985" lon="2.66846">
        <ele>15</ele>
        <time>2012-01-29T09:08:51Z</time>
      </trkpt>
      <trkpt lat="50.61981" lon="2.66823">
        <ele>15</ele>
        <time>2012-01-29T09:08:53Z</time>
      </trkpt>
      <trkpt lat="50.61977" lon="2.66801">
        <ele>15</ele>
        <time>2012-01-29T09:08:55Z</time>
      </trkpt>
      <trkpt lat="50.61971" lon="2.66778">
        <ele>15</ele>
        <time>2012-01-29T09:08:57Z</time>
      </trkpt>
      <trkpt lat="50.61965" lon="2.66757">
        <ele>15</ele>
        <time>2012-01-29T09:08:59Z</time>
      </trkpt>
      <trkpt lat="50.61959" lon="2.66735">
        <ele>15</ele>
        <time>2012-01-29T09:09:01Z</time>
      </trkpt>
      <trkpt lat="50.61953" lon="2.66714">
        <ele>15</ele>
        <time>2012-01-29T09:09:03Z</time>
      </trkpt>
      <trkpt lat="50.61948" lon="2.66695">
        <ele>15</ele>
        <time>2012-01-29T09:09:05Z</time>
      </trkpt>
      <trkpt lat="50.61942" lon="2.66675">
        <ele>15</ele>
        <time>2012-01-29T09:09:07Z</time>
      </trkpt>
      <trkpt lat="50.61935" lon="2.66656">
        <ele>15</ele>
        <time>2012-01-29T09:09:09Z</time>
      </trkpt>
      <trkpt lat="50.61927" lon="2.66636">
        <ele>15</ele>
        <time>2012-01-29T09:09:11Z</time>
      </trkpt>
      <trkpt lat="50.61918" lon="2.66616">
        <ele>15</ele>
        <time>2012-01-29T09:09:13Z</time>
      </trkpt>
      <trkpt lat="50.6191" lon="2.66597">
        <ele>15</ele>
        <time>2012-01-29T09:09:15Z</time>
      </trkpt>
      <trkpt lat="50.61903" lon="2.66576">
        <ele>15</ele>
        <time>2012-01-29T09:09:17Z</time>
      </trkpt>
      <trkpt lat="50.61896" lon="2.66555">
        <ele>15</ele>
        <time>2012-01-29T09:09:19Z</time>
      </trkpt>
      <trkpt lat="50.6189" lon="2.66534">
        <ele>15</ele>
        <time>2012-01-29T09:09:21Z</time>
      </trkpt>
      <trkpt lat="50.61885" lon="2.66512">
        <ele>15</ele>
        <time>2012-01-29T09:09:23Z</time>
      </trkpt>
      <trkpt lat="50.61881" lon="2.66489">
        <ele>15</ele>
        <time>2012-01-29T09:09:25Z</time>
      </trkpt>
      <trkpt lat="50.61877" lon="2.66466">
        <ele>15</ele>
        <time>2012-01-29T09:09:27Z</time>
      </trkpt>
      <trkpt lat="50.61874" lon="2.66441">
        <ele>15</ele>
        <time>2012-01-29T09:09:29Z</time>
      </trkpt>
      <trkpt lat="50.61872" lon="2.66417">
        <ele>15</ele>
        <time>2012-01-29T09:09:31Z</time>
      </trkpt>
      <trkpt lat="50.61869" lon="2.66394">
        <ele>15</ele>
        <time>2012-01-29T09:09:33Z</time>
      </trkpt>
      <trkpt lat="50.61867" lon="2.66369">
        <ele>15</ele>
        <time>2012-01-29T09:09:35Z</time>
      </trkpt>
      <trkpt lat="50.61866" lon="2.66346">
        <ele>15</ele>
        <time>2012-01-29T09:09:37Z</time>
      </trkpt>
      <trkpt lat="50.61865" lon="2.66322">
        <ele>15</ele>
        <time>2012-01-29T09:09:39Z</time>
      </trkpt>
      <trkpt lat="50.61863" lon="2.66296">
        <ele>15</ele>
        <time>2012-01-29T09:09:41Z</time>
      </trkpt>
      <trkpt lat="50.61861" lon="2.66271">
        <ele>15</ele>
        <time>2012-01-29T09:09:43Z</time>
      </trkpt>
      <trkpt lat="50.6186" lon="2.66244">
        <ele>15</ele>
        <time>2012-01-29T09:09:45Z</time>
      </trkpt>
      <trkpt lat="50.61859" lon="2.66217">
        <ele>15</ele>
        <time>2012-01-29T09:09:47Z</time>
      </trkpt>
      <trkpt lat="50.61858" lon="2.6619">
        <ele>15</ele>
        <time>2012-01-29T09:09:49Z</time>
      </trkpt>
      <trkpt lat="50.61857" lon="2.66163">
        <ele>15</ele>
        <time>2012-01-29T09:09:51Z</time>
      </trkpt>
      <trkpt lat="50.61856" lon="2.66135">
        <ele>15</ele>
        <time>2012-01-29T09:09:53Z</time>
      </trkpt>
      <trkpt lat="50.61856" lon="2.66108">
        <ele>15</ele>
        <time>2012-01-29T09:09:55Z</time>
      </trkpt>
      <trkpt lat="50.61855" lon="2.6608">
        <ele>15</ele>
        <time>2012-01-29T09:09:57Z</time>
      </trkpt>
      <trkpt lat="50.61853" lon="2.66053">
        <ele>15</ele>
        <time>2012-01-29T09:09:59Z</time>
      </trkpt>
      <trkpt lat="50.61852" lon="2.66026">
        <ele>15</ele>
        <time>2012-01-29T09:10:01Z</time>
      </trkpt>
      <trkpt lat="50.61849" lon="2.65999">
        <ele>15</ele>
        <time>2012-01-29T09:10:03Z</time>
      </trkpt>
      <trkpt lat="50.61847" lon="2.65974">
        <ele>15</ele>
        <time>2012-01-29T09:10:05Z</time>
      </trkpt>
      <trkpt lat="50.61845" lon="2.65948">
        <ele>15</ele>
        <time>2012-01-29T09:10:07Z</time>
      </trkpt>
      <trkpt lat="50.61844" lon="2.65922">
        <ele>15</ele>
        <time>2012-01-29T09:10:09Z</time>
      </trkpt>
      <trkpt lat="50.61842" lon="2.65896">
        <ele>15</ele>
        <time>2012-01-29T09:10:11Z</time>
      </trkpt>
      <trkpt lat="50.6184" lon="2.6587">
        <ele>15</ele>
        <time>2012-01-29T09:10:13Z</time>
      </trkpt>
      <trkpt lat="50.61837" lon="2.65843">
        <ele>15</ele>
        <time>2012-01-29T09:10:15Z</time>
      </trkpt>
      <trkpt lat="50.61834" lon="2.65816">
        <ele>15</ele>
        <time>2012-01-29T09:10:17Z</time>
      </trkpt>
      <trkpt lat="50.61832" lon="2.65803">
        <ele>15</ele>
        <time>2012-01-29T09:10:18Z</time>
      </trkpt>
      <trkpt lat="50.61829" lon="2.65789">
        <ele>15</ele>
        <time>2012-01-29T09:10:19Z</time>
      </trkpt>
      <trkpt lat="50.61826" lon="2.65776">
        <ele>15</ele>
        <time>2012-01-29T09:10:20Z</time>
      </trkpt>
      <trkpt lat="50.61823" lon="2.65762">
        <ele>15</ele>
        <time>2012-01-29T09:10:21Z</time>
      </trkpt>
      <trkpt lat="50.6182" lon="2.65749">
        <ele>15</ele>
        <time>2012-01-29T09:10:22Z</time>
      </trkpt>
      <trkpt lat="50.61817" lon="2.65735">
        <ele>15</ele>
        <time>2012-01-29T09:10:23Z</time>
      </trkpt>
      <trkpt lat="50.61814" lon="2.65722">
        <ele>15</ele>
        <time>2012-01-29T09:10:24Z</time>
      </trkpt>
      <trkpt lat="50.61811" lon="2.65708">
        <ele>15</ele>
        <time>2012-01-29T09:10:25Z</time>
      </trkpt>
      <trkpt lat="50.61805" lon="2.65681">
        <ele>15</ele>
        <time>2012-01-29T09:10:27Z</time>
      </trkpt>
      <trkpt lat="50.61798" lon="2.65655">
        <ele>15</ele>
        <time>2012-01-29T09:10:29Z</time>
      </trkpt>
      <trkpt lat="50.61793" lon="2.65629">
        <ele>15</ele>
        <time>2012-01-29T09:10:31Z</time>
      </trkpt>
      <trkpt lat="50.61788" lon="2.65606">
        <ele>15</ele>
        <time>2012-01-29T09:10:33Z</time>
      </trkpt>
      <trkpt lat="50.61783" lon="2.65582">
        <ele>15</ele>
        <time>2012-01-29T09:10:35Z</time>
      </trkpt>
      <trkpt lat="50.61778" lon="2.6556">
        <ele>15</ele>
        <time>2012-01-29T09:10:37Z</time>
      </trkpt>
      <trkpt lat="50.61774" lon="2.65538">
        <ele>15</ele>
        <time>2012-01-29T09:10:39Z</time>
      </trkpt>
      <trkpt lat="50.61771" lon="2.65514">
        <ele>15</ele>
        <time>2012-01-29T09:10:41Z</time>
      </trkpt>
      <trkpt lat="50.61767" lon="2.6549">
        <ele>15</ele>
        <time>2012-01-29T09:10:43Z</time>
      </trkpt>
      <trkpt lat="50.61765" lon="2.65467">
        <ele>15</ele>
        <time>2012-01-29T09:10:45Z</time>
      </trkpt>
      <trkpt lat="50.61761" lon="2.65442">
        <ele>15</ele>
        <time>2012-01-29T09:10:47Z</time>
      </trkpt>
      <trkpt lat="50.61757" lon="2.65419">
        <ele>15</ele>
        <time>2012-01-29T09:10:49Z</time>
      </trkpt>
      <trkpt lat="50.61753" lon="2.65395">
        <ele>15</ele>
        <time>2012-01-29T09:10:51Z</time>
      </trkpt>
      <trkpt lat="50.61748" lon="2.65371">
        <ele>15</ele>
        <time>2012-01-29T09:10:53Z</time>
      </trkpt>
      <trkpt lat="50.61742" lon="2.65348">
        <ele>15</ele>
        <time>2012-01-29T09:10:55Z</time>
      </trkpt>
      <trkpt lat="50.61737" lon="2.65325">
        <ele>15</ele>
        <time>2012-01-29T09:10:57Z</time>
      </trkpt>
      <trkpt lat="50.61731" lon="2.65301">
        <ele>15</ele>
        <time>2012-01-29T09:10:59Z</time>
      </trkpt>
      <trkpt lat="50.61726" lon="2.65278">
        <ele>15</ele>
        <time>2012-01-29T09:11:01Z</time>
      </trkpt>
      <trkpt lat="50.61719" lon="2.65255">
        <ele>15</ele>
        <time>2012-01-29T09:11:03Z</time>
      </trkpt>
      <trkpt lat="50.61714" lon="2.65231">
        <ele>15</ele>
        <time>2012-01-29T09:11:05Z</time>
      </trkpt>
      <trkpt lat="50.61708" lon="2.65208">
        <ele>15</ele>
        <time>2012-01-29T09:11:07Z</time>
      </trkpt>
      <trkpt lat="50.61703" lon="2.65184">
        <ele>15</ele>
        <time>2012-01-29T09:11:09Z</time>
      </trkpt>
      <trkpt lat="50.61697" lon="2.6516">
        <ele>15</ele>
        <time>2012-01-29T09:11:11Z</time>
      </trkpt>
      <trkpt lat="50.61691" lon="2.65137">
        <ele>15</ele>
        <time>2012-01-29T09:11:13Z</time>
      </trkpt>
      <trkpt lat="50.61686" lon="2.65114">
        <ele>15</ele>
        <time>2012-01-29T09:11:15Z</time>
      </trkpt>
      <trkpt lat="50.6168" lon="2.6509">
        <ele>15</ele>
        <time>2012-01-29T09:11:17Z</time>
      </trkpt>
      <trkpt lat="50.61674" lon="2.65068">
        <ele>15</ele>
        <time>2012-01-29T09:11:19Z</time>
      </trkpt>
      <trkpt lat="50.61669" lon="2.65045">
        <ele>15</ele>
        <time>2012-01-29T09:11:21Z</time>
      </trkpt>
      <trkpt lat="50.61663" lon="2.65022">
        <ele>15</ele>
        <time>2012-01-29T09:11:23Z</time>
      </trkpt>
      <trkpt lat="50.61658" lon="2.64999">
        <ele>15</ele>
        <time>2012-01-29T09:11:25Z</time>
      </trkpt>
      <trkpt lat="50.61653" lon="2.64977">
        <ele>15</ele>
        <time>2012-01-29T09:11:27Z</time>
      </trkpt>
      <trkpt lat="50.61649" lon="2.64954">
        <ele>15</ele>
        <time>2012-01-29T09:11:29Z</time>
      </trkpt>
      <trkpt lat="50.61647" lon="2.64931">
        <ele>15</ele>
        <time>2012-01-29T09:11:31Z</time>
      </trkpt>
      <trkpt lat="50.61647" lon="2.64907">
        <ele>15</ele>
        <time>2012-01-29T09:11:33Z</time>
      </trkpt>
      <trkpt lat="50.6165" lon="2.64884">
        <ele>15</ele>
        <time>2012-01-29T09:11:35Z</time>
      </trkpt>
      <trkpt lat="50.61655" lon="2.64863">
        <ele>15</ele>
        <time>2012-01-29T09:11:37Z</time>
      </trkpt>
      <trkpt lat="50.61662" lon="2.64844">
        <ele>15</ele>
        <time>2012-01-29T09:11:39Z</time>
      </trkpt>
      <trkpt lat="50.6167" lon="2.64827">
        <ele>15</ele>
        <time>2012-01-29T09:11:41Z</time>
      </trkpt>
      <trkpt lat="50.61678" lon="2.6481">
        <ele>15</ele>
        <time>2012-01-29T09:11:43Z</time>
      </trkpt>
      <trkpt lat="50.61687" lon="2.64796">
        <ele>15</ele>
        <time>2012-01-29T09:11:45Z</time>
      </trkpt>
      <trkpt lat="50.61698" lon="2.64785">
        <ele>15</ele>
        <time>2012-01-29T09:11:47Z</time>
      </trkpt>
      <trkpt lat="50.61709" lon="2.64777">
        <ele>15</ele>
        <time>2012-01-29T09:11:49Z</time>
      </trkpt>
      <trkpt lat="50.6172" lon="2.64769">
        <ele>15</ele>
        <time>2012-01-29T09:11:51Z</time>
      </trkpt>
      <trkpt lat="50.61727" lon="2.64755">
        <ele>15</ele>
        <time>2012-01-29T09:11:53Z</time>
      </trkpt>
      <trkpt lat="50.61731" lon="2.64737">
        <ele>15</ele>
        <time>2012-01-29T09:11:55Z</time>
      </trkpt>
      <trkpt lat="50.61729" lon="2.6472">
        <ele>15</ele>
        <time>2012-01-29T09:11:57Z</time>
      </trkpt>
      <trkpt lat="50.61722" lon="2.64706">
        <ele>15</ele>
        <time>2012-01-29T09:11:59Z</time>
      </trkpt>
      <trkpt lat="50.61711" lon="2.64698">
        <ele>15</ele>
        <time>2012-01-29T09:12:01Z</time>
      </trkpt>
      <trkpt lat="50.61698" lon="2.64699">
        <ele>15</ele>
        <time>2012-01-29T09:12:03Z</time>
      </trkpt>
      <trkpt lat="50.61687" lon="2.64707">
        <ele>15</ele>
        <time>2012-01-29T09:12:05Z</time>
      </trkpt>
      <trkpt lat="50.61677" lon="2.64718">
        <ele>15</ele>
        <time>2012-01-29T09:12:07Z</time>
      </trkpt>
      <trkpt lat="50.61665" lon="2.64727">
        <ele>15</ele>
        <time>2012-01-29T09:12:09Z</time>
      </trkpt>
      <trkpt lat="50.61653" lon="2.64733">
        <ele>15</ele>
        <time>2012-01-29T09:12:11Z</time>
      </trkpt>
      <trkpt lat="50.61639" lon="2.64741">
        <ele>15</ele>
        <time>2012-01-29T09:12:13Z</time>
      </trkpt>
      <trkpt lat="50.61626" lon="2.64752">
        <ele>15</ele>
        <time>2012-01-29T09:12:15Z</time>
      </trkpt>
      <trkpt lat="50.61613" lon="2.64759">
        <ele>15</ele>
        <time>2012-01-29T09:12:17Z</time>
      </trkpt>
      <trkpt lat="50.61599" lon="2.64758">
        <ele>15</ele>
        <time>2012-01-29T09:12:19Z</time>
      </trkpt>
      <trkpt lat="50.61587" lon="2.64752">
        <ele>15</ele>
        <time>2012-01-29T09:12:21Z</time>
      </trkpt>
      <trkpt lat="50.61577" lon="2.64741">
        <ele>15</ele>
        <time>2012-01-29T09:12:23Z</time>
      </trkpt>
      <trkpt lat="50.61567" lon="2.64728">
        <ele>15</ele>
        <time>2012-01-29T09:12:25Z</time>
      </trkpt>
      <trkpt lat="50.61558" lon="2.64718">
        <ele>15</ele>
        <time>2012-01-29T09:12:27Z</time>
      </trkpt>
      <trkpt lat="50.61547" lon="2.64709">
        <ele>15</ele>
        <time>2012-01-29T09:12:29Z</time>
      </trkpt>
      <trkpt lat="50.61537" lon="2.64701">
        <ele>15</ele>
        <time>2012-01-29T09:12:31Z</time>
      </trkpt>
      <trkpt lat="50.61523" lon="2.64696">
        <ele>15</ele>
        <time>2012-01-29T09:12:33Z</time>
      </trkpt>
      <trkpt lat="50.6151" lon="2.64691">
        <ele>15</ele>
        <time>2012-01-29T09:12:35Z</time>
      </trkpt>
      <trkpt lat="50.61496" lon="2.64689">
        <ele>15</ele>
        <time>2012-01-29T09:12:37Z</time>
      </trkpt>
      <trkpt lat="50.61482" lon="2.64689">
        <ele>15</ele>
        <time>2012-01-29T09:12:39Z</time>
      </trkpt>
      <trkpt lat="50.61469" lon="2.6469">
        <ele>15</ele>
        <time>2012-01-29T09:12:41Z</time>
      </trkpt>
      <trkpt lat="50.61454" lon="2.64696">
        <ele>15</ele>
        <time>2012-01-29T09:12:43Z</time>
      </trkpt>
      <trkpt lat="50.61441" lon="2.64703">
        <ele>15</ele>
        <time>2012-01-29T09:12:45Z</time>
      </trkpt>
      <trkpt lat="50.61427" lon="2.64711">
        <ele>15</ele>
        <time>2012-01-29T09:12:47Z</time>
      </trkpt>
      <trkpt lat="50.61413" lon="2.64719">
        <ele>15</ele>
        <time>2012-01-29T09:12:49Z</time>
      </trkpt>
      <trkpt lat="50.61398" lon="2.64725">
        <ele>15</ele>
        <time>2012-01-29T09:12:51Z</time>
      </trkpt>
      <trkpt lat="50.61384" lon="2.64729">
        <ele>15</ele>
        <time>2012-01-29T09:12:53Z</time>
      </trkpt>
      <trkpt lat="50.61369" lon="2.64733">
        <ele>15</ele>
        <time>2012-01-29T09:12:55Z</time>
      </trkpt>
      <trkpt lat="50.61355" lon="2.64735">
        <ele>15</ele>
        <time>2012-01-29T09:12:57Z</time>
      </trkpt>
      <trkpt lat="50.6134" lon="2.64738">
        <ele>15</ele>
        <time>2012-01-29T09:12:59Z</time>
      </trkpt>
      <trkpt lat="50.61325" lon="2.64742">
        <ele>15</ele>
        <time>2012-01-29T09:13:01Z</time>
      </trkpt>
      <trkpt lat="50.61309" lon="2.64745">
        <ele>15</ele>
        <time>2012-01-29T09:13:03Z</time>
      </trkpt>
      <trkpt lat="50.61293" lon="2.6475">
        <ele>15</ele>
        <time>2012-01-29T09:13:05Z</time>
      </trkpt>
      <trkpt lat="50.61277" lon="2.64753">
        <ele>15</ele>
        <time>2012-01-29T09:13:07Z</time>
      </trkpt>
      <trkpt lat="50.6126" lon="2.64758">
        <ele>15</ele>
        <time>2012-01-29T09:13:09Z</time>
      </trkpt>
      <trkpt lat="50.61244" lon="2.64763">
        <ele>15</ele>
        <time>2012-01-29T09:13:11Z</time>
      </trkpt>
      <trkpt lat="50.61227" lon="2.64768">
        <ele>15</ele>
        <time>2012-01-29T09:13:13Z</time>
      </trkpt>
      <trkpt lat="50.61211" lon="2.64772">
        <ele>15</ele>
        <time>2012-01-29T09:13:15Z</time>
      </trkpt>
      <trkpt lat="50.61195" lon="2.64776">
        <ele>15</ele>
        <time>2012-01-29T09:13:17Z</time>
      </trkpt>
      <trkpt lat="50.61179" lon="2.6478">
        <ele>15</ele>
        <time>2012-01-29T09:13:19Z</time>
      </trkpt>
      <trkpt lat="50.61163" lon="2.64785">
        <ele>15</ele>
        <time>2012-01-29T09:13:21Z</time>
      </trkpt>
      <trkpt lat="50.61146" lon="2.64789">
        <ele>15</ele>
        <time>2012-01-29T09:13:23Z</time>
      </trkpt>
      <trkpt lat="50.6113" lon="2.64795">
        <ele>15</ele>
        <time>2012-01-29T09:13:25Z</time>
      </trkpt>
      <trkpt lat="50.61113" lon="2.64798">
        <ele>15</ele>
        <time>2012-01-29T09:13:27Z</time>
      </trkpt>
      <trkpt lat="50.61096" lon="2.64803">
        <ele>15</ele>
        <time>2012-01-29T09:13:29Z</time>
      </trkpt>
      <trkpt lat="50.6108" lon="2.64807">
        <ele>15</ele>
        <time>2012-01-29T09:13:31Z</time>
      </trkpt>
      <trkpt lat="50.61064" lon="2.64812">
        <ele>15</ele>
        <time>2012-01-29T09:13:33Z</time>
      </trkpt>
      <trkpt lat="50.61049" lon="2.64816">
        <ele>15</ele>
        <time>2012-01-29T09:13:35Z</time>
      </trkpt>
      <trkpt lat="50.61034" lon="2.64821">
        <ele>15</ele>
        <time>2012-01-29T09:13:37Z</time>
      </trkpt>
      <trkpt lat="50.61019" lon="2.64825">
        <ele>15</ele>
        <time>2012-01-29T09:13:39Z</time>
      </trkpt>
      <trkpt lat="50.61003" lon="2.64829">
        <ele>15</ele>
        <time>2012-01-29T09:13:41Z</time>
      </trkpt>
      <trkpt lat="50.60988" lon="2.64833">
        <ele>15</ele>
        <time>2012-01-29T09:13:43Z</time>
      </trkpt>
      <trkpt lat="50.60973" lon="2.64838">
        <ele>15</ele>
        <time>2012-01-29T09:13:45Z</time>
      </trkpt>
      <trkpt lat="50.60958" lon="2.64841">
        <ele>15</ele>
        <time>2012-01-29T09:13:47Z</time>
      </trkpt>
      <trkpt lat="50.60943" lon="2.64846">
        <ele>15</ele>
        <time>2012-01-29T09:13:49Z</time>
      </trkpt>
      <trkpt lat="50.60928" lon="2.64849">
        <ele>15</ele>
        <time>2012-01-29T09:13:51Z</time>
      </trkpt>
      <trkpt lat="50.60914" lon="2.64854">
        <ele>15</ele>
        <time>2012-01-29T09:13:53Z</time>
      </trkpt>
      <trkpt lat="50.60899" lon="2.64857">
        <ele>15</ele>
        <time>2012-01-29T09:13:55Z</time>
      </trkpt>
      <trkpt lat="50.60884" lon="2.6486">
        <ele>15</ele>
        <time>2012-01-29T09:13:57Z</time>
      </trkpt>
      <trkpt lat="50.60868" lon="2.64862">
        <ele>15</ele>
        <time>2012-01-29T09:13:59Z</time>
      </trkpt>
      <trkpt lat="50.60854" lon="2.64865">
        <ele>15</ele>
        <time>2012-01-29T09:14:01Z</time>
      </trkpt>
      <trkpt lat="50.60838" lon="2.64869">
        <ele>15</ele>
        <time>2012-01-29T09:14:03Z</time>
      </trkpt>
      <trkpt lat="50.60824" lon="2.64875">
        <ele>15</ele>
        <time>2012-01-29T09:14:05Z</time>
      </trkpt>
      <trkpt lat="50.60809" lon="2.64881">
        <ele>15</ele>
        <time>2012-01-29T09:14:07Z</time>
      </trkpt>
      <trkpt lat="50.60794" lon="2.64886">
        <ele>15</ele>
        <time>2012-01-29T09:14:09Z</time>
      </trkpt>
      <trkpt lat="50.60779" lon="2.64893">
        <ele>15</ele>
        <time>2012-01-29T09:14:11Z</time>
      </trkpt>
      <trkpt lat="50.60764" lon="2.64899">
        <ele>15</ele>
        <time>2012-01-29T09:14:13Z</time>
      </trkpt>
      <trkpt lat="50.6075" lon="2.64904">
        <ele>15</ele>
        <time>2012-01-29T09:14:15Z</time>
      </trkpt>
      <trkpt lat="50.60736" lon="2.6491">
        <ele>15</ele>
        <time>2012-01-29T09:14:17Z</time>
      </trkpt>
      <trkpt lat="50.60721" lon="2.64916">
        <ele>15</ele>
        <time>2012-01-29T09:14:19Z</time>
      </trkpt>
      <trkpt lat="50.60708" lon="2.64921">
        <ele>15</ele>
        <time>2012-01-29T09:14:21Z</time>
      </trkpt>
      <trkpt lat="50.60693" lon="2.64927">
        <ele>15</ele>
        <time>2012-01-29T09:14:23Z</time>
      </trkpt>
      <trkpt lat="50.60679" lon="2.64932">
        <ele>15</ele>
        <time>2012-01-29T09:14:25Z</time>
      </trkpt>
      <trkpt lat="50.60665" lon="2.64937">
        <ele>15</ele>
        <time>2012-01-29T09:14:27Z</time>
      </trkpt>
      <trkpt lat="50.60651" lon="2.64941">
        <ele>15</ele>
        <time>2012-01-29T09:14:29Z</time>
      </trkpt>
      <trkpt lat="50.60636" lon="2.64946">
        <ele>15</ele>
        <time>2012-01-29T09:14:31Z</time>
      </trkpt>
      <trkpt lat="50.60622" lon="2.6495">
        <ele>15</ele>
        <time>2012-01-29T09:14:33Z</time>
      </trkpt>
      <trkpt lat="50.60607" lon="2.64955">
        <ele>15</ele>
        <time>2012-01-29T09:14:35Z</time>
      </trkpt>
      <trkpt lat="50.60593" lon="2.64959">
        <ele>15</ele>
        <time>2012-01-29T09:14:37Z</time>
      </trkpt>
      <trkpt lat="50.60578" lon="2.64964">
        <ele>15</ele>
        <time>2012-01-29T09:14:39Z</time>
      </trkpt>
      <trkpt lat="50.60564" lon="2.6497">
        <ele>15</ele>
        <time>2012-01-29T09:14:41Z</time>
      </trkpt>
      <trkpt lat="50.60549" lon="2.64974">
        <ele>15</ele>
        <time>2012-01-29T09:14:43Z</time>
      </trkpt>
      <trkpt lat="50.60535" lon="2.64979">
        <ele>15</ele>
        <time>2012-01-29T09:14:45Z</time>
      </trkpt>
      <trkpt lat="50.60521" lon="2.64985">
        <ele>15</ele>
        <time>2012-01-29T09:14:47Z</time>
      </trkpt>
      <trkpt lat="50.60507" lon="2.6499">
        <ele>15</ele>
        <time>2012-01-29T09:14:49Z</time>
      </trkpt>
      <trkpt lat="50.60493" lon="2.64995">
        <ele>15</ele>
        <time>2012-01-29T09:14:51Z</time>
      </trkpt>
      <trkpt lat="50.60479" lon="2.65">
        <ele>15</ele>
        <time>2012-01-29T09:14:53Z</time>
      </trkpt>
      <trkpt lat="50.60465" lon="2.65007">
        <ele>15</ele>
        <time>2012-01-29T09:14:55Z</time>
      </trkpt>
      <trkpt lat="50.6045" lon="2.65014">
        <ele>15</ele>
        <time>2012-01-29T09:14:57Z</time>
      </trkpt>
      <trkpt lat="50.60436" lon="2.6502">
        <ele>15</ele>
        <time>2012-01-29T09:14:59Z</time>
      </trkpt>
      <trkpt lat="50.60421" lon="2.65027">
        <ele>15</ele>
        <time>2012-01-29T09:15:01Z</time>
      </trkpt>
      <trkpt lat="50.60407" lon="2.65033">
        <ele>15</ele>
        <time>2012-01-29T09:15:03Z</time>
      </trkpt>
      <trkpt lat="50.60392" lon="2.65038">
        <ele>15</ele>
        <time>2012-01-29T09:15:05Z</time>
      </trkpt>
      <trkpt lat="50.60378" lon="2.65043">
        <ele>15</ele>
        <time>2012-01-29T09:15:07Z</time>
      </trkpt>
      <trkpt lat="50.60364" lon="2.65048">
        <ele>15</ele>
        <time>2012-01-29T09:15:09Z</time>
      </trkpt>
      <trkpt lat="50.60349" lon="2.65052">
        <ele>15</ele>
        <time>2012-01-29T09:15:11Z</time>
      </trkpt>
      <trkpt lat="50.60334" lon="2.65057">
        <ele>15</ele>
        <time>2012-01-29T09:15:13Z</time>
      </trkpt>
      <trkpt lat="50.6032" lon="2.65061">
        <ele>15</ele>
        <time>2012-01-29T09:15:15Z</time>
      </trkpt>
      <trkpt lat="50.60306" lon="2.65066">
        <ele>15</ele>
        <time>2012-01-29T09:15:17Z</time>
      </trkpt>
      <trkpt lat="50.60293" lon="2.65071">
        <ele>15</ele>
        <time>2012-01-29T09:15:19Z</time>
      </trkpt>
      <trkpt lat="50.6028" lon="2.65079">
        <ele>15</ele>
        <time>2012-01-29T09:15:21Z</time>
      </trkpt>
      <trkpt lat="50.60269" lon="2.65088">
        <ele>15</ele>
        <time>2012-01-29T09:15:23Z</time>
      </trkpt>
      <trkpt lat="50.60257" lon="2.651">
        <ele>15</ele>
        <time>2012-01-29T09:15:25Z</time>
      </trkpt>
      <trkpt lat="50.60246" lon="2.65111">
        <ele>15</ele>
        <time>2012-01-29T09:15:27Z</time>
      </trkpt>
      <trkpt lat="50.60236" lon="2.65123">
        <ele>15</ele>
        <time>2012-01-29T09:15:29Z</time>
      </trkpt>
      <trkpt lat="50.60226" lon="2.65135">
        <ele>15</ele>
        <time>2012-01-29T09:15:31Z</time>
      </trkpt>
      <trkpt lat="50.60216" lon="2.65148">
        <ele>15</ele>
        <time>2012-01-29T09:15:33Z</time>
      </trkpt>
      <trkpt lat="50.60205" lon="2.65159">
        <ele>15</ele>
        <time>2012-01-29T09:15:35Z</time>
      </trkpt>
      <trkpt lat="50.60195" lon="2.65172">
        <ele>15</ele>
        <time>2012-01-29T09:15:37Z</time>
      </trkpt>
      <trkpt lat="50.60185" lon="2.65184">
        <ele>15</ele>
        <time>2012-01-29T09:15:39Z</time>
      </trkpt>
      <trkpt lat="50.60174" lon="2.65196">
        <ele>15</ele>
        <time>2012-01-29T09:15:41Z</time>
      </trkpt>
      <trkpt lat="50.60164" lon="2.65207">
        <ele>15</ele>
        <time>2012-01-29T09:15:43Z</time>
      </trkpt>
      <trkpt lat="50.60153" lon="2.65219">
        <ele>15</ele>
        <time>2012-01-29T09:15:45Z</time>
      </trkpt>
      <trkpt lat="50.60141" lon="2.65229">
        <ele>15</ele>
        <time>2012-01-29T09:15:47Z</time>
      </trkpt>
      <trkpt lat="50.6013" lon="2.65238">
        <ele>15</ele>
        <time>2012-01-29T09:15:49Z</time>
      </trkpt>
      <trkpt lat="50.60118" lon="2.65248">
        <ele>15</ele>
        <time>2012-01-29T09:15:51Z</time>
      </trkpt>
      <trkpt lat="50.60107" lon="2.6526">
        <ele>15</ele>
        <time>2012-01-29T09:15:53Z</time>
      </trkpt>
      <trkpt lat="50.60096" lon="2.65271">
        <ele>15</ele>
        <time>2012-01-29T09:15:55Z</time>
      </trkpt>
      <trkpt lat="50.60085" lon="2.65282">
        <ele>15</ele>
        <time>2012-01-29T09:15:57Z</time>
      </trkpt>
      <trkpt lat="50.60075" lon="2.65294">
        <ele>15</ele>
        <time>2012-01-29T09:15:59Z</time>
      </trkpt>
      <trkpt lat="50.60065" lon="2.65307">
        <ele>15</ele>
        <time>2012-01-29T09:16:01Z</time>
      </trkpt>
      <trkpt lat="50.60054" lon="2.65319">
        <ele>15</ele>
        <time>2012-01-29T09:16:03Z</time>
      </trkpt>
      <trkpt lat="50.60043" lon="2.65334">
        <ele>15</ele>
        <time>2012-01-29T09:16:05Z</time>
      </trkpt>
      <trkpt lat="50.60033" lon="2.65348">
        <ele>15</ele>
        <time>2012-01-29T09:16:07Z</time>
      </trkpt>
      <trkpt lat="50.60023" lon="2.65363">
        <ele>15</ele>
        <time>2012-01-29T09:16:09Z</time>
      </trkpt>
      <trkpt lat="50.60013" lon="2.65379">
        <ele>15</ele>
        <time>2012-01-29T09:16:11Z</time>
      </trkpt>
      <trkpt lat="50.60003" lon="2.65394">
        <ele>15</ele>
        <time>2012-01-29T09:16:13Z</time>
      </trkpt>
      <trkpt lat="50.59993" lon="2.65409">
        <ele>15</ele>
        <time>2012-01-29T09:16:15Z</time>
      </trkpt>
      <trkpt lat="50.59983" lon="2.65425">
        <ele>15</ele>
        <time>2012-01-29T09:16:17Z</time>
      </trkpt>
      <trkpt lat="50.59973" lon="2.65441">
        <ele>15</ele>
        <time>2012-01-29T09:16:19Z</time>
      </trkpt>
      <trkpt lat="50.59962" lon="2.65456">
        <ele>15</ele>
        <time>2012-01-29T09:16:21Z</time>
      </trkpt>
      <trkpt lat="50.59953" lon="2.65472">
        <ele>15</ele>
        <time>2012-01-29T09:16:23Z</time>
      </trkpt>
      <trkpt lat="50.59942" lon="2.65487">
        <ele>15</ele>
        <time>2012-01-29T09:16:25Z</time>
      </trkpt>
      <trkpt lat="50.59933" lon="2.65503">
        <ele>15</ele>
        <time>2012-01-29T09:16:27Z</time>
      </trkpt>
      <trkpt lat="50.59922" lon="2.65519">
        <ele>15</ele>
        <time>2012-01-29T09:16:29Z</time>
      </trkpt>
      <trkpt lat="50.59913" lon="2.65534">
        <ele>15</ele>
        <time>2012-01-29T09:16:31Z</time>
      </trkpt>
      <trkpt lat="50.59902" lon="2.65549">
        <ele>15</ele>
        <time>2012-01-29T09:16:33Z</time>
      </trkpt>
      <trkpt lat="50.59893" lon="2.65565">
        <ele>15</ele>
        <time>2012-01-29T09:16:35Z</time>
      </trkpt>
      <trkpt lat="50.59883" lon="2.65579">
        <ele>15</ele>
        <time>2012-01-29T09:16:37Z</time>
      </trkpt>
      <trkpt lat="50.59874" lon="2.65593">
        <ele>15</ele>
        <time>2012-01-29T09:16:39Z</time>
      </trkpt>
      <trkpt lat="50.59865" lon="2.65608">
        <ele>15</ele>
        <time>2012-01-29T09:16:41Z</time>
      </trkpt>
      <trkpt lat="50.59856" lon="2.6562">
        <ele>15</ele>
        <time>2012-01-29T09:16:43Z</time>
      </trkpt>
      <trkpt lat="50.59847" lon="2.65633">
        <ele>15</ele>
        <time>2012-01-29T09:16:45Z</time>
      </trkpt>
      <trkpt lat="50.59838" lon="2.65644">
        <ele>15</ele>
        <time>2012-01-29T09:16:47Z</time>
      </trkpt>
      <trkpt lat="50.59828" lon="2.65647">
        <ele>15</ele>
        <time>2012-01-29T09:16:49Z</time>
      </trkpt>
      <trkpt lat="50.5982" lon="2.65636">
        <ele>15</ele>
        <time>2012-01-29T09:16:51Z</time>
      </trkpt>
      <trkpt lat="50.59815" lon="2.65622">
        <ele>15</ele>
        <time>2012-01-29T09:16:53Z</time>
      </trkpt>
      <trkpt lat="50.59808" lon="2.65604">
        <ele>15</ele>
        <time>2012-01-29T09:16:55Z</time>
      </trkpt>
      <trkpt lat="50.59802" lon="2.65585">
        <ele>15</ele>
        <time>2012-01-29T09:16:57Z</time>
      </trkpt>
      <trkpt lat="50.59795" lon="2.65566">
        <ele>15</ele>
        <time>2012-01-29T09:16:59Z</time>
      </trkpt>
      <trkpt lat="50.59787" lon="2.65547">
        <ele>15</ele>
        <time>2012-01-29T09:17:01Z</time>
      </trkpt>
      <trkpt lat="50.59779" lon="2.65527">
        <ele>15</ele>
        <time>2012-01-29T09:17:03Z</time>
      </trkpt>
      <trkpt lat="50.59771" lon="2.65506">
        <ele>15</ele>
        <time>2012-01-29T09:17:05Z</time>
      </trkpt>
      <trkpt lat="50.59764" lon="2.65485">
        <ele>15</ele>
        <time>2012-01-29T09:17:07Z</time>
      </trkpt>
      <trkpt lat="50.59756" lon="2.65465">
        <ele>15</ele>
        <time>2012-01-29T09:17:09Z</time>
      </trkpt>
      <trkpt lat="50.59748" lon="2.65443">
        <ele>15</ele>
        <time>2012-01-29T09:17:11Z</time>
      </trkpt>
      <trkpt lat="50.5974" lon="2.65423">
        <ele>15</ele>
        <time>2012-01-29T09:17:13Z</time>
      </trkpt>
      <trkpt lat="50.59731" lon="2.65402">
        <ele>15</ele>
        <time>2012-01-29T09:17:15Z</time>
      </trkpt>
      <trkpt lat="50.59723" lon="2.65381">
        <ele>15</ele>
        <time>2012-01-29T09:17:17Z</time>
      </trkpt>
      <trkpt lat="50.59715" lon="2.65361">
        <ele>15</ele>
        <time>2012-01-29T09:17:19Z</time>
      </trkpt>
      <trkpt lat="50.59707" lon="2.6534">
        <ele>15</ele>
        <time>2012-01-29T09:17:21Z</time>
      </trkpt>
      <trkpt lat="50.59699" lon="2.6532">
        <ele>15</ele>
        <time>2012-01-29T09:17:23Z</time>
      </trkpt>
      <trkpt lat="50.5969" lon="2.653">
        <ele>15</ele>
        <time>2012-01-29T09:17:25Z</time>
      </trkpt>
      <trkpt lat="50.59682" lon="2.65281">
        <ele>15</ele>
        <time>2012-01-29T09:17:27Z</time>
      </trkpt>
      <trkpt lat="50.59674" lon="2.65259">
        <ele>15</ele>
        <time>2012-01-29T09:17:29Z</time>
      </trkpt>
      <trkpt lat="50.59666" lon="2.65238">
        <ele>15</ele>
        <time>2012-01-29T09:17:31Z</time>
      </trkpt>
      <trkpt lat="50.59658" lon="2.65217">
        <ele>15</ele>
        <time>2012-01-29T09:17:33Z</time>
      </trkpt>
      <trkpt lat="50.5965" lon="2.65195">
        <ele>15</ele>
        <time>2012-01-29T09:17:35Z</time>
      </trkpt>
      <trkpt lat="50.5964" lon="2.65174">
        <ele>15</ele>
        <time>2012-01-29T09:17:37Z</time>
      </trkpt>
      <trkpt lat="50.59632" lon="2.65152">
        <ele>15</ele>
        <time>2012-01-29T09:17:39Z</time>
      </trkpt>
      <trkpt lat="50.59624" lon="2.65131">
        <ele>15</ele>
        <time>2012-01-29T09:17:41Z</time>
      </trkpt>
      <trkpt lat="50.59616" lon="2.6511">
        <ele>15</ele>
        <time>2012-01-29T09:17:43Z</time>
      </trkpt>
      <trkpt lat="50.59607" lon="2.65089">
        <ele>15</ele>
        <time>2012-01-29T09:17:45Z</time>
      </trkpt>
      <trkpt lat="50.59599" lon="2.65069">
        <ele>15</ele>
        <time>2012-01-29T09:17:47Z</time>
      </trkpt>
      <trkpt lat="50.59591" lon="2.65048">
        <ele>15</ele>
        <time>2012-01-29T09:17:49Z</time>
      </trkpt>
      <trkpt lat="50.59583" lon="2.65027">
        <ele>15</ele>
        <time>2012-01-29T09:17:51Z</time>
      </trkpt>
      <trkpt lat="50.59575" lon="2.65008">
        <ele>15</ele>
        <time>2012-01-29T09:17:53Z</time>
      </trkpt>
      <trkpt lat="50.59568" lon="2.6499">
        <ele>15</ele>
        <time>2012-01-29T09:17:55Z</time>
      </trkpt>
      <trkpt lat="50.5956" lon="2.64972">
        <ele>15</ele>
        <time>2012-01-29T09:17:57Z</time>
      </trkpt>
      <trkpt lat="50.59553" lon="2.64951">
        <ele>15</ele>
        <time>2012-01-29T09:17:59Z</time>
      </trkpt>
      <trkpt lat="50.59548" lon="2.64929">
        <ele>15</ele>
        <time>2012-01-29T09:18:01Z</time>
      </trkpt>
      <trkpt lat="50.59545" lon="2.64907">
        <ele>15</ele>
        <time>2012-01-29T09:18:03Z</time>
      </trkpt>
      <trkpt lat="50.59542" lon="2.64884">
        <ele>15</ele>
        <time>2012-01-29T09:18:05Z</time>
      </trkpt>
      <trkpt lat="50.59536" lon="2.64861">
        <ele>15</ele>
        <time>2012-01-29T09:18:07Z</time>
      </trkpt>
      <trkpt lat="50.59527" lon="2.64841">
        <ele>15</ele>
        <time>2012-01-29T09:18:09Z</time>
      </trkpt>
      <trkpt lat="50.59515" lon="2.64823">
        <ele>15</ele>
        <time>2012-01-29T09:18:11Z</time>
      </trkpt>
      <trkpt lat="50.59504" lon="2.64805">
        <ele>15</ele>
        <time>2012-01-29T09:18:13Z</time>
      </trkpt>
      <trkpt lat="50.59493" lon="2.64787">
        <ele>15</ele>
        <time>2012-01-29T09:18:15Z</time>
      </trkpt>
      <trkpt lat="50.59484" lon="2.64767">
        <ele>15</ele>
        <time>2012-01-29T09:18:17Z</time>
      </trkpt>
      <trkpt lat="50.59475" lon="2.64747">
        <ele>15</ele>
        <time>2012-01-29T09:18:19Z</time>
      </trkpt>
      <trkpt lat="50.59465" lon="2.64726">
        <ele>15</ele>
        <time>2012-01-29T09:18:21Z</time>
      </trkpt>
      <trkpt lat="50.59456" lon="2.64706">
        <ele>15</ele>
        <time>2012-01-29T09:18:23Z</time>
      </trkpt>
      <trkpt lat="50.59447" lon="2.64685">
        <ele>15</ele>
        <time>2012-01-29T09:18:25Z</time>
      </trkpt>
      <trkpt lat="50.59437" lon="2.64664">
        <ele>15</ele>
        <time>2012-01-29T09:18:27Z</time>
      </trkpt>
      <trkpt lat="50.59428" lon="2.64643">
        <ele>15</ele>
        <time>2012-01-29T09:18:29Z</time>
      </trkpt>
      <trkpt lat="50.59418" lon="2.64622">
        <ele>15</ele>
        <time>2012-01-29T09:18:31Z</time>
      </trkpt>
      <trkpt lat="50.59408" lon="2.64601">
        <ele>15</ele>
        <time>2012-01-29T09:18:33Z</time>
      </trkpt>
      <trkpt lat="50.59399" lon="2.6458">
        <ele>15</ele>
        <time>2012-01-29T09:18:35Z</time>
      </trkpt>
      <trkpt lat="50.59389" lon="2.64558">
        <ele>15</ele>
        <time>2012-01-29T09:18:37Z</time>
      </trkpt>
      <trkpt lat="50.59379" lon="2.64538">
        <ele>15</ele>
        <time>2012-01-29T09:18:39Z</time>
      </trkpt>
      <trkpt lat="50.5937" lon="2.64516">
        <ele>15</ele>
        <time>2012-01-29T09:18:41Z</time>
      </trkpt>
      <trkpt lat="50.59361" lon="2.64496">
        <ele>15</ele>
        <time>2012-01-29T09:18:43Z</time>
      </trkpt>
      <trkpt lat="50.59353" lon="2.64478">
        <ele>15</ele>
        <time>2012-01-29T09:18:45Z</time>
      </trkpt>
      <trkpt lat="50.59345" lon="2.64461">
        <ele>15</ele>
        <time>2012-01-29T09:18:47Z</time>
      </trkpt>
      <trkpt lat="50.59337" lon="2.64444">
        <ele>15</ele>
        <time>2012-01-29T09:18:49Z</time>
      </trkpt>
      <trkpt lat="50.59329" lon="2.64428">
        <ele>15</ele>
        <time>2012-01-29T09:18:51Z</time>
      </trkpt>
      <trkpt lat="50.59321" lon="2.64411">
        <ele>15</ele>
        <time>2012-01-29T09:18:53Z</time>
      </trkpt>
      <trkpt lat="50.59313" lon="2.64393">
        <ele>15</ele>
        <time>2012-01-29T09:18:55Z</time>
      </trkpt>
      <trkpt lat="50.59305" lon="2.64376">
        <ele>15</ele>
        <time>2012-01-29T09:18:57Z</time>
      </trkpt>
      <trkpt lat="50.59297" lon="2.64359">
        <ele>15</ele>
        <time>2012-01-29T09:18:59Z</time>
      </trkpt>
      <trkpt lat="50.59289" lon="2.64341">
        <ele>15</ele>
        <time>2012-01-29T09:19:01Z</time>
      </trkpt>
      <trkpt lat="50.59281" lon="2.64324">
        <ele>15</ele>
        <time>2012-01-29T09:19:03Z</time>
      </trkpt>
      <trkpt lat="50.59273" lon="2.64308">
        <ele>15</ele>
        <time>2012-01-29T09:19:05Z</time>
      </trkpt>
      <trkpt lat="50.59265" lon="2.64292">
        <ele>15</ele>
        <time>2012-01-29T09:19:07Z</time>
      </trkpt>
      <trkpt lat="50.5926" lon="2.64276">
        <ele>15</ele>
        <time>2012-01-29T09:19:09Z</time>
      </trkpt>
      <trkpt lat="50.59257" lon="2.64257">
        <ele>15</ele>
        <time>2012-01-29T09:19:11Z</time>
      </trkpt>
      <trkpt lat="50.59253" lon="2.6424">
        <ele>15</ele>
        <time>2012-01-29T09:19:13Z</time>
      </trkpt>
      <trkpt lat="50.59244" lon="2.64226">
        <ele>15</ele>
        <time>2012-01-29T09:19:15Z</time>
      </trkpt>
      <trkpt lat="50.59232" lon="2.64215">
        <ele>15</ele>
        <time>2012-01-29T09:19:17Z</time>
      </trkpt>
      <trkpt lat="50.59223" lon="2.64199">
        <ele>15</ele>
        <time>2012-01-29T09:19:19Z</time>
      </trkpt>
      <trkpt lat="50.59214" lon="2.6418">
        <ele>15</ele>
        <time>2012-01-29T09:19:21Z</time>
      </trkpt>
      <trkpt lat="50.59205" lon="2.64162">
        <ele>15</ele>
        <time>2012-01-29T09:19:23Z</time>
      </trkpt>
      <trkpt lat="50.59197" lon="2.6414">
        <ele>15</ele>
        <time>2012-01-29T09:19:25Z</time>
      </trkpt>
      <trkpt lat="50.59193" lon="2.64116">
        <ele>15</ele>
        <time>2012-01-29T09:19:27Z</time>
      </trkpt>
      <trkpt lat="50.5919" lon="2.64091">
        <ele>15</ele>
        <time>2012-01-29T09:19:29Z</time>
      </trkpt>
      <trkpt lat="50.59187" lon="2.64068">
        <ele>15</ele>
        <time>2012-01-29T09:19:31Z</time>
      </trkpt>
      <trkpt lat="50.59184" lon="2.64044">
        <ele>15</ele>
        <time>2012-01-29T09:19:33Z</time>
      </trkpt>
      <trkpt lat="50.59181" lon="2.64019">
        <ele>15</ele>
        <time>2012-01-29T09:19:35Z</time>
      </trkpt>
      <trkpt lat="50.59178" lon="2.63995">
        <ele>15</ele>
        <time>2012-01-29T09:19:37Z</time>
      </trkpt>
      <trkpt lat="50.59176" lon="2.63971">
        <ele>15</ele>
        <time>2012-01-29T09:19:39Z</time>
      </trkpt>
      <trkpt lat="50.59174" lon="2.63948">
        <ele>15</ele>
        <time>2012-01-29T09:19:41Z</time>
      </trkpt>
      <trkpt lat="50.59172" lon="2.63925">
        <ele>15</ele>
        <time>2012-01-29T09:19:43Z</time>
      </trkpt>
      <trkpt lat="50.5917" lon="2.63903">
        <ele>15</ele>
        <time>2012-01-29T09:19:45Z</time>
      </trkpt>
      <trkpt lat="50.59169" lon="2.6388">
        <ele>15</ele>
        <time>2012-01-29T09:19:47Z</time>
      </trkpt>
      <trkpt lat="50.59166" lon="2.63857">
        <ele>15</ele>
        <time>2012-01-29T09:19:49Z</time>
      </trkpt>
      <trkpt lat="50.59165" lon="2.63833">
        <ele>15</ele>
        <time>2012-01-29T09:19:51Z</time>
      </trkpt>
      <trkpt lat="50.59162" lon="2.6381">
        <ele>15</ele>
        <time>2012-01-29T09:19:53Z</time>
      </trkpt>
      <trkpt lat="50.5916" lon="2.63787">
        <ele>15</ele>
        <time>2012-01-29T09:19:55Z</time>
      </trkpt>
      <trkpt lat="50.59158" lon="2.63763">
        <ele>15</ele>
        <time>2012-01-29T09:19:57Z</time>
      </trkpt>
      <trkpt lat="50.59155" lon="2.6374">
        <ele>15</ele>
        <time>2012-01-29T09:19:59Z</time>
      </trkpt>
      <trkpt lat="50.59153" lon="2.63717">
        <ele>15</ele>
        <time>2012-01-29T09:20:01Z</time>
      </trkpt>
      <trkpt lat="50.5915" lon="2.63692">
        <ele>15</ele>
        <time>2012-01-29T09:20:03Z</time>
      </trkpt>
      <trkpt lat="50.59146" lon="2.63668">
        <ele>15</ele>
        <time>2012-01-29T09:20:05Z</time>
      </trkpt>
      <trkpt lat="50.59143" lon="2.63643">
        <ele>15</ele>
        <time>2012-01-29T09:20:07Z</time>
      </trkpt>
      <trkpt lat="50.5914" lon="2.63619">
        <ele>15</ele>
        <time>2012-01-29T09:20:09Z</time>
      </trkpt>
      <trkpt lat="50.59137" lon="2.63594">
        <ele>15</ele>
        <time>2012-01-29T09:20:11Z</time>
      </trkpt>
      <trkpt lat="50.59133" lon="2.63568">
        <ele>15</ele>
        <time>2012-01-29T09:20:13Z</time>
      </trkpt>
      <trkpt lat="50.59129" lon="2.63542">
        <ele>15</ele>
        <time>2012-01-29T09:20:15Z</time>
      </trkpt>
      <trkpt lat="50.59126" lon="2.63516">
        <ele>15</ele>
        <time>2012-01-29T09:20:17Z</time>
      </trkpt>
      <trkpt lat="50.59122" lon="2.63491">
        <ele>15</ele>
        <time>2012-01-29T09:20:19Z</time>
      </trkpt>
      <trkpt lat="50.59118" lon="2.63465">
        <ele>15</ele>
        <time>2012-01-29T09:20:21Z</time>
      </trkpt>
      <trkpt lat="50.59116" lon="2.6344">
        <ele>15</ele>
        <time>2012-01-29T09:20:23Z</time>
      </trkpt>
      <trkpt lat="50.59117" lon="2.63413">
        <ele>15</ele>
        <time>2012-01-29T09:20:25Z</time>
      </trkpt>
      <trkpt lat="50.59121" lon="2.63388">
        <ele>15</ele>
        <time>2012-01-29T09:20:27Z</time>
      </trkpt>
      <trkpt lat="50.59128" lon="2.63365">
        <ele>15</ele>
        <time>2012-01-29T09:20:29Z</time>
      </trkpt>
      <trkpt lat="50.59135" lon="2.63343">
        <ele>15</ele>
        <time>2012-01-29T09:20:31Z</time>
      </trkpt>
      <trkpt lat="50.59141" lon="2.63321">
        <ele>15</ele>
        <time>2012-01-29T09:20:33Z</time>
      </trkpt>
      <trkpt lat="50.59138" lon="2.63301">
        <ele>15</ele>
        <time>2012-01-29T09:20:35Z</time>
      </trkpt>
      <trkpt lat="50.59129" lon="2.63285">
        <ele>15</ele>
        <time>2012-01-29T09:20:37Z</time>
      </trkpt>
      <trkpt lat="50.59117" lon="2.63274">
        <ele>15</ele>
        <time>2012-01-29T09:20:39Z</time>
      </trkpt>
      <trkpt lat="50.59103" lon="2.63263">
        <ele>15</ele>
        <time>2012-01-29T09:20:41Z</time>
      </trkpt>
      <trkpt lat="50.59089" lon="2.6325">
        <ele>15</ele>
        <time>2012-01-29T09:20:43Z</time>
      </trkpt>
      <trkpt lat="50.59075" lon="2.63238">
        <ele>15</ele>
        <time>2012-01-29T09:20:45Z</time>
      </trkpt>
      <trkpt lat="50.59061" lon="2.63226">
        <ele>15</ele>
        <time>2012-01-29T09:20:47Z</time>
      </trkpt>
      <trkpt lat="50.59047" lon="2.63214">
        <ele>15</ele>
        <time>2012-01-29T09:20:49Z</time>
      </trkpt>
      <trkpt lat="50.59033" lon="2.63202">
        <ele>15</ele>
        <time>2012-01-29T09:20:51Z</time>
      </trkpt>
      <trkpt lat="50.59019" lon="2.6319">
        <ele>15</ele>
        <time>2012-01-29T09:20:53Z</time>
      </trkpt>
      <trkpt lat="50.59004" lon="2.63179">
        <ele>15</ele>
        <time>2012-01-29T09:20:55Z</time>
      </trkpt>
      <trkpt lat="50.58989" lon="2.63169">
        <ele>15</ele>
        <time>2012-01-29T09:20:57Z</time>
      </trkpt>
      <trkpt lat="50.58974" lon="2.63159">
        <ele>15</ele>
        <time>2012-01-29T09:20:59Z</time>
      </trkpt>
      <trkpt lat="50.58959" lon="2.63149">
        <ele>15</ele>
        <time>2012-01-29T09:21:01Z</time>
      </trkpt>
      <trkpt lat="50.58944" lon="2.63139">
        <ele>15</ele>
        <time>2012-01-29T09:21:03Z</time>
      </trkpt>
      <trkpt lat="50.58929" lon="2.63128">
        <ele>15</ele>
        <time>2012-01-29T09:21:05Z</time>
      </trkpt>
      <trkpt lat="50.58915" lon="2.63117">
        <ele>15</ele>
        <time>2012-01-29T09:21:07Z</time>
      </trkpt>
      <trkpt lat="50.589" lon="2.63106">
        <ele>15</ele>
        <time>2012-01-29T09:21:09Z</time>
      </trkpt>
      <trkpt lat="50.58886" lon="2.63094">
        <ele>15</ele>
        <time>2012-01-29T09:21:11Z</time>
      </trkpt>
      <trkpt lat="50.58871" lon="2.63082">
        <ele>15</ele>
        <time>2012-01-29T09:21:13Z</time>
      </trkpt>
      <trkpt lat="50.58857" lon="2.63071">
        <ele>15</ele>
        <time>2012-01-29T09:21:15Z</time>
      </trkpt>
      <trkpt lat="50.58842" lon="2.63059">
        <ele>15</ele>
        <time>2012-01-29T09:21:17Z</time>
      </trkpt>
      <trkpt lat="50.58828" lon="2.63046">
        <ele>15</ele>
        <time>2012-01-29T09:21:19Z</time>
      </trkpt>
      <trkpt lat="50.58814" lon="2.63032">
        <ele>15</ele>
        <time>2012-01-29T09:21:21Z</time>
      </trkpt>
      <trkpt lat="50.588" lon="2.63018">
        <ele>15</ele>
        <time>2012-01-29T09:21:23Z</time>
      </trkpt>
      <trkpt lat="50.58787" lon="2.63003">
        <ele>15</ele>
        <time>2012-01-29T09:21:25Z</time>
      </trkpt>
      <trkpt lat="50.58772" lon="2.6299">
        <ele>15</ele>
        <time>2012-01-29T09:21:27Z</time>
      </trkpt>
      <trkpt lat="50.58758" lon="2.62977">
        <ele>15</ele>
        <time>2012-01-29T09:21:29Z</time>
      </trkpt>
      <trkpt lat="50.58743" lon="2.62967">
        <ele>15</ele>
        <time>2012-01-29T09:21:31Z</time>
      </trkpt>
      <trkpt lat="50.58728" lon="2.62958">
        <ele>15</ele>
        <time>2012-01-29T09:21:33Z</time>
      </trkpt>
      <trkpt lat="50.58713" lon="2.6295">
        <ele>15</ele>
        <time>2012-01-29T09:21:35Z</time>
      </trkpt>
      <trkpt lat="50.58698" lon="2.62941">
        <ele>15</ele>
        <time>2012-01-29T09:21:37Z</time>
      </trkpt>
      <trkpt lat="50.58683" lon="2.62934">
        <ele>15</ele>
        <time>2012-01-29T09:21:39Z</time>
      </trkpt>
      <trkpt lat="50.58667" lon="2.62931">
        <ele>15</ele>
        <time>2012-01-29T09:21:41Z</time>
      </trkpt>
      <trkpt lat="50.58652" lon="2.62933">
        <ele>15</ele>
        <time>2012-01-29T09:21:43Z</time>
      </trkpt>
      <trkpt lat="50.58636" lon="2.62939">
        <ele>15</ele>
        <time>2012-01-29T09:21:45Z</time>
      </trkpt>
      <trkpt lat="50.5862" lon="2.62941">
        <ele>15</ele>
        <time>2012-01-29T09:21:47Z</time>
      </trkpt>
      <trkpt lat="50.58604" lon="2.62942">
        <ele>15</ele>
        <time>2012-01-29T09:21:49Z</time>
      </trkpt>
      <trkpt lat="50.58588" lon="2.62941">
        <ele>15</ele>
        <time>2012-01-29T09:21:51Z</time>
      </trkpt>
      <trkpt lat="50.58573" lon="2.62941">
        <ele>15</ele>
        <time>2012-01-29T09:21:53Z</time>
      </trkpt>
      <trkpt lat="50.58558" lon="2.62945">
        <ele>15</ele>
        <time>2012-01-29T09:21:55Z</time>
      </trkpt>
      <trkpt lat="50.58544" lon="2.62954">
        <ele>15</ele>
        <time>2012-01-29T09:21:57Z</time>
      </trkpt>
      <trkpt lat="50.58532" lon="2.62967">
        <ele>15</ele>
        <time>2012-01-29T09:21:59Z</time>
      </trkpt>
      <trkpt lat="50.58519" lon="2.6298">
        <ele>15</ele>
        <time>2012-01-29T09:22:01Z</time>
      </trkpt>
      <trkpt lat="50.58507" lon="2.62994">
        <ele>15</ele>
        <time>2012-01-29T09:22:03Z</time>
      </trkpt>
      <trkpt lat="50.58495" lon="2.63006">
        <ele>15</ele>
        <time>2012-01-29T09:22:05Z</time>
      </trkpt>
      <trkpt lat="50.58482" lon="2.63018">
        <ele>15</ele>
        <time>2012-01-29T09:22:07Z</time>
      </trkpt>
      <trkpt lat="50.58469" lon="2.63024">
        <ele>15</ele>
        <time>2012-01-29T09:22:09Z</time>
      </trkpt>
      <trkpt lat="50.58454" lon="2.63023">
        <ele>15</ele>
        <time>2012-01-29T09:22:11Z</time>
      </trkpt>
      <trkpt lat="50.58441" lon="2.63016">
        <ele>15</ele>
        <time>2012-01-29T09:22:13Z</time>
      </trkpt>
      <trkpt lat="50.58427" lon="2.63006">
        <ele>15</ele>
        <time>2012-01-29T09:22:15Z</time>
      </trkpt>
      <trkpt lat="50.58413" lon="2.62996">
        <ele>15</ele>
        <time>2012-01-29T09:22:17Z</time>
      </trkpt>
      <trkpt lat="50.58399" lon="2.62986">
        <ele>15</ele>
        <time>2012-01-29T09:22:19Z</time>
      </trkpt>
      <trkpt lat="50.58385" lon="2.62976">
        <ele>15</ele>
        <time>2012-01-29T09:22:21Z</time>
      </trkpt>
      <trkpt lat="50.58371" lon="2.62967">
        <ele>15</ele>
        <time>2012-01-29T09:22:23Z</time>
      </trkpt>
      <trkpt lat="50.58357" lon="2.62955">
        <ele>15</ele>
        <time>2012-01-29T09:22:25Z</time>
      </trkpt>
      <trkpt lat="50.58342" lon="2.62942">
        <ele>15</ele>
        <time>2012-01-29T09:22:27Z</time>
      </trkpt>
      <trkpt lat="50.58328" lon="2.62931">
        <ele>15</ele>
        <time>2012-01-29T09:22:29Z</time>
      </trkpt>
      <trkpt lat="50.58313" lon="2.6292">
        <ele>15</ele>
        <time>2012-01-29T09:22:31Z</time>
      </trkpt>
      <trkpt lat="50.58298" lon="2.62909">
        <ele>15</ele>
        <time>2012-01-29T09:22:33Z</time>
      </trkpt>
      <trkpt lat="50.58283" lon="2.62897">
        <ele>15</ele>
        <time>2012-01-29T09:22:35Z</time>
      </trkpt>
      <trkpt lat="50.58268" lon="2.62886">
        <ele>15</ele>
        <time>2012-01-29T09:22:37Z</time>
      </trkpt>
      <trkpt lat="50.58252" lon="2.62874">
        <ele>15</ele>
        <time>2012-01-29T09:22:39Z</time>
      </trkpt>
      <trkpt lat="50.58237" lon="2.62862">
        <ele>15</ele>
        <time>2012-01-29T09:22:41Z</time>
      </trkpt>
      <trkpt lat="50.58222" lon="2.62852">
        <ele>15</ele>
        <time>2012-01-29T09:22:43Z</time>
      </trkpt>
      <trkpt lat="50.58206" lon="2.6284">
        <ele>15</ele>
        <time>2012-01-29T09:22:45Z</time>
      </trkpt>
      <trkpt lat="50.58191" lon="2.62828">
        <ele>15</ele>
        <time>2012-01-29T09:22:47Z</time>
      </trkpt>
      <trkpt lat="50.58176" lon="2.62817">
        <ele>15</ele>
        <time>2012-01-29T09:22:49Z</time>
      </trkpt>
      <trkpt lat="50.5816" lon="2.62807">
        <ele>15</ele>
        <time>2012-01-29T09:22:51Z</time>
      </trkpt>
      <trkpt lat="50.58146" lon="2.62795">
        <ele>15</ele>
        <time>2012-01-29T09:22:53Z</time>
      </trkpt>
      <trkpt lat="50.58131" lon="2.62783">
        <ele>15</ele>
        <time>2012-01-29T09:22:55Z</time>
      </trkpt>
      <trkpt lat="50.58117" lon="2.62773">
        <ele>15</ele>
        <time>2012-01-29T09:22:57Z</time>
      </trkpt>
      <trkpt lat="50.58102" lon="2.62762">
        <ele>15</ele>
        <time>2012-01-29T09:22:59Z</time>
      </trkpt>
      <trkpt lat="50.58087" lon="2.62751">
        <ele>15</ele>
        <time>2012-01-29T09:23:01Z</time>
      </trkpt>
      <trkpt lat="50.58072" lon="2.62739">
        <ele>15</ele>
        <time>2012-01-29T09:23:03Z</time>
      </trkpt>
      <trkpt lat="50.58057" lon="2.62729">
        <ele>15</ele>
        <time>2012-01-29T09:23:05Z</time>
      </trkpt>
      <trkpt lat="50.58042" lon="2.62717">
        <ele>15</ele>
        <time>2012-01-29T09:23:07Z</time>
      </trkpt>
      <trkpt lat="50.58027" lon="2.62706">
        <ele>15</ele>
        <time>2012-01-29T09:23:09Z</time>
      </trkpt>
      <trkpt lat="50.58013" lon="2.62695">
        <ele>15</ele>
        <time>2012-01-29T09:23:11Z</time>
      </trkpt>
      <trkpt lat="50.57998" lon="2.62683">
        <ele>15</ele>
        <time>2012-01-29T09:23:13Z</time>
      </trkpt>
      <trkpt lat="50.57984" lon="2.62672">
        <ele>15</ele>
        <time>2012-01-29T09:23:15Z</time>
      </trkpt>
      <trkpt lat="50.57969" lon="2.62661">
        <ele>15</ele>
        <time>2012-01-29T09:23:17Z</time>
      </trkpt>
      <trkpt lat="50.57954" lon="2.62649">
        <ele>15</ele>
        <time>2012-01-29T09:23:19Z</time>
      </trkpt>
      <trkpt lat="50.57938" lon="2.62638">
        <ele>15</ele>
        <time>2012-01-29T09:23:21Z</time>
      </trkpt>
      <trkpt lat="50.57924" lon="2.62626">
        <ele>15</ele>
        <time>2012-01-29T09:23:23Z</time>
      </trkpt>
      <trkpt lat="50.57908" lon="2.62615">
        <ele>15</ele>
        <time>2012-01-29T09:23:25Z</time>
      </trkpt>
      <trkpt lat="50.57893" lon="2.62604">
        <ele>15</ele>
        <time>2012-01-29T09:23:27Z</time>
      </trkpt>
      <trkpt lat="50.57878" lon="2.62593">
        <ele>15</ele>
        <time>2012-01-29T09:23:29Z</time>
      </trkpt>
      <trkpt lat="50.57864" lon="2.62582">
        <ele>15</ele>
        <time>2012-01-29T09:23:31Z</time>
      </trkpt>
      <trkpt lat="50.5785" lon="2.6257">
        <ele>15</ele>
        <time>2012-01-29T09:23:33Z</time>
      </trkpt>
      <trkpt lat="50.57836" lon="2.62559">
        <ele>15</ele>
        <time>2012-01-29T09:23:35Z</time>
      </trkpt>
      <trkpt lat="50.57822" lon="2.62549">
        <ele>15</ele>
        <time>2012-01-29T09:23:37Z</time>
      </trkpt>
      <trkpt lat="50.57806" lon="2.62541">
        <ele>15</ele>
        <time>2012-01-29T09:23:39Z</time>
      </trkpt>
      <trkpt lat="50.57791" lon="2.62535">
        <ele>15</ele>
        <time>2012-01-29T09:23:41Z</time>
      </trkpt>
      <trkpt lat="50.57776" lon="2.62534">
        <ele>15</ele>
        <time>2012-01-29T09:23:43Z</time>
      </trkpt>
      <trkpt lat="50.57761" lon="2.62535">
        <ele>15</ele>
        <time>2012-01-29T09:23:45Z</time>
      </trkpt>
      <trkpt lat="50.57747" lon="2.62536">
        <ele>15</ele>
        <time>2012-01-29T09:23:47Z</time>
      </trkpt>
      <trkpt lat="50.57733" lon="2.62538">
        <ele>15</ele>
        <time>2012-01-29T09:23:49Z</time>
      </trkpt>
      <trkpt lat="50.57719" lon="2.6254">
        <ele>20</ele>
        <time>2012-01-29T09:23:51Z</time>
      </trkpt>
      <trkpt lat="50.57707" lon="2.62541">
        <ele>20</ele>
        <time>2012-01-29T09:23:53Z</time>
      </trkpt>
      <trkpt lat="50.57694" lon="2.62542">
        <ele>20</ele>
        <time>2012-01-29T09:23:55Z</time>
      </trkpt>
      <trkpt lat="50.57682" lon="2.62543">
        <ele>20</ele>
        <time>2012-01-29T09:23:57Z</time>
      </trkpt>
      <trkpt lat="50.5767" lon="2.62544">
        <ele>20</ele>
        <time>2012-01-29T09:23:59Z</time>
      </trkpt>
      <trkpt lat="50.57658" lon="2.62543">
        <ele>20</ele>
        <time>2012-01-29T09:24:01Z</time>
      </trkpt>
      <trkpt lat="50.57647" lon="2.62538">
        <ele>20</ele>
        <time>2012-01-29T09:24:03Z</time>
      </trkpt>
      <trkpt lat="50.57636" lon="2.62532">
        <ele>20</ele>
        <time>2012-01-29T09:24:05Z</time>
      </trkpt>
      <trkpt lat="50.57627" lon="2.62525">
        <ele>20</ele>
        <time>2012-01-29T09:24:07Z</time>
      </trkpt>
      <trkpt lat="50.57619" lon="2.62516">
        <ele>20</ele>
        <time>2012-01-29T09:24:09Z</time>
      </trkpt>
      <trkpt lat="50.5761" lon="2.62506">
        <ele>20</ele>
        <time>2012-01-29T09:24:11Z</time>
      </trkpt>
      <trkpt lat="50.57602" lon="2.62496">
        <ele>20</ele>
        <time>2012-01-29T09:24:13Z</time>
      </trkpt>
      <trkpt lat="50.57594" lon="2.62486">
        <ele>20</ele>
        <time>2012-01-29T09:24:15Z</time>
      </trkpt>
      <trkpt lat="50.57584" lon="2.62476">
        <ele>20</ele>
        <time>2012-01-29T09:24:17Z</time>
      </trkpt>
      <trkpt lat="50.57575" lon="2.62465">
        <ele>20</ele>
        <time>2012-01-29T09:24:19Z</time>
      </trkpt>
      <trkpt lat="50.57566" lon="2.62453">
        <ele>20</ele>
        <time>2012-01-29T09:24:21Z</time>
      </trkpt>
      <trkpt lat="50.57556" lon="2.62439">
        <ele>20</ele>
        <time>2012-01-29T09:24:23Z</time>
      </trkpt>
      <trkpt lat="50.57546" lon="2.62424">
        <ele>20</ele>
        <time>2012-01-29T09:24:25Z</time>
      </trkpt>
      <trkpt lat="50.57537" lon="2.62406">
        <ele>20</ele>
        <time>2012-01-29T09:24:27Z</time>
      </trkpt>
      <trkpt lat="50.57528" lon="2.62387">
        <ele>20</ele>
        <time>2012-01-29T09:24:29Z</time>
      </trkpt>
      <trkpt lat="50.57519" lon="2.62367">
        <ele>20</ele>
        <time>2012-01-29T09:24:31Z</time>
      </trkpt>
      <trkpt lat="50.57508" lon="2.62349">
        <ele>20</ele>
        <time>2012-01-29T09:24:33Z</time>
      </trkpt>
      <trkpt lat="50.57497" lon="2.62334">
        <ele>20</ele>
        <time>2012-01-29T09:24:35Z</time>
      </trkpt>
      <trkpt lat="50.57485" lon="2.62322">
        <ele>20</ele>
        <time>2012-01-29T09:24:37Z</time>
      </trkpt>
      <trkpt lat="50.57475" lon="2.62311">
        <ele>20</ele>
        <time>2012-01-29T09:24:39Z</time>
      </trkpt>
      <trkpt lat="50.57463" lon="2.62301">
        <ele>25</ele>
        <time>2012-01-29T09:24:41Z</time>
      </trkpt>
      <trkpt lat="50.57451" lon="2.62292">
        <ele>25</ele>
        <time>2012-01-29T09:24:43Z</time>
      </trkpt>
      <trkpt lat="50.57439" lon="2.62284">
        <ele>25</ele>
        <time>2012-01-29T09:24:45Z</time>
      </trkpt>
      <trkpt lat="50.57427" lon="2.62277">
        <ele>25</ele>
        <time>2012-01-29T09:24:47Z</time>
      </trkpt>
      <trkpt lat="50.57414" lon="2.62269">
        <ele>25</ele>
        <time>2012-01-29T09:24:49Z</time>
      </trkpt>
      <trkpt lat="50.57402" lon="2.62263">
        <ele>25</ele>
        <time>2012-01-29T09:24:51Z</time>
      </trkpt>
      <trkpt lat="50.5739" lon="2.62257">
        <ele>25</ele>
        <time>2012-01-29T09:24:53Z</time>
      </trkpt>
      <trkpt lat="50.57378" lon="2.62251">
        <ele>25</ele>
        <time>2012-01-29T09:24:55Z</time>
      </trkpt>
      <trkpt lat="50.57366" lon="2.62245">
        <ele>30</ele>
        <time>2012-01-29T09:24:57Z</time>
      </trkpt>
      <trkpt lat="50.57355" lon="2.62239">
        <ele>30</ele>
        <time>2012-01-29T09:24:59Z</time>
      </trkpt>
      <trkpt lat="50.57344" lon="2.62233">
        <ele>30</ele>
        <time>2012-01-29T09:25:01Z</time>
      </trkpt>
      <trkpt lat="50.57332" lon="2.62227">
        <ele>30</ele>
        <time>2012-01-29T09:25:03Z</time>
      </trkpt>
      <trkpt lat="50.57321" lon="2.62222">
        <ele>30</ele>
        <time>2012-01-29T09:25:05Z</time>
      </trkpt>
      <trkpt lat="50.57311" lon="2.62216">
        <ele>30</ele>
        <time>2012-01-29T09:25:07Z</time>
      </trkpt>
      <trkpt lat="50.57301" lon="2.62211">
        <ele>30</ele>
        <time>2012-01-29T09:25:09Z</time>
      </trkpt>
      <trkpt lat="50.5729" lon="2.62206">
        <ele>30</ele>
        <time>2012-01-29T09:25:11Z</time>
      </trkpt>
      <trkpt lat="50.57279" lon="2.62201">
        <ele>30</ele>
        <time>2012-01-29T09:25:13Z</time>
      </trkpt>
      <trkpt lat="50.57269" lon="2.62197">
        <ele>30</ele>
        <time>2012-01-29T09:25:15Z</time>
      </trkpt>
      <trkpt lat="50.57259" lon="2.62191">
        <ele>30</ele>
        <time>2012-01-29T09:25:17Z</time>
      </trkpt>
      <trkpt lat="50.57249" lon="2.62187">
        <ele>30</ele>
        <time>2012-01-29T09:25:19Z</time>
      </trkpt>
      <trkpt lat="50.57239" lon="2.62182">
        <ele>30</ele>
        <time>2012-01-29T09:25:21Z</time>
      </trkpt>
      <trkpt lat="50.57229" lon="2.62179">
        <ele>30</ele>
        <time>2012-01-29T09:25:23Z</time>
      </trkpt>
      <trkpt lat="50.57219" lon="2.62174">
        <ele>30</ele>
        <time>2012-01-29T09:25:25Z</time>
      </trkpt>
      <trkpt lat="50.57209" lon="2.62169">
        <ele>30</ele>
        <time>2012-01-29T09:25:27Z</time>
      </trkpt>
      <trkpt lat="50.57198" lon="2.62163">
        <ele>35</ele>
        <time>2012-01-29T09:25:29Z</time>
      </trkpt>
      <trkpt lat="50.57187" lon="2.62157">
        <ele>35</ele>
        <time>2012-01-29T09:25:31Z</time>
      </trkpt>
      <trkpt lat="50.57176" lon="2.62152">
        <ele>35</ele>
        <time>2012-01-29T09:25:33Z</time>
      </trkpt>
      <trkpt lat="50.57166" lon="2.62146">
        <ele>35</ele>
        <time>2012-01-29T09:25:35Z</time>
      </trkpt>
      <trkpt lat="50.57154" lon="2.62141">
        <ele>35</ele>
        <time>2012-01-29T09:25:37Z</time>
      </trkpt>
      <trkpt lat="50.57143" lon="2.62135">
        <ele>35</ele>
        <time>2012-01-29T09:25:39Z</time>
      </trkpt>
      <trkpt lat="50.57131" lon="2.62128">
        <ele>35</ele>
        <time>2012-01-29T09:25:41Z</time>
      </trkpt>
      <trkpt lat="50.57119" lon="2.62123">
        <ele>35</ele>
        <time>2012-01-29T09:25:43Z</time>
      </trkpt>
      <trkpt lat="50.57106" lon="2.62117">
        <ele>35</ele>
        <time>2012-01-29T09:25:45Z</time>
      </trkpt>
      <trkpt lat="50.57093" lon="2.6211">
        <ele>35</ele>
        <time>2012-01-29T09:25:47Z</time>
      </trkpt>
      <trkpt lat="50.5708" lon="2.62103">
        <ele>35</ele>
        <time>2012-01-29T09:25:49Z</time>
      </trkpt>
      <trkpt lat="50.57067" lon="2.62096">
        <ele>35</ele>
        <time>2012-01-29T09:25:51Z</time>
      </trkpt>
      <trkpt lat="50.57053" lon="2.62092">
        <ele>35</ele>
        <time>2012-01-29T09:25:53Z</time>
      </trkpt>
      <trkpt lat="50.57039" lon="2.62088">
        <ele>35</ele>
        <time>2012-01-29T09:25:55Z</time>
      </trkpt>
      <trkpt lat="50.57025" lon="2.62084">
        <ele>35</ele>
        <time>2012-01-29T09:25:57Z</time>
      </trkpt>
      <trkpt lat="50.57011" lon="2.62079">
        <ele>35</ele>
        <time>2012-01-29T09:25:59Z</time>
      </trkpt>
      <trkpt lat="50.56997" lon="2.62072">
        <ele>35</ele>
        <time>2012-01-29T09:26:01Z</time>
      </trkpt>
      <trkpt lat="50.56984" lon="2.62065">
        <ele>35</ele>
        <time>2012-01-29T09:26:03Z</time>
      </trkpt>
      <trkpt lat="50.56971" lon="2.62057">
        <ele>35</ele>
        <time>2012-01-29T09:26:05Z</time>
      </trkpt>
      <trkpt lat="50.56958" lon="2.62049">
        <ele>35</ele>
        <time>2012-01-29T09:26:07Z</time>
      </trkpt>
      <trkpt lat="50.56945" lon="2.62041">
        <ele>35</ele>
        <time>2012-01-29T09:26:09Z</time>
      </trkpt>
      <trkpt lat="50.56932" lon="2.62034">
        <ele>35</ele>
        <time>2012-01-29T09:26:11Z</time>
      </trkpt>
      <trkpt lat="50.5692" lon="2.62029">
        <ele>35</ele>
        <time>2012-01-29T09:26:13Z</time>
      </trkpt>
      <trkpt lat="50.56908" lon="2.62024">
        <ele>35</ele>
        <time>2012-01-29T09:26:15Z</time>
      </trkpt>
      <trkpt lat="50.56895" lon="2.62021">
        <ele>35</ele>
        <time>2012-01-29T09:26:17Z</time>
      </trkpt>
      <trkpt lat="50.56882" lon="2.62017">
        <ele>35</ele>
        <time>2012-01-29T09:26:19Z</time>
      </trkpt>
      <trkpt lat="50.5687" lon="2.62016">
        <ele>35</ele>
        <time>2012-01-29T09:26:21Z</time>
      </trkpt>
      <trkpt lat="50.56857" lon="2.62016">
        <ele>35</ele>
        <time>2012-01-29T09:26:23Z</time>
      </trkpt>
      <trkpt lat="50.56844" lon="2.62018">
        <ele>35</ele>
        <time>2012-01-29T09:26:25Z</time>
      </trkpt>
      <trkpt lat="50.5683" lon="2.62018">
        <ele>35</ele>
        <time>2012-01-29T09:26:27Z</time>
      </trkpt>
      <trkpt lat="50.56816" lon="2.62018">
        <ele>35</ele>
        <time>2012-01-29T09:26:29Z</time>
      </trkpt>
      <trkpt lat="50.56802" lon="2.62018">
        <ele>35</ele>
        <time>2012-01-29T09:26:31Z</time>
      </trkpt>
      <trkpt lat="50.56789" lon="2.62018">
        <ele>35</ele>
        <time>2012-01-29T09:26:33Z</time>
      </trkpt>
      <trkpt lat="50.56775" lon="2.6202">
        <ele>35</ele>
        <time>2012-01-29T09:26:35Z</time>
      </trkpt>
      <trkpt lat="50.56762" lon="2.62022">
        <ele>35</ele>
        <time>2012-01-29T09:26:37Z</time>
      </trkpt>
      <trkpt lat="50.56749" lon="2.6203">
        <ele>35</ele>
        <time>2012-01-29T09:26:39Z</time>
      </trkpt>
      <trkpt lat="50.56737" lon="2.62039">
        <ele>35</ele>
        <time>2012-01-29T09:26:41Z</time>
      </trkpt>
      <trkpt lat="50.56725" lon="2.6205">
        <ele>35</ele>
        <time>2012-01-29T09:26:43Z</time>
      </trkpt>
      <trkpt lat="50.56714" lon="2.62062">
        <ele>35</ele>
        <time>2012-01-29T09:26:45Z</time>
      </trkpt>
      <trkpt lat="50.56702" lon="2.62074">
        <ele>35</ele>
        <time>2012-01-29T09:26:47Z</time>
      </trkpt>
      <trkpt lat="50.56691" lon="2.62084">
        <ele>35</ele>
        <time>2012-01-29T09:26:49Z</time>
      </trkpt>
      <trkpt lat="50.56679" lon="2.62096">
        <ele>35</ele>
        <time>2012-01-29T09:26:51Z</time>
      </trkpt>
      <trkpt lat="50.56668" lon="2.62106">
        <ele>35</ele>
        <time>2012-01-29T09:26:53Z</time>
      </trkpt>
      <trkpt lat="50.56656" lon="2.62115">
        <ele>35</ele>
        <time>2012-01-29T09:26:55Z</time>
      </trkpt>
      <trkpt lat="50.56644" lon="2.62125">
        <ele>40</ele>
        <time>2012-01-29T09:26:57Z</time>
      </trkpt>
      <trkpt lat="50.56632" lon="2.62133">
        <ele>40</ele>
        <time>2012-01-29T09:26:59Z</time>
      </trkpt>
      <trkpt lat="50.5662" lon="2.6214">
        <ele>40</ele>
        <time>2012-01-29T09:27:01Z</time>
      </trkpt>
      <trkpt lat="50.56608" lon="2.62147">
        <ele>40</ele>
        <time>2012-01-29T09:27:03Z</time>
      </trkpt>
      <trkpt lat="50.56596" lon="2.62155">
        <ele>40</ele>
        <time>2012-01-29T09:27:05Z</time>
      </trkpt>
      <trkpt lat="50.56585" lon="2.6216">
        <ele>40</ele>
        <time>2012-01-29T09:27:07Z</time>
      </trkpt>
      <trkpt lat="50.56575" lon="2.62165">
        <ele>40</ele>
        <time>2012-01-29T09:27:09Z</time>
      </trkpt>
      <trkpt lat="50.56564" lon="2.6217">
        <ele>40</ele>
        <time>2012-01-29T09:27:11Z</time>
      </trkpt>
      <trkpt lat="50.56552" lon="2.62173">
        <ele>40</ele>
        <time>2012-01-29T09:27:13Z</time>
      </trkpt>
      <trkpt lat="50.56541" lon="2.62178">
        <ele>40</ele>
        <time>2012-01-29T09:27:15Z</time>
      </trkpt>
      <trkpt lat="50.56529" lon="2.62181">
        <ele>40</ele>
        <time>2012-01-29T09:27:17Z</time>
      </trkpt>
      <trkpt lat="50.56519" lon="2.62183">
        <ele>40</ele>
        <time>2012-01-29T09:27:19Z</time>
      </trkpt>
      <trkpt lat="50.56508" lon="2.62185">
        <ele>40</ele>
        <time>2012-01-29T09:27:21Z</time>
      </trkpt>
      <trkpt lat="50.56497" lon="2.62186">
        <ele>40</ele>
        <time>2012-01-29T09:27:23Z</time>
      </trkpt>
      <trkpt lat="50.56489" lon="2.6218">
        <ele>40</ele>
        <time>2012-01-29T09:27:25Z</time>
      </trkpt>
      <trkpt lat="50.56489" lon="2.62163">
        <ele>40</ele>
        <time>2012-01-29T09:27:27Z</time>
      </trkpt>
      <trkpt lat="50.56491" lon="2.62146">
        <ele>40</ele>
        <time>2012-01-29T09:27:29Z</time>
      </trkpt>
      <trkpt lat="50.56492" lon="2.62128">
        <ele>40</ele>
        <time>2012-01-29T09:27:31Z</time>
      </trkpt>
      <trkpt lat="50.56494" lon="2.6211">
        <ele>40</ele>
        <time>2012-01-29T09:27:33Z</time>
      </trkpt>
      <trkpt lat="50.56496" lon="2.62091">
        <ele>40</ele>
        <time>2012-01-29T09:27:35Z</time>
      </trkpt>
      <trkpt lat="50.56497" lon="2.6207">
        <ele>40</ele>
        <time>2012-01-29T09:27:37Z</time>
      </trkpt>
      <trkpt lat="50.56498" lon="2.6205">
        <ele>40</ele>
        <time>2012-01-29T09:27:39Z</time>
      </trkpt>
      <trkpt lat="50.565" lon="2.6203">
        <ele>40</ele>
        <time>2012-01-29T09:27:41Z</time>
      </trkpt>
      <trkpt lat="50.56501" lon="2.62009">
        <ele>40</ele>
        <time>2012-01-29T09:27:43Z</time>
      </trkpt>
      <trkpt lat="50.56503" lon="2.61987">
        <ele>40</ele>
        <time>2012-01-29T09:27:45Z</time>
      </trkpt>
      <trkpt lat="50.56504" lon="2.61964">
        <ele>40</ele>
        <time>2012-01-29T09:27:47Z</time>
      </trkpt>
      <trkpt lat="50.56504" lon="2.61942">
        <ele>46</ele>
        <time>2012-01-29T09:27:49Z</time>
      </trkpt>
      <trkpt lat="50.56506" lon="2.61919">
        <ele>46</ele>
        <time>2012-01-29T09:27:51Z</time>
      </trkpt>
      <trkpt lat="50.56508" lon="2.61897">
        <ele>46</ele>
        <time>2012-01-29T09:27:53Z</time>
      </trkpt>
      <trkpt lat="50.56509" lon="2.61872">
        <ele>46</ele>
        <time>2012-01-29T09:27:55Z</time>
      </trkpt>
      <trkpt lat="50.56511" lon="2.6185">
        <ele>46</ele>
        <time>2012-01-29T09:27:57Z</time>
      </trkpt>
      <trkpt lat="50.56513" lon="2.61827">
        <ele>46</ele>
        <time>2012-01-29T09:27:59Z</time>
      </trkpt>
      <trkpt lat="50.56514" lon="2.61803">
        <ele>46</ele>
        <time>2012-01-29T09:28:01Z</time>
      </trkpt>
      <trkpt lat="50.56515" lon="2.61779">
        <ele>46</ele>
        <time>2012-01-29T09:28:03Z</time>
      </trkpt>
      <trkpt lat="50.56515" lon="2.61755">
        <ele>46</ele>
        <time>2012-01-29T09:28:05Z</time>
      </trkpt>
      <trkpt lat="50.56515" lon="2.61731">
        <ele>46</ele>
        <time>2012-01-29T09:28:07Z</time>
      </trkpt>
      <trkpt lat="50.56516" lon="2.61708">
        <ele>46</ele>
        <time>2012-01-29T09:28:09Z</time>
      </trkpt>
      <trkpt lat="50.56515" lon="2.61686">
        <ele>46</ele>
        <time>2012-01-29T09:28:11Z</time>
      </trkpt>
      <trkpt lat="50.56515" lon="2.61665">
        <ele>46</ele>
        <time>2012-01-29T09:28:13Z</time>
      </trkpt>
      <trkpt lat="50.56514" lon="2.61645">
        <ele>46</ele>
        <time>2012-01-29T09:28:15Z</time>
      </trkpt>
      <trkpt lat="50.56514" lon="2.61625">
        <ele>46</ele>
        <time>2012-01-29T09:28:17Z</time>
      </trkpt>
      <trkpt lat="50.56515" lon="2.61606">
        <ele>46</ele>
        <time>2012-01-29T09:28:19Z</time>
      </trkpt>
      <trkpt lat="50.56516" lon="2.61583">
        <ele>46</ele>
        <time>2012-01-29T09:28:21Z</time>
      </trkpt>
      <trkpt lat="50.56518" lon="2.6156">
        <ele>46</ele>
        <time>2012-01-29T09:28:23Z</time>
      </trkpt>
      <trkpt lat="50.56519" lon="2.61536">
        <ele>46</ele>
        <time>2012-01-29T09:28:25Z</time>
      </trkpt>
      <trkpt lat="50.56519" lon="2.61512">
        <ele>46</ele>
        <time>2012-01-29T09:28:27Z</time>
      </trkpt>
      <trkpt lat="50.56519" lon="2.61488">
        <ele>46</ele>
        <time>2012-01-29T09:28:29Z</time>
      </trkpt>
      <trkpt lat="50.56519" lon="2.61464">
        <ele>46</ele>
        <time>2012-01-29T09:28:31Z</time>
      </trkpt>
      <trkpt lat="50.5652" lon="2.61439">
        <ele>46</ele>
        <time>2012-01-29T09:28:33Z</time>
      </trkpt>
      <trkpt lat="50.56521" lon="2.61417">
        <ele>46</ele>
        <time>2012-01-29T09:28:35Z</time>
      </trkpt>
      <trkpt lat="50.56525" lon="2.61395">
        <ele>46</ele>
        <time>2012-01-29T09:28:37Z</time>
      </trkpt>
      <trkpt lat="50.56528" lon="2.61373">
        <ele>46</ele>
        <time>2012-01-29T09:28:39Z</time>
      </trkpt>
      <trkpt lat="50.56532" lon="2.61351">
        <ele>46</ele>
        <time>2012-01-29T09:28:41Z</time>
      </trkpt>
      <trkpt lat="50.56535" lon="2.61328">
        <ele>46</ele>
        <time>2012-01-29T09:28:43Z</time>
      </trkpt>
      <trkpt lat="50.56536" lon="2.61305">
        <ele>46</ele>
        <time>2012-01-29T09:28:45Z</time>
      </trkpt>
      <trkpt lat="50.56539" lon="2.61281">
        <ele>46</ele>
        <time>2012-01-29T09:28:47Z</time>
      </trkpt>
      <trkpt lat="50.56542" lon="2.61259">
        <ele>46</ele>
        <time>2012-01-29T09:28:49Z</time>
      </trkpt>
      <trkpt lat="50.56544" lon="2.61235">
        <ele>41</ele>
        <time>2012-01-29T09:28:51Z</time>
      </trkpt>
      <trkpt lat="50.56547" lon="2.61211">
        <ele>41</ele>
        <time>2012-01-29T09:28:53Z</time>
      </trkpt>
      <trkpt lat="50.56549" lon="2.61188">
        <ele>41</ele>
        <time>2012-01-29T09:28:55Z</time>
      </trkpt>
      <trkpt lat="50.56551" lon="2.61164">
        <ele>41</ele>
        <time>2012-01-29T09:28:57Z</time>
      </trkpt>
      <trkpt lat="50.56551" lon="2.61139">
        <ele>41</ele>
        <time>2012-01-29T09:28:59Z</time>
      </trkpt>
      <trkpt lat="50.56551" lon="2.61115">
        <ele>41</ele>
        <time>2012-01-29T09:29:01Z</time>
      </trkpt>
      <trkpt lat="50.5655" lon="2.61091">
        <ele>41</ele>
        <time>2012-01-29T09:29:03Z</time>
      </trkpt>
      <trkpt lat="50.56549" lon="2.61068">
        <ele>41</ele>
        <time>2012-01-29T09:29:05Z</time>
      </trkpt>
      <trkpt lat="50.56549" lon="2.61043">
        <ele>41</ele>
        <time>2012-01-29T09:29:07Z</time>
      </trkpt>
      <trkpt lat="50.56552" lon="2.61019">
        <ele>41</ele>
        <time>2012-01-29T09:29:09Z</time>
      </trkpt>
      <trkpt lat="50.56556" lon="2.60995">
        <ele>41</ele>
        <time>2012-01-29T09:29:11Z</time>
      </trkpt>
      <trkpt lat="50.5656" lon="2.60971">
        <ele>41</ele>
        <time>2012-01-29T09:29:13Z</time>
      </trkpt>
      <trkpt lat="50.56564" lon="2.60945">
        <ele>41</ele>
        <time>2012-01-29T09:29:15Z</time>
      </trkpt>
      <trkpt lat="50.56569" lon="2.60923">
        <ele>41</ele>
        <time>2012-01-29T09:29:17Z</time>
      </trkpt>
      <trkpt lat="50.56574" lon="2.609">
        <ele>41</ele>
        <time>2012-01-29T09:29:19Z</time>
      </trkpt>
      <trkpt lat="50.56578" lon="2.60876">
        <ele>41</ele>
        <time>2012-01-29T09:29:21Z</time>
      </trkpt>
      <trkpt lat="50.56583" lon="2.60852">
        <ele>41</ele>
        <time>2012-01-29T09:29:23Z</time>
      </trkpt>
      <trkpt lat="50.56588" lon="2.60829">
        <ele>41</ele>
        <time>2012-01-29T09:29:25Z</time>
      </trkpt>
      <trkpt lat="50.56593" lon="2.60805">
        <ele>41</ele>
        <time>2012-01-29T09:29:27Z</time>
      </trkpt>
      <trkpt lat="50.56595" lon="2.6078">
        <ele>35</ele>
        <time>2012-01-29T09:29:29Z</time>
      </trkpt>
      <trkpt lat="50.56596" lon="2.60753">
        <ele>35</ele>
        <time>2012-01-29T09:29:31Z</time>
      </trkpt>
      <trkpt lat="50.56592" lon="2.60726">
        <ele>35</ele>
        <time>2012-01-29T09:29:33Z</time>
      </trkpt>
      <trkpt lat="50.56583" lon="2.60703">
        <ele>35</ele>
        <time>2012-01-29T09:29:35Z</time>
      </trkpt>
      <trkpt lat="50.56572" lon="2.60683">
        <ele>35</ele>
        <time>2012-01-29T09:29:37Z</time>
      </trkpt>
      <trkpt lat="50.56559" lon="2.60666">
        <ele>35</ele>
        <time>2012-01-29T09:29:39Z</time>
      </trkpt>
      <trkpt lat="50.56545" lon="2.60652">
        <ele>35</ele>
        <time>2012-01-29T09:29:41Z</time>
      </trkpt>
      <trkpt lat="50.56531" lon="2.60637">
        <ele>35</ele>
        <time>2012-01-29T09:29:43Z</time>
      </trkpt>
      <trkpt lat="50.56517" lon="2.60624">
        <ele>35</ele>
        <time>2012-01-29T09:29:45Z</time>
      </trkpt>
      <trkpt lat="50.56503" lon="2.60609">
        <ele>35</ele>
        <time>2012-01-29T09:29:47Z</time>
      </trkpt>
      <trkpt lat="50.56489" lon="2.60596">
        <ele>35</ele>
        <time>2012-01-29T09:29:49Z</time>
      </trkpt>
      <trkpt lat="50.56475" lon="2.6058">
        <ele>35</ele>
        <time>2012-01-29T09:29:51Z</time>
      </trkpt>
      <trkpt lat="50.56464" lon="2.60561">
        <ele>35</ele>
        <time>2012-01-29T09:29:53Z</time>
      </trkpt>
      <trkpt lat="50.56453" lon="2.60539">
        <ele>35</ele>
        <time>2012-01-29T09:29:55Z</time>
      </trkpt>
      <trkpt lat="50.56443" lon="2.60517">
        <ele>35</ele>
        <time>2012-01-29T09:29:57Z</time>
      </trkpt>
      <trkpt lat="50.5643" lon="2.60497">
        <ele>35</ele>
        <time>2012-01-29T09:29:59Z</time>
      </trkpt>
      <trkpt lat="50.56424" lon="2.60488">
        <ele>35</ele>
        <time>2012-01-29T09:30:00Z</time>
      </trkpt>
      <trkpt lat="50.56408" lon="2.60475">
        <ele>35</ele>
        <time>2012-01-29T09:30:02Z</time>
      </trkpt>
      <trkpt lat="50.56394" lon="2.6046">
        <ele>35</ele>
        <time>2012-01-29T09:30:04Z</time>
      </trkpt>
      <trkpt lat="50.5638" lon="2.60446">
        <ele>35</ele>
        <time>2012-01-29T09:30:06Z</time>
      </trkpt>
      <trkpt lat="50.56367" lon="2.60432">
        <ele>35</ele>
        <time>2012-01-29T09:30:08Z</time>
      </trkpt>
      <trkpt lat="50.56352" lon="2.60423">
        <ele>35</ele>
        <time>2012-01-29T09:30:10Z</time>
      </trkpt>
      <trkpt lat="50.56337" lon="2.60417">
        <ele>35</ele>
        <time>2012-01-29T09:30:12Z</time>
      </trkpt>
      <trkpt lat="50.56322" lon="2.60411">
        <ele>35</ele>
        <time>2012-01-29T09:30:14Z</time>
      </trkpt>
      <trkpt lat="50.56309" lon="2.60402">
        <ele>35</ele>
        <time>2012-01-29T09:30:16Z</time>
      </trkpt>
      <trkpt lat="50.56294" lon="2.60391">
        <ele>35</ele>
        <time>2012-01-29T09:30:18Z</time>
      </trkpt>
      <trkpt lat="50.56283" lon="2.60379">
        <ele>35</ele>
        <time>2012-01-29T09:30:20Z</time>
      </trkpt>
      <trkpt lat="50.56273" lon="2.60365">
        <ele>35</ele>
        <time>2012-01-29T09:30:22Z</time>
      </trkpt>
      <trkpt lat="50.56266" lon="2.60349">
        <ele>35</ele>
        <time>2012-01-29T09:30:24Z</time>
      </trkpt>
      <trkpt lat="50.56258" lon="2.60335">
        <ele>35</ele>
        <time>2012-01-29T09:30:26Z</time>
      </trkpt>
      <trkpt lat="50.56249" lon="2.60322">
        <ele>35</ele>
        <time>2012-01-29T09:30:28Z</time>
      </trkpt>
      <trkpt lat="50.5624" lon="2.60308">
        <ele>35</ele>
        <time>2012-01-29T09:30:30Z</time>
      </trkpt>
      <trkpt lat="50.5623" lon="2.60296">
        <ele>35</ele>
        <time>2012-01-29T09:30:32Z</time>
      </trkpt>
      <trkpt lat="50.56217" lon="2.60283">
        <ele>35</ele>
        <time>2012-01-29T09:30:34Z</time>
      </trkpt>
      <trkpt lat="50.56203" lon="2.6027">
        <ele>35</ele>
        <time>2012-01-29T09:30:36Z</time>
      </trkpt>
      <trkpt lat="50.56188" lon="2.60254">
        <ele>30</ele>
        <time>2012-01-29T09:30:38Z</time>
      </trkpt>
      <trkpt lat="50.56182" lon="2.60243">
        <ele>30</ele>
        <time>2012-01-29T09:30:39Z</time>
      </trkpt>
      <trkpt lat="50.56176" lon="2.60232">
        <ele>30</ele>
        <time>2012-01-29T09:30:40Z</time>
      </trkpt>
      <trkpt lat="50.56171" lon="2.6022">
        <ele>30</ele>
        <time>2012-01-29T09:30:41Z</time>
      </trkpt>
      <trkpt lat="50.56166" lon="2.60206">
        <ele>30</ele>
        <time>2012-01-29T09:30:42Z</time>
      </trkpt>
      <trkpt lat="50.56162" lon="2.60193">
        <ele>30</ele>
        <time>2012-01-29T09:30:43Z</time>
      </trkpt>
      <trkpt lat="50.56157" lon="2.60179">
        <ele>30</ele>
        <time>2012-01-29T09:30:44Z</time>
      </trkpt>
      <trkpt lat="50.56152" lon="2.60166">
        <ele>30</ele>
        <time>2012-01-29T09:30:45Z</time>
      </trkpt>
      <trkpt lat="50.56147" lon="2.60151">
        <ele>30</ele>
        <time>2012-01-29T09:30:46Z</time>
      </trkpt>
      <trkpt lat="50.56142" lon="2.60138">
        <ele>30</ele>
        <time>2012-01-29T09:30:47Z</time>
      </trkpt>
      <trkpt lat="50.56137" lon="2.60123">
        <ele>30</ele>
        <time>2012-01-29T09:30:48Z</time>
      </trkpt>
      <trkpt lat="50.56131" lon="2.6011">
        <ele>30</ele>
        <time>2012-01-29T09:30:49Z</time>
      </trkpt>
      <trkpt lat="50.56125" lon="2.60096">
        <ele>30</ele>
        <time>2012-01-29T09:30:50Z</time>
      </trkpt>
      <trkpt lat="50.5612" lon="2.60084">
        <ele>30</ele>
        <time>2012-01-29T09:30:51Z</time>
      </trkpt>
      <trkpt lat="50.56114" lon="2.6007">
        <ele>24</ele>
        <time>2012-01-29T09:30:52Z</time>
      </trkpt>
      <trkpt lat="50.56108" lon="2.60057">
        <ele>24</ele>
        <time>2012-01-29T09:30:53Z</time>
      </trkpt>
      <trkpt lat="50.56102" lon="2.60044">
        <ele>24</ele>
        <time>2012-01-29T09:30:54Z</time>
      </trkpt>
      <trkpt lat="50.56096" lon="2.60031">
        <ele>24</ele>
        <time>2012-01-29T09:30:55Z</time>
      </trkpt>
      <trkpt lat="50.56089" lon="2.60018">
        <ele>24</ele>
        <time>2012-01-29T09:30:56Z</time>
      </trkpt>
      <trkpt lat="50.56084" lon="2.60004">
        <ele>24</ele>
        <time>2012-01-29T09:30:57Z</time>
      </trkpt>
      <trkpt lat="50.56078" lon="2.5999">
        <ele>24</ele>
        <time>2012-01-29T09:30:58Z</time>
      </trkpt>
      <trkpt lat="50.56073" lon="2.59977">
        <ele>24</ele>
        <time>2012-01-29T09:30:59Z</time>
      </trkpt>
      <trkpt lat="50.56067" lon="2.59964">
        <ele>24</ele>
        <time>2012-01-29T09:31:00Z</time>
      </trkpt>
      <trkpt lat="50.56063" lon="2.5995">
        <ele>24</ele>
        <time>2012-01-29T09:31:01Z</time>
      </trkpt>
      <trkpt lat="50.56058" lon="2.59937">
        <ele>24</ele>
        <time>2012-01-29T09:31:02Z</time>
      </trkpt>
      <trkpt lat="50.56054" lon="2.59922">
        <ele>24</ele>
        <time>2012-01-29T09:31:03Z</time>
      </trkpt>
      <trkpt lat="50.56049" lon="2.59909">
        <ele>24</ele>
        <time>2012-01-29T09:31:04Z</time>
      </trkpt>
      <trkpt lat="50.56045" lon="2.59894">
        <ele>24</ele>
        <time>2012-01-29T09:31:05Z</time>
      </trkpt>
      <trkpt lat="50.56041" lon="2.5988">
        <ele>24</ele>
        <time>2012-01-29T09:31:06Z</time>
      </trkpt>
      <trkpt lat="50.56037" lon="2.59866">
        <ele>24</ele>
        <time>2012-01-29T09:31:07Z</time>
      </trkpt>
      <trkpt lat="50.56033" lon="2.59851">
        <ele>24</ele>
        <time>2012-01-29T09:31:08Z</time>
      </trkpt>
      <trkpt lat="50.56029" lon="2.59837">
        <ele>24</ele>
        <time>2012-01-29T09:31:09Z</time>
      </trkpt>
      <trkpt lat="50.56025" lon="2.59822">
        <ele>24</ele>
        <time>2012-01-29T09:31:10Z</time>
      </trkpt>
      <trkpt lat="50.56021" lon="2.59808">
        <ele>24</ele>
        <time>2012-01-29T09:31:11Z</time>
      </trkpt>
      <trkpt lat="50.56016" lon="2.59794">
        <ele>24</ele>
        <time>2012-01-29T09:31:12Z</time>
      </trkpt>
      <trkpt lat="50.56011" lon="2.5978">
        <ele>24</ele>
        <time>2012-01-29T09:31:13Z</time>
      </trkpt>
      <trkpt lat="50.56006" lon="2.59767">
        <ele>24</ele>
        <time>2012-01-29T09:31:14Z</time>
      </trkpt>
      <trkpt lat="50.56001" lon="2.59753">
        <ele>24</ele>
        <time>2012-01-29T09:31:15Z</time>
      </trkpt>
      <trkpt lat="50.55996" lon="2.59739">
        <ele>24</ele>
        <time>2012-01-29T09:31:16Z</time>
      </trkpt>
      <trkpt lat="50.5599" lon="2.59725">
        <ele>24</ele>
        <time>2012-01-29T09:31:17Z</time>
      </trkpt>
      <trkpt lat="50.55985" lon="2.59712">
        <ele>24</ele>
        <time>2012-01-29T09:31:18Z</time>
      </trkpt>
      <trkpt lat="50.5598" lon="2.59699">
        <ele>24</ele>
        <time>2012-01-29T09:31:19Z</time>
      </trkpt>
      <trkpt lat="50.55975" lon="2.59685">
        <ele>24</ele>
        <time>2012-01-29T09:31:20Z</time>
      </trkpt>
      <trkpt lat="50.5597" lon="2.59671">
        <ele>24</ele>
        <time>2012-01-29T09:31:21Z</time>
      </trkpt>
      <trkpt lat="50.55964" lon="2.59657">
        <ele>24</ele>
        <time>2012-01-29T09:31:22Z</time>
      </trkpt>
      <trkpt lat="50.55959" lon="2.59644">
        <ele>24</ele>
        <time>2012-01-29T09:31:23Z</time>
      </trkpt>
      <trkpt lat="50.55954" lon="2.5963">
        <ele>24</ele>
        <time>2012-01-29T09:31:24Z</time>
      </trkpt>
      <trkpt lat="50.55949" lon="2.59617">
        <ele>24</ele>
        <time>2012-01-29T09:31:25Z</time>
      </trkpt>
      <trkpt lat="50.55944" lon="2.59603">
        <ele>24</ele>
        <time>2012-01-29T09:31:26Z</time>
      </trkpt>
      <trkpt lat="50.55939" lon="2.5959">
        <ele>24</ele>
        <time>2012-01-29T09:31:27Z</time>
      </trkpt>
      <trkpt lat="50.55934" lon="2.59576">
        <ele>24</ele>
        <time>2012-01-29T09:31:28Z</time>
      </trkpt>
      <trkpt lat="50.55929" lon="2.59564">
        <ele>24</ele>
        <time>2012-01-29T09:31:29Z</time>
      </trkpt>
      <trkpt lat="50.55924" lon="2.59551">
        <ele>19</ele>
        <time>2012-01-29T09:31:30Z</time>
      </trkpt>
      <trkpt lat="50.55919" lon="2.59539">
        <ele>19</ele>
        <time>2012-01-29T09:31:31Z</time>
      </trkpt>
      <trkpt lat="50.55914" lon="2.59526">
        <ele>19</ele>
        <time>2012-01-29T09:31:32Z</time>
      </trkpt>
      <trkpt lat="50.55909" lon="2.59514">
        <ele>19</ele>
        <time>2012-01-29T09:31:33Z</time>
      </trkpt>
      <trkpt lat="50.55901" lon="2.59491">
        <ele>19</ele>
        <time>2012-01-29T09:31:35Z</time>
      </trkpt>
      <trkpt lat="50.55891" lon="2.59468">
        <ele>19</ele>
        <time>2012-01-29T09:31:37Z</time>
      </trkpt>
      <trkpt lat="50.55883" lon="2.59444">
        <ele>19</ele>
        <time>2012-01-29T09:31:39Z</time>
      </trkpt>
      <trkpt lat="50.55876" lon="2.59421">
        <ele>19</ele>
        <time>2012-01-29T09:31:41Z</time>
      </trkpt>
      <trkpt lat="50.55871" lon="2.59398">
        <ele>19</ele>
        <time>2012-01-29T09:31:43Z</time>
      </trkpt>
      <trkpt lat="50.55863" lon="2.59379">
        <ele>19</ele>
        <time>2012-01-29T09:31:45Z</time>
      </trkpt>
      <trkpt lat="50.55851" lon="2.59367">
        <ele>19</ele>
        <time>2012-01-29T09:31:47Z</time>
      </trkpt>
      <trkpt lat="50.55837" lon="2.5936">
        <ele>19</ele>
        <time>2012-01-29T09:31:49Z</time>
      </trkpt>
      <trkpt lat="50.55821" lon="2.59354">
        <ele>19</ele>
        <time>2012-01-29T09:31:51Z</time>
      </trkpt>
      <trkpt lat="50.55804" lon="2.59348">
        <ele>19</ele>
        <time>2012-01-29T09:31:53Z</time>
      </trkpt>
      <trkpt lat="50.55788" lon="2.59341">
        <ele>19</ele>
        <time>2012-01-29T09:31:55Z</time>
      </trkpt>
      <trkpt lat="50.55772" lon="2.59335">
        <ele>19</ele>
        <time>2012-01-29T09:31:57Z</time>
      </trkpt>
      <trkpt lat="50.55756" lon="2.59328">
        <ele>19</ele>
        <time>2012-01-29T09:31:59Z</time>
      </trkpt>
      <trkpt lat="50.5574" lon="2.59322">
        <ele>19</ele>
        <time>2012-01-29T09:32:01Z</time>
      </trkpt>
      <trkpt lat="50.55725" lon="2.59317">
        <ele>19</ele>
        <time>2012-01-29T09:32:03Z</time>
      </trkpt>
      <trkpt lat="50.5571" lon="2.59311">
        <ele>19</ele>
        <time>2012-01-29T09:32:05Z</time>
      </trkpt>
      <trkpt lat="50.55695" lon="2.59308">
        <ele>19</ele>
        <time>2012-01-29T09:32:07Z</time>
      </trkpt>
      <trkpt lat="50.5568" lon="2.59302">
        <ele>19</ele>
        <time>2012-01-29T09:32:09Z</time>
      </trkpt>
      <trkpt lat="50.55665" lon="2.59298">
        <ele>19</ele>
        <time>2012-01-29T09:32:11Z</time>
      </trkpt>
      <trkpt lat="50.5565" lon="2.59293">
        <ele>19</ele>
        <time>2012-01-29T09:32:13Z</time>
      </trkpt>
      <trkpt lat="50.55634" lon="2.59289">
        <ele>19</ele>
        <time>2012-01-29T09:32:15Z</time>
      </trkpt>
      <trkpt lat="50.55618" lon="2.59284">
        <ele>19</ele>
        <time>2012-01-29T09:32:17Z</time>
      </trkpt>
      <trkpt lat="50.55602" lon="2.5928">
        <ele>19</ele>
        <time>2012-01-29T09:32:19Z</time>
      </trkpt>
      <trkpt lat="50.55587" lon="2.59275">
        <ele>19</ele>
        <time>2012-01-29T09:32:21Z</time>
      </trkpt>
      <trkpt lat="50.55572" lon="2.59269">
        <ele>19</ele>
        <time>2012-01-29T09:32:23Z</time>
      </trkpt>
      <trkpt lat="50.55556" lon="2.59266">
        <ele>19</ele>
        <time>2012-01-29T09:32:25Z</time>
      </trkpt>
      <trkpt lat="50.5554" lon="2.59266">
        <ele>19</ele>
        <time>2012-01-29T09:32:27Z</time>
      </trkpt>
      <trkpt lat="50.55525" lon="2.59266">
        <ele>19</ele>
        <time>2012-01-29T09:32:29Z</time>
      </trkpt>
      <trkpt lat="50.55509" lon="2.59266">
        <ele>19</ele>
        <time>2012-01-29T09:32:31Z</time>
      </trkpt>
      <trkpt lat="50.55494" lon="2.59266">
        <ele>19</ele>
        <time>2012-01-29T09:32:33Z</time>
      </trkpt>
      <trkpt lat="50.55478" lon="2.59264">
        <ele>19</ele>
        <time>2012-01-29T09:32:35Z</time>
      </trkpt>
      <trkpt lat="50.55462" lon="2.59261">
        <ele>19</ele>
        <time>2012-01-29T09:32:37Z</time>
      </trkpt>
      <trkpt lat="50.55447" lon="2.59257">
        <ele>19</ele>
        <time>2012-01-29T09:32:39Z</time>
      </trkpt>
      <trkpt lat="50.55431" lon="2.59251">
        <ele>19</ele>
        <time>2012-01-29T09:32:41Z</time>
      </trkpt>
      <trkpt lat="50.55415" lon="2.59246">
        <ele>19</ele>
        <time>2012-01-29T09:32:43Z</time>
      </trkpt>
      <trkpt lat="50.55399" lon="2.59239">
        <ele>19</ele>
        <time>2012-01-29T09:32:45Z</time>
      </trkpt>
      <trkpt lat="50.55384" lon="2.59232">
        <ele>19</ele>
        <time>2012-01-29T09:32:47Z</time>
      </trkpt>
      <trkpt lat="50.55369" lon="2.59225">
        <ele>19</ele>
        <time>2012-01-29T09:32:49Z</time>
      </trkpt>
      <trkpt lat="50.55354" lon="2.59218">
        <ele>19</ele>
        <time>2012-01-29T09:32:51Z</time>
      </trkpt>
      <trkpt lat="50.55339" lon="2.5921">
        <ele>19</ele>
        <time>2012-01-29T09:32:53Z</time>
      </trkpt>
      <trkpt lat="50.55323" lon="2.59201">
        <ele>19</ele>
        <time>2012-01-29T09:32:55Z</time>
      </trkpt>
      <trkpt lat="50.55308" lon="2.59194">
        <ele>19</ele>
        <time>2012-01-29T09:32:57Z</time>
      </trkpt>
      <trkpt lat="50.55292" lon="2.59186">
        <ele>19</ele>
        <time>2012-01-29T09:32:59Z</time>
      </trkpt>
      <trkpt lat="50.55276" lon="2.59179">
        <ele>19</ele>
        <time>2012-01-29T09:33:01Z</time>
      </trkpt>
      <trkpt lat="50.5526" lon="2.59174">
        <ele>19</ele>
        <time>2012-01-29T09:33:03Z</time>
      </trkpt>
      <trkpt lat="50.55244" lon="2.59168">
        <ele>19</ele>
        <time>2012-01-29T09:33:05Z</time>
      </trkpt>
      <trkpt lat="50.55229" lon="2.59162">
        <ele>19</ele>
        <time>2012-01-29T09:33:07Z</time>
      </trkpt>
      <trkpt lat="50.55213" lon="2.59154">
        <ele>19</ele>
        <time>2012-01-29T09:33:09Z</time>
      </trkpt>
      <trkpt lat="50.55198" lon="2.59147">
        <ele>19</ele>
        <time>2012-01-29T09:33:11Z</time>
      </trkpt>
      <trkpt lat="50.55183" lon="2.59139">
        <ele>19</ele>
        <time>2012-01-29T09:33:13Z</time>
      </trkpt>
      <trkpt lat="50.55168" lon="2.59131">
        <ele>19</ele>
        <time>2012-01-29T09:33:15Z</time>
      </trkpt>
      <trkpt lat="50.55153" lon="2.59123">
        <ele>19</ele>
        <time>2012-01-29T09:33:17Z</time>
      </trkpt>
      <trkpt lat="50.55138" lon="2.59116">
        <ele>19</ele>
        <time>2012-01-29T09:33:19Z</time>
      </trkpt>
      <trkpt lat="50.55122" lon="2.59114">
        <ele>19</ele>
        <time>2012-01-29T09:33:21Z</time>
      </trkpt>
      <trkpt lat="50.55105" lon="2.59114">
        <ele>19</ele>
        <time>2012-01-29T09:33:23Z</time>
      </trkpt>
      <trkpt lat="50.55089" lon="2.59116">
        <ele>19</ele>
        <time>2012-01-29T09:33:25Z</time>
      </trkpt>
      <trkpt lat="50.55073" lon="2.59119">
        <ele>19</ele>
        <time>2012-01-29T09:33:27Z</time>
      </trkpt>
      <trkpt lat="50.55058" lon="2.59119">
        <ele>19</ele>
        <time>2012-01-29T09:33:29Z</time>
      </trkpt>
      <trkpt lat="50.55042" lon="2.59118">
        <ele>19</ele>
        <time>2012-01-29T09:33:31Z</time>
      </trkpt>
      <trkpt lat="50.55026" lon="2.59115">
        <ele>19</ele>
        <time>2012-01-29T09:33:33Z</time>
      </trkpt>
      <trkpt lat="50.5501" lon="2.59111">
        <ele>19</ele>
        <time>2012-01-29T09:33:35Z</time>
      </trkpt>
      <trkpt lat="50.54994" lon="2.59107">
        <ele>19</ele>
        <time>2012-01-29T09:33:37Z</time>
      </trkpt>
      <trkpt lat="50.54979" lon="2.591">
        <ele>19</ele>
        <time>2012-01-29T09:33:39Z</time>
      </trkpt>
      <trkpt lat="50.54964" lon="2.59092">
        <ele>19</ele>
        <time>2012-01-29T09:33:41Z</time>
      </trkpt>
      <trkpt lat="50.5495" lon="2.5908">
        <ele>19</ele>
        <time>2012-01-29T09:33:43Z</time>
      </trkpt>
      <trkpt lat="50.54937" lon="2.59067">
        <ele>19</ele>
        <time>2012-01-29T09:33:45Z</time>
      </trkpt>
      <trkpt lat="50.54926" lon="2.59053">
        <ele>19</ele>
        <time>2012-01-29T09:33:47Z</time>
      </trkpt>
      <trkpt lat="50.54915" lon="2.59036">
        <ele>19</ele>
        <time>2012-01-29T09:33:49Z</time>
      </trkpt>
      <trkpt lat="50.54905" lon="2.5902">
        <ele>19</ele>
        <time>2012-01-29T09:33:51Z</time>
      </trkpt>
      <trkpt lat="50.54896" lon="2.59003">
        <ele>19</ele>
        <time>2012-01-29T09:33:53Z</time>
      </trkpt>
      <trkpt lat="50.54888" lon="2.58985">
        <ele>19</ele>
        <time>2012-01-29T09:33:55Z</time>
      </trkpt>
      <trkpt lat="50.5488" lon="2.58967">
        <ele>19</ele>
        <time>2012-01-29T09:33:57Z</time>
      </trkpt>
      <trkpt lat="50.54872" lon="2.58948">
        <ele>19</ele>
        <time>2012-01-29T09:33:59Z</time>
      </trkpt>
      <trkpt lat="50.54865" lon="2.58931">
        <ele>19</ele>
        <time>2012-01-29T09:34:01Z</time>
      </trkpt>
      <trkpt lat="50.54858" lon="2.58913">
        <ele>19</ele>
        <time>2012-01-29T09:34:03Z</time>
      </trkpt>
      <trkpt lat="50.54852" lon="2.58896">
        <ele>19</ele>
        <time>2012-01-29T09:34:05Z</time>
      </trkpt>
      <trkpt lat="50.54844" lon="2.58878">
        <ele>19</ele>
        <time>2012-01-29T09:34:07Z</time>
      </trkpt>
      <trkpt lat="50.54836" lon="2.5886">
        <ele>19</ele>
        <time>2012-01-29T09:34:09Z</time>
      </trkpt>
      <trkpt lat="50.54828" lon="2.58842">
        <ele>19</ele>
        <time>2012-01-29T09:34:11Z</time>
      </trkpt>
      <trkpt lat="50.54821" lon="2.58824">
        <ele>19</ele>
        <time>2012-01-29T09:34:13Z</time>
      </trkpt>
      <trkpt lat="50.54813" lon="2.58806">
        <ele>19</ele>
        <time>2012-01-29T09:34:15Z</time>
      </trkpt>
      <trkpt lat="50.54805" lon="2.58789">
        <ele>19</ele>
        <time>2012-01-29T09:34:17Z</time>
      </trkpt>
      <trkpt lat="50.54797" lon="2.5877">
        <ele>19</ele>
        <time>2012-01-29T09:34:19Z</time>
      </trkpt>
      <trkpt lat="50.5479" lon="2.58752">
        <ele>19</ele>
        <time>2012-01-29T09:34:21Z</time>
      </trkpt>
      <trkpt lat="50.54783" lon="2.58735">
        <ele>19</ele>
        <time>2012-01-29T09:34:23Z</time>
      </trkpt>
      <trkpt lat="50.54776" lon="2.58717">
        <ele>19</ele>
        <time>2012-01-29T09:34:25Z</time>
      </trkpt>
      <trkpt lat="50.54769" lon="2.587">
        <ele>19</ele>
        <time>2012-01-29T09:34:27Z</time>
      </trkpt>
      <trkpt lat="50.54762" lon="2.58683">
        <ele>19</ele>
        <time>2012-01-29T09:34:29Z</time>
      </trkpt>
      <trkpt lat="50.54756" lon="2.58665">
        <ele>19</ele>
        <time>2012-01-29T09:34:31Z</time>
      </trkpt>
      <trkpt lat="50.5475" lon="2.58648">
        <ele>19</ele>
        <time>2012-01-29T09:34:33Z</time>
      </trkpt>
      <trkpt lat="50.54743" lon="2.58632">
        <ele>19</ele>
        <time>2012-01-29T09:34:35Z</time>
      </trkpt>
      <trkpt lat="50.54736" lon="2.58615">
        <ele>19</ele>
        <time>2012-01-29T09:34:37Z</time>
      </trkpt>
      <trkpt lat="50.54728" lon="2.58599">
        <ele>19</ele>
        <time>2012-01-29T09:34:39Z</time>
      </trkpt>
      <trkpt lat="50.54719" lon="2.58583">
        <ele>19</ele>
        <time>2012-01-29T09:34:41Z</time>
      </trkpt>
      <trkpt lat="50.54708" lon="2.58568">
        <ele>19</ele>
        <time>2012-01-29T09:34:43Z</time>
      </trkpt>
      <trkpt lat="50.54699" lon="2.58552">
        <ele>19</ele>
        <time>2012-01-29T09:34:45Z</time>
      </trkpt>
      <trkpt lat="50.54688" lon="2.58536">
        <ele>19</ele>
        <time>2012-01-29T09:34:47Z</time>
      </trkpt>
      <trkpt lat="50.54678" lon="2.58521">
        <ele>19</ele>
        <time>2012-01-29T09:34:49Z</time>
      </trkpt>
      <trkpt lat="50.54667" lon="2.58506">
        <ele>19</ele>
        <time>2012-01-29T09:34:51Z</time>
      </trkpt>
      <trkpt lat="50.54658" lon="2.58492">
        <ele>19</ele>
        <time>2012-01-29T09:34:53Z</time>
      </trkpt>
      <trkpt lat="50.54648" lon="2.58478">
        <ele>19</ele>
        <time>2012-01-29T09:34:55Z</time>
      </trkpt>
      <trkpt lat="50.54637" lon="2.58463">
        <ele>19</ele>
        <time>2012-01-29T09:34:57Z</time>
      </trkpt>
      <trkpt lat="50.54626" lon="2.58451">
        <ele>19</ele>
        <time>2012-01-29T09:34:59Z</time>
      </trkpt>
      <trkpt lat="50.54613" lon="2.58438">
        <ele>19</ele>
        <time>2012-01-29T09:35:01Z</time>
      </trkpt>
      <trkpt lat="50.546" lon="2.58426">
        <ele>19</ele>
        <time>2012-01-29T09:35:03Z</time>
      </trkpt>
      <trkpt lat="50.54587" lon="2.58413">
        <ele>19</ele>
        <time>2012-01-29T09:35:05Z</time>
      </trkpt>
      <trkpt lat="50.54573" lon="2.584">
        <ele>19</ele>
        <time>2012-01-29T09:35:07Z</time>
      </trkpt>
      <trkpt lat="50.54558" lon="2.58386">
        <ele>19</ele>
        <time>2012-01-29T09:35:09Z</time>
      </trkpt>
      <trkpt lat="50.54543" lon="2.58372">
        <ele>19</ele>
        <time>2012-01-29T09:35:11Z</time>
      </trkpt>
      <trkpt lat="50.54528" lon="2.58358">
        <ele>19</ele>
        <time>2012-01-29T09:35:13Z</time>
      </trkpt>
      <trkpt lat="50.54513" lon="2.58344">
        <ele>19</ele>
        <time>2012-01-29T09:35:15Z</time>
      </trkpt>
      <trkpt lat="50.54498" lon="2.58329">
        <ele>19</ele>
        <time>2012-01-29T09:35:17Z</time>
      </trkpt>
      <trkpt lat="50.54484" lon="2.58315">
        <ele>19</ele>
        <time>2012-01-29T09:35:19Z</time>
      </trkpt>
      <trkpt lat="50.54468" lon="2.58301">
        <ele>19</ele>
        <time>2012-01-29T09:35:21Z</time>
      </trkpt>
      <trkpt lat="50.54453" lon="2.58287">
        <ele>19</ele>
        <time>2012-01-29T09:35:23Z</time>
      </trkpt>
      <trkpt lat="50.54437" lon="2.58273">
        <ele>19</ele>
        <time>2012-01-29T09:35:25Z</time>
      </trkpt>
      <trkpt lat="50.5443" lon="2.58265">
        <ele>19</ele>
        <time>2012-01-29T09:35:26Z</time>
      </trkpt>
      <trkpt lat="50.54415" lon="2.58251">
        <ele>19</ele>
        <time>2012-01-29T09:35:28Z</time>
      </trkpt>
      <trkpt lat="50.54402" lon="2.58237">
        <ele>19</ele>
        <time>2012-01-29T09:35:30Z</time>
      </trkpt>
      <trkpt lat="50.54388" lon="2.58222">
        <ele>19</ele>
        <time>2012-01-29T09:35:32Z</time>
      </trkpt>
      <trkpt lat="50.5438" lon="2.58214">
        <ele>19</ele>
        <time>2012-01-29T09:35:33Z</time>
      </trkpt>
      <trkpt lat="50.54367" lon="2.58197">
        <ele>19</ele>
        <time>2012-01-29T09:35:35Z</time>
      </trkpt>
      <trkpt lat="50.54353" lon="2.58181">
        <ele>19</ele>
        <time>2012-01-29T09:35:37Z</time>
      </trkpt>
      <trkpt lat="50.54346" lon="2.58172">
        <ele>19</ele>
        <time>2012-01-29T09:35:38Z</time>
      </trkpt>
      <trkpt lat="50.54332" lon="2.58156">
        <ele>19</ele>
        <time>2012-01-29T09:35:40Z</time>
      </trkpt>
      <trkpt lat="50.54325" lon="2.58147">
        <ele>19</ele>
        <time>2012-01-29T09:35:41Z</time>
      </trkpt>
      <trkpt lat="50.54311" lon="2.58132">
        <ele>19</ele>
        <time>2012-01-29T09:35:43Z</time>
      </trkpt>
      <trkpt lat="50.54297" lon="2.58117">
        <ele>19</ele>
        <time>2012-01-29T09:35:45Z</time>
      </trkpt>
      <trkpt lat="50.54284" lon="2.58105">
        <ele>19</ele>
        <time>2012-01-29T09:35:47Z</time>
      </trkpt>
      <trkpt lat="50.54269" lon="2.58092">
        <ele>19</ele>
        <time>2012-01-29T09:35:49Z</time>
      </trkpt>
      <trkpt lat="50.54256" lon="2.58079">
        <ele>19</ele>
        <time>2012-01-29T09:35:51Z</time>
      </trkpt>
      <trkpt lat="50.54241" lon="2.58066">
        <ele>19</ele>
        <time>2012-01-29T09:35:53Z</time>
      </trkpt>
      <trkpt lat="50.54227" lon="2.58053">
        <ele>19</ele>
        <time>2012-01-29T09:35:55Z</time>
      </trkpt>
      <trkpt lat="50.54213" lon="2.58039">
        <ele>19</ele>
        <time>2012-01-29T09:35:57Z</time>
      </trkpt>
      <trkpt lat="50.54199" lon="2.58025">
        <ele>19</ele>
        <time>2012-01-29T09:35:59Z</time>
      </trkpt>
      <trkpt lat="50.54186" lon="2.5801">
        <ele>19</ele>
        <time>2012-01-29T09:36:01Z</time>
      </trkpt>
      <trkpt lat="50.54173" lon="2.57993">
        <ele>19</ele>
        <time>2012-01-29T09:36:03Z</time>
      </trkpt>
      <trkpt lat="50.54161" lon="2.57976">
        <ele>19</ele>
        <time>2012-01-29T09:36:05Z</time>
      </trkpt>
      <trkpt lat="50.54148" lon="2.5796">
        <ele>19</ele>
        <time>2012-01-29T09:36:07Z</time>
      </trkpt>
      <trkpt lat="50.54136" lon="2.57945">
        <ele>19</ele>
        <time>2012-01-29T09:36:09Z</time>
      </trkpt>
      <trkpt lat="50.54125" lon="2.5793">
        <ele>19</ele>
        <time>2012-01-29T09:36:11Z</time>
      </trkpt>
      <trkpt lat="50.54114" lon="2.57915">
        <ele>19</ele>
        <time>2012-01-29T09:36:13Z</time>
      </trkpt>
      <trkpt lat="50.54105" lon="2.579">
        <ele>19</ele>
        <time>2012-01-29T09:36:15Z</time>
      </trkpt>
      <trkpt lat="50.54094" lon="2.57885">
        <ele>19</ele>
        <time>2012-01-29T09:36:17Z</time>
      </trkpt>
      <trkpt lat="50.54084" lon="2.57869">
        <ele>19</ele>
        <time>2012-01-29T09:36:19Z</time>
      </trkpt>
      <trkpt lat="50.54073" lon="2.57852">
        <ele>19</ele>
        <time>2012-01-29T09:36:21Z</time>
      </trkpt>
      <trkpt lat="50.54063" lon="2.57836">
        <ele>19</ele>
        <time>2012-01-29T09:36:23Z</time>
      </trkpt>
      <trkpt lat="50.54052" lon="2.5782">
        <ele>19</ele>
        <time>2012-01-29T09:36:25Z</time>
      </trkpt>
      <trkpt lat="50.54043" lon="2.57806">
        <ele>19</ele>
        <time>2012-01-29T09:36:27Z</time>
      </trkpt>
      <trkpt lat="50.54034" lon="2.57793">
        <ele>24</ele>
        <time>2012-01-29T09:36:29Z</time>
      </trkpt>
      <trkpt lat="50.54027" lon="2.57782">
        <ele>24</ele>
        <time>2012-01-29T09:36:31Z</time>
      </trkpt>
      <trkpt lat="50.54021" lon="2.57771">
        <ele>24</ele>
        <time>2012-01-29T09:36:33Z</time>
      </trkpt>
      <trkpt lat="50.5401" lon="2.57762">
        <ele>24</ele>
        <time>2012-01-29T09:36:35Z</time>
      </trkpt>
      <trkpt lat="50.53997" lon="2.57757">
        <ele>24</ele>
        <time>2012-01-29T09:36:37Z</time>
      </trkpt>
      <trkpt lat="50.53983" lon="2.57755">
        <ele>24</ele>
        <time>2012-01-29T09:36:39Z</time>
      </trkpt>
      <trkpt lat="50.53968" lon="2.57753">
        <ele>24</ele>
        <time>2012-01-29T09:36:41Z</time>
      </trkpt>
      <trkpt lat="50.53954" lon="2.57752">
        <ele>24</ele>
        <time>2012-01-29T09:36:43Z</time>
      </trkpt>
      <trkpt lat="50.5394" lon="2.57753">
        <ele>24</ele>
        <time>2012-01-29T09:36:45Z</time>
      </trkpt>
      <trkpt lat="50.53927" lon="2.57752">
        <ele>24</ele>
        <time>2012-01-29T09:36:47Z</time>
      </trkpt>
      <trkpt lat="50.53913" lon="2.57752">
        <ele>24</ele>
        <time>2012-01-29T09:36:49Z</time>
      </trkpt>
      <trkpt lat="50.53899" lon="2.57752">
        <ele>24</ele>
        <time>2012-01-29T09:36:51Z</time>
      </trkpt>
      <trkpt lat="50.53885" lon="2.57751">
        <ele>24</ele>
        <time>2012-01-29T09:36:53Z</time>
      </trkpt>
      <trkpt lat="50.53872" lon="2.57752">
        <ele>24</ele>
        <time>2012-01-29T09:36:55Z</time>
      </trkpt>
      <trkpt lat="50.53858" lon="2.57753">
        <ele>24</ele>
        <time>2012-01-29T09:36:57Z</time>
      </trkpt>
      <trkpt lat="50.53845" lon="2.57753">
        <ele>24</ele>
        <time>2012-01-29T09:36:59Z</time>
      </trkpt>
      <trkpt lat="50.53831" lon="2.57753">
        <ele>24</ele>
        <time>2012-01-29T09:37:01Z</time>
      </trkpt>
      <trkpt lat="50.53817" lon="2.57753">
        <ele>30</ele>
        <time>2012-01-29T09:37:03Z</time>
      </trkpt>
      <trkpt lat="50.53803" lon="2.57754">
        <ele>30</ele>
        <time>2012-01-29T09:37:05Z</time>
      </trkpt>
      <trkpt lat="50.53789" lon="2.57756">
        <ele>30</ele>
        <time>2012-01-29T09:37:07Z</time>
      </trkpt>
      <trkpt lat="50.53776" lon="2.57761">
        <ele>30</ele>
        <time>2012-01-29T09:37:09Z</time>
      </trkpt>
      <trkpt lat="50.53763" lon="2.57765">
        <ele>30</ele>
        <time>2012-01-29T09:37:11Z</time>
      </trkpt>
      <trkpt lat="50.5375" lon="2.57771">
        <ele>30</ele>
        <time>2012-01-29T09:37:13Z</time>
      </trkpt>
      <trkpt lat="50.53735" lon="2.57776">
        <ele>30</ele>
        <time>2012-01-29T09:37:15Z</time>
      </trkpt>
      <trkpt lat="50.53722" lon="2.57779">
        <ele>30</ele>
        <time>2012-01-29T09:37:17Z</time>
      </trkpt>
      <trkpt lat="50.5371" lon="2.57782">
        <ele>30</ele>
        <time>2012-01-29T09:37:19Z</time>
      </trkpt>
      <trkpt lat="50.53698" lon="2.57786">
        <ele>30</ele>
        <time>2012-01-29T09:37:21Z</time>
      </trkpt>
      <trkpt lat="50.53686" lon="2.5779">
        <ele>30</ele>
        <time>2012-01-29T09:37:23Z</time>
      </trkpt>
      <trkpt lat="50.53674" lon="2.57792">
        <ele>30</ele>
        <time>2012-01-29T09:37:25Z</time>
      </trkpt>
      <trkpt lat="50.53661" lon="2.57795">
        <ele>30</ele>
        <time>2012-01-29T09:37:27Z</time>
      </trkpt>
      <trkpt lat="50.53649" lon="2.57798">
        <ele>30</ele>
        <time>2012-01-29T09:37:29Z</time>
      </trkpt>
      <trkpt lat="50.53635" lon="2.578">
        <ele>30</ele>
        <time>2012-01-29T09:37:31Z</time>
      </trkpt>
      <trkpt lat="50.5362" lon="2.57803">
        <ele>30</ele>
        <time>2012-01-29T09:37:33Z</time>
      </trkpt>
      <trkpt lat="50.53604" lon="2.57805">
        <ele>30</ele>
        <time>2012-01-29T09:37:35Z</time>
      </trkpt>
      <trkpt lat="50.53589" lon="2.57804">
        <ele>30</ele>
        <time>2012-01-29T09:37:37Z</time>
      </trkpt>
      <trkpt lat="50.53574" lon="2.57799">
        <ele>30</ele>
        <time>2012-01-29T09:37:39Z</time>
      </trkpt>
      <trkpt lat="50.5356" lon="2.57793">
        <ele>30</ele>
        <time>2012-01-29T09:37:41Z</time>
      </trkpt>
      <trkpt lat="50.53545" lon="2.57788">
        <ele>30</ele>
        <time>2012-01-29T09:37:43Z</time>
      </trkpt>
      <trkpt lat="50.53531" lon="2.57782">
        <ele>30</ele>
        <time>2012-01-29T09:37:45Z</time>
      </trkpt>
      <trkpt lat="50.53518" lon="2.57778">
        <ele>30</ele>
        <time>2012-01-29T09:37:47Z</time>
      </trkpt>
      <trkpt lat="50.53508" lon="2.57774">
        <ele>30</ele>
        <time>2012-01-29T09:37:49Z</time>
      </trkpt>
      <trkpt lat="50.53499" lon="2.57773">
        <ele>30</ele>
        <time>2012-01-29T09:37:51Z</time>
      </trkpt>
      <trkpt lat="50.5349" lon="2.57779">
        <ele>30</ele>
        <time>2012-01-29T09:37:53Z</time>
      </trkpt>
      <trkpt lat="50.53483" lon="2.57793">
        <ele>30</ele>
        <time>2012-01-29T09:37:55Z</time>
      </trkpt>
      <trkpt lat="50.53477" lon="2.5781">
        <ele>30</ele>
        <time>2012-01-29T09:37:57Z</time>
      </trkpt>
      <trkpt lat="50.53469" lon="2.57828">
        <ele>30</ele>
        <time>2012-01-29T09:37:59Z</time>
      </trkpt>
      <trkpt lat="50.53461" lon="2.57846">
        <ele>30</ele>
        <time>2012-01-29T09:38:01Z</time>
      </trkpt>
      <trkpt lat="50.53451" lon="2.57864">
        <ele>30</ele>
        <time>2012-01-29T09:38:03Z</time>
      </trkpt>
      <trkpt lat="50.53442" lon="2.57882">
        <ele>30</ele>
        <time>2012-01-29T09:38:05Z</time>
      </trkpt>
      <trkpt lat="50.53433" lon="2.57901">
        <ele>30</ele>
        <time>2012-01-29T09:38:07Z</time>
      </trkpt>
      <trkpt lat="50.53423" lon="2.57919">
        <ele>30</ele>
        <time>2012-01-29T09:38:09Z</time>
      </trkpt>
      <trkpt lat="50.53414" lon="2.57938">
        <ele>30</ele>
        <time>2012-01-29T09:38:11Z</time>
      </trkpt>
      <trkpt lat="50.53404" lon="2.57956">
        <ele>30</ele>
        <time>2012-01-29T09:38:13Z</time>
      </trkpt>
      <trkpt lat="50.53395" lon="2.57975">
        <ele>30</ele>
        <time>2012-01-29T09:38:15Z</time>
      </trkpt>
      <trkpt lat="50.53386" lon="2.57994">
        <ele>30</ele>
        <time>2012-01-29T09:38:17Z</time>
      </trkpt>
      <trkpt lat="50.53376" lon="2.58012">
        <ele>30</ele>
        <time>2012-01-29T09:38:19Z</time>
      </trkpt>
      <trkpt lat="50.53366" lon="2.5803">
        <ele>30</ele>
        <time>2012-01-29T09:38:21Z</time>
      </trkpt>
      <trkpt lat="50.53357" lon="2.58049">
        <ele>30</ele>
        <time>2012-01-29T09:38:23Z</time>
      </trkpt>
      <trkpt lat="50.53347" lon="2.58067">
        <ele>30</ele>
        <time>2012-01-29T09:38:25Z</time>
      </trkpt>
      <trkpt lat="50.53337" lon="2.58086">
        <ele>30</ele>
        <time>2012-01-29T09:38:27Z</time>
      </trkpt>
      <trkpt lat="50.53327" lon="2.58105">
        <ele>30</ele>
        <time>2012-01-29T09:38:29Z</time>
      </trkpt>
      <trkpt lat="50.53318" lon="2.58124">
        <ele>30</ele>
        <time>2012-01-29T09:38:31Z</time>
      </trkpt>
      <trkpt lat="50.53308" lon="2.58143">
        <ele>30</ele>
        <time>2012-01-29T09:38:33Z</time>
      </trkpt>
      <trkpt lat="50.53298" lon="2.58161">
        <ele>30</ele>
        <time>2012-01-29T09:38:35Z</time>
      </trkpt>
      <trkpt lat="50.53289" lon="2.58179">
        <ele>30</ele>
        <time>2012-01-29T09:38:37Z</time>
      </trkpt>
      <trkpt lat="50.53279" lon="2.58199">
        <ele>30</ele>
        <time>2012-01-29T09:38:39Z</time>
      </trkpt>
      <trkpt lat="50.53269" lon="2.58219">
        <ele>30</ele>
        <time>2012-01-29T09:38:41Z</time>
      </trkpt>
      <trkpt lat="50.53261" lon="2.58238">
        <ele>30</ele>
        <time>2012-01-29T09:38:43Z</time>
      </trkpt>
      <trkpt lat="50.53252" lon="2.58257">
        <ele>30</ele>
        <time>2012-01-29T09:38:45Z</time>
      </trkpt>
      <trkpt lat="50.53242" lon="2.58275">
        <ele>30</ele>
        <time>2012-01-29T09:38:47Z</time>
      </trkpt>
      <trkpt lat="50.53231" lon="2.58293">
        <ele>30</ele>
        <time>2012-01-29T09:38:49Z</time>
      </trkpt>
      <trkpt lat="50.53221" lon="2.58312">
        <ele>30</ele>
        <time>2012-01-29T09:38:51Z</time>
      </trkpt>
      <trkpt lat="50.53211" lon="2.5833">
        <ele>30</ele>
        <time>2012-01-29T09:38:53Z</time>
      </trkpt>
      <trkpt lat="50.53202" lon="2.58349">
        <ele>30</ele>
        <time>2012-01-29T09:38:55Z</time>
      </trkpt>
      <trkpt lat="50.53193" lon="2.58368">
        <ele>30</ele>
        <time>2012-01-29T09:38:57Z</time>
      </trkpt>
      <trkpt lat="50.53183" lon="2.58387">
        <ele>30</ele>
        <time>2012-01-29T09:38:59Z</time>
      </trkpt>
      <trkpt lat="50.53174" lon="2.58406">
        <ele>30</ele>
        <time>2012-01-29T09:39:01Z</time>
      </trkpt>
      <trkpt lat="50.53165" lon="2.58425">
        <ele>30</ele>
        <time>2012-01-29T09:39:03Z</time>
      </trkpt>
      <trkpt lat="50.53155" lon="2.58444">
        <ele>30</ele>
        <time>2012-01-29T09:39:05Z</time>
      </trkpt>
      <trkpt lat="50.53146" lon="2.58461">
        <ele>30</ele>
        <time>2012-01-29T09:39:07Z</time>
      </trkpt>
      <trkpt lat="50.53137" lon="2.58479">
        <ele>30</ele>
        <time>2012-01-29T09:39:09Z</time>
      </trkpt>
      <trkpt lat="50.53128" lon="2.58497">
        <ele>30</ele>
        <time>2012-01-29T09:39:11Z</time>
      </trkpt>
      <trkpt lat="50.5312" lon="2.58515">
        <ele>30</ele>
        <time>2012-01-29T09:39:13Z</time>
      </trkpt>
      <trkpt lat="50.53111" lon="2.58532">
        <ele>30</ele>
        <time>2012-01-29T09:39:15Z</time>
      </trkpt>
      <trkpt lat="50.53101" lon="2.58547">
        <ele>30</ele>
        <time>2012-01-29T09:39:17Z</time>
      </trkpt>
      <trkpt lat="50.53089" lon="2.58557">
        <ele>30</ele>
        <time>2012-01-29T09:39:19Z</time>
      </trkpt>
      <trkpt lat="50.53077" lon="2.58563">
        <ele>30</ele>
        <time>2012-01-29T09:39:21Z</time>
      </trkpt>
      <trkpt lat="50.53067" lon="2.58572">
        <ele>30</ele>
        <time>2012-01-29T09:39:23Z</time>
      </trkpt>
      <trkpt lat="50.53058" lon="2.58587">
        <ele>30</ele>
        <time>2012-01-29T09:39:25Z</time>
      </trkpt>
      <trkpt lat="50.53051" lon="2.58605">
        <ele>30</ele>
        <time>2012-01-29T09:39:27Z</time>
      </trkpt>
      <trkpt lat="50.53043" lon="2.58623">
        <ele>30</ele>
        <time>2012-01-29T09:39:29Z</time>
      </trkpt>
      <trkpt lat="50.53034" lon="2.58639">
        <ele>30</ele>
        <time>2012-01-29T09:39:31Z</time>
      </trkpt>
      <trkpt lat="50.53023" lon="2.58654">
        <ele>30</ele>
        <time>2012-01-29T09:39:33Z</time>
      </trkpt>
      <trkpt lat="50.53012" lon="2.58667">
        <ele>30</ele>
        <time>2012-01-29T09:39:35Z</time>
      </trkpt>
      <trkpt lat="50.52998" lon="2.58674">
        <ele>30</ele>
        <time>2012-01-29T09:39:37Z</time>
      </trkpt>
      <trkpt lat="50.52984" lon="2.58673">
        <ele>30</ele>
        <time>2012-01-29T09:39:39Z</time>
      </trkpt>
      <trkpt lat="50.5297" lon="2.58664">
        <ele>30</ele>
        <time>2012-01-29T09:39:41Z</time>
      </trkpt>
      <trkpt lat="50.52957" lon="2.5865">
        <ele>30</ele>
        <time>2012-01-29T09:39:43Z</time>
      </trkpt>
      <trkpt lat="50.52943" lon="2.58638">
        <ele>30</ele>
        <time>2012-01-29T09:39:45Z</time>
      </trkpt>
      <trkpt lat="50.52929" lon="2.58629">
        <ele>30</ele>
        <time>2012-01-29T09:39:47Z</time>
      </trkpt>
      <trkpt lat="50.52913" lon="2.58623">
        <ele>30</ele>
        <time>2012-01-29T09:39:49Z</time>
      </trkpt>
      <trkpt lat="50.52897" lon="2.5862">
        <ele>30</ele>
        <time>2012-01-29T09:39:51Z</time>
      </trkpt>
      <trkpt lat="50.52881" lon="2.58619">
        <ele>30</ele>
        <time>2012-01-29T09:39:53Z</time>
      </trkpt>
      <trkpt lat="50.52864" lon="2.58624">
        <ele>30</ele>
        <time>2012-01-29T09:39:55Z</time>
      </trkpt>
      <trkpt lat="50.52851" lon="2.58638">
        <ele>30</ele>
        <time>2012-01-29T09:39:57Z</time>
      </trkpt>
      <trkpt lat="50.52842" lon="2.58657">
        <ele>30</ele>
        <time>2012-01-29T09:39:59Z</time>
      </trkpt>
      <trkpt lat="50.52835" lon="2.58678">
        <ele>30</ele>
        <time>2012-01-29T09:40:01Z</time>
      </trkpt>
      <trkpt lat="50.52828" lon="2.58698">
        <ele>30</ele>
        <time>2012-01-29T09:40:03Z</time>
      </trkpt>
      <trkpt lat="50.52821" lon="2.58717">
        <ele>30</ele>
        <time>2012-01-29T09:40:05Z</time>
      </trkpt>
      <trkpt lat="50.52813" lon="2.58735">
        <ele>30</ele>
        <time>2012-01-29T09:40:07Z</time>
      </trkpt>
      <trkpt lat="50.52804" lon="2.58752">
        <ele>30</ele>
        <time>2012-01-29T09:40:09Z</time>
      </trkpt>
      <trkpt lat="50.52795" lon="2.58768">
        <ele>30</ele>
        <time>2012-01-29T09:40:11Z</time>
      </trkpt>
      <trkpt lat="50.52785" lon="2.58783">
        <ele>30</ele>
        <time>2012-01-29T09:40:13Z</time>
      </trkpt>
      <trkpt lat="50.52775" lon="2.58797">
        <ele>30</ele>
        <time>2012-01-29T09:40:15Z</time>
      </trkpt>
      <trkpt lat="50.52764" lon="2.5881">
        <ele>30</ele>
        <time>2012-01-29T09:40:17Z</time>
      </trkpt>
      <trkpt lat="50.52753" lon="2.58823">
        <ele>30</ele>
        <time>2012-01-29T09:40:19Z</time>
      </trkpt>
      <trkpt lat="50.52742" lon="2.58834">
        <ele>30</ele>
        <time>2012-01-29T09:40:21Z</time>
      </trkpt>
      <trkpt lat="50.52731" lon="2.58846">
        <ele>30</ele>
        <time>2012-01-29T09:40:23Z</time>
      </trkpt>
      <trkpt lat="50.52721" lon="2.58858">
        <ele>30</ele>
        <time>2012-01-29T09:40:25Z</time>
      </trkpt>
      <trkpt lat="50.5271" lon="2.58871">
        <ele>35</ele>
        <time>2012-01-29T09:40:27Z</time>
      </trkpt>
      <trkpt lat="50.52701" lon="2.58884">
        <ele>35</ele>
        <time>2012-01-29T09:40:29Z</time>
      </trkpt>
      <trkpt lat="50.52691" lon="2.58896">
        <ele>35</ele>
        <time>2012-01-29T09:40:31Z</time>
      </trkpt>
      <trkpt lat="50.52682" lon="2.58908">
        <ele>35</ele>
        <time>2012-01-29T09:40:33Z</time>
      </trkpt>
      <trkpt lat="50.52673" lon="2.5892">
        <ele>35</ele>
        <time>2012-01-29T09:40:35Z</time>
      </trkpt>
      <trkpt lat="50.52665" lon="2.5893">
        <ele>35</ele>
        <time>2012-01-29T09:40:37Z</time>
      </trkpt>
      <trkpt lat="50.52657" lon="2.58941">
        <ele>35</ele>
        <time>2012-01-29T09:40:39Z</time>
      </trkpt>
      <trkpt lat="50.5265" lon="2.58953">
        <ele>35</ele>
        <time>2012-01-29T09:40:41Z</time>
      </trkpt>
      <trkpt lat="50.52641" lon="2.58965">
        <ele>35</ele>
        <time>2012-01-29T09:40:43Z</time>
      </trkpt>
      <trkpt lat="50.52632" lon="2.58976">
        <ele>35</ele>
        <time>2012-01-29T09:40:45Z</time>
      </trkpt>
      <trkpt lat="50.52623" lon="2.58988">
        <ele>35</ele>
        <time>2012-01-29T09:40:47Z</time>
      </trkpt>
      <trkpt lat="50.52614" lon="2.59">
        <ele>35</ele>
        <time>2012-01-29T09:40:49Z</time>
      </trkpt>
      <trkpt lat="50.52604" lon="2.59011">
        <ele>35</ele>
        <time>2012-01-29T09:40:51Z</time>
      </trkpt>
      <trkpt lat="50.52595" lon="2.59023">
        <ele>35</ele>
        <time>2012-01-29T09:40:53Z</time>
      </trkpt>
      <trkpt lat="50.52586" lon="2.59036">
        <ele>35</ele>
        <time>2012-01-29T09:40:55Z</time>
      </trkpt>
      <trkpt lat="50.52576" lon="2.59048">
        <ele>35</ele>
        <time>2012-01-29T09:40:57Z</time>
      </trkpt>
      <trkpt lat="50.52566" lon="2.59061">
        <ele>35</ele>
        <time>2012-01-29T09:40:59Z</time>
      </trkpt>
      <trkpt lat="50.52556" lon="2.59072">
        <ele>35</ele>
        <time>2012-01-29T09:41:01Z</time>
      </trkpt>
      <trkpt lat="50.52547" lon="2.59085">
        <ele>35</ele>
        <time>2012-01-29T09:41:03Z</time>
      </trkpt>
      <trkpt lat="50.52536" lon="2.59098">
        <ele>35</ele>
        <time>2012-01-29T09:41:05Z</time>
      </trkpt>
      <trkpt lat="50.52525" lon="2.59111">
        <ele>35</ele>
        <time>2012-01-29T09:41:07Z</time>
      </trkpt>
      <trkpt lat="50.52515" lon="2.59124">
        <ele>35</ele>
        <time>2012-01-29T09:41:09Z</time>
      </trkpt>
      <trkpt lat="50.52504" lon="2.59137">
        <ele>35</ele>
        <time>2012-01-29T09:41:11Z</time>
      </trkpt>
      <trkpt lat="50.52493" lon="2.5915">
        <ele>35</ele>
        <time>2012-01-29T09:41:13Z</time>
      </trkpt>
      <trkpt lat="50.52481" lon="2.59162">
        <ele>35</ele>
        <time>2012-01-29T09:41:15Z</time>
      </trkpt>
      <trkpt lat="50.52468" lon="2.59175">
        <ele>35</ele>
        <time>2012-01-29T09:41:17Z</time>
      </trkpt>
      <trkpt lat="50.52456" lon="2.59187">
        <ele>35</ele>
        <time>2012-01-29T09:41:19Z</time>
      </trkpt>
      <trkpt lat="50.52443" lon="2.59199">
        <ele>35</ele>
        <time>2012-01-29T09:41:21Z</time>
      </trkpt>
      <trkpt lat="50.5243" lon="2.59211">
        <ele>35</ele>
        <time>2012-01-29T09:41:23Z</time>
      </trkpt>
      <trkpt lat="50.52416" lon="2.59222">
        <ele>35</ele>
        <time>2012-01-29T09:41:25Z</time>
      </trkpt>
      <trkpt lat="50.52402" lon="2.59234">
        <ele>35</ele>
        <time>2012-01-29T09:41:27Z</time>
      </trkpt>
      <trkpt lat="50.52387" lon="2.59245">
        <ele>35</ele>
        <time>2012-01-29T09:41:29Z</time>
      </trkpt>
      <trkpt lat="50.52373" lon="2.59255">
        <ele>35</ele>
        <time>2012-01-29T09:41:31Z</time>
      </trkpt>
      <trkpt lat="50.52358" lon="2.59265">
        <ele>35</ele>
        <time>2012-01-29T09:41:33Z</time>
      </trkpt>
      <trkpt lat="50.52343" lon="2.59273">
        <ele>35</ele>
        <time>2012-01-29T09:41:35Z</time>
      </trkpt>
      <trkpt lat="50.52328" lon="2.5928">
        <ele>35</ele>
        <time>2012-01-29T09:41:37Z</time>
      </trkpt>
      <trkpt lat="50.52314" lon="2.59287">
        <ele>35</ele>
        <time>2012-01-29T09:41:39Z</time>
      </trkpt>
      <trkpt lat="50.52299" lon="2.59295">
        <ele>35</ele>
        <time>2012-01-29T09:41:41Z</time>
      </trkpt>
      <trkpt lat="50.52284" lon="2.59301">
        <ele>35</ele>
        <time>2012-01-29T09:41:43Z</time>
      </trkpt>
      <trkpt lat="50.52271" lon="2.59309">
        <ele>35</ele>
        <time>2012-01-29T09:41:45Z</time>
      </trkpt>
      <trkpt lat="50.52256" lon="2.59316">
        <ele>35</ele>
        <time>2012-01-29T09:41:47Z</time>
      </trkpt>
      <trkpt lat="50.52243" lon="2.59322">
        <ele>35</ele>
        <time>2012-01-29T09:41:49Z</time>
      </trkpt>
      <trkpt lat="50.52229" lon="2.59329">
        <ele>35</ele>
        <time>2012-01-29T09:41:51Z</time>
      </trkpt>
      <trkpt lat="50.52215" lon="2.59336">
        <ele>40</ele>
        <time>2012-01-29T09:41:53Z</time>
      </trkpt>
      <trkpt lat="50.522" lon="2.59344">
        <ele>40</ele>
        <time>2012-01-29T09:41:55Z</time>
      </trkpt>
      <trkpt lat="50.52186" lon="2.5935">
        <ele>40</ele>
        <time>2012-01-29T09:41:57Z</time>
      </trkpt>
      <trkpt lat="50.52172" lon="2.59357">
        <ele>40</ele>
        <time>2012-01-29T09:41:59Z</time>
      </trkpt>
      <trkpt lat="50.52158" lon="2.59364">
        <ele>40</ele>
        <time>2012-01-29T09:42:01Z</time>
      </trkpt>
      <trkpt lat="50.52144" lon="2.59372">
        <ele>40</ele>
        <time>2012-01-29T09:42:03Z</time>
      </trkpt>
      <trkpt lat="50.5213" lon="2.59378">
        <ele>40</ele>
        <time>2012-01-29T09:42:05Z</time>
      </trkpt>
      <trkpt lat="50.52115" lon="2.59383">
        <ele>40</ele>
        <time>2012-01-29T09:42:07Z</time>
      </trkpt>
      <trkpt lat="50.521" lon="2.59387">
        <ele>40</ele>
        <time>2012-01-29T09:42:09Z</time>
      </trkpt>
      <trkpt lat="50.52084" lon="2.59391">
        <ele>40</ele>
        <time>2012-01-29T09:42:11Z</time>
      </trkpt>
      <trkpt lat="50.52068" lon="2.59396">
        <ele>40</ele>
        <time>2012-01-29T09:42:13Z</time>
      </trkpt>
      <trkpt lat="50.52059" lon="2.59399">
        <ele>40</ele>
        <time>2012-01-29T09:42:14Z</time>
      </trkpt>
      <trkpt lat="50.52043" lon="2.59407">
        <ele>40</ele>
        <time>2012-01-29T09:42:16Z</time>
      </trkpt>
      <trkpt lat="50.52035" lon="2.59411">
        <ele>40</ele>
        <time>2012-01-29T09:42:17Z</time>
      </trkpt>
      <trkpt lat="50.52018" lon="2.5942">
        <ele>40</ele>
        <time>2012-01-29T09:42:19Z</time>
      </trkpt>
      <trkpt lat="50.52009" lon="2.59425">
        <ele>40</ele>
        <time>2012-01-29T09:42:20Z</time>
      </trkpt>
      <trkpt lat="50.52001" lon="2.5943">
        <ele>40</ele>
        <time>2012-01-29T09:42:21Z</time>
      </trkpt>
      <trkpt lat="50.51992" lon="2.59434">
        <ele>40</ele>
        <time>2012-01-29T09:42:22Z</time>
      </trkpt>
      <trkpt lat="50.51984" lon="2.5944">
        <ele>40</ele>
        <time>2012-01-29T09:42:23Z</time>
      </trkpt>
      <trkpt lat="50.51975" lon="2.59444">
        <ele>40</ele>
        <time>2012-01-29T09:42:24Z</time>
      </trkpt>
      <trkpt lat="50.51966" lon="2.5945">
        <ele>40</ele>
        <time>2012-01-29T09:42:25Z</time>
      </trkpt>
      <trkpt lat="50.51958" lon="2.59456">
        <ele>40</ele>
        <time>2012-01-29T09:42:26Z</time>
      </trkpt>
      <trkpt lat="50.51949" lon="2.59463">
        <ele>40</ele>
        <time>2012-01-29T09:42:27Z</time>
      </trkpt>
      <trkpt lat="50.51941" lon="2.59469">
        <ele>40</ele>
        <time>2012-01-29T09:42:28Z</time>
      </trkpt>
      <trkpt lat="50.51933" lon="2.59477">
        <ele>35</ele>
        <time>2012-01-29T09:42:29Z</time>
      </trkpt>
      <trkpt lat="50.51925" lon="2.59485">
        <ele>35</ele>
        <time>2012-01-29T09:42:30Z</time>
      </trkpt>
      <trkpt lat="50.51916" lon="2.59493">
        <ele>35</ele>
        <time>2012-01-29T09:42:31Z</time>
      </trkpt>
      <trkpt lat="50.51908" lon="2.59501">
        <ele>35</ele>
        <time>2012-01-29T09:42:32Z</time>
      </trkpt>
      <trkpt lat="50.519" lon="2.5951">
        <ele>35</ele>
        <time>2012-01-29T09:42:33Z</time>
      </trkpt>
      <trkpt lat="50.51893" lon="2.59519">
        <ele>35</ele>
        <time>2012-01-29T09:42:34Z</time>
      </trkpt>
      <trkpt lat="50.51885" lon="2.59528">
        <ele>35</ele>
        <time>2012-01-29T09:42:35Z</time>
      </trkpt>
      <trkpt lat="50.51878" lon="2.59538">
        <ele>35</ele>
        <time>2012-01-29T09:42:36Z</time>
      </trkpt>
      <trkpt lat="50.51871" lon="2.59548">
        <ele>35</ele>
        <time>2012-01-29T09:42:37Z</time>
      </trkpt>
      <trkpt lat="50.51864" lon="2.59557">
        <ele>35</ele>
        <time>2012-01-29T09:42:38Z</time>
      </trkpt>
      <trkpt lat="50.51852" lon="2.59577">
        <ele>35</ele>
        <time>2012-01-29T09:42:40Z</time>
      </trkpt>
      <trkpt lat="50.51843" lon="2.596">
        <ele>35</ele>
        <time>2012-01-29T09:42:42Z</time>
      </trkpt>
      <trkpt lat="50.51839" lon="2.59612">
        <ele>35</ele>
        <time>2012-01-29T09:42:43Z</time>
      </trkpt>
      <trkpt lat="50.51835" lon="2.59625">
        <ele>35</ele>
        <time>2012-01-29T09:42:44Z</time>
      </trkpt>
      <trkpt lat="50.51827" lon="2.59649">
        <ele>35</ele>
        <time>2012-01-29T09:42:46Z</time>
      </trkpt>
      <trkpt lat="50.5182" lon="2.59672">
        <ele>35</ele>
        <time>2012-01-29T09:42:48Z</time>
      </trkpt>
      <trkpt lat="50.51814" lon="2.59696">
        <ele>35</ele>
        <time>2012-01-29T09:42:50Z</time>
      </trkpt>
      <trkpt lat="50.51808" lon="2.59718">
        <ele>29</ele>
        <time>2012-01-29T09:42:52Z</time>
      </trkpt>
      <trkpt lat="50.51802" lon="2.59738">
        <ele>29</ele>
        <time>2012-01-29T09:42:54Z</time>
      </trkpt>
      <trkpt lat="50.51794" lon="2.59746">
        <ele>29</ele>
        <time>2012-01-29T09:42:56Z</time>
      </trkpt>
      <trkpt lat="50.51783" lon="2.59741">
        <ele>29</ele>
        <time>2012-01-29T09:42:58Z</time>
      </trkpt>
      <trkpt lat="50.51776" lon="2.59725">
        <ele>29</ele>
        <time>2012-01-29T09:43:00Z</time>
      </trkpt>
      <trkpt lat="50.51771" lon="2.59705">
        <ele>29</ele>
        <time>2012-01-29T09:43:02Z</time>
      </trkpt>
      <trkpt lat="50.51766" lon="2.59682">
        <ele>29</ele>
        <time>2012-01-29T09:43:04Z</time>
      </trkpt>
      <trkpt lat="50.51761" lon="2.59661">
        <ele>29</ele>
        <time>2012-01-29T09:43:06Z</time>
      </trkpt>
      <trkpt lat="50.51759" lon="2.59638">
        <ele>29</ele>
        <time>2012-01-29T09:43:08Z</time>
      </trkpt>
      <trkpt lat="50.51755" lon="2.59615">
        <ele>29</ele>
        <time>2012-01-29T09:43:10Z</time>
      </trkpt>
      <trkpt lat="50.51747" lon="2.59595">
        <ele>29</ele>
        <time>2012-01-29T09:43:12Z</time>
      </trkpt>
      <trkpt lat="50.51736" lon="2.5958">
        <ele>29</ele>
        <time>2012-01-29T09:43:14Z</time>
      </trkpt>
      <trkpt lat="50.51724" lon="2.59567">
        <ele>29</ele>
        <time>2012-01-29T09:43:16Z</time>
      </trkpt>
      <trkpt lat="50.5171" lon="2.59556">
        <ele>29</ele>
        <time>2012-01-29T09:43:18Z</time>
      </trkpt>
      <trkpt lat="50.51696" lon="2.59544">
        <ele>29</ele>
        <time>2012-01-29T09:43:20Z</time>
      </trkpt>
      <trkpt lat="50.51682" lon="2.59529">
        <ele>29</ele>
        <time>2012-01-29T09:43:22Z</time>
      </trkpt>
      <trkpt lat="50.5167" lon="2.59511">
        <ele>29</ele>
        <time>2012-01-29T09:43:24Z</time>
      </trkpt>
      <trkpt lat="50.51659" lon="2.59492">
        <ele>29</ele>
        <time>2012-01-29T09:43:26Z</time>
      </trkpt>
      <trkpt lat="50.51652" lon="2.59482">
        <ele>29</ele>
        <time>2012-01-29T09:43:27Z</time>
      </trkpt>
      <trkpt lat="50.5164" lon="2.59462">
        <ele>29</ele>
        <time>2012-01-29T09:43:29Z</time>
      </trkpt>
      <trkpt lat="50.51634" lon="2.59452">
        <ele>29</ele>
        <time>2012-01-29T09:43:30Z</time>
      </trkpt>
      <trkpt lat="50.51627" lon="2.59442">
        <ele>29</ele>
        <time>2012-01-29T09:43:31Z</time>
      </trkpt>
      <trkpt lat="50.51621" lon="2.59432">
        <ele>29</ele>
        <time>2012-01-29T09:43:32Z</time>
      </trkpt>
      <trkpt lat="50.51614" lon="2.59422">
        <ele>29</ele>
        <time>2012-01-29T09:43:33Z</time>
      </trkpt>
      <trkpt lat="50.51608" lon="2.59411">
        <ele>29</ele>
        <time>2012-01-29T09:43:34Z</time>
      </trkpt>
      <trkpt lat="50.51601" lon="2.59401">
        <ele>29</ele>
        <time>2012-01-29T09:43:35Z</time>
      </trkpt>
      <trkpt lat="50.51594" lon="2.5939">
        <ele>29</ele>
        <time>2012-01-29T09:43:36Z</time>
      </trkpt>
      <trkpt lat="50.51588" lon="2.59381">
        <ele>24</ele>
        <time>2012-01-29T09:43:37Z</time>
      </trkpt>
      <trkpt lat="50.51581" lon="2.59371">
        <ele>24</ele>
        <time>2012-01-29T09:43:38Z</time>
      </trkpt>
      <trkpt lat="50.51574" lon="2.59361">
        <ele>24</ele>
        <time>2012-01-29T09:43:39Z</time>
      </trkpt>
      <trkpt lat="50.51568" lon="2.5935">
        <ele>24</ele>
        <time>2012-01-29T09:43:40Z</time>
      </trkpt>
      <trkpt lat="50.51561" lon="2.5934">
        <ele>24</ele>
        <time>2012-01-29T09:43:41Z</time>
      </trkpt>
      <trkpt lat="50.51554" lon="2.5933">
        <ele>24</ele>
        <time>2012-01-29T09:43:42Z</time>
      </trkpt>
      <trkpt lat="50.51547" lon="2.5932">
        <ele>24</ele>
        <time>2012-01-29T09:43:43Z</time>
      </trkpt>
      <trkpt lat="50.51541" lon="2.5931">
        <ele>24</ele>
        <time>2012-01-29T09:43:44Z</time>
      </trkpt>
      <trkpt lat="50.51534" lon="2.59301">
        <ele>24</ele>
        <time>2012-01-29T09:43:45Z</time>
      </trkpt>
      <trkpt lat="50.51527" lon="2.5929">
        <ele>24</ele>
        <time>2012-01-29T09:43:46Z</time>
      </trkpt>
      <trkpt lat="50.51521" lon="2.5928">
        <ele>24</ele>
        <time>2012-01-29T09:43:47Z</time>
      </trkpt>
      <trkpt lat="50.51508" lon="2.59261">
        <ele>24</ele>
        <time>2012-01-29T09:43:49Z</time>
      </trkpt>
      <trkpt lat="50.51501" lon="2.59237">
        <ele>24</ele>
        <time>2012-01-29T09:43:51Z</time>
      </trkpt>
      <trkpt lat="50.51494" lon="2.59221">
        <ele>24</ele>
        <time>2012-01-29T09:43:52Z</time>
      </trkpt>
      <trkpt lat="50.5148" lon="2.59203">
        <ele>24</ele>
        <time>2012-01-29T09:43:54Z</time>
      </trkpt>
      <trkpt lat="50.51473" lon="2.59193">
        <ele>24</ele>
        <time>2012-01-29T09:43:55Z</time>
      </trkpt>
      <trkpt lat="50.51465" lon="2.59184">
        <ele>24</ele>
        <time>2012-01-29T09:43:56Z</time>
      </trkpt>
      <trkpt lat="50.51459" lon="2.59175">
        <ele>24</ele>
        <time>2012-01-29T09:43:57Z</time>
      </trkpt>
      <trkpt lat="50.51446" lon="2.59158">
        <ele>24</ele>
        <time>2012-01-29T09:43:59Z</time>
      </trkpt>
      <trkpt lat="50.5144" lon="2.59148">
        <ele>24</ele>
        <time>2012-01-29T09:44:00Z</time>
      </trkpt>
      <trkpt lat="50.51428" lon="2.5913">
        <ele>24</ele>
        <time>2012-01-29T09:44:02Z</time>
      </trkpt>
      <trkpt lat="50.51418" lon="2.59109">
        <ele>24</ele>
        <time>2012-01-29T09:44:04Z</time>
      </trkpt>
      <trkpt lat="50.5141" lon="2.59088">
        <ele>24</ele>
        <time>2012-01-29T09:44:06Z</time>
      </trkpt>
      <trkpt lat="50.51403" lon="2.59066">
        <ele>24</ele>
        <time>2012-01-29T09:44:08Z</time>
      </trkpt>
      <trkpt lat="50.51395" lon="2.59045">
        <ele>24</ele>
        <time>2012-01-29T09:44:10Z</time>
      </trkpt>
      <trkpt lat="50.51387" lon="2.59025">
        <ele>30</ele>
        <time>2012-01-29T09:44:12Z</time>
      </trkpt>
      <trkpt lat="50.51378" lon="2.59008">
        <ele>30</ele>
        <time>2012-01-29T09:44:14Z</time>
      </trkpt>
      <trkpt lat="50.51365" lon="2.58995">
        <ele>30</ele>
        <time>2012-01-29T09:44:16Z</time>
      </trkpt>
      <trkpt lat="50.51351" lon="2.58985">
        <ele>30</ele>
        <time>2012-01-29T09:44:18Z</time>
      </trkpt>
      <trkpt lat="50.51336" lon="2.58977">
        <ele>30</ele>
        <time>2012-01-29T09:44:20Z</time>
      </trkpt>
      <trkpt lat="50.5132" lon="2.58969">
        <ele>30</ele>
        <time>2012-01-29T09:44:22Z</time>
      </trkpt>
      <trkpt lat="50.51303" lon="2.58959">
        <ele>30</ele>
        <time>2012-01-29T09:44:24Z</time>
      </trkpt>
      <trkpt lat="50.51288" lon="2.58947">
        <ele>30</ele>
        <time>2012-01-29T09:44:26Z</time>
      </trkpt>
      <trkpt lat="50.5128" lon="2.58939">
        <ele>30</ele>
        <time>2012-01-29T09:44:27Z</time>
      </trkpt>
      <trkpt lat="50.51273" lon="2.5893">
        <ele>30</ele>
        <time>2012-01-29T09:44:28Z</time>
      </trkpt>
      <trkpt lat="50.51259" lon="2.58913">
        <ele>30</ele>
        <time>2012-01-29T09:44:30Z</time>
      </trkpt>
      <trkpt lat="50.51253" lon="2.58903">
        <ele>30</ele>
        <time>2012-01-29T09:44:31Z</time>
      </trkpt>
      <trkpt lat="50.51247" lon="2.58894">
        <ele>30</ele>
        <time>2012-01-29T09:44:32Z</time>
      </trkpt>
      <trkpt lat="50.51241" lon="2.58883">
        <ele>30</ele>
        <time>2012-01-29T09:44:33Z</time>
      </trkpt>
      <trkpt lat="50.51231" lon="2.58861">
        <ele>30</ele>
        <time>2012-01-29T09:44:35Z</time>
      </trkpt>
      <trkpt lat="50.51224" lon="2.58836">
        <ele>30</ele>
        <time>2012-01-29T09:44:37Z</time>
      </trkpt>
      <trkpt lat="50.51221" lon="2.58812">
        <ele>30</ele>
        <time>2012-01-29T09:44:39Z</time>
      </trkpt>
      <trkpt lat="50.5122" lon="2.58787">
        <ele>30</ele>
        <time>2012-01-29T09:44:41Z</time>
      </trkpt>
      <trkpt lat="50.51218" lon="2.58762">
        <ele>30</ele>
        <time>2012-01-29T09:44:43Z</time>
      </trkpt>
      <trkpt lat="50.51216" lon="2.58739">
        <ele>30</ele>
        <time>2012-01-29T09:44:45Z</time>
      </trkpt>
      <trkpt lat="50.51213" lon="2.58718">
        <ele>30</ele>
        <time>2012-01-29T09:44:47Z</time>
      </trkpt>
      <trkpt lat="50.51208" lon="2.58696">
        <ele>30</ele>
        <time>2012-01-29T09:44:49Z</time>
      </trkpt>
      <trkpt lat="50.51202" lon="2.58677">
        <ele>30</ele>
        <time>2012-01-29T09:44:51Z</time>
      </trkpt>
      <trkpt lat="50.51194" lon="2.58659">
        <ele>30</ele>
        <time>2012-01-29T09:44:53Z</time>
      </trkpt>
      <trkpt lat="50.51186" lon="2.58642">
        <ele>30</ele>
        <time>2012-01-29T09:44:55Z</time>
      </trkpt>
      <trkpt lat="50.51178" lon="2.58625">
        <ele>30</ele>
        <time>2012-01-29T09:44:57Z</time>
      </trkpt>
      <trkpt lat="50.51168" lon="2.58609">
        <ele>30</ele>
        <time>2012-01-29T09:44:59Z</time>
      </trkpt>
      <trkpt lat="50.51155" lon="2.58597">
        <ele>30</ele>
        <time>2012-01-29T09:45:01Z</time>
      </trkpt>
      <trkpt lat="50.51141" lon="2.58594">
        <ele>30</ele>
        <time>2012-01-29T09:45:03Z</time>
      </trkpt>
      <trkpt lat="50.51129" lon="2.58604">
        <ele>30</ele>
        <time>2012-01-29T09:45:05Z</time>
      </trkpt>
      <trkpt lat="50.51115" lon="2.58614">
        <ele>30</ele>
        <time>2012-01-29T09:45:07Z</time>
      </trkpt>
      <trkpt lat="50.51103" lon="2.5861">
        <ele>25</ele>
        <time>2012-01-29T09:45:09Z</time>
      </trkpt>
      <trkpt lat="50.51095" lon="2.58593">
        <ele>25</ele>
        <time>2012-01-29T09:45:11Z</time>
      </trkpt>
      <trkpt lat="50.51087" lon="2.58575">
        <ele>25</ele>
        <time>2012-01-29T09:45:13Z</time>
      </trkpt>
      <trkpt lat="50.51079" lon="2.58556">
        <ele>25</ele>
        <time>2012-01-29T09:45:15Z</time>
      </trkpt>
      <trkpt lat="50.5107" lon="2.58538">
        <ele>25</ele>
        <time>2012-01-29T09:45:17Z</time>
      </trkpt>
      <trkpt lat="50.51061" lon="2.58519">
        <ele>25</ele>
        <time>2012-01-29T09:45:19Z</time>
      </trkpt>
      <trkpt lat="50.51051" lon="2.58502">
        <ele>25</ele>
        <time>2012-01-29T09:45:21Z</time>
      </trkpt>
      <trkpt lat="50.51041" lon="2.58487">
        <ele>25</ele>
        <time>2012-01-29T09:45:23Z</time>
      </trkpt>
      <trkpt lat="50.51031" lon="2.58471">
        <ele>25</ele>
        <time>2012-01-29T09:45:25Z</time>
      </trkpt>
      <trkpt lat="50.51021" lon="2.58457">
        <ele>25</ele>
        <time>2012-01-29T09:45:27Z</time>
      </trkpt>
      <trkpt lat="50.51012" lon="2.58443">
        <ele>25</ele>
        <time>2012-01-29T09:45:29Z</time>
      </trkpt>
      <trkpt lat="50.51003" lon="2.58429">
        <ele>25</ele>
        <time>2012-01-29T09:45:31Z</time>
      </trkpt>
      <trkpt lat="50.50995" lon="2.58415">
        <ele>25</ele>
        <time>2012-01-29T09:45:33Z</time>
      </trkpt>
      <trkpt lat="50.50985" lon="2.58403">
        <ele>25</ele>
        <time>2012-01-29T09:45:35Z</time>
      </trkpt>
      <trkpt lat="50.50976" lon="2.5839">
        <ele>25</ele>
        <time>2012-01-29T09:45:37Z</time>
      </trkpt>
      <trkpt lat="50.50966" lon="2.58377">
        <ele>25</ele>
        <time>2012-01-29T09:45:39Z</time>
      </trkpt>
      <trkpt lat="50.50955" lon="2.58363">
        <ele>25</ele>
        <time>2012-01-29T09:45:41Z</time>
      </trkpt>
      <trkpt lat="50.50945" lon="2.5835">
        <ele>25</ele>
        <time>2012-01-29T09:45:43Z</time>
      </trkpt>
      <trkpt lat="50.50933" lon="2.58338">
        <ele>25</ele>
        <time>2012-01-29T09:45:45Z</time>
      </trkpt>
      <trkpt lat="50.50921" lon="2.58333">
        <ele>25</ele>
        <time>2012-01-29T09:45:47Z</time>
      </trkpt>
      <trkpt lat="50.50907" lon="2.58336">
        <ele>25</ele>
        <time>2012-01-29T09:45:49Z</time>
      </trkpt>
      <trkpt lat="50.50895" lon="2.58346">
        <ele>25</ele>
        <time>2012-01-29T09:45:51Z</time>
      </trkpt>
      <trkpt lat="50.50884" lon="2.58362">
        <ele>25</ele>
        <time>2012-01-29T09:45:53Z</time>
      </trkpt>
      <trkpt lat="50.50874" lon="2.58379">
        <ele>25</ele>
        <time>2012-01-29T09:45:55Z</time>
      </trkpt>
      <trkpt lat="50.50864" lon="2.58398">
        <ele>25</ele>
        <time>2012-01-29T09:45:57Z</time>
      </trkpt>
      <trkpt lat="50.50857" lon="2.58418">
        <ele>25</ele>
        <time>2012-01-29T09:45:59Z</time>
      </trkpt>
      <trkpt lat="50.50851" lon="2.58436">
        <ele>25</ele>
        <time>2012-01-29T09:46:01Z</time>
      </trkpt>
      <trkpt lat="50.50843" lon="2.58453">
        <ele>25</ele>
        <time>2012-01-29T09:46:03Z</time>
      </trkpt>
      <trkpt lat="50.50835" lon="2.58468">
        <ele>25</ele>
        <time>2012-01-29T09:46:05Z</time>
      </trkpt>
      <trkpt lat="50.50827" lon="2.58479">
        <ele>25</ele>
        <time>2012-01-29T09:46:07Z</time>
      </trkpt>
      <trkpt lat="50.50819" lon="2.58492">
        <ele>25</ele>
        <time>2012-01-29T09:46:09Z</time>
      </trkpt>
      <trkpt lat="50.50811" lon="2.58505">
        <ele>25</ele>
        <time>2012-01-29T09:46:11Z</time>
      </trkpt>
      <trkpt lat="50.50803" lon="2.58515">
        <ele>25</ele>
        <time>2012-01-29T09:46:13Z</time>
      </trkpt>
      <trkpt lat="50.50794" lon="2.58526">
        <ele>25</ele>
        <time>2012-01-29T09:46:15Z</time>
      </trkpt>
      <trkpt lat="50.50785" lon="2.58538">
        <ele>25</ele>
        <time>2012-01-29T09:46:17Z</time>
      </trkpt>
      <trkpt lat="50.50777" lon="2.58548">
        <ele>25</ele>
        <time>2012-01-29T09:46:19Z</time>
      </trkpt>
      <trkpt lat="50.5077" lon="2.58559">
        <ele>25</ele>
        <time>2012-01-29T09:46:21Z</time>
      </trkpt>
      <trkpt lat="50.50764" lon="2.58569">
        <ele>25</ele>
        <time>2012-01-29T09:46:23Z</time>
      </trkpt>
      <trkpt lat="50.50756" lon="2.58585">
        <ele>25</ele>
        <time>2012-01-29T09:46:26Z</time>
      </trkpt>
      <trkpt lat="50.50758" lon="2.58601">
        <ele>25</ele>
        <time>2012-01-29T09:46:30Z</time>
      </trkpt>
      <trkpt lat="50.50764" lon="2.58612">
        <ele>25</ele>
        <time>2012-01-29T09:46:36Z</time>
      </trkpt>
    </trkseg>
  </trk>
</gpx>